<?xml version="1.0" encoding="UTF-8" standalone="no" ?>
<gpx xmlns="http://www.topografix.com/GPX/1/1" xmlns:xsi="http://www.w3.org/2001/XMLSchema-instance" xsi:schemaLocation="http://www.topografix.com/GPX/1/1 http://www.topografix.com/GPX/1/1/gpx.xsd" version="1.1" creator="VisuGPX - https://www.visugpx.com">
  <metadata>
    <name>Balkans j6</name>
    <desc><![CDATA[File with points/tracks from Locus Map/3.37.2]]></desc>
  </metadata>
  <trk>
    <name><![CDATA[2022-05-23 j6]]></name>
    <trkseg>
      <trkpt lat="45.27053" lon="16.9086">
        <ele>108.5</ele>
        <time>2022-05-23T06:30:33.000Z</time>
      </trkpt>
      <trkpt lat="45.27062" lon="16.90855">
        <ele>101.9</ele>
        <time>2022-05-23T06:30:50.000Z</time>
      </trkpt>
      <trkpt lat="45.27074" lon="16.90851">
        <ele>96.45</ele>
        <time>2022-05-23T06:31:17.000Z</time>
      </trkpt>
      <trkpt lat="45.27065" lon="16.90848">
        <ele>92.76</ele>
        <time>2022-05-23T06:32:24.000Z</time>
      </trkpt>
      <trkpt lat="45.27063" lon="16.90836">
        <ele>93.19</ele>
        <time>2022-05-23T06:32:37.000Z</time>
      </trkpt>
      <trkpt lat="45.27053" lon="16.90832">
        <ele>93.6</ele>
        <time>2022-05-23T06:33:19.000Z</time>
      </trkpt>
      <trkpt lat="45.27037" lon="16.90839">
        <ele>93.53</ele>
        <time>2022-05-23T06:33:24.000Z</time>
      </trkpt>
      <trkpt lat="45.27014" lon="16.90844">
        <ele>93.58</ele>
        <time>2022-05-23T06:33:29.000Z</time>
      </trkpt>
      <trkpt lat="45.26995" lon="16.90853">
        <ele>93.61</ele>
        <time>2022-05-23T06:33:34.000Z</time>
      </trkpt>
      <trkpt lat="45.2698" lon="16.90871">
        <ele>93.8</ele>
        <time>2022-05-23T06:33:39.000Z</time>
      </trkpt>
      <trkpt lat="45.26973" lon="16.90888">
        <ele>92.74</ele>
        <time>2022-05-23T06:33:44.000Z</time>
      </trkpt>
      <trkpt lat="45.26966" lon="16.90903">
        <ele>92.51</ele>
        <time>2022-05-23T06:33:49.000Z</time>
      </trkpt>
      <trkpt lat="45.26958" lon="16.90921">
        <ele>91.93</ele>
        <time>2022-05-23T06:33:54.000Z</time>
      </trkpt>
      <trkpt lat="45.26948" lon="16.9094">
        <ele>90.71</ele>
        <time>2022-05-23T06:33:59.000Z</time>
      </trkpt>
      <trkpt lat="45.2694" lon="16.90961">
        <ele>89.77</ele>
        <time>2022-05-23T06:34:04.000Z</time>
      </trkpt>
      <trkpt lat="45.26934" lon="16.90978">
        <ele>88.71</ele>
        <time>2022-05-23T06:34:09.000Z</time>
      </trkpt>
      <trkpt lat="45.26929" lon="16.90989">
        <ele>86.38</ele>
        <time>2022-05-23T06:34:14.000Z</time>
      </trkpt>
      <trkpt lat="45.26938" lon="16.91004">
        <ele>85.43</ele>
        <time>2022-05-23T06:34:19.000Z</time>
      </trkpt>
      <trkpt lat="45.26958" lon="16.91019">
        <ele>85.03</ele>
        <time>2022-05-23T06:34:24.000Z</time>
      </trkpt>
      <trkpt lat="45.26977" lon="16.91035">
        <ele>84.93</ele>
        <time>2022-05-23T06:34:29.000Z</time>
      </trkpt>
      <trkpt lat="45.26998" lon="16.91057">
        <ele>84.12</ele>
        <time>2022-05-23T06:34:34.000Z</time>
      </trkpt>
      <trkpt lat="45.27015" lon="16.91075">
        <ele>83.54</ele>
        <time>2022-05-23T06:34:39.000Z</time>
      </trkpt>
      <trkpt lat="45.27036" lon="16.91094">
        <ele>83.77</ele>
        <time>2022-05-23T06:34:44.000Z</time>
      </trkpt>
      <trkpt lat="45.27057" lon="16.91114">
        <ele>96.36</ele>
        <time>2022-05-23T06:34:49.000Z</time>
      </trkpt>
      <trkpt lat="45.2708" lon="16.91132">
        <ele>96.12</ele>
        <time>2022-05-23T06:34:54.000Z</time>
      </trkpt>
      <trkpt lat="45.27085" lon="16.91143">
        <ele>93.19</ele>
        <time>2022-05-23T06:35:00.000Z</time>
      </trkpt>
      <trkpt lat="45.2708" lon="16.91154">
        <ele>93.23</ele>
        <time>2022-05-23T06:35:07.000Z</time>
      </trkpt>
      <trkpt lat="45.27076" lon="16.91167">
        <ele>92.23</ele>
        <time>2022-05-23T06:35:19.000Z</time>
      </trkpt>
      <trkpt lat="45.27069" lon="16.91182">
        <ele>91.92</ele>
        <time>2022-05-23T06:35:24.000Z</time>
      </trkpt>
      <trkpt lat="45.27059" lon="16.91202">
        <ele>90.24</ele>
        <time>2022-05-23T06:35:29.000Z</time>
      </trkpt>
      <trkpt lat="45.27047" lon="16.91225">
        <ele>89.99</ele>
        <time>2022-05-23T06:35:34.000Z</time>
      </trkpt>
      <trkpt lat="45.27036" lon="16.91247">
        <ele>90.47</ele>
        <time>2022-05-23T06:35:39.000Z</time>
      </trkpt>
      <trkpt lat="45.27025" lon="16.91269">
        <ele>91.1</ele>
        <time>2022-05-23T06:35:44.000Z</time>
      </trkpt>
      <trkpt lat="45.27015" lon="16.91288">
        <ele>91.35</ele>
        <time>2022-05-23T06:35:49.000Z</time>
      </trkpt>
      <trkpt lat="45.27006" lon="16.91308">
        <ele>92.24</ele>
        <time>2022-05-23T06:35:54.000Z</time>
      </trkpt>
      <trkpt lat="45.26995" lon="16.91323">
        <ele>94.74</ele>
        <time>2022-05-23T06:35:59.000Z</time>
      </trkpt>
      <trkpt lat="45.26984" lon="16.91338">
        <ele>98.4</ele>
        <time>2022-05-23T06:36:04.000Z</time>
      </trkpt>
      <trkpt lat="45.26975" lon="16.91357">
        <ele>101.5</ele>
        <time>2022-05-23T06:36:09.000Z</time>
      </trkpt>
      <trkpt lat="45.26964" lon="16.91375">
        <ele>105.4</ele>
        <time>2022-05-23T06:36:14.000Z</time>
      </trkpt>
      <trkpt lat="45.26954" lon="16.91392">
        <ele>107.74</ele>
        <time>2022-05-23T06:36:19.000Z</time>
      </trkpt>
      <trkpt lat="45.26944" lon="16.91406">
        <ele>109.78</ele>
        <time>2022-05-23T06:36:24.000Z</time>
      </trkpt>
      <trkpt lat="45.26935" lon="16.91424">
        <ele>111.11</ele>
        <time>2022-05-23T06:36:29.000Z</time>
      </trkpt>
      <trkpt lat="45.26927" lon="16.91443">
        <ele>112.57</ele>
        <time>2022-05-23T06:36:34.000Z</time>
      </trkpt>
      <trkpt lat="45.26918" lon="16.91462">
        <ele>113.64</ele>
        <time>2022-05-23T06:36:39.000Z</time>
      </trkpt>
      <trkpt lat="45.26908" lon="16.91481">
        <ele>115.04</ele>
        <time>2022-05-23T06:36:44.000Z</time>
      </trkpt>
      <trkpt lat="45.26899" lon="16.915">
        <ele>116.77</ele>
        <time>2022-05-23T06:36:49.000Z</time>
      </trkpt>
      <trkpt lat="45.2689" lon="16.91518">
        <ele>117.2</ele>
        <time>2022-05-23T06:36:54.000Z</time>
      </trkpt>
      <trkpt lat="45.26882" lon="16.91535">
        <ele>116.44</ele>
        <time>2022-05-23T06:36:59.000Z</time>
      </trkpt>
      <trkpt lat="45.26871" lon="16.91554">
        <ele>115.4</ele>
        <time>2022-05-23T06:37:04.000Z</time>
      </trkpt>
      <trkpt lat="45.26859" lon="16.91574">
        <ele>115.42</ele>
        <time>2022-05-23T06:37:09.000Z</time>
      </trkpt>
      <trkpt lat="45.26846" lon="16.91597">
        <ele>114.87</ele>
        <time>2022-05-23T06:37:14.000Z</time>
      </trkpt>
      <trkpt lat="45.26835" lon="16.9162">
        <ele>114.2</ele>
        <time>2022-05-23T06:37:19.000Z</time>
      </trkpt>
      <trkpt lat="45.26824" lon="16.91642">
        <ele>112.79</ele>
        <time>2022-05-23T06:37:24.000Z</time>
      </trkpt>
      <trkpt lat="45.26813" lon="16.9166">
        <ele>111.75</ele>
        <time>2022-05-23T06:37:29.000Z</time>
      </trkpt>
      <trkpt lat="45.26805" lon="16.91681">
        <ele>111.05</ele>
        <time>2022-05-23T06:37:34.000Z</time>
      </trkpt>
      <trkpt lat="45.26802" lon="16.91694">
        <ele>111.14</ele>
        <time>2022-05-23T06:37:53.000Z</time>
      </trkpt>
      <trkpt lat="45.26797" lon="16.91705">
        <ele>111.05</ele>
        <time>2022-05-23T06:37:59.000Z</time>
      </trkpt>
      <trkpt lat="45.26799" lon="16.91733">
        <ele>111.47</ele>
        <time>2022-05-23T06:38:04.000Z</time>
      </trkpt>
      <trkpt lat="45.26801" lon="16.91765">
        <ele>111.36</ele>
        <time>2022-05-23T06:38:09.000Z</time>
      </trkpt>
      <trkpt lat="45.26804" lon="16.918">
        <ele>111.67</ele>
        <time>2022-05-23T06:38:14.000Z</time>
      </trkpt>
      <trkpt lat="45.26806" lon="16.91834">
        <ele>112.5</ele>
        <time>2022-05-23T06:38:19.000Z</time>
      </trkpt>
      <trkpt lat="45.26808" lon="16.91868">
        <ele>111.75</ele>
        <time>2022-05-23T06:38:24.000Z</time>
      </trkpt>
      <trkpt lat="45.2681" lon="16.91901">
        <ele>110.98</ele>
        <time>2022-05-23T06:38:29.000Z</time>
      </trkpt>
      <trkpt lat="45.26812" lon="16.91939">
        <ele>111.58</ele>
        <time>2022-05-23T06:38:34.000Z</time>
      </trkpt>
      <trkpt lat="45.26811" lon="16.91974">
        <ele>113.41</ele>
        <time>2022-05-23T06:38:39.000Z</time>
      </trkpt>
      <trkpt lat="45.26812" lon="16.92006">
        <ele>113.13</ele>
        <time>2022-05-23T06:38:44.000Z</time>
      </trkpt>
      <trkpt lat="45.2681" lon="16.92039">
        <ele>108.9</ele>
        <time>2022-05-23T06:38:49.000Z</time>
      </trkpt>
      <trkpt lat="45.26799" lon="16.92075">
        <ele>107.22</ele>
        <time>2022-05-23T06:38:54.000Z</time>
      </trkpt>
      <trkpt lat="45.26778" lon="16.92106">
        <ele>108.51</ele>
        <time>2022-05-23T06:38:59.000Z</time>
      </trkpt>
      <trkpt lat="45.26751" lon="16.92117">
        <ele>108.55</ele>
        <time>2022-05-23T06:39:04.000Z</time>
      </trkpt>
      <trkpt lat="45.26722" lon="16.92113">
        <ele>106.71</ele>
        <time>2022-05-23T06:39:09.000Z</time>
      </trkpt>
      <trkpt lat="45.26697" lon="16.92093">
        <ele>103.66</ele>
        <time>2022-05-23T06:39:14.000Z</time>
      </trkpt>
      <trkpt lat="45.26678" lon="16.92068">
        <ele>100.35</ele>
        <time>2022-05-23T06:39:19.000Z</time>
      </trkpt>
      <trkpt lat="45.26664" lon="16.92043">
        <ele>97.02</ele>
        <time>2022-05-23T06:39:24.000Z</time>
      </trkpt>
      <trkpt lat="45.26651" lon="16.92015">
        <ele>95.11</ele>
        <time>2022-05-23T06:39:29.000Z</time>
      </trkpt>
      <trkpt lat="45.26641" lon="16.91986">
        <ele>93.22</ele>
        <time>2022-05-23T06:39:34.000Z</time>
      </trkpt>
      <trkpt lat="45.26635" lon="16.91959">
        <ele>91.79</ele>
        <time>2022-05-23T06:39:39.000Z</time>
      </trkpt>
      <trkpt lat="45.26624" lon="16.91936">
        <ele>89.76</ele>
        <time>2022-05-23T06:39:44.000Z</time>
      </trkpt>
      <trkpt lat="45.26603" lon="16.91922">
        <ele>88.15</ele>
        <time>2022-05-23T06:39:49.000Z</time>
      </trkpt>
      <trkpt lat="45.26584" lon="16.9191">
        <ele>87.94</ele>
        <time>2022-05-23T06:39:54.000Z</time>
      </trkpt>
      <trkpt lat="45.26569" lon="16.91903">
        <ele>88.56</ele>
        <time>2022-05-23T06:39:59.000Z</time>
      </trkpt>
      <trkpt lat="45.26559" lon="16.91895">
        <ele>88.3</ele>
        <time>2022-05-23T06:40:04.000Z</time>
      </trkpt>
      <trkpt lat="45.26552" lon="16.91882">
        <ele>87.65</ele>
        <time>2022-05-23T06:41:00.000Z</time>
      </trkpt>
      <trkpt lat="45.26543" lon="16.9188">
        <ele>87.87</ele>
        <time>2022-05-23T06:41:09.000Z</time>
      </trkpt>
      <trkpt lat="45.26534" lon="16.91879">
        <ele>87.99</ele>
        <time>2022-05-23T06:41:24.000Z</time>
      </trkpt>
      <trkpt lat="45.26529" lon="16.91867">
        <ele>87.13</ele>
        <time>2022-05-23T06:41:49.000Z</time>
      </trkpt>
      <trkpt lat="45.26529" lon="16.91849">
        <ele>85.78</ele>
        <time>2022-05-23T06:42:49.000Z</time>
      </trkpt>
      <trkpt lat="45.2652" lon="16.91847">
        <ele>84.83</ele>
        <time>2022-05-23T06:43:01.000Z</time>
      </trkpt>
      <trkpt lat="45.2653" lon="16.91857">
        <ele>86.45</ele>
        <time>2022-05-23T06:43:41.000Z</time>
      </trkpt>
      <trkpt lat="45.2653" lon="16.91844">
        <ele>89.28</ele>
        <time>2022-05-23T06:45:32.000Z</time>
      </trkpt>
      <trkpt lat="45.26527" lon="16.91857">
        <ele>89.15</ele>
        <time>2022-05-23T06:45:49.000Z</time>
      </trkpt>
      <trkpt lat="45.26521" lon="16.91868">
        <ele>89.74</ele>
        <time>2022-05-23T06:45:55.000Z</time>
      </trkpt>
      <trkpt lat="45.26514" lon="16.91859">
        <ele>88.2</ele>
        <time>2022-05-23T06:47:02.000Z</time>
      </trkpt>
      <trkpt lat="45.26493" lon="16.91844">
        <ele>89.07</ele>
        <time>2022-05-23T06:47:07.000Z</time>
      </trkpt>
      <trkpt lat="45.26473" lon="16.9183">
        <ele>90.82</ele>
        <time>2022-05-23T06:47:12.000Z</time>
      </trkpt>
      <trkpt lat="45.26454" lon="16.91815">
        <ele>91.73</ele>
        <time>2022-05-23T06:47:17.000Z</time>
      </trkpt>
      <trkpt lat="45.26434" lon="16.91802">
        <ele>92.5</ele>
        <time>2022-05-23T06:47:22.000Z</time>
      </trkpt>
      <trkpt lat="45.26411" lon="16.91805">
        <ele>94.35</ele>
        <time>2022-05-23T06:47:27.000Z</time>
      </trkpt>
      <trkpt lat="45.26392" lon="16.91812">
        <ele>96.66</ele>
        <time>2022-05-23T06:47:32.000Z</time>
      </trkpt>
      <trkpt lat="45.26375" lon="16.91804">
        <ele>98.13</ele>
        <time>2022-05-23T06:47:37.000Z</time>
      </trkpt>
      <trkpt lat="45.26363" lon="16.91798">
        <ele>98.93</ele>
        <time>2022-05-23T06:47:42.000Z</time>
      </trkpt>
      <trkpt lat="45.26349" lon="16.91792">
        <ele>99.44</ele>
        <time>2022-05-23T06:47:47.000Z</time>
      </trkpt>
      <trkpt lat="45.26334" lon="16.91788">
        <ele>100.99</ele>
        <time>2022-05-23T06:47:52.000Z</time>
      </trkpt>
      <trkpt lat="45.26319" lon="16.91784">
        <ele>102.11</ele>
        <time>2022-05-23T06:47:57.000Z</time>
      </trkpt>
      <trkpt lat="45.26308" lon="16.91778">
        <ele>105.67</ele>
        <time>2022-05-23T06:48:32.000Z</time>
      </trkpt>
      <trkpt lat="45.26291" lon="16.91769">
        <ele>105.84</ele>
        <time>2022-05-23T06:48:37.000Z</time>
      </trkpt>
      <trkpt lat="45.2627" lon="16.91761">
        <ele>105.61</ele>
        <time>2022-05-23T06:48:42.000Z</time>
      </trkpt>
      <trkpt lat="45.26246" lon="16.91753">
        <ele>104.82</ele>
        <time>2022-05-23T06:48:47.000Z</time>
      </trkpt>
      <trkpt lat="45.2622" lon="16.91744">
        <ele>103.81</ele>
        <time>2022-05-23T06:48:52.000Z</time>
      </trkpt>
      <trkpt lat="45.26195" lon="16.91733">
        <ele>102.66</ele>
        <time>2022-05-23T06:48:57.000Z</time>
      </trkpt>
      <trkpt lat="45.26169" lon="16.91724">
        <ele>101.07</ele>
        <time>2022-05-23T06:49:02.000Z</time>
      </trkpt>
      <trkpt lat="45.26142" lon="16.91714">
        <ele>99.97</ele>
        <time>2022-05-23T06:49:07.000Z</time>
      </trkpt>
      <trkpt lat="45.26115" lon="16.91702">
        <ele>98.27</ele>
        <time>2022-05-23T06:49:12.000Z</time>
      </trkpt>
      <trkpt lat="45.26088" lon="16.91693">
        <ele>95.95</ele>
        <time>2022-05-23T06:49:17.000Z</time>
      </trkpt>
      <trkpt lat="45.26061" lon="16.91682">
        <ele>95.15</ele>
        <time>2022-05-23T06:49:22.000Z</time>
      </trkpt>
      <trkpt lat="45.26034" lon="16.91672">
        <ele>93.88</ele>
        <time>2022-05-23T06:49:27.000Z</time>
      </trkpt>
      <trkpt lat="45.26007" lon="16.91663">
        <ele>93.8</ele>
        <time>2022-05-23T06:49:32.000Z</time>
      </trkpt>
      <trkpt lat="45.25979" lon="16.91653">
        <ele>93.35</ele>
        <time>2022-05-23T06:49:37.000Z</time>
      </trkpt>
      <trkpt lat="45.2595" lon="16.91643">
        <ele>93.17</ele>
        <time>2022-05-23T06:49:42.000Z</time>
      </trkpt>
      <trkpt lat="45.25922" lon="16.91632">
        <ele>92.4</ele>
        <time>2022-05-23T06:49:47.000Z</time>
      </trkpt>
      <trkpt lat="45.25895" lon="16.91622">
        <ele>92.86</ele>
        <time>2022-05-23T06:49:52.000Z</time>
      </trkpt>
      <trkpt lat="45.25867" lon="16.91612">
        <ele>92.55</ele>
        <time>2022-05-23T06:49:57.000Z</time>
      </trkpt>
      <trkpt lat="45.2584" lon="16.91602">
        <ele>92.51</ele>
        <time>2022-05-23T06:50:02.000Z</time>
      </trkpt>
      <trkpt lat="45.25812" lon="16.91592">
        <ele>92.45</ele>
        <time>2022-05-23T06:50:07.000Z</time>
      </trkpt>
      <trkpt lat="45.25786" lon="16.91582">
        <ele>92.7</ele>
        <time>2022-05-23T06:50:12.000Z</time>
      </trkpt>
      <trkpt lat="45.2576" lon="16.91571">
        <ele>92.73</ele>
        <time>2022-05-23T06:50:17.000Z</time>
      </trkpt>
      <trkpt lat="45.25733" lon="16.91561">
        <ele>92.31</ele>
        <time>2022-05-23T06:50:22.000Z</time>
      </trkpt>
      <trkpt lat="45.25705" lon="16.91552">
        <ele>90.95</ele>
        <time>2022-05-23T06:50:27.000Z</time>
      </trkpt>
      <trkpt lat="45.25677" lon="16.91542">
        <ele>91.25</ele>
        <time>2022-05-23T06:50:32.000Z</time>
      </trkpt>
      <trkpt lat="45.25651" lon="16.91533">
        <ele>91.6</ele>
        <time>2022-05-23T06:50:37.000Z</time>
      </trkpt>
      <trkpt lat="45.25623" lon="16.91523">
        <ele>92.36</ele>
        <time>2022-05-23T06:50:42.000Z</time>
      </trkpt>
      <trkpt lat="45.25597" lon="16.91511">
        <ele>92.96</ele>
        <time>2022-05-23T06:50:47.000Z</time>
      </trkpt>
      <trkpt lat="45.25568" lon="16.915">
        <ele>92.28</ele>
        <time>2022-05-23T06:50:52.000Z</time>
      </trkpt>
      <trkpt lat="45.25541" lon="16.91491">
        <ele>91.5</ele>
        <time>2022-05-23T06:50:57.000Z</time>
      </trkpt>
      <trkpt lat="45.25514" lon="16.91482">
        <ele>90.9</ele>
        <time>2022-05-23T06:51:02.000Z</time>
      </trkpt>
      <trkpt lat="45.2549" lon="16.91474">
        <ele>88.94</ele>
        <time>2022-05-23T06:51:07.000Z</time>
      </trkpt>
      <trkpt lat="45.25464" lon="16.91465">
        <ele>87.98</ele>
        <time>2022-05-23T06:51:12.000Z</time>
      </trkpt>
      <trkpt lat="45.25437" lon="16.91454">
        <ele>88.28</ele>
        <time>2022-05-23T06:51:17.000Z</time>
      </trkpt>
      <trkpt lat="45.25411" lon="16.91439">
        <ele>88.45</ele>
        <time>2022-05-23T06:51:22.000Z</time>
      </trkpt>
      <trkpt lat="45.25384" lon="16.91421">
        <ele>89.36</ele>
        <time>2022-05-23T06:51:27.000Z</time>
      </trkpt>
      <trkpt lat="45.25358" lon="16.914">
        <ele>91.29</ele>
        <time>2022-05-23T06:51:32.000Z</time>
      </trkpt>
      <trkpt lat="45.25332" lon="16.91381">
        <ele>92.96</ele>
        <time>2022-05-23T06:51:37.000Z</time>
      </trkpt>
      <trkpt lat="45.25306" lon="16.91362">
        <ele>94.23</ele>
        <time>2022-05-23T06:51:42.000Z</time>
      </trkpt>
      <trkpt lat="45.2528" lon="16.9134">
        <ele>95.3</ele>
        <time>2022-05-23T06:51:47.000Z</time>
      </trkpt>
      <trkpt lat="45.25254" lon="16.91318">
        <ele>96.24</ele>
        <time>2022-05-23T06:51:52.000Z</time>
      </trkpt>
      <trkpt lat="45.25229" lon="16.91297">
        <ele>96.37</ele>
        <time>2022-05-23T06:51:57.000Z</time>
      </trkpt>
      <trkpt lat="45.25204" lon="16.91276">
        <ele>96.18</ele>
        <time>2022-05-23T06:52:02.000Z</time>
      </trkpt>
      <trkpt lat="45.25178" lon="16.91256">
        <ele>97.11</ele>
        <time>2022-05-23T06:52:07.000Z</time>
      </trkpt>
      <trkpt lat="45.25151" lon="16.91234">
        <ele>98.56</ele>
        <time>2022-05-23T06:52:12.000Z</time>
      </trkpt>
      <trkpt lat="45.25125" lon="16.91211">
        <ele>100.04</ele>
        <time>2022-05-23T06:52:17.000Z</time>
      </trkpt>
      <trkpt lat="45.251" lon="16.91188">
        <ele>100.69</ele>
        <time>2022-05-23T06:52:22.000Z</time>
      </trkpt>
      <trkpt lat="45.25076" lon="16.91165">
        <ele>101.11</ele>
        <time>2022-05-23T06:52:27.000Z</time>
      </trkpt>
      <trkpt lat="45.25048" lon="16.91142">
        <ele>101.16</ele>
        <time>2022-05-23T06:52:32.000Z</time>
      </trkpt>
      <trkpt lat="45.25023" lon="16.91121">
        <ele>99.64</ele>
        <time>2022-05-23T06:52:37.000Z</time>
      </trkpt>
      <trkpt lat="45.24996" lon="16.91102">
        <ele>98.76</ele>
        <time>2022-05-23T06:52:42.000Z</time>
      </trkpt>
      <trkpt lat="45.24971" lon="16.91082">
        <ele>99.06</ele>
        <time>2022-05-23T06:52:47.000Z</time>
      </trkpt>
      <trkpt lat="45.24945" lon="16.91061">
        <ele>99.57</ele>
        <time>2022-05-23T06:52:52.000Z</time>
      </trkpt>
      <trkpt lat="45.24921" lon="16.91042">
        <ele>100.46</ele>
        <time>2022-05-23T06:52:57.000Z</time>
      </trkpt>
      <trkpt lat="45.24898" lon="16.91025">
        <ele>101.46</ele>
        <time>2022-05-23T06:53:02.000Z</time>
      </trkpt>
      <trkpt lat="45.24875" lon="16.91006">
        <ele>102.24</ele>
        <time>2022-05-23T06:53:07.000Z</time>
      </trkpt>
      <trkpt lat="45.24851" lon="16.90985">
        <ele>102.18</ele>
        <time>2022-05-23T06:53:12.000Z</time>
      </trkpt>
      <trkpt lat="45.24827" lon="16.90965">
        <ele>103.03</ele>
        <time>2022-05-23T06:53:17.000Z</time>
      </trkpt>
      <trkpt lat="45.24805" lon="16.90945">
        <ele>103.23</ele>
        <time>2022-05-23T06:53:22.000Z</time>
      </trkpt>
      <trkpt lat="45.24781" lon="16.90925">
        <ele>102.72</ele>
        <time>2022-05-23T06:53:27.000Z</time>
      </trkpt>
      <trkpt lat="45.24757" lon="16.90905">
        <ele>102</ele>
        <time>2022-05-23T06:53:32.000Z</time>
      </trkpt>
      <trkpt lat="45.24732" lon="16.90886">
        <ele>99.38</ele>
        <time>2022-05-23T06:53:37.000Z</time>
      </trkpt>
      <trkpt lat="45.24705" lon="16.90873">
        <ele>97.29</ele>
        <time>2022-05-23T06:53:42.000Z</time>
      </trkpt>
      <trkpt lat="45.24678" lon="16.90863">
        <ele>96.16</ele>
        <time>2022-05-23T06:53:47.000Z</time>
      </trkpt>
      <trkpt lat="45.24653" lon="16.90858">
        <ele>92.67</ele>
        <time>2022-05-23T06:53:52.000Z</time>
      </trkpt>
      <trkpt lat="45.24626" lon="16.90855">
        <ele>91.52</ele>
        <time>2022-05-23T06:53:57.000Z</time>
      </trkpt>
      <trkpt lat="45.24598" lon="16.90853">
        <ele>91.12</ele>
        <time>2022-05-23T06:54:02.000Z</time>
      </trkpt>
      <trkpt lat="45.2457" lon="16.9085">
        <ele>88.76</ele>
        <time>2022-05-23T06:54:07.000Z</time>
      </trkpt>
      <trkpt lat="45.24543" lon="16.90849">
        <ele>86.96</ele>
        <time>2022-05-23T06:54:12.000Z</time>
      </trkpt>
      <trkpt lat="45.24515" lon="16.90844">
        <ele>84.7</ele>
        <time>2022-05-23T06:54:17.000Z</time>
      </trkpt>
      <trkpt lat="45.24489" lon="16.90839">
        <ele>83.39</ele>
        <time>2022-05-23T06:54:22.000Z</time>
      </trkpt>
      <trkpt lat="45.24463" lon="16.90837">
        <ele>82</ele>
        <time>2022-05-23T06:54:27.000Z</time>
      </trkpt>
      <trkpt lat="45.24438" lon="16.90834">
        <ele>80.17</ele>
        <time>2022-05-23T06:54:32.000Z</time>
      </trkpt>
      <trkpt lat="45.24411" lon="16.90832">
        <ele>78.88</ele>
        <time>2022-05-23T06:54:37.000Z</time>
      </trkpt>
      <trkpt lat="45.24385" lon="16.9083">
        <ele>78.29</ele>
        <time>2022-05-23T06:54:42.000Z</time>
      </trkpt>
      <trkpt lat="45.24359" lon="16.90827">
        <ele>79.88</ele>
        <time>2022-05-23T06:54:47.000Z</time>
      </trkpt>
      <trkpt lat="45.24334" lon="16.90822">
        <ele>80.47</ele>
        <time>2022-05-23T06:54:52.000Z</time>
      </trkpt>
      <trkpt lat="45.2431" lon="16.90818">
        <ele>81.5</ele>
        <time>2022-05-23T06:54:57.000Z</time>
      </trkpt>
      <trkpt lat="45.24286" lon="16.90814">
        <ele>81.92</ele>
        <time>2022-05-23T06:55:02.000Z</time>
      </trkpt>
      <trkpt lat="45.24263" lon="16.90813">
        <ele>82.24</ele>
        <time>2022-05-23T06:55:07.000Z</time>
      </trkpt>
      <trkpt lat="45.24239" lon="16.90811">
        <ele>82.52</ele>
        <time>2022-05-23T06:55:12.000Z</time>
      </trkpt>
      <trkpt lat="45.24215" lon="16.90808">
        <ele>81.91</ele>
        <time>2022-05-23T06:55:17.000Z</time>
      </trkpt>
      <trkpt lat="45.24192" lon="16.90806">
        <ele>82.19</ele>
        <time>2022-05-23T06:55:22.000Z</time>
      </trkpt>
      <trkpt lat="45.24168" lon="16.908">
        <ele>81.83</ele>
        <time>2022-05-23T06:55:27.000Z</time>
      </trkpt>
      <trkpt lat="45.24142" lon="16.90795">
        <ele>82.49</ele>
        <time>2022-05-23T06:55:32.000Z</time>
      </trkpt>
      <trkpt lat="45.24116" lon="16.90793">
        <ele>82.76</ele>
        <time>2022-05-23T06:55:37.000Z</time>
      </trkpt>
      <trkpt lat="45.2409" lon="16.90792">
        <ele>83</ele>
        <time>2022-05-23T06:55:42.000Z</time>
      </trkpt>
      <trkpt lat="45.24065" lon="16.90787">
        <ele>83.44</ele>
        <time>2022-05-23T06:55:47.000Z</time>
      </trkpt>
      <trkpt lat="45.24039" lon="16.90784">
        <ele>83.34</ele>
        <time>2022-05-23T06:55:52.000Z</time>
      </trkpt>
      <trkpt lat="45.24014" lon="16.90781">
        <ele>84.43</ele>
        <time>2022-05-23T06:55:57.000Z</time>
      </trkpt>
      <trkpt lat="45.23988" lon="16.90778">
        <ele>85.17</ele>
        <time>2022-05-23T06:56:02.000Z</time>
      </trkpt>
      <trkpt lat="45.23964" lon="16.90776">
        <ele>85.5</ele>
        <time>2022-05-23T06:56:07.000Z</time>
      </trkpt>
      <trkpt lat="45.23938" lon="16.90773">
        <ele>86.21</ele>
        <time>2022-05-23T06:56:12.000Z</time>
      </trkpt>
      <trkpt lat="45.23914" lon="16.90771">
        <ele>84.92</ele>
        <time>2022-05-23T06:56:17.000Z</time>
      </trkpt>
      <trkpt lat="45.2389" lon="16.90767">
        <ele>83.49</ele>
        <time>2022-05-23T06:56:22.000Z</time>
      </trkpt>
      <trkpt lat="45.23867" lon="16.90764">
        <ele>84.36</ele>
        <time>2022-05-23T06:56:27.000Z</time>
      </trkpt>
      <trkpt lat="45.23843" lon="16.9076">
        <ele>85.27</ele>
        <time>2022-05-23T06:56:32.000Z</time>
      </trkpt>
      <trkpt lat="45.23817" lon="16.90758">
        <ele>84.64</ele>
        <time>2022-05-23T06:56:37.000Z</time>
      </trkpt>
      <trkpt lat="45.23791" lon="16.90754">
        <ele>84.57</ele>
        <time>2022-05-23T06:56:42.000Z</time>
      </trkpt>
      <trkpt lat="45.23766" lon="16.90751">
        <ele>85.62</ele>
        <time>2022-05-23T06:56:47.000Z</time>
      </trkpt>
      <trkpt lat="45.2374" lon="16.90749">
        <ele>86.91</ele>
        <time>2022-05-23T06:56:52.000Z</time>
      </trkpt>
      <trkpt lat="45.23714" lon="16.90746">
        <ele>87.08</ele>
        <time>2022-05-23T06:56:57.000Z</time>
      </trkpt>
      <trkpt lat="45.23687" lon="16.90742">
        <ele>87.5</ele>
        <time>2022-05-23T06:57:02.000Z</time>
      </trkpt>
      <trkpt lat="45.23659" lon="16.90738">
        <ele>88.03</ele>
        <time>2022-05-23T06:57:07.000Z</time>
      </trkpt>
      <trkpt lat="45.23633" lon="16.90734">
        <ele>87.95</ele>
        <time>2022-05-23T06:57:12.000Z</time>
      </trkpt>
      <trkpt lat="45.23607" lon="16.90733">
        <ele>88.42</ele>
        <time>2022-05-23T06:57:17.000Z</time>
      </trkpt>
      <trkpt lat="45.23582" lon="16.9073">
        <ele>89.14</ele>
        <time>2022-05-23T06:57:22.000Z</time>
      </trkpt>
      <trkpt lat="45.23556" lon="16.90727">
        <ele>90.64</ele>
        <time>2022-05-23T06:57:27.000Z</time>
      </trkpt>
      <trkpt lat="45.2353" lon="16.90723">
        <ele>90.88</ele>
        <time>2022-05-23T06:57:32.000Z</time>
      </trkpt>
      <trkpt lat="45.23505" lon="16.9072">
        <ele>90.61</ele>
        <time>2022-05-23T06:57:37.000Z</time>
      </trkpt>
      <trkpt lat="45.23483" lon="16.90719">
        <ele>90.43</ele>
        <time>2022-05-23T06:57:42.000Z</time>
      </trkpt>
      <trkpt lat="45.23456" lon="16.90716">
        <ele>89.91</ele>
        <time>2022-05-23T06:57:47.000Z</time>
      </trkpt>
      <trkpt lat="45.23427" lon="16.90712">
        <ele>90.31</ele>
        <time>2022-05-23T06:57:52.000Z</time>
      </trkpt>
      <trkpt lat="45.23399" lon="16.90709">
        <ele>91.42</ele>
        <time>2022-05-23T06:57:57.000Z</time>
      </trkpt>
      <trkpt lat="45.23375" lon="16.90708">
        <ele>91.83</ele>
        <time>2022-05-23T06:58:02.000Z</time>
      </trkpt>
      <trkpt lat="45.23351" lon="16.90706">
        <ele>90.94</ele>
        <time>2022-05-23T06:58:07.000Z</time>
      </trkpt>
      <trkpt lat="45.23322" lon="16.90703">
        <ele>90.29</ele>
        <time>2022-05-23T06:58:12.000Z</time>
      </trkpt>
      <trkpt lat="45.23294" lon="16.90699">
        <ele>88.57</ele>
        <time>2022-05-23T06:58:17.000Z</time>
      </trkpt>
      <trkpt lat="45.23268" lon="16.90697">
        <ele>86.27</ele>
        <time>2022-05-23T06:58:22.000Z</time>
      </trkpt>
      <trkpt lat="45.23241" lon="16.90696">
        <ele>85.71</ele>
        <time>2022-05-23T06:58:27.000Z</time>
      </trkpt>
      <trkpt lat="45.23209" lon="16.90689">
        <ele>86.33</ele>
        <time>2022-05-23T06:58:32.000Z</time>
      </trkpt>
      <trkpt lat="45.23181" lon="16.90683">
        <ele>87.77</ele>
        <time>2022-05-23T06:58:37.000Z</time>
      </trkpt>
      <trkpt lat="45.23154" lon="16.9068">
        <ele>88.6</ele>
        <time>2022-05-23T06:58:42.000Z</time>
      </trkpt>
      <trkpt lat="45.23126" lon="16.90677">
        <ele>90.22</ele>
        <time>2022-05-23T06:58:47.000Z</time>
      </trkpt>
      <trkpt lat="45.231" lon="16.90673">
        <ele>92.28</ele>
        <time>2022-05-23T06:58:52.000Z</time>
      </trkpt>
      <trkpt lat="45.23073" lon="16.90669">
        <ele>92.75</ele>
        <time>2022-05-23T06:58:57.000Z</time>
      </trkpt>
      <trkpt lat="45.23048" lon="16.90666">
        <ele>92.35</ele>
        <time>2022-05-23T06:59:02.000Z</time>
      </trkpt>
      <trkpt lat="45.23023" lon="16.90664">
        <ele>90.94</ele>
        <time>2022-05-23T06:59:07.000Z</time>
      </trkpt>
      <trkpt lat="45.22996" lon="16.90661">
        <ele>91</ele>
        <time>2022-05-23T06:59:12.000Z</time>
      </trkpt>
      <trkpt lat="45.22971" lon="16.90656">
        <ele>91.28</ele>
        <time>2022-05-23T06:59:17.000Z</time>
      </trkpt>
      <trkpt lat="45.22945" lon="16.90652">
        <ele>92.2</ele>
        <time>2022-05-23T06:59:22.000Z</time>
      </trkpt>
      <trkpt lat="45.22918" lon="16.90649">
        <ele>92.42</ele>
        <time>2022-05-23T06:59:27.000Z</time>
      </trkpt>
      <trkpt lat="45.22891" lon="16.90646">
        <ele>92.13</ele>
        <time>2022-05-23T06:59:32.000Z</time>
      </trkpt>
      <trkpt lat="45.22862" lon="16.90643">
        <ele>92.57</ele>
        <time>2022-05-23T06:59:37.000Z</time>
      </trkpt>
      <trkpt lat="45.22834" lon="16.90638">
        <ele>93.07</ele>
        <time>2022-05-23T06:59:42.000Z</time>
      </trkpt>
      <trkpt lat="45.22808" lon="16.90634">
        <ele>93.76</ele>
        <time>2022-05-23T06:59:47.000Z</time>
      </trkpt>
      <trkpt lat="45.22782" lon="16.90631">
        <ele>93.97</ele>
        <time>2022-05-23T06:59:52.000Z</time>
      </trkpt>
      <trkpt lat="45.22757" lon="16.90628">
        <ele>94.16</ele>
        <time>2022-05-23T06:59:57.000Z</time>
      </trkpt>
      <trkpt lat="45.22732" lon="16.90627">
        <ele>93.76</ele>
        <time>2022-05-23T07:00:02.000Z</time>
      </trkpt>
      <trkpt lat="45.22706" lon="16.90623">
        <ele>93.4</ele>
        <time>2022-05-23T07:00:07.000Z</time>
      </trkpt>
      <trkpt lat="45.2268" lon="16.90619">
        <ele>91.39</ele>
        <time>2022-05-23T07:00:12.000Z</time>
      </trkpt>
      <trkpt lat="45.22654" lon="16.90617">
        <ele>90.68</ele>
        <time>2022-05-23T07:00:17.000Z</time>
      </trkpt>
      <trkpt lat="45.22626" lon="16.90614">
        <ele>90.32</ele>
        <time>2022-05-23T07:00:22.000Z</time>
      </trkpt>
      <trkpt lat="45.226" lon="16.90613">
        <ele>89.58</ele>
        <time>2022-05-23T07:00:27.000Z</time>
      </trkpt>
      <trkpt lat="45.22577" lon="16.90612">
        <ele>88.97</ele>
        <time>2022-05-23T07:00:32.000Z</time>
      </trkpt>
      <trkpt lat="45.22551" lon="16.90609">
        <ele>89.14</ele>
        <time>2022-05-23T07:00:37.000Z</time>
      </trkpt>
      <trkpt lat="45.22524" lon="16.90604">
        <ele>88.85</ele>
        <time>2022-05-23T07:00:42.000Z</time>
      </trkpt>
      <trkpt lat="45.22497" lon="16.906">
        <ele>89.84</ele>
        <time>2022-05-23T07:00:47.000Z</time>
      </trkpt>
      <trkpt lat="45.2247" lon="16.90598">
        <ele>90.14</ele>
        <time>2022-05-23T07:00:52.000Z</time>
      </trkpt>
      <trkpt lat="45.22442" lon="16.90592">
        <ele>90.17</ele>
        <time>2022-05-23T07:00:57.000Z</time>
      </trkpt>
      <trkpt lat="45.22415" lon="16.90589">
        <ele>89.9</ele>
        <time>2022-05-23T07:01:02.000Z</time>
      </trkpt>
      <trkpt lat="45.22385" lon="16.90584">
        <ele>88.98</ele>
        <time>2022-05-23T07:01:07.000Z</time>
      </trkpt>
      <trkpt lat="45.22359" lon="16.9058">
        <ele>89.03</ele>
        <time>2022-05-23T07:01:12.000Z</time>
      </trkpt>
      <trkpt lat="45.22332" lon="16.90578">
        <ele>89.7</ele>
        <time>2022-05-23T07:01:17.000Z</time>
      </trkpt>
      <trkpt lat="45.22303" lon="16.90576">
        <ele>88.91</ele>
        <time>2022-05-23T07:01:22.000Z</time>
      </trkpt>
      <trkpt lat="45.22276" lon="16.90572">
        <ele>89.09</ele>
        <time>2022-05-23T07:01:27.000Z</time>
      </trkpt>
      <trkpt lat="45.22248" lon="16.90569">
        <ele>88.44</ele>
        <time>2022-05-23T07:01:32.000Z</time>
      </trkpt>
      <trkpt lat="45.2222" lon="16.90565">
        <ele>89.1</ele>
        <time>2022-05-23T07:01:37.000Z</time>
      </trkpt>
      <trkpt lat="45.22197" lon="16.90562">
        <ele>89.6</ele>
        <time>2022-05-23T07:01:42.000Z</time>
      </trkpt>
      <trkpt lat="45.22168" lon="16.9056">
        <ele>90.7</ele>
        <time>2022-05-23T07:01:47.000Z</time>
      </trkpt>
      <trkpt lat="45.22142" lon="16.90557">
        <ele>93.31</ele>
        <time>2022-05-23T07:01:52.000Z</time>
      </trkpt>
      <trkpt lat="45.22117" lon="16.90555">
        <ele>93.48</ele>
        <time>2022-05-23T07:01:57.000Z</time>
      </trkpt>
      <trkpt lat="45.22093" lon="16.90554">
        <ele>93.67</ele>
        <time>2022-05-23T07:02:02.000Z</time>
      </trkpt>
      <trkpt lat="45.22069" lon="16.90552">
        <ele>94.57</ele>
        <time>2022-05-23T07:02:07.000Z</time>
      </trkpt>
      <trkpt lat="45.22036" lon="16.90544">
        <ele>95.59</ele>
        <time>2022-05-23T07:02:12.000Z</time>
      </trkpt>
      <trkpt lat="45.22009" lon="16.90539">
        <ele>94.33</ele>
        <time>2022-05-23T07:02:17.000Z</time>
      </trkpt>
      <trkpt lat="45.21982" lon="16.90536">
        <ele>93.88</ele>
        <time>2022-05-23T07:02:22.000Z</time>
      </trkpt>
      <trkpt lat="45.21954" lon="16.90531">
        <ele>93.22</ele>
        <time>2022-05-23T07:02:27.000Z</time>
      </trkpt>
      <trkpt lat="45.21927" lon="16.90528">
        <ele>92.67</ele>
        <time>2022-05-23T07:02:32.000Z</time>
      </trkpt>
      <trkpt lat="45.21901" lon="16.90526">
        <ele>92.48</ele>
        <time>2022-05-23T07:02:37.000Z</time>
      </trkpt>
      <trkpt lat="45.21875" lon="16.90523">
        <ele>92.46</ele>
        <time>2022-05-23T07:02:42.000Z</time>
      </trkpt>
      <trkpt lat="45.21849" lon="16.90519">
        <ele>91.63</ele>
        <time>2022-05-23T07:02:47.000Z</time>
      </trkpt>
      <trkpt lat="45.21823" lon="16.90517">
        <ele>89.57</ele>
        <time>2022-05-23T07:02:52.000Z</time>
      </trkpt>
      <trkpt lat="45.21798" lon="16.90513">
        <ele>90.2</ele>
        <time>2022-05-23T07:02:57.000Z</time>
      </trkpt>
      <trkpt lat="45.21771" lon="16.90509">
        <ele>90.59</ele>
        <time>2022-05-23T07:03:02.000Z</time>
      </trkpt>
      <trkpt lat="45.21746" lon="16.90505">
        <ele>90.69</ele>
        <time>2022-05-23T07:03:07.000Z</time>
      </trkpt>
      <trkpt lat="45.21724" lon="16.90503">
        <ele>88.57</ele>
        <time>2022-05-23T07:03:12.000Z</time>
      </trkpt>
      <trkpt lat="45.21704" lon="16.90502">
        <ele>88.53</ele>
        <time>2022-05-23T07:03:17.000Z</time>
      </trkpt>
      <trkpt lat="45.21686" lon="16.905">
        <ele>87.57</ele>
        <time>2022-05-23T07:03:22.000Z</time>
      </trkpt>
      <trkpt lat="45.21665" lon="16.90498">
        <ele>88.89</ele>
        <time>2022-05-23T07:03:27.000Z</time>
      </trkpt>
      <trkpt lat="45.21643" lon="16.90496">
        <ele>89.1</ele>
        <time>2022-05-23T07:03:32.000Z</time>
      </trkpt>
      <trkpt lat="45.21619" lon="16.90492">
        <ele>89.12</ele>
        <time>2022-05-23T07:03:37.000Z</time>
      </trkpt>
      <trkpt lat="45.21595" lon="16.90486">
        <ele>89.09</ele>
        <time>2022-05-23T07:03:42.000Z</time>
      </trkpt>
      <trkpt lat="45.21571" lon="16.90483">
        <ele>89.35</ele>
        <time>2022-05-23T07:03:47.000Z</time>
      </trkpt>
      <trkpt lat="45.21553" lon="16.90482">
        <ele>89.7</ele>
        <time>2022-05-23T07:03:52.000Z</time>
      </trkpt>
      <trkpt lat="45.21532" lon="16.90478">
        <ele>89.8</ele>
        <time>2022-05-23T07:03:58.000Z</time>
      </trkpt>
      <trkpt lat="45.21513" lon="16.90475">
        <ele>89.78</ele>
        <time>2022-05-23T07:04:03.000Z</time>
      </trkpt>
      <trkpt lat="45.21495" lon="16.90472">
        <ele>89.87</ele>
        <time>2022-05-23T07:04:08.000Z</time>
      </trkpt>
      <trkpt lat="45.21478" lon="16.90469">
        <ele>90.1</ele>
        <time>2022-05-23T07:04:13.000Z</time>
      </trkpt>
      <trkpt lat="45.2146" lon="16.90469">
        <ele>90.39</ele>
        <time>2022-05-23T07:04:18.000Z</time>
      </trkpt>
      <trkpt lat="45.21437" lon="16.90471">
        <ele>91.01</ele>
        <time>2022-05-23T07:04:23.000Z</time>
      </trkpt>
      <trkpt lat="45.21412" lon="16.90465">
        <ele>91.81</ele>
        <time>2022-05-23T07:04:28.000Z</time>
      </trkpt>
      <trkpt lat="45.21388" lon="16.90462">
        <ele>92.56</ele>
        <time>2022-05-23T07:04:33.000Z</time>
      </trkpt>
      <trkpt lat="45.21364" lon="16.9046">
        <ele>92.61</ele>
        <time>2022-05-23T07:04:38.000Z</time>
      </trkpt>
      <trkpt lat="45.21339" lon="16.90456">
        <ele>94.02</ele>
        <time>2022-05-23T07:04:43.000Z</time>
      </trkpt>
      <trkpt lat="45.21314" lon="16.90453">
        <ele>94.27</ele>
        <time>2022-05-23T07:04:48.000Z</time>
      </trkpt>
      <trkpt lat="45.2129" lon="16.90452">
        <ele>93.44</ele>
        <time>2022-05-23T07:04:53.000Z</time>
      </trkpt>
      <trkpt lat="45.21264" lon="16.90448">
        <ele>92.41</ele>
        <time>2022-05-23T07:04:58.000Z</time>
      </trkpt>
      <trkpt lat="45.21239" lon="16.90443">
        <ele>92.06</ele>
        <time>2022-05-23T07:05:03.000Z</time>
      </trkpt>
      <trkpt lat="45.21213" lon="16.9044">
        <ele>92.5</ele>
        <time>2022-05-23T07:05:08.000Z</time>
      </trkpt>
      <trkpt lat="45.21187" lon="16.90438">
        <ele>93.92</ele>
        <time>2022-05-23T07:05:13.000Z</time>
      </trkpt>
      <trkpt lat="45.2116" lon="16.90434">
        <ele>95.17</ele>
        <time>2022-05-23T07:05:18.000Z</time>
      </trkpt>
      <trkpt lat="45.21135" lon="16.90431">
        <ele>95.9</ele>
        <time>2022-05-23T07:05:23.000Z</time>
      </trkpt>
      <trkpt lat="45.2111" lon="16.90427">
        <ele>96.06</ele>
        <time>2022-05-23T07:05:28.000Z</time>
      </trkpt>
      <trkpt lat="45.21085" lon="16.90425">
        <ele>95.73</ele>
        <time>2022-05-23T07:05:33.000Z</time>
      </trkpt>
      <trkpt lat="45.2106" lon="16.90422">
        <ele>95.19</ele>
        <time>2022-05-23T07:05:38.000Z</time>
      </trkpt>
      <trkpt lat="45.21034" lon="16.90419">
        <ele>94.93</ele>
        <time>2022-05-23T07:05:43.000Z</time>
      </trkpt>
      <trkpt lat="45.21008" lon="16.90415">
        <ele>93.84</ele>
        <time>2022-05-23T07:05:48.000Z</time>
      </trkpt>
      <trkpt lat="45.20983" lon="16.90413">
        <ele>92.51</ele>
        <time>2022-05-23T07:05:53.000Z</time>
      </trkpt>
      <trkpt lat="45.2096" lon="16.90411">
        <ele>90.91</ele>
        <time>2022-05-23T07:05:58.000Z</time>
      </trkpt>
      <trkpt lat="45.20935" lon="16.90408">
        <ele>89.91</ele>
        <time>2022-05-23T07:06:03.000Z</time>
      </trkpt>
      <trkpt lat="45.20913" lon="16.90406">
        <ele>89.28</ele>
        <time>2022-05-23T07:06:08.000Z</time>
      </trkpt>
      <trkpt lat="45.20893" lon="16.90403">
        <ele>89.52</ele>
        <time>2022-05-23T07:06:13.000Z</time>
      </trkpt>
      <trkpt lat="45.20875" lon="16.90402">
        <ele>88.59</ele>
        <time>2022-05-23T07:06:18.000Z</time>
      </trkpt>
      <trkpt lat="45.20858" lon="16.904">
        <ele>89.18</ele>
        <time>2022-05-23T07:06:23.000Z</time>
      </trkpt>
      <trkpt lat="45.20846" lon="16.90394">
        <ele>88.63</ele>
        <time>2022-05-23T07:06:28.000Z</time>
      </trkpt>
      <trkpt lat="45.20841" lon="16.90377">
        <ele>87.81</ele>
        <time>2022-05-23T07:06:33.000Z</time>
      </trkpt>
      <trkpt lat="45.20833" lon="16.90384">
        <ele>90.69</ele>
        <time>2022-05-23T07:06:51.000Z</time>
      </trkpt>
      <trkpt lat="45.20831" lon="16.90397">
        <ele>94.13</ele>
        <time>2022-05-23T07:07:56.000Z</time>
      </trkpt>
      <trkpt lat="45.20831" lon="16.9041">
        <ele>95.26</ele>
        <time>2022-05-23T07:08:04.000Z</time>
      </trkpt>
      <trkpt lat="45.20838" lon="16.90421">
        <ele>95.15</ele>
        <time>2022-05-23T07:08:53.000Z</time>
      </trkpt>
      <trkpt lat="45.20828" lon="16.90417">
        <ele>95.89</ele>
        <time>2022-05-23T07:13:36.000Z</time>
      </trkpt>
      <trkpt lat="45.20821" lon="16.90429">
        <ele>96.07</ele>
        <time>2022-05-23T07:13:43.000Z</time>
      </trkpt>
      <trkpt lat="45.20816" lon="16.90439">
        <ele>96.8</ele>
        <time>2022-05-23T07:14:01.000Z</time>
      </trkpt>
      <trkpt lat="45.20815" lon="16.90453">
        <ele>96.97</ele>
        <time>2022-05-23T07:14:06.000Z</time>
      </trkpt>
      <trkpt lat="45.20815" lon="16.90477">
        <ele>97.62</ele>
        <time>2022-05-23T07:14:11.000Z</time>
      </trkpt>
      <trkpt lat="45.20816" lon="16.90504">
        <ele>98.16</ele>
        <time>2022-05-23T07:14:16.000Z</time>
      </trkpt>
      <trkpt lat="45.20817" lon="16.90518">
        <ele>99</ele>
        <time>2022-05-23T07:14:26.000Z</time>
      </trkpt>
      <trkpt lat="45.20818" lon="16.90534">
        <ele>99.66</ele>
        <time>2022-05-23T07:14:31.000Z</time>
      </trkpt>
      <trkpt lat="45.2082" lon="16.90559">
        <ele>100.07</ele>
        <time>2022-05-23T07:14:36.000Z</time>
      </trkpt>
      <trkpt lat="45.20821" lon="16.90587">
        <ele>100.62</ele>
        <time>2022-05-23T07:14:41.000Z</time>
      </trkpt>
      <trkpt lat="45.20822" lon="16.90619">
        <ele>101.15</ele>
        <time>2022-05-23T07:14:46.000Z</time>
      </trkpt>
      <trkpt lat="45.20822" lon="16.90652">
        <ele>100.68</ele>
        <time>2022-05-23T07:14:51.000Z</time>
      </trkpt>
      <trkpt lat="45.20824" lon="16.90683">
        <ele>101.58</ele>
        <time>2022-05-23T07:14:56.000Z</time>
      </trkpt>
      <trkpt lat="45.20826" lon="16.90715">
        <ele>102.69</ele>
        <time>2022-05-23T07:15:01.000Z</time>
      </trkpt>
      <trkpt lat="45.20827" lon="16.90749">
        <ele>104.3</ele>
        <time>2022-05-23T07:15:06.000Z</time>
      </trkpt>
      <trkpt lat="45.20827" lon="16.90784">
        <ele>104</ele>
        <time>2022-05-23T07:15:11.000Z</time>
      </trkpt>
      <trkpt lat="45.20827" lon="16.9082">
        <ele>102.69</ele>
        <time>2022-05-23T07:15:16.000Z</time>
      </trkpt>
      <trkpt lat="45.20828" lon="16.90854">
        <ele>102.86</ele>
        <time>2022-05-23T07:15:21.000Z</time>
      </trkpt>
      <trkpt lat="45.20829" lon="16.90889">
        <ele>102.79</ele>
        <time>2022-05-23T07:15:26.000Z</time>
      </trkpt>
      <trkpt lat="45.20831" lon="16.90924">
        <ele>102.87</ele>
        <time>2022-05-23T07:15:31.000Z</time>
      </trkpt>
      <trkpt lat="45.20832" lon="16.90958">
        <ele>102.84</ele>
        <time>2022-05-23T07:15:36.000Z</time>
      </trkpt>
      <trkpt lat="45.20834" lon="16.90992">
        <ele>102.85</ele>
        <time>2022-05-23T07:15:41.000Z</time>
      </trkpt>
      <trkpt lat="45.20836" lon="16.91026">
        <ele>102.24</ele>
        <time>2022-05-23T07:15:46.000Z</time>
      </trkpt>
      <trkpt lat="45.20839" lon="16.9106">
        <ele>101.37</ele>
        <time>2022-05-23T07:15:51.000Z</time>
      </trkpt>
      <trkpt lat="45.20841" lon="16.91094">
        <ele>100.28</ele>
        <time>2022-05-23T07:15:56.000Z</time>
      </trkpt>
      <trkpt lat="45.20843" lon="16.91126">
        <ele>100.01</ele>
        <time>2022-05-23T07:16:01.000Z</time>
      </trkpt>
      <trkpt lat="45.20845" lon="16.9116">
        <ele>99.94</ele>
        <time>2022-05-23T07:16:06.000Z</time>
      </trkpt>
      <trkpt lat="45.20847" lon="16.91194">
        <ele>101.15</ele>
        <time>2022-05-23T07:16:11.000Z</time>
      </trkpt>
      <trkpt lat="45.20849" lon="16.9123">
        <ele>102.46</ele>
        <time>2022-05-23T07:16:16.000Z</time>
      </trkpt>
      <trkpt lat="45.2085" lon="16.91264">
        <ele>104.03</ele>
        <time>2022-05-23T07:16:21.000Z</time>
      </trkpt>
      <trkpt lat="45.20852" lon="16.91295">
        <ele>104.13</ele>
        <time>2022-05-23T07:16:26.000Z</time>
      </trkpt>
      <trkpt lat="45.20855" lon="16.91326">
        <ele>105.49</ele>
        <time>2022-05-23T07:16:31.000Z</time>
      </trkpt>
      <trkpt lat="45.20858" lon="16.91356">
        <ele>105.5</ele>
        <time>2022-05-23T07:16:36.000Z</time>
      </trkpt>
      <trkpt lat="45.20859" lon="16.91387">
        <ele>103.38</ele>
        <time>2022-05-23T07:16:41.000Z</time>
      </trkpt>
      <trkpt lat="45.20862" lon="16.91417">
        <ele>103</ele>
        <time>2022-05-23T07:16:46.000Z</time>
      </trkpt>
      <trkpt lat="45.20865" lon="16.91446">
        <ele>104.02</ele>
        <time>2022-05-23T07:16:51.000Z</time>
      </trkpt>
      <trkpt lat="45.20867" lon="16.91476">
        <ele>105.18</ele>
        <time>2022-05-23T07:16:56.000Z</time>
      </trkpt>
      <trkpt lat="45.20868" lon="16.91507">
        <ele>105.44</ele>
        <time>2022-05-23T07:17:01.000Z</time>
      </trkpt>
      <trkpt lat="45.20871" lon="16.91538">
        <ele>105.88</ele>
        <time>2022-05-23T07:17:06.000Z</time>
      </trkpt>
      <trkpt lat="45.20872" lon="16.91573">
        <ele>105.85</ele>
        <time>2022-05-23T07:17:11.000Z</time>
      </trkpt>
      <trkpt lat="45.20875" lon="16.91604">
        <ele>105.16</ele>
        <time>2022-05-23T07:17:16.000Z</time>
      </trkpt>
      <trkpt lat="45.20876" lon="16.91637">
        <ele>104.61</ele>
        <time>2022-05-23T07:17:21.000Z</time>
      </trkpt>
      <trkpt lat="45.20877" lon="16.91671">
        <ele>103.77</ele>
        <time>2022-05-23T07:17:26.000Z</time>
      </trkpt>
      <trkpt lat="45.20877" lon="16.91702">
        <ele>102.92</ele>
        <time>2022-05-23T07:17:31.000Z</time>
      </trkpt>
      <trkpt lat="45.20877" lon="16.91733">
        <ele>101.16</ele>
        <time>2022-05-23T07:17:36.000Z</time>
      </trkpt>
      <trkpt lat="45.20877" lon="16.91764">
        <ele>99.79</ele>
        <time>2022-05-23T07:17:41.000Z</time>
      </trkpt>
      <trkpt lat="45.20877" lon="16.91795">
        <ele>99.56</ele>
        <time>2022-05-23T07:17:46.000Z</time>
      </trkpt>
      <trkpt lat="45.20877" lon="16.91827">
        <ele>99.07</ele>
        <time>2022-05-23T07:17:51.000Z</time>
      </trkpt>
      <trkpt lat="45.20878" lon="16.91858">
        <ele>99.64</ele>
        <time>2022-05-23T07:17:56.000Z</time>
      </trkpt>
      <trkpt lat="45.2088" lon="16.91888">
        <ele>99.8</ele>
        <time>2022-05-23T07:18:01.000Z</time>
      </trkpt>
      <trkpt lat="45.20881" lon="16.91919">
        <ele>100.84</ele>
        <time>2022-05-23T07:18:06.000Z</time>
      </trkpt>
      <trkpt lat="45.20882" lon="16.9195">
        <ele>101.31</ele>
        <time>2022-05-23T07:18:11.000Z</time>
      </trkpt>
      <trkpt lat="45.20883" lon="16.91982">
        <ele>101.98</ele>
        <time>2022-05-23T07:18:16.000Z</time>
      </trkpt>
      <trkpt lat="45.20884" lon="16.92014">
        <ele>102.83</ele>
        <time>2022-05-23T07:18:21.000Z</time>
      </trkpt>
      <trkpt lat="45.20885" lon="16.92047">
        <ele>103.09</ele>
        <time>2022-05-23T07:18:26.000Z</time>
      </trkpt>
      <trkpt lat="45.20886" lon="16.92081">
        <ele>103.14</ele>
        <time>2022-05-23T07:18:31.000Z</time>
      </trkpt>
      <trkpt lat="45.20887" lon="16.92111">
        <ele>102.47</ele>
        <time>2022-05-23T07:18:36.000Z</time>
      </trkpt>
      <trkpt lat="45.20889" lon="16.92143">
        <ele>102.13</ele>
        <time>2022-05-23T07:18:41.000Z</time>
      </trkpt>
      <trkpt lat="45.2089" lon="16.92174">
        <ele>102.25</ele>
        <time>2022-05-23T07:18:46.000Z</time>
      </trkpt>
      <trkpt lat="45.20891" lon="16.92206">
        <ele>102.08</ele>
        <time>2022-05-23T07:18:51.000Z</time>
      </trkpt>
      <trkpt lat="45.20894" lon="16.92238">
        <ele>101.43</ele>
        <time>2022-05-23T07:18:56.000Z</time>
      </trkpt>
      <trkpt lat="45.20895" lon="16.9227">
        <ele>100.04</ele>
        <time>2022-05-23T07:19:01.000Z</time>
      </trkpt>
      <trkpt lat="45.20897" lon="16.92302">
        <ele>98.14</ele>
        <time>2022-05-23T07:19:06.000Z</time>
      </trkpt>
      <trkpt lat="45.20896" lon="16.92335">
        <ele>97.74</ele>
        <time>2022-05-23T07:19:11.000Z</time>
      </trkpt>
      <trkpt lat="45.20896" lon="16.92367">
        <ele>98.82</ele>
        <time>2022-05-23T07:19:16.000Z</time>
      </trkpt>
      <trkpt lat="45.20897" lon="16.924">
        <ele>98.4</ele>
        <time>2022-05-23T07:19:21.000Z</time>
      </trkpt>
      <trkpt lat="45.20899" lon="16.92432">
        <ele>98.69</ele>
        <time>2022-05-23T07:19:26.000Z</time>
      </trkpt>
      <trkpt lat="45.20901" lon="16.92463">
        <ele>98.97</ele>
        <time>2022-05-23T07:19:31.000Z</time>
      </trkpt>
      <trkpt lat="45.20903" lon="16.92498">
        <ele>99.04</ele>
        <time>2022-05-23T07:19:36.000Z</time>
      </trkpt>
      <trkpt lat="45.20905" lon="16.9253">
        <ele>98.63</ele>
        <time>2022-05-23T07:19:41.000Z</time>
      </trkpt>
      <trkpt lat="45.20907" lon="16.92561">
        <ele>97.32</ele>
        <time>2022-05-23T07:19:46.000Z</time>
      </trkpt>
      <trkpt lat="45.2091" lon="16.92593">
        <ele>97.33</ele>
        <time>2022-05-23T07:19:51.000Z</time>
      </trkpt>
      <trkpt lat="45.20911" lon="16.92627">
        <ele>95.97</ele>
        <time>2022-05-23T07:19:56.000Z</time>
      </trkpt>
      <trkpt lat="45.20913" lon="16.92661">
        <ele>95.1</ele>
        <time>2022-05-23T07:20:01.000Z</time>
      </trkpt>
      <trkpt lat="45.20916" lon="16.92693">
        <ele>95.29</ele>
        <time>2022-05-23T07:20:06.000Z</time>
      </trkpt>
      <trkpt lat="45.20919" lon="16.92723">
        <ele>95.26</ele>
        <time>2022-05-23T07:20:11.000Z</time>
      </trkpt>
      <trkpt lat="45.20922" lon="16.92755">
        <ele>96.87</ele>
        <time>2022-05-23T07:20:16.000Z</time>
      </trkpt>
      <trkpt lat="45.20923" lon="16.9279">
        <ele>98.12</ele>
        <time>2022-05-23T07:20:21.000Z</time>
      </trkpt>
      <trkpt lat="45.20926" lon="16.92821">
        <ele>98.42</ele>
        <time>2022-05-23T07:20:26.000Z</time>
      </trkpt>
      <trkpt lat="45.20929" lon="16.92853">
        <ele>99.22</ele>
        <time>2022-05-23T07:20:31.000Z</time>
      </trkpt>
      <trkpt lat="45.20933" lon="16.92884">
        <ele>99.01</ele>
        <time>2022-05-23T07:20:36.000Z</time>
      </trkpt>
      <trkpt lat="45.20937" lon="16.92916">
        <ele>100.17</ele>
        <time>2022-05-23T07:20:41.000Z</time>
      </trkpt>
      <trkpt lat="45.2094" lon="16.92945">
        <ele>100.98</ele>
        <time>2022-05-23T07:20:46.000Z</time>
      </trkpt>
      <trkpt lat="45.20945" lon="16.92977">
        <ele>101.43</ele>
        <time>2022-05-23T07:20:51.000Z</time>
      </trkpt>
      <trkpt lat="45.20949" lon="16.93007">
        <ele>102.41</ele>
        <time>2022-05-23T07:20:56.000Z</time>
      </trkpt>
      <trkpt lat="45.20953" lon="16.93035">
        <ele>101.18</ele>
        <time>2022-05-23T07:21:01.000Z</time>
      </trkpt>
      <trkpt lat="45.20957" lon="16.93063">
        <ele>100.57</ele>
        <time>2022-05-23T07:21:06.000Z</time>
      </trkpt>
      <trkpt lat="45.20963" lon="16.9309">
        <ele>101.45</ele>
        <time>2022-05-23T07:21:11.000Z</time>
      </trkpt>
      <trkpt lat="45.20968" lon="16.93119">
        <ele>100.6</ele>
        <time>2022-05-23T07:21:16.000Z</time>
      </trkpt>
      <trkpt lat="45.20974" lon="16.93147">
        <ele>101.44</ele>
        <time>2022-05-23T07:21:21.000Z</time>
      </trkpt>
      <trkpt lat="45.20979" lon="16.93176">
        <ele>100.87</ele>
        <time>2022-05-23T07:21:26.000Z</time>
      </trkpt>
      <trkpt lat="45.20983" lon="16.93206">
        <ele>100.55</ele>
        <time>2022-05-23T07:21:31.000Z</time>
      </trkpt>
      <trkpt lat="45.20988" lon="16.93234">
        <ele>100.85</ele>
        <time>2022-05-23T07:21:36.000Z</time>
      </trkpt>
      <trkpt lat="45.20993" lon="16.93264">
        <ele>101.67</ele>
        <time>2022-05-23T07:21:41.000Z</time>
      </trkpt>
      <trkpt lat="45.20997" lon="16.93295">
        <ele>101.25</ele>
        <time>2022-05-23T07:21:46.000Z</time>
      </trkpt>
      <trkpt lat="45.21" lon="16.93325">
        <ele>101.2</ele>
        <time>2022-05-23T07:21:51.000Z</time>
      </trkpt>
      <trkpt lat="45.21002" lon="16.93357">
        <ele>101.52</ele>
        <time>2022-05-23T07:21:56.000Z</time>
      </trkpt>
      <trkpt lat="45.21006" lon="16.93388">
        <ele>101.17</ele>
        <time>2022-05-23T07:22:01.000Z</time>
      </trkpt>
      <trkpt lat="45.2101" lon="16.93418">
        <ele>101.21</ele>
        <time>2022-05-23T07:22:06.000Z</time>
      </trkpt>
      <trkpt lat="45.21015" lon="16.93449">
        <ele>101.99</ele>
        <time>2022-05-23T07:22:11.000Z</time>
      </trkpt>
      <trkpt lat="45.21019" lon="16.93479">
        <ele>101.3</ele>
        <time>2022-05-23T07:22:16.000Z</time>
      </trkpt>
      <trkpt lat="45.21023" lon="16.93509">
        <ele>100.82</ele>
        <time>2022-05-23T07:22:21.000Z</time>
      </trkpt>
      <trkpt lat="45.21027" lon="16.93536">
        <ele>100.52</ele>
        <time>2022-05-23T07:22:26.000Z</time>
      </trkpt>
      <trkpt lat="45.21033" lon="16.93566">
        <ele>99.45</ele>
        <time>2022-05-23T07:22:31.000Z</time>
      </trkpt>
      <trkpt lat="45.21038" lon="16.93596">
        <ele>98.79</ele>
        <time>2022-05-23T07:22:36.000Z</time>
      </trkpt>
      <trkpt lat="45.21045" lon="16.93626">
        <ele>98.82</ele>
        <time>2022-05-23T07:22:41.000Z</time>
      </trkpt>
      <trkpt lat="45.21052" lon="16.93657">
        <ele>98.61</ele>
        <time>2022-05-23T07:22:46.000Z</time>
      </trkpt>
      <trkpt lat="45.21059" lon="16.93689">
        <ele>97.59</ele>
        <time>2022-05-23T07:22:51.000Z</time>
      </trkpt>
      <trkpt lat="45.21066" lon="16.93719">
        <ele>95.57</ele>
        <time>2022-05-23T07:22:56.000Z</time>
      </trkpt>
      <trkpt lat="45.21073" lon="16.93748">
        <ele>95.45</ele>
        <time>2022-05-23T07:23:01.000Z</time>
      </trkpt>
      <trkpt lat="45.21081" lon="16.93777">
        <ele>94.86</ele>
        <time>2022-05-23T07:23:06.000Z</time>
      </trkpt>
      <trkpt lat="45.2109" lon="16.93807">
        <ele>94.33</ele>
        <time>2022-05-23T07:23:11.000Z</time>
      </trkpt>
      <trkpt lat="45.21098" lon="16.93838">
        <ele>94.29</ele>
        <time>2022-05-23T07:23:16.000Z</time>
      </trkpt>
      <trkpt lat="45.21106" lon="16.9387">
        <ele>94.01</ele>
        <time>2022-05-23T07:23:21.000Z</time>
      </trkpt>
      <trkpt lat="45.21116" lon="16.939">
        <ele>94.08</ele>
        <time>2022-05-23T07:23:26.000Z</time>
      </trkpt>
      <trkpt lat="45.21126" lon="16.9393">
        <ele>94.46</ele>
        <time>2022-05-23T07:23:31.000Z</time>
      </trkpt>
      <trkpt lat="45.21136" lon="16.93959">
        <ele>94.16</ele>
        <time>2022-05-23T07:23:36.000Z</time>
      </trkpt>
      <trkpt lat="45.21146" lon="16.93987">
        <ele>93</ele>
        <time>2022-05-23T07:23:41.000Z</time>
      </trkpt>
      <trkpt lat="45.21158" lon="16.94016">
        <ele>92.38</ele>
        <time>2022-05-23T07:23:46.000Z</time>
      </trkpt>
      <trkpt lat="45.2117" lon="16.94044">
        <ele>92.78</ele>
        <time>2022-05-23T07:23:51.000Z</time>
      </trkpt>
      <trkpt lat="45.21183" lon="16.94072">
        <ele>94.04</ele>
        <time>2022-05-23T07:23:56.000Z</time>
      </trkpt>
      <trkpt lat="45.21196" lon="16.94101">
        <ele>93.84</ele>
        <time>2022-05-23T07:24:01.000Z</time>
      </trkpt>
      <trkpt lat="45.21209" lon="16.9413">
        <ele>92.81</ele>
        <time>2022-05-23T07:24:06.000Z</time>
      </trkpt>
      <trkpt lat="45.21221" lon="16.94159">
        <ele>92.41</ele>
        <time>2022-05-23T07:24:11.000Z</time>
      </trkpt>
      <trkpt lat="45.21232" lon="16.94187">
        <ele>92.41</ele>
        <time>2022-05-23T07:24:16.000Z</time>
      </trkpt>
      <trkpt lat="45.21241" lon="16.94214">
        <ele>93.51</ele>
        <time>2022-05-23T07:24:21.000Z</time>
      </trkpt>
      <trkpt lat="45.2125" lon="16.94242">
        <ele>95.11</ele>
        <time>2022-05-23T07:24:26.000Z</time>
      </trkpt>
      <trkpt lat="45.21253" lon="16.94268">
        <ele>95.54</ele>
        <time>2022-05-23T07:24:31.000Z</time>
      </trkpt>
      <trkpt lat="45.21258" lon="16.94296">
        <ele>96.4</ele>
        <time>2022-05-23T07:24:36.000Z</time>
      </trkpt>
      <trkpt lat="45.21262" lon="16.94324">
        <ele>97.21</ele>
        <time>2022-05-23T07:24:41.000Z</time>
      </trkpt>
      <trkpt lat="45.21266" lon="16.94353">
        <ele>98.49</ele>
        <time>2022-05-23T07:24:46.000Z</time>
      </trkpt>
      <trkpt lat="45.21268" lon="16.94382">
        <ele>98.68</ele>
        <time>2022-05-23T07:24:51.000Z</time>
      </trkpt>
      <trkpt lat="45.21271" lon="16.94413">
        <ele>99.02</ele>
        <time>2022-05-23T07:24:56.000Z</time>
      </trkpt>
      <trkpt lat="45.21273" lon="16.94445">
        <ele>98.77</ele>
        <time>2022-05-23T07:25:01.000Z</time>
      </trkpt>
      <trkpt lat="45.21276" lon="16.94476">
        <ele>97.04</ele>
        <time>2022-05-23T07:25:06.000Z</time>
      </trkpt>
      <trkpt lat="45.21279" lon="16.94503">
        <ele>97.76</ele>
        <time>2022-05-23T07:25:11.000Z</time>
      </trkpt>
      <trkpt lat="45.21279" lon="16.94528">
        <ele>98.81</ele>
        <time>2022-05-23T07:25:16.000Z</time>
      </trkpt>
      <trkpt lat="45.21281" lon="16.94556">
        <ele>98.88</ele>
        <time>2022-05-23T07:25:21.000Z</time>
      </trkpt>
      <trkpt lat="45.21282" lon="16.94587">
        <ele>99.48</ele>
        <time>2022-05-23T07:25:26.000Z</time>
      </trkpt>
      <trkpt lat="45.21282" lon="16.94619">
        <ele>100.65</ele>
        <time>2022-05-23T07:25:31.000Z</time>
      </trkpt>
      <trkpt lat="45.2128" lon="16.94649">
        <ele>103.05</ele>
        <time>2022-05-23T07:25:36.000Z</time>
      </trkpt>
      <trkpt lat="45.21278" lon="16.9468">
        <ele>104.33</ele>
        <time>2022-05-23T07:25:41.000Z</time>
      </trkpt>
      <trkpt lat="45.21274" lon="16.9471">
        <ele>105.95</ele>
        <time>2022-05-23T07:25:46.000Z</time>
      </trkpt>
      <trkpt lat="45.21267" lon="16.94739">
        <ele>107.11</ele>
        <time>2022-05-23T07:25:51.000Z</time>
      </trkpt>
      <trkpt lat="45.21258" lon="16.94767">
        <ele>106.31</ele>
        <time>2022-05-23T07:25:56.000Z</time>
      </trkpt>
      <trkpt lat="45.21248" lon="16.94794">
        <ele>105.3</ele>
        <time>2022-05-23T07:26:01.000Z</time>
      </trkpt>
      <trkpt lat="45.21236" lon="16.94823">
        <ele>104.8</ele>
        <time>2022-05-23T07:26:06.000Z</time>
      </trkpt>
      <trkpt lat="45.21224" lon="16.94849">
        <ele>104.82</ele>
        <time>2022-05-23T07:26:11.000Z</time>
      </trkpt>
      <trkpt lat="45.21214" lon="16.94875">
        <ele>104.83</ele>
        <time>2022-05-23T07:26:16.000Z</time>
      </trkpt>
      <trkpt lat="45.21203" lon="16.949">
        <ele>104.26</ele>
        <time>2022-05-23T07:26:21.000Z</time>
      </trkpt>
      <trkpt lat="45.21191" lon="16.94925">
        <ele>104.22</ele>
        <time>2022-05-23T07:26:26.000Z</time>
      </trkpt>
      <trkpt lat="45.2118" lon="16.94949">
        <ele>104.84</ele>
        <time>2022-05-23T07:26:31.000Z</time>
      </trkpt>
      <trkpt lat="45.2117" lon="16.94974">
        <ele>103.34</ele>
        <time>2022-05-23T07:26:36.000Z</time>
      </trkpt>
      <trkpt lat="45.21158" lon="16.94999">
        <ele>101.84</ele>
        <time>2022-05-23T07:26:41.000Z</time>
      </trkpt>
      <trkpt lat="45.21146" lon="16.95024">
        <ele>100.3</ele>
        <time>2022-05-23T07:26:46.000Z</time>
      </trkpt>
      <trkpt lat="45.2113" lon="16.95048">
        <ele>100.54</ele>
        <time>2022-05-23T07:26:51.000Z</time>
      </trkpt>
      <trkpt lat="45.21115" lon="16.9507">
        <ele>100.62</ele>
        <time>2022-05-23T07:26:56.000Z</time>
      </trkpt>
      <trkpt lat="45.21099" lon="16.95091">
        <ele>100.13</ele>
        <time>2022-05-23T07:27:01.000Z</time>
      </trkpt>
      <trkpt lat="45.21085" lon="16.95112">
        <ele>99.88</ele>
        <time>2022-05-23T07:27:06.000Z</time>
      </trkpt>
      <trkpt lat="45.21071" lon="16.95128">
        <ele>99.83</ele>
        <time>2022-05-23T07:27:11.000Z</time>
      </trkpt>
      <trkpt lat="45.21055" lon="16.95146">
        <ele>98.59</ele>
        <time>2022-05-23T07:27:16.000Z</time>
      </trkpt>
      <trkpt lat="45.21039" lon="16.95167">
        <ele>97.56</ele>
        <time>2022-05-23T07:27:21.000Z</time>
      </trkpt>
      <trkpt lat="45.21021" lon="16.95189">
        <ele>98.23</ele>
        <time>2022-05-23T07:27:26.000Z</time>
      </trkpt>
      <trkpt lat="45.21004" lon="16.9521">
        <ele>98.45</ele>
        <time>2022-05-23T07:27:31.000Z</time>
      </trkpt>
      <trkpt lat="45.20985" lon="16.95232">
        <ele>99.84</ele>
        <time>2022-05-23T07:27:36.000Z</time>
      </trkpt>
      <trkpt lat="45.2097" lon="16.95252">
        <ele>101.06</ele>
        <time>2022-05-23T07:27:41.000Z</time>
      </trkpt>
      <trkpt lat="45.20954" lon="16.95272">
        <ele>102.34</ele>
        <time>2022-05-23T07:27:46.000Z</time>
      </trkpt>
      <trkpt lat="45.20938" lon="16.95292">
        <ele>104.37</ele>
        <time>2022-05-23T07:27:51.000Z</time>
      </trkpt>
      <trkpt lat="45.20922" lon="16.95312">
        <ele>105.4</ele>
        <time>2022-05-23T07:27:56.000Z</time>
      </trkpt>
      <trkpt lat="45.20904" lon="16.95334">
        <ele>104.7</ele>
        <time>2022-05-23T07:28:01.000Z</time>
      </trkpt>
      <trkpt lat="45.20887" lon="16.95356">
        <ele>104.53</ele>
        <time>2022-05-23T07:28:06.000Z</time>
      </trkpt>
      <trkpt lat="45.20871" lon="16.95377">
        <ele>104.3</ele>
        <time>2022-05-23T07:28:11.000Z</time>
      </trkpt>
      <trkpt lat="45.20855" lon="16.95398">
        <ele>104.41</ele>
        <time>2022-05-23T07:28:16.000Z</time>
      </trkpt>
      <trkpt lat="45.20842" lon="16.95418">
        <ele>103.93</ele>
        <time>2022-05-23T07:28:21.000Z</time>
      </trkpt>
      <trkpt lat="45.20827" lon="16.95438">
        <ele>104.8</ele>
        <time>2022-05-23T07:28:26.000Z</time>
      </trkpt>
      <trkpt lat="45.20814" lon="16.95457">
        <ele>105.37</ele>
        <time>2022-05-23T07:28:31.000Z</time>
      </trkpt>
      <trkpt lat="45.20798" lon="16.95478">
        <ele>106.2</ele>
        <time>2022-05-23T07:28:36.000Z</time>
      </trkpt>
      <trkpt lat="45.20786" lon="16.95498">
        <ele>106.33</ele>
        <time>2022-05-23T07:28:41.000Z</time>
      </trkpt>
      <trkpt lat="45.20773" lon="16.95519">
        <ele>105.97</ele>
        <time>2022-05-23T07:28:46.000Z</time>
      </trkpt>
      <trkpt lat="45.2076" lon="16.95537">
        <ele>106.05</ele>
        <time>2022-05-23T07:28:51.000Z</time>
      </trkpt>
      <trkpt lat="45.20746" lon="16.95557">
        <ele>107.08</ele>
        <time>2022-05-23T07:28:56.000Z</time>
      </trkpt>
      <trkpt lat="45.20735" lon="16.95575">
        <ele>108.79</ele>
        <time>2022-05-23T07:29:01.000Z</time>
      </trkpt>
      <trkpt lat="45.20722" lon="16.95597">
        <ele>109.41</ele>
        <time>2022-05-23T07:29:06.000Z</time>
      </trkpt>
      <trkpt lat="45.20711" lon="16.95619">
        <ele>110.29</ele>
        <time>2022-05-23T07:29:11.000Z</time>
      </trkpt>
      <trkpt lat="45.20702" lon="16.95643">
        <ele>110.88</ele>
        <time>2022-05-23T07:29:16.000Z</time>
      </trkpt>
      <trkpt lat="45.20693" lon="16.95668">
        <ele>110.71</ele>
        <time>2022-05-23T07:29:21.000Z</time>
      </trkpt>
      <trkpt lat="45.20684" lon="16.95693">
        <ele>110.96</ele>
        <time>2022-05-23T07:29:26.000Z</time>
      </trkpt>
      <trkpt lat="45.20676" lon="16.95718">
        <ele>111.66</ele>
        <time>2022-05-23T07:29:31.000Z</time>
      </trkpt>
      <trkpt lat="45.20666" lon="16.95744">
        <ele>111.86</ele>
        <time>2022-05-23T07:29:36.000Z</time>
      </trkpt>
      <trkpt lat="45.20655" lon="16.95772">
        <ele>110.95</ele>
        <time>2022-05-23T07:29:41.000Z</time>
      </trkpt>
      <trkpt lat="45.20647" lon="16.95799">
        <ele>110.75</ele>
        <time>2022-05-23T07:29:46.000Z</time>
      </trkpt>
      <trkpt lat="45.2064" lon="16.95823">
        <ele>111.22</ele>
        <time>2022-05-23T07:29:51.000Z</time>
      </trkpt>
      <trkpt lat="45.20631" lon="16.9585">
        <ele>111.73</ele>
        <time>2022-05-23T07:29:56.000Z</time>
      </trkpt>
      <trkpt lat="45.20622" lon="16.95875">
        <ele>112.64</ele>
        <time>2022-05-23T07:30:01.000Z</time>
      </trkpt>
      <trkpt lat="45.20616" lon="16.95899">
        <ele>113.49</ele>
        <time>2022-05-23T07:30:06.000Z</time>
      </trkpt>
      <trkpt lat="45.2061" lon="16.9592">
        <ele>113.82</ele>
        <time>2022-05-23T07:30:11.000Z</time>
      </trkpt>
      <trkpt lat="45.20604" lon="16.95934">
        <ele>115.29</ele>
        <time>2022-05-23T07:30:16.000Z</time>
      </trkpt>
      <trkpt lat="45.20599" lon="16.95948">
        <ele>114.45</ele>
        <time>2022-05-23T07:31:38.000Z</time>
      </trkpt>
      <trkpt lat="45.20596" lon="16.95963">
        <ele>113.6</ele>
        <time>2022-05-23T07:31:43.000Z</time>
      </trkpt>
      <trkpt lat="45.20589" lon="16.95988">
        <ele>113.6</ele>
        <time>2022-05-23T07:31:48.000Z</time>
      </trkpt>
      <trkpt lat="45.20582" lon="16.96014">
        <ele>113.6</ele>
        <time>2022-05-23T07:31:53.000Z</time>
      </trkpt>
      <trkpt lat="45.20573" lon="16.9604">
        <ele>113.24</ele>
        <time>2022-05-23T07:31:58.000Z</time>
      </trkpt>
      <trkpt lat="45.20568" lon="16.96068">
        <ele>112.86</ele>
        <time>2022-05-23T07:32:03.000Z</time>
      </trkpt>
      <trkpt lat="45.20561" lon="16.96097">
        <ele>112.04</ele>
        <time>2022-05-23T07:32:08.000Z</time>
      </trkpt>
      <trkpt lat="45.20551" lon="16.96126">
        <ele>111.19</ele>
        <time>2022-05-23T07:32:13.000Z</time>
      </trkpt>
      <trkpt lat="45.20542" lon="16.96157">
        <ele>109.99</ele>
        <time>2022-05-23T07:32:18.000Z</time>
      </trkpt>
      <trkpt lat="45.20531" lon="16.96188">
        <ele>108.69</ele>
        <time>2022-05-23T07:32:23.000Z</time>
      </trkpt>
      <trkpt lat="45.2052" lon="16.96217">
        <ele>107.44</ele>
        <time>2022-05-23T07:32:28.000Z</time>
      </trkpt>
      <trkpt lat="45.20509" lon="16.96242">
        <ele>106.76</ele>
        <time>2022-05-23T07:32:33.000Z</time>
      </trkpt>
      <trkpt lat="45.20498" lon="16.96268">
        <ele>108</ele>
        <time>2022-05-23T07:32:38.000Z</time>
      </trkpt>
      <trkpt lat="45.20483" lon="16.96294">
        <ele>108.98</ele>
        <time>2022-05-23T07:32:43.000Z</time>
      </trkpt>
      <trkpt lat="45.20471" lon="16.96321">
        <ele>109.13</ele>
        <time>2022-05-23T07:32:48.000Z</time>
      </trkpt>
      <trkpt lat="45.2046" lon="16.96346">
        <ele>109.19</ele>
        <time>2022-05-23T07:32:53.000Z</time>
      </trkpt>
      <trkpt lat="45.20447" lon="16.96372">
        <ele>109.35</ele>
        <time>2022-05-23T07:32:58.000Z</time>
      </trkpt>
      <trkpt lat="45.20436" lon="16.96397">
        <ele>111.37</ele>
        <time>2022-05-23T07:33:03.000Z</time>
      </trkpt>
      <trkpt lat="45.20424" lon="16.96423">
        <ele>111.43</ele>
        <time>2022-05-23T07:33:08.000Z</time>
      </trkpt>
      <trkpt lat="45.20412" lon="16.9645">
        <ele>110.56</ele>
        <time>2022-05-23T07:33:13.000Z</time>
      </trkpt>
      <trkpt lat="45.20401" lon="16.96479">
        <ele>109.03</ele>
        <time>2022-05-23T07:33:18.000Z</time>
      </trkpt>
      <trkpt lat="45.20389" lon="16.96506">
        <ele>107.87</ele>
        <time>2022-05-23T07:33:23.000Z</time>
      </trkpt>
      <trkpt lat="45.20379" lon="16.9653">
        <ele>107.51</ele>
        <time>2022-05-23T07:33:28.000Z</time>
      </trkpt>
      <trkpt lat="45.20366" lon="16.96554">
        <ele>106.63</ele>
        <time>2022-05-23T07:33:33.000Z</time>
      </trkpt>
      <trkpt lat="45.20355" lon="16.96579">
        <ele>106.47</ele>
        <time>2022-05-23T07:33:38.000Z</time>
      </trkpt>
      <trkpt lat="45.20342" lon="16.96605">
        <ele>106.49</ele>
        <time>2022-05-23T07:33:43.000Z</time>
      </trkpt>
      <trkpt lat="45.20333" lon="16.96629">
        <ele>107.4</ele>
        <time>2022-05-23T07:33:48.000Z</time>
      </trkpt>
      <trkpt lat="45.20322" lon="16.96652">
        <ele>108.62</ele>
        <time>2022-05-23T07:33:53.000Z</time>
      </trkpt>
      <trkpt lat="45.2031" lon="16.96676">
        <ele>109.38</ele>
        <time>2022-05-23T07:33:58.000Z</time>
      </trkpt>
      <trkpt lat="45.20297" lon="16.96699">
        <ele>109.4</ele>
        <time>2022-05-23T07:34:03.000Z</time>
      </trkpt>
      <trkpt lat="45.20288" lon="16.96725">
        <ele>109.54</ele>
        <time>2022-05-23T07:34:08.000Z</time>
      </trkpt>
      <trkpt lat="45.20272" lon="16.96748">
        <ele>110.52</ele>
        <time>2022-05-23T07:34:13.000Z</time>
      </trkpt>
      <trkpt lat="45.2026" lon="16.9677">
        <ele>110.95</ele>
        <time>2022-05-23T07:34:18.000Z</time>
      </trkpt>
      <trkpt lat="45.20249" lon="16.9679">
        <ele>110.63</ele>
        <time>2022-05-23T07:34:23.000Z</time>
      </trkpt>
      <trkpt lat="45.20238" lon="16.96813">
        <ele>110.46</ele>
        <time>2022-05-23T07:34:28.000Z</time>
      </trkpt>
      <trkpt lat="45.20228" lon="16.96839">
        <ele>109.79</ele>
        <time>2022-05-23T07:34:33.000Z</time>
      </trkpt>
      <trkpt lat="45.20217" lon="16.96861">
        <ele>108.28</ele>
        <time>2022-05-23T07:34:38.000Z</time>
      </trkpt>
      <trkpt lat="45.20205" lon="16.96886">
        <ele>107.33</ele>
        <time>2022-05-23T07:34:43.000Z</time>
      </trkpt>
      <trkpt lat="45.20195" lon="16.9691">
        <ele>107.89</ele>
        <time>2022-05-23T07:34:48.000Z</time>
      </trkpt>
      <trkpt lat="45.20184" lon="16.96937">
        <ele>108.73</ele>
        <time>2022-05-23T07:34:53.000Z</time>
      </trkpt>
      <trkpt lat="45.20176" lon="16.96967">
        <ele>110.05</ele>
        <time>2022-05-23T07:34:58.000Z</time>
      </trkpt>
      <trkpt lat="45.20171" lon="16.96998">
        <ele>111.05</ele>
        <time>2022-05-23T07:35:03.000Z</time>
      </trkpt>
      <trkpt lat="45.20166" lon="16.9703">
        <ele>112.4</ele>
        <time>2022-05-23T07:35:08.000Z</time>
      </trkpt>
      <trkpt lat="45.20165" lon="16.97063">
        <ele>111.3</ele>
        <time>2022-05-23T07:35:13.000Z</time>
      </trkpt>
      <trkpt lat="45.20167" lon="16.97098">
        <ele>110.84</ele>
        <time>2022-05-23T07:35:18.000Z</time>
      </trkpt>
      <trkpt lat="45.20166" lon="16.97134">
        <ele>107.08</ele>
        <time>2022-05-23T07:35:23.000Z</time>
      </trkpt>
      <trkpt lat="45.20168" lon="16.9717">
        <ele>103.75</ele>
        <time>2022-05-23T07:35:28.000Z</time>
      </trkpt>
      <trkpt lat="45.20167" lon="16.97208">
        <ele>101.48</ele>
        <time>2022-05-23T07:35:33.000Z</time>
      </trkpt>
      <trkpt lat="45.20171" lon="16.97247">
        <ele>99.35</ele>
        <time>2022-05-23T07:35:38.000Z</time>
      </trkpt>
      <trkpt lat="45.20174" lon="16.97283">
        <ele>97.6</ele>
        <time>2022-05-23T07:35:43.000Z</time>
      </trkpt>
      <trkpt lat="45.20178" lon="16.97321">
        <ele>96.12</ele>
        <time>2022-05-23T07:35:48.000Z</time>
      </trkpt>
      <trkpt lat="45.2018" lon="16.97359">
        <ele>94.33</ele>
        <time>2022-05-23T07:35:53.000Z</time>
      </trkpt>
      <trkpt lat="45.20182" lon="16.97394">
        <ele>92.58</ele>
        <time>2022-05-23T07:35:58.000Z</time>
      </trkpt>
      <trkpt lat="45.20184" lon="16.97432">
        <ele>89.91</ele>
        <time>2022-05-23T07:36:03.000Z</time>
      </trkpt>
      <trkpt lat="45.20187" lon="16.9747">
        <ele>89.33</ele>
        <time>2022-05-23T07:36:08.000Z</time>
      </trkpt>
      <trkpt lat="45.20185" lon="16.97508">
        <ele>88.5</ele>
        <time>2022-05-23T07:36:13.000Z</time>
      </trkpt>
      <trkpt lat="45.20179" lon="16.97548">
        <ele>88.45</ele>
        <time>2022-05-23T07:36:18.000Z</time>
      </trkpt>
      <trkpt lat="45.2018" lon="16.9758">
        <ele>90.74</ele>
        <time>2022-05-23T07:36:23.000Z</time>
      </trkpt>
      <trkpt lat="45.20178" lon="16.97613">
        <ele>91.83</ele>
        <time>2022-05-23T07:36:28.000Z</time>
      </trkpt>
      <trkpt lat="45.20177" lon="16.97645">
        <ele>93.51</ele>
        <time>2022-05-23T07:36:33.000Z</time>
      </trkpt>
      <trkpt lat="45.20173" lon="16.97679">
        <ele>94.85</ele>
        <time>2022-05-23T07:36:38.000Z</time>
      </trkpt>
      <trkpt lat="45.2017" lon="16.97714">
        <ele>95.14</ele>
        <time>2022-05-23T07:36:43.000Z</time>
      </trkpt>
      <trkpt lat="45.20165" lon="16.97745">
        <ele>95.29</ele>
        <time>2022-05-23T07:36:48.000Z</time>
      </trkpt>
      <trkpt lat="45.20158" lon="16.97779">
        <ele>94.91</ele>
        <time>2022-05-23T07:36:53.000Z</time>
      </trkpt>
      <trkpt lat="45.20153" lon="16.97812">
        <ele>94.84</ele>
        <time>2022-05-23T07:36:58.000Z</time>
      </trkpt>
      <trkpt lat="45.20151" lon="16.97844">
        <ele>96.28</ele>
        <time>2022-05-23T07:37:03.000Z</time>
      </trkpt>
      <trkpt lat="45.20152" lon="16.97874">
        <ele>99.74</ele>
        <time>2022-05-23T07:37:08.000Z</time>
      </trkpt>
      <trkpt lat="45.20151" lon="16.97903">
        <ele>99.58</ele>
        <time>2022-05-23T07:37:13.000Z</time>
      </trkpt>
      <trkpt lat="45.20148" lon="16.97931">
        <ele>96.71</ele>
        <time>2022-05-23T07:37:18.000Z</time>
      </trkpt>
      <trkpt lat="45.20146" lon="16.97962">
        <ele>94.08</ele>
        <time>2022-05-23T07:37:23.000Z</time>
      </trkpt>
      <trkpt lat="45.20144" lon="16.97993">
        <ele>92.15</ele>
        <time>2022-05-23T07:37:28.000Z</time>
      </trkpt>
      <trkpt lat="45.20139" lon="16.98027">
        <ele>90.54</ele>
        <time>2022-05-23T07:37:33.000Z</time>
      </trkpt>
      <trkpt lat="45.20135" lon="16.98059">
        <ele>89.25</ele>
        <time>2022-05-23T07:37:38.000Z</time>
      </trkpt>
      <trkpt lat="45.20131" lon="16.98089">
        <ele>88.02</ele>
        <time>2022-05-23T07:37:43.000Z</time>
      </trkpt>
      <trkpt lat="45.20127" lon="16.98119">
        <ele>86.36</ele>
        <time>2022-05-23T07:37:48.000Z</time>
      </trkpt>
      <trkpt lat="45.20124" lon="16.98154">
        <ele>86.4</ele>
        <time>2022-05-23T07:37:53.000Z</time>
      </trkpt>
      <trkpt lat="45.20121" lon="16.98189">
        <ele>87.07</ele>
        <time>2022-05-23T07:37:58.000Z</time>
      </trkpt>
      <trkpt lat="45.20118" lon="16.98226">
        <ele>90.02</ele>
        <time>2022-05-23T07:38:03.000Z</time>
      </trkpt>
      <trkpt lat="45.20113" lon="16.98259">
        <ele>90.48</ele>
        <time>2022-05-23T07:38:08.000Z</time>
      </trkpt>
      <trkpt lat="45.20108" lon="16.98292">
        <ele>91.41</ele>
        <time>2022-05-23T07:38:13.000Z</time>
      </trkpt>
      <trkpt lat="45.201" lon="16.98324">
        <ele>92.49</ele>
        <time>2022-05-23T07:38:18.000Z</time>
      </trkpt>
      <trkpt lat="45.20093" lon="16.98357">
        <ele>92.9</ele>
        <time>2022-05-23T07:38:23.000Z</time>
      </trkpt>
      <trkpt lat="45.20086" lon="16.98388">
        <ele>93.79</ele>
        <time>2022-05-23T07:38:28.000Z</time>
      </trkpt>
      <trkpt lat="45.20083" lon="16.98424">
        <ele>95.82</ele>
        <time>2022-05-23T07:38:33.000Z</time>
      </trkpt>
      <trkpt lat="45.2008" lon="16.98458">
        <ele>96.45</ele>
        <time>2022-05-23T07:38:38.000Z</time>
      </trkpt>
      <trkpt lat="45.20079" lon="16.98493">
        <ele>98.76</ele>
        <time>2022-05-23T07:38:43.000Z</time>
      </trkpt>
      <trkpt lat="45.20076" lon="16.98528">
        <ele>99.63</ele>
        <time>2022-05-23T07:38:48.000Z</time>
      </trkpt>
      <trkpt lat="45.20076" lon="16.98561">
        <ele>100.65</ele>
        <time>2022-05-23T07:38:53.000Z</time>
      </trkpt>
      <trkpt lat="45.20072" lon="16.98596">
        <ele>101.16</ele>
        <time>2022-05-23T07:38:58.000Z</time>
      </trkpt>
      <trkpt lat="45.20071" lon="16.98633">
        <ele>103.02</ele>
        <time>2022-05-23T07:39:03.000Z</time>
      </trkpt>
      <trkpt lat="45.2007" lon="16.98668">
        <ele>103.46</ele>
        <time>2022-05-23T07:39:08.000Z</time>
      </trkpt>
      <trkpt lat="45.20067" lon="16.98705">
        <ele>102.68</ele>
        <time>2022-05-23T07:39:13.000Z</time>
      </trkpt>
      <trkpt lat="45.20064" lon="16.9874">
        <ele>101.36</ele>
        <time>2022-05-23T07:39:18.000Z</time>
      </trkpt>
      <trkpt lat="45.2006" lon="16.98773">
        <ele>101.14</ele>
        <time>2022-05-23T07:39:23.000Z</time>
      </trkpt>
      <trkpt lat="45.20055" lon="16.98806">
        <ele>100.73</ele>
        <time>2022-05-23T07:39:28.000Z</time>
      </trkpt>
      <trkpt lat="45.20052" lon="16.98839">
        <ele>100.52</ele>
        <time>2022-05-23T07:39:33.000Z</time>
      </trkpt>
      <trkpt lat="45.20048" lon="16.98871">
        <ele>100.8</ele>
        <time>2022-05-23T07:39:38.000Z</time>
      </trkpt>
      <trkpt lat="45.20046" lon="16.98903">
        <ele>100.57</ele>
        <time>2022-05-23T07:39:43.000Z</time>
      </trkpt>
      <trkpt lat="45.20044" lon="16.98936">
        <ele>101.77</ele>
        <time>2022-05-23T07:39:48.000Z</time>
      </trkpt>
      <trkpt lat="45.20038" lon="16.98967">
        <ele>101.4</ele>
        <time>2022-05-23T07:39:53.000Z</time>
      </trkpt>
      <trkpt lat="45.20031" lon="16.98998">
        <ele>101.59</ele>
        <time>2022-05-23T07:39:58.000Z</time>
      </trkpt>
      <trkpt lat="45.20024" lon="16.99027">
        <ele>102.55</ele>
        <time>2022-05-23T07:40:03.000Z</time>
      </trkpt>
      <trkpt lat="45.20019" lon="16.99056">
        <ele>104.98</ele>
        <time>2022-05-23T07:40:08.000Z</time>
      </trkpt>
      <trkpt lat="45.20015" lon="16.99087">
        <ele>106.16</ele>
        <time>2022-05-23T07:40:13.000Z</time>
      </trkpt>
      <trkpt lat="45.20013" lon="16.9912">
        <ele>106.14</ele>
        <time>2022-05-23T07:40:18.000Z</time>
      </trkpt>
      <trkpt lat="45.20012" lon="16.99156">
        <ele>105.47</ele>
        <time>2022-05-23T07:40:23.000Z</time>
      </trkpt>
      <trkpt lat="45.20009" lon="16.99193">
        <ele>102.42</ele>
        <time>2022-05-23T07:40:28.000Z</time>
      </trkpt>
      <trkpt lat="45.20009" lon="16.9923">
        <ele>99.49</ele>
        <time>2022-05-23T07:40:33.000Z</time>
      </trkpt>
      <trkpt lat="45.20006" lon="16.99268">
        <ele>97.11</ele>
        <time>2022-05-23T07:40:38.000Z</time>
      </trkpt>
      <trkpt lat="45.19998" lon="16.99304">
        <ele>93.32</ele>
        <time>2022-05-23T07:40:43.000Z</time>
      </trkpt>
      <trkpt lat="45.1999" lon="16.99344">
        <ele>90.98</ele>
        <time>2022-05-23T07:40:48.000Z</time>
      </trkpt>
      <trkpt lat="45.19982" lon="16.99381">
        <ele>88.2</ele>
        <time>2022-05-23T07:40:53.000Z</time>
      </trkpt>
      <trkpt lat="45.19973" lon="16.99416">
        <ele>86.06</ele>
        <time>2022-05-23T07:40:58.000Z</time>
      </trkpt>
      <trkpt lat="45.19968" lon="16.9945">
        <ele>83.47</ele>
        <time>2022-05-23T07:41:03.000Z</time>
      </trkpt>
      <trkpt lat="45.19966" lon="16.99487">
        <ele>83.85</ele>
        <time>2022-05-23T07:41:08.000Z</time>
      </trkpt>
      <trkpt lat="45.19966" lon="16.99528">
        <ele>87.11</ele>
        <time>2022-05-23T07:41:13.000Z</time>
      </trkpt>
      <trkpt lat="45.1996" lon="16.99562">
        <ele>88.56</ele>
        <time>2022-05-23T07:41:18.000Z</time>
      </trkpt>
      <trkpt lat="45.19954" lon="16.99594">
        <ele>88.01</ele>
        <time>2022-05-23T07:41:23.000Z</time>
      </trkpt>
      <trkpt lat="45.19951" lon="16.99629">
        <ele>89.16</ele>
        <time>2022-05-23T07:41:28.000Z</time>
      </trkpt>
      <trkpt lat="45.19946" lon="16.99663">
        <ele>89.09</ele>
        <time>2022-05-23T07:41:33.000Z</time>
      </trkpt>
      <trkpt lat="45.1994" lon="16.99696">
        <ele>88.62</ele>
        <time>2022-05-23T07:41:38.000Z</time>
      </trkpt>
      <trkpt lat="45.19935" lon="16.99728">
        <ele>88.53</ele>
        <time>2022-05-23T07:41:43.000Z</time>
      </trkpt>
      <trkpt lat="45.19931" lon="16.99759">
        <ele>89.39</ele>
        <time>2022-05-23T07:41:48.000Z</time>
      </trkpt>
      <trkpt lat="45.19928" lon="16.99791">
        <ele>92.71</ele>
        <time>2022-05-23T07:41:53.000Z</time>
      </trkpt>
      <trkpt lat="45.19922" lon="16.99823">
        <ele>95.2</ele>
        <time>2022-05-23T07:41:58.000Z</time>
      </trkpt>
      <trkpt lat="45.19919" lon="16.99855">
        <ele>97.08</ele>
        <time>2022-05-23T07:42:03.000Z</time>
      </trkpt>
      <trkpt lat="45.19913" lon="16.99886">
        <ele>99.92</ele>
        <time>2022-05-23T07:42:08.000Z</time>
      </trkpt>
      <trkpt lat="45.19908" lon="16.99919">
        <ele>102.17</ele>
        <time>2022-05-23T07:42:13.000Z</time>
      </trkpt>
      <trkpt lat="45.199" lon="16.99948">
        <ele>102.41</ele>
        <time>2022-05-23T07:42:18.000Z</time>
      </trkpt>
      <trkpt lat="45.19893" lon="16.99975">
        <ele>102.77</ele>
        <time>2022-05-23T07:42:23.000Z</time>
      </trkpt>
      <trkpt lat="45.1989" lon="17.00001">
        <ele>103.27</ele>
        <time>2022-05-23T07:42:28.000Z</time>
      </trkpt>
      <trkpt lat="45.19883" lon="17.00031">
        <ele>103.98</ele>
        <time>2022-05-23T07:42:33.000Z</time>
      </trkpt>
      <trkpt lat="45.19873" lon="17.00062">
        <ele>102.92</ele>
        <time>2022-05-23T07:42:38.000Z</time>
      </trkpt>
      <trkpt lat="45.19865" lon="17.00092">
        <ele>101.63</ele>
        <time>2022-05-23T07:42:43.000Z</time>
      </trkpt>
      <trkpt lat="45.19858" lon="17.00119">
        <ele>99.14</ele>
        <time>2022-05-23T07:42:48.000Z</time>
      </trkpt>
      <trkpt lat="45.1985" lon="17.00146">
        <ele>95.5</ele>
        <time>2022-05-23T07:42:53.000Z</time>
      </trkpt>
      <trkpt lat="45.19843" lon="17.00175">
        <ele>92.58</ele>
        <time>2022-05-23T07:42:58.000Z</time>
      </trkpt>
      <trkpt lat="45.19837" lon="17.00204">
        <ele>90.25</ele>
        <time>2022-05-23T07:43:03.000Z</time>
      </trkpt>
      <trkpt lat="45.19833" lon="17.00235">
        <ele>89.48</ele>
        <time>2022-05-23T07:43:08.000Z</time>
      </trkpt>
      <trkpt lat="45.19834" lon="17.0027">
        <ele>94.24</ele>
        <time>2022-05-23T07:43:13.000Z</time>
      </trkpt>
      <trkpt lat="45.19833" lon="17.00301">
        <ele>95.95</ele>
        <time>2022-05-23T07:43:18.000Z</time>
      </trkpt>
      <trkpt lat="45.19832" lon="17.00333">
        <ele>98.26</ele>
        <time>2022-05-23T07:43:23.000Z</time>
      </trkpt>
      <trkpt lat="45.19829" lon="17.00366">
        <ele>98.25</ele>
        <time>2022-05-23T07:43:28.000Z</time>
      </trkpt>
      <trkpt lat="45.19825" lon="17.00403">
        <ele>99.23</ele>
        <time>2022-05-23T07:43:33.000Z</time>
      </trkpt>
      <trkpt lat="45.19823" lon="17.00441">
        <ele>100.27</ele>
        <time>2022-05-23T07:43:38.000Z</time>
      </trkpt>
      <trkpt lat="45.19822" lon="17.0048">
        <ele>100.2</ele>
        <time>2022-05-23T07:43:43.000Z</time>
      </trkpt>
      <trkpt lat="45.19821" lon="17.0052">
        <ele>99.83</ele>
        <time>2022-05-23T07:43:48.000Z</time>
      </trkpt>
      <trkpt lat="45.1982" lon="17.00562">
        <ele>98.74</ele>
        <time>2022-05-23T07:43:53.000Z</time>
      </trkpt>
      <trkpt lat="45.19819" lon="17.00605">
        <ele>96.59</ele>
        <time>2022-05-23T07:43:58.000Z</time>
      </trkpt>
      <trkpt lat="45.19819" lon="17.00648">
        <ele>94.25</ele>
        <time>2022-05-23T07:44:03.000Z</time>
      </trkpt>
      <trkpt lat="45.1982" lon="17.00687">
        <ele>91.24</ele>
        <time>2022-05-23T07:44:08.000Z</time>
      </trkpt>
      <trkpt lat="45.1982" lon="17.00723">
        <ele>89.74</ele>
        <time>2022-05-23T07:44:13.000Z</time>
      </trkpt>
      <trkpt lat="45.19821" lon="17.00756">
        <ele>88.24</ele>
        <time>2022-05-23T07:44:18.000Z</time>
      </trkpt>
      <trkpt lat="45.19823" lon="17.00787">
        <ele>85.61</ele>
        <time>2022-05-23T07:44:23.000Z</time>
      </trkpt>
      <trkpt lat="45.19827" lon="17.00818">
        <ele>83.51</ele>
        <time>2022-05-23T07:44:28.000Z</time>
      </trkpt>
      <trkpt lat="45.19831" lon="17.00852">
        <ele>81.06</ele>
        <time>2022-05-23T07:44:33.000Z</time>
      </trkpt>
      <trkpt lat="45.19837" lon="17.00885">
        <ele>81.36</ele>
        <time>2022-05-23T07:44:38.000Z</time>
      </trkpt>
      <trkpt lat="45.19844" lon="17.00918">
        <ele>82.25</ele>
        <time>2022-05-23T07:44:43.000Z</time>
      </trkpt>
      <trkpt lat="45.19851" lon="17.00953">
        <ele>83.25</ele>
        <time>2022-05-23T07:44:48.000Z</time>
      </trkpt>
      <trkpt lat="45.19858" lon="17.00988">
        <ele>84.64</ele>
        <time>2022-05-23T07:44:53.000Z</time>
      </trkpt>
      <trkpt lat="45.19864" lon="17.01027">
        <ele>83.18</ele>
        <time>2022-05-23T07:44:58.000Z</time>
      </trkpt>
      <trkpt lat="45.19875" lon="17.01064">
        <ele>83</ele>
        <time>2022-05-23T07:45:03.000Z</time>
      </trkpt>
      <trkpt lat="45.19885" lon="17.01102">
        <ele>83.3</ele>
        <time>2022-05-23T07:45:08.000Z</time>
      </trkpt>
      <trkpt lat="45.19898" lon="17.01142">
        <ele>82.92</ele>
        <time>2022-05-23T07:45:13.000Z</time>
      </trkpt>
      <trkpt lat="45.19909" lon="17.01179">
        <ele>83.1</ele>
        <time>2022-05-23T07:45:18.000Z</time>
      </trkpt>
      <trkpt lat="45.19919" lon="17.01214">
        <ele>84.21</ele>
        <time>2022-05-23T07:45:23.000Z</time>
      </trkpt>
      <trkpt lat="45.19926" lon="17.01249">
        <ele>83.94</ele>
        <time>2022-05-23T07:45:28.000Z</time>
      </trkpt>
      <trkpt lat="45.19937" lon="17.01284">
        <ele>84.48</ele>
        <time>2022-05-23T07:45:33.000Z</time>
      </trkpt>
      <trkpt lat="45.19944" lon="17.01319">
        <ele>85.17</ele>
        <time>2022-05-23T07:45:38.000Z</time>
      </trkpt>
      <trkpt lat="45.19952" lon="17.01354">
        <ele>85.43</ele>
        <time>2022-05-23T07:45:43.000Z</time>
      </trkpt>
      <trkpt lat="45.1996" lon="17.01388">
        <ele>85.33</ele>
        <time>2022-05-23T07:45:48.000Z</time>
      </trkpt>
      <trkpt lat="45.19968" lon="17.01422">
        <ele>84.77</ele>
        <time>2022-05-23T07:45:53.000Z</time>
      </trkpt>
      <trkpt lat="45.19976" lon="17.01456">
        <ele>85.03</ele>
        <time>2022-05-23T07:45:58.000Z</time>
      </trkpt>
      <trkpt lat="45.19981" lon="17.01491">
        <ele>83.99</ele>
        <time>2022-05-23T07:46:03.000Z</time>
      </trkpt>
      <trkpt lat="45.19987" lon="17.01523">
        <ele>82.24</ele>
        <time>2022-05-23T07:46:08.000Z</time>
      </trkpt>
      <trkpt lat="45.19993" lon="17.01556">
        <ele>81.76</ele>
        <time>2022-05-23T07:46:13.000Z</time>
      </trkpt>
      <trkpt lat="45.20001" lon="17.01589">
        <ele>80.83</ele>
        <time>2022-05-23T07:46:18.000Z</time>
      </trkpt>
      <trkpt lat="45.20007" lon="17.01621">
        <ele>81.31</ele>
        <time>2022-05-23T07:46:23.000Z</time>
      </trkpt>
      <trkpt lat="45.20009" lon="17.01656">
        <ele>80.96</ele>
        <time>2022-05-23T07:46:28.000Z</time>
      </trkpt>
      <trkpt lat="45.20011" lon="17.01691">
        <ele>79.82</ele>
        <time>2022-05-23T07:46:33.000Z</time>
      </trkpt>
      <trkpt lat="45.20016" lon="17.01726">
        <ele>81.27</ele>
        <time>2022-05-23T07:46:38.000Z</time>
      </trkpt>
      <trkpt lat="45.20019" lon="17.01761">
        <ele>81.5</ele>
        <time>2022-05-23T07:46:43.000Z</time>
      </trkpt>
      <trkpt lat="45.2002" lon="17.01796">
        <ele>81.1</ele>
        <time>2022-05-23T07:46:48.000Z</time>
      </trkpt>
      <trkpt lat="45.20022" lon="17.01831">
        <ele>81.24</ele>
        <time>2022-05-23T07:46:53.000Z</time>
      </trkpt>
      <trkpt lat="45.20022" lon="17.01867">
        <ele>80.87</ele>
        <time>2022-05-23T07:46:58.000Z</time>
      </trkpt>
      <trkpt lat="45.20023" lon="17.01902">
        <ele>80.92</ele>
        <time>2022-05-23T07:47:03.000Z</time>
      </trkpt>
      <trkpt lat="45.20024" lon="17.01938">
        <ele>81.49</ele>
        <time>2022-05-23T07:47:08.000Z</time>
      </trkpt>
      <trkpt lat="45.20027" lon="17.01973">
        <ele>83.32</ele>
        <time>2022-05-23T07:47:13.000Z</time>
      </trkpt>
      <trkpt lat="45.20028" lon="17.02006">
        <ele>82.61</ele>
        <time>2022-05-23T07:47:18.000Z</time>
      </trkpt>
      <trkpt lat="45.2003" lon="17.0204">
        <ele>82.32</ele>
        <time>2022-05-23T07:47:23.000Z</time>
      </trkpt>
      <trkpt lat="45.20032" lon="17.02074">
        <ele>81.03</ele>
        <time>2022-05-23T07:47:28.000Z</time>
      </trkpt>
      <trkpt lat="45.20031" lon="17.0211">
        <ele>79.95</ele>
        <time>2022-05-23T07:47:33.000Z</time>
      </trkpt>
      <trkpt lat="45.20032" lon="17.02145">
        <ele>78.05</ele>
        <time>2022-05-23T07:47:38.000Z</time>
      </trkpt>
      <trkpt lat="45.20031" lon="17.0218">
        <ele>76.59</ele>
        <time>2022-05-23T07:47:43.000Z</time>
      </trkpt>
      <trkpt lat="45.20028" lon="17.02216">
        <ele>75.27</ele>
        <time>2022-05-23T07:47:48.000Z</time>
      </trkpt>
      <trkpt lat="45.20023" lon="17.02253">
        <ele>74.19</ele>
        <time>2022-05-23T07:47:53.000Z</time>
      </trkpt>
      <trkpt lat="45.20016" lon="17.02287">
        <ele>71.05</ele>
        <time>2022-05-23T07:47:58.000Z</time>
      </trkpt>
      <trkpt lat="45.20015" lon="17.02318">
        <ele>73.52</ele>
        <time>2022-05-23T07:48:03.000Z</time>
      </trkpt>
      <trkpt lat="45.20012" lon="17.02344">
        <ele>74.09</ele>
        <time>2022-05-23T07:48:08.000Z</time>
      </trkpt>
      <trkpt lat="45.2001" lon="17.02371">
        <ele>75.62</ele>
        <time>2022-05-23T07:48:13.000Z</time>
      </trkpt>
      <trkpt lat="45.20012" lon="17.02398">
        <ele>82.04</ele>
        <time>2022-05-23T07:48:18.000Z</time>
      </trkpt>
      <trkpt lat="45.20012" lon="17.02424">
        <ele>91.93</ele>
        <time>2022-05-23T07:48:23.000Z</time>
      </trkpt>
      <trkpt lat="45.20013" lon="17.02449">
        <ele>95.25</ele>
        <time>2022-05-23T07:48:28.000Z</time>
      </trkpt>
      <trkpt lat="45.20012" lon="17.02473">
        <ele>98.16</ele>
        <time>2022-05-23T07:48:33.000Z</time>
      </trkpt>
      <trkpt lat="45.20012" lon="17.02494">
        <ele>100.17</ele>
        <time>2022-05-23T07:48:38.000Z</time>
      </trkpt>
      <trkpt lat="45.2001" lon="17.02512">
        <ele>101.33</ele>
        <time>2022-05-23T07:48:43.000Z</time>
      </trkpt>
      <trkpt lat="45.20005" lon="17.02526">
        <ele>102.3</ele>
        <time>2022-05-23T07:48:48.000Z</time>
      </trkpt>
      <trkpt lat="45.19998" lon="17.02536">
        <ele>103.77</ele>
        <time>2022-05-23T07:48:53.000Z</time>
      </trkpt>
      <trkpt lat="45.19989" lon="17.02541">
        <ele>104.71</ele>
        <time>2022-05-23T07:48:58.000Z</time>
      </trkpt>
      <trkpt lat="45.1998" lon="17.02547">
        <ele>107.64</ele>
        <time>2022-05-23T07:49:04.000Z</time>
      </trkpt>
      <trkpt lat="45.19972" lon="17.02552">
        <ele>110.8</ele>
        <time>2022-05-23T07:49:10.000Z</time>
      </trkpt>
      <trkpt lat="45.19963" lon="17.02559">
        <ele>112.81</ele>
        <time>2022-05-23T07:49:15.000Z</time>
      </trkpt>
      <trkpt lat="45.19954" lon="17.02566">
        <ele>114.42</ele>
        <time>2022-05-23T07:49:20.000Z</time>
      </trkpt>
      <trkpt lat="45.19945" lon="17.02576">
        <ele>114.65</ele>
        <time>2022-05-23T07:49:26.000Z</time>
      </trkpt>
      <trkpt lat="45.19937" lon="17.02584">
        <ele>114.19</ele>
        <time>2022-05-23T07:49:31.000Z</time>
      </trkpt>
      <trkpt lat="45.1993" lon="17.02595">
        <ele>114.42</ele>
        <time>2022-05-23T07:49:36.000Z</time>
      </trkpt>
      <trkpt lat="45.19923" lon="17.02605">
        <ele>115.33</ele>
        <time>2022-05-23T07:49:41.000Z</time>
      </trkpt>
      <trkpt lat="45.19915" lon="17.02616">
        <ele>115.67</ele>
        <time>2022-05-23T07:49:46.000Z</time>
      </trkpt>
      <trkpt lat="45.19908" lon="17.02625">
        <ele>115.41</ele>
        <time>2022-05-23T07:49:51.000Z</time>
      </trkpt>
      <trkpt lat="45.19899" lon="17.02638">
        <ele>115.2</ele>
        <time>2022-05-23T07:49:56.000Z</time>
      </trkpt>
      <trkpt lat="45.19884" lon="17.02659">
        <ele>116.95</ele>
        <time>2022-05-23T07:50:01.000Z</time>
      </trkpt>
      <trkpt lat="45.19877" lon="17.02686">
        <ele>117.16</ele>
        <time>2022-05-23T07:50:06.000Z</time>
      </trkpt>
      <trkpt lat="45.19869" lon="17.02722">
        <ele>116.25</ele>
        <time>2022-05-23T07:50:11.000Z</time>
      </trkpt>
      <trkpt lat="45.19861" lon="17.02766">
        <ele>114.9</ele>
        <time>2022-05-23T07:50:16.000Z</time>
      </trkpt>
      <trkpt lat="45.19852" lon="17.02814">
        <ele>112.94</ele>
        <time>2022-05-23T07:50:21.000Z</time>
      </trkpt>
      <trkpt lat="45.19842" lon="17.02862">
        <ele>111.59</ele>
        <time>2022-05-23T07:50:26.000Z</time>
      </trkpt>
      <trkpt lat="45.19835" lon="17.02906">
        <ele>110.95</ele>
        <time>2022-05-23T07:50:31.000Z</time>
      </trkpt>
      <trkpt lat="45.19825" lon="17.02949">
        <ele>109.16</ele>
        <time>2022-05-23T07:50:36.000Z</time>
      </trkpt>
      <trkpt lat="45.1982" lon="17.02985">
        <ele>107.93</ele>
        <time>2022-05-23T07:50:41.000Z</time>
      </trkpt>
      <trkpt lat="45.19821" lon="17.03007">
        <ele>107.14</ele>
        <time>2022-05-23T07:50:46.000Z</time>
      </trkpt>
      <trkpt lat="45.19819" lon="17.03024">
        <ele>106.41</ele>
        <time>2022-05-23T07:50:51.000Z</time>
      </trkpt>
      <trkpt lat="45.19818" lon="17.03046">
        <ele>105.44</ele>
        <time>2022-05-23T07:50:56.000Z</time>
      </trkpt>
      <trkpt lat="45.19816" lon="17.03069">
        <ele>104.68</ele>
        <time>2022-05-23T07:51:01.000Z</time>
      </trkpt>
      <trkpt lat="45.19814" lon="17.03093">
        <ele>103.95</ele>
        <time>2022-05-23T07:51:06.000Z</time>
      </trkpt>
      <trkpt lat="45.19813" lon="17.03114">
        <ele>104.89</ele>
        <time>2022-05-23T07:51:11.000Z</time>
      </trkpt>
      <trkpt lat="45.19812" lon="17.03137">
        <ele>103.49</ele>
        <time>2022-05-23T07:51:16.000Z</time>
      </trkpt>
      <trkpt lat="45.19809" lon="17.0316">
        <ele>105.48</ele>
        <time>2022-05-23T07:51:21.000Z</time>
      </trkpt>
      <trkpt lat="45.19808" lon="17.03183">
        <ele>104.86</ele>
        <time>2022-05-23T07:51:26.000Z</time>
      </trkpt>
      <trkpt lat="45.19803" lon="17.03205">
        <ele>106.23</ele>
        <time>2022-05-23T07:51:31.000Z</time>
      </trkpt>
      <trkpt lat="45.19805" lon="17.03234">
        <ele>106.94</ele>
        <time>2022-05-23T07:51:36.000Z</time>
      </trkpt>
      <trkpt lat="45.19804" lon="17.03269">
        <ele>106.64</ele>
        <time>2022-05-23T07:51:41.000Z</time>
      </trkpt>
      <trkpt lat="45.19801" lon="17.03307">
        <ele>106.26</ele>
        <time>2022-05-23T07:51:46.000Z</time>
      </trkpt>
      <trkpt lat="45.19801" lon="17.03343">
        <ele>106.29</ele>
        <time>2022-05-23T07:51:51.000Z</time>
      </trkpt>
      <trkpt lat="45.19799" lon="17.03373">
        <ele>105.65</ele>
        <time>2022-05-23T07:51:56.000Z</time>
      </trkpt>
      <trkpt lat="45.19798" lon="17.034">
        <ele>104.92</ele>
        <time>2022-05-23T07:52:01.000Z</time>
      </trkpt>
      <trkpt lat="45.19797" lon="17.0343">
        <ele>104.71</ele>
        <time>2022-05-23T07:52:06.000Z</time>
      </trkpt>
      <trkpt lat="45.19798" lon="17.03457">
        <ele>104.87</ele>
        <time>2022-05-23T07:52:11.000Z</time>
      </trkpt>
      <trkpt lat="45.19799" lon="17.0348">
        <ele>103.45</ele>
        <time>2022-05-23T07:52:16.000Z</time>
      </trkpt>
      <trkpt lat="45.19799" lon="17.035">
        <ele>102.72</ele>
        <time>2022-05-23T07:52:21.000Z</time>
      </trkpt>
      <trkpt lat="45.19802" lon="17.03518">
        <ele>103.31</ele>
        <time>2022-05-23T07:52:26.000Z</time>
      </trkpt>
      <trkpt lat="45.19802" lon="17.03539">
        <ele>104.28</ele>
        <time>2022-05-23T07:52:31.000Z</time>
      </trkpt>
      <trkpt lat="45.19801" lon="17.03564">
        <ele>109.56</ele>
        <time>2022-05-23T07:52:36.000Z</time>
      </trkpt>
      <trkpt lat="45.19802" lon="17.03584">
        <ele>111.2</ele>
        <time>2022-05-23T07:52:41.000Z</time>
      </trkpt>
      <trkpt lat="45.19802" lon="17.03606">
        <ele>112.21</ele>
        <time>2022-05-23T07:52:46.000Z</time>
      </trkpt>
      <trkpt lat="45.19805" lon="17.03631">
        <ele>111.3</ele>
        <time>2022-05-23T07:52:51.000Z</time>
      </trkpt>
      <trkpt lat="45.19807" lon="17.03658">
        <ele>110.65</ele>
        <time>2022-05-23T07:52:56.000Z</time>
      </trkpt>
      <trkpt lat="45.19812" lon="17.03686">
        <ele>109.57</ele>
        <time>2022-05-23T07:53:01.000Z</time>
      </trkpt>
      <trkpt lat="45.19812" lon="17.03716">
        <ele>110.09</ele>
        <time>2022-05-23T07:53:06.000Z</time>
      </trkpt>
      <trkpt lat="45.19817" lon="17.03747">
        <ele>109.18</ele>
        <time>2022-05-23T07:53:11.000Z</time>
      </trkpt>
      <trkpt lat="45.1982" lon="17.03777">
        <ele>108.68</ele>
        <time>2022-05-23T07:53:16.000Z</time>
      </trkpt>
      <trkpt lat="45.19826" lon="17.03808">
        <ele>106.06</ele>
        <time>2022-05-23T07:53:21.000Z</time>
      </trkpt>
      <trkpt lat="45.19833" lon="17.03844">
        <ele>105.19</ele>
        <time>2022-05-23T07:53:26.000Z</time>
      </trkpt>
      <trkpt lat="45.1983" lon="17.03879">
        <ele>104.93</ele>
        <time>2022-05-23T07:53:31.000Z</time>
      </trkpt>
      <trkpt lat="45.19822" lon="17.03914">
        <ele>105.58</ele>
        <time>2022-05-23T07:53:36.000Z</time>
      </trkpt>
      <trkpt lat="45.19811" lon="17.0395">
        <ele>105.72</ele>
        <time>2022-05-23T07:53:41.000Z</time>
      </trkpt>
      <trkpt lat="45.19801" lon="17.03982">
        <ele>104.74</ele>
        <time>2022-05-23T07:53:46.000Z</time>
      </trkpt>
      <trkpt lat="45.19791" lon="17.04013">
        <ele>104.87</ele>
        <time>2022-05-23T07:53:51.000Z</time>
      </trkpt>
      <trkpt lat="45.19782" lon="17.04045">
        <ele>105.23</ele>
        <time>2022-05-23T07:53:56.000Z</time>
      </trkpt>
      <trkpt lat="45.19773" lon="17.04077">
        <ele>106.2</ele>
        <time>2022-05-23T07:54:01.000Z</time>
      </trkpt>
      <trkpt lat="45.19763" lon="17.04113">
        <ele>106.51</ele>
        <time>2022-05-23T07:54:06.000Z</time>
      </trkpt>
      <trkpt lat="45.19746" lon="17.04153">
        <ele>106.04</ele>
        <time>2022-05-23T07:54:11.000Z</time>
      </trkpt>
      <trkpt lat="45.19726" lon="17.04192">
        <ele>104.79</ele>
        <time>2022-05-23T07:54:16.000Z</time>
      </trkpt>
      <trkpt lat="45.19707" lon="17.04224">
        <ele>104.12</ele>
        <time>2022-05-23T07:54:21.000Z</time>
      </trkpt>
      <trkpt lat="45.1969" lon="17.04253">
        <ele>104.59</ele>
        <time>2022-05-23T07:54:26.000Z</time>
      </trkpt>
      <trkpt lat="45.19675" lon="17.04278">
        <ele>104.11</ele>
        <time>2022-05-23T07:54:31.000Z</time>
      </trkpt>
      <trkpt lat="45.19661" lon="17.04301">
        <ele>103.95</ele>
        <time>2022-05-23T07:54:36.000Z</time>
      </trkpt>
      <trkpt lat="45.19649" lon="17.04324">
        <ele>103.63</ele>
        <time>2022-05-23T07:54:41.000Z</time>
      </trkpt>
      <trkpt lat="45.19635" lon="17.04349">
        <ele>103.42</ele>
        <time>2022-05-23T07:54:46.000Z</time>
      </trkpt>
      <trkpt lat="45.19622" lon="17.04376">
        <ele>102.23</ele>
        <time>2022-05-23T07:54:51.000Z</time>
      </trkpt>
      <trkpt lat="45.19609" lon="17.04403">
        <ele>101.94</ele>
        <time>2022-05-23T07:54:56.000Z</time>
      </trkpt>
      <trkpt lat="45.19597" lon="17.04433">
        <ele>101.91</ele>
        <time>2022-05-23T07:55:01.000Z</time>
      </trkpt>
      <trkpt lat="45.1958" lon="17.04465">
        <ele>101.36</ele>
        <time>2022-05-23T07:55:06.000Z</time>
      </trkpt>
      <trkpt lat="45.19569" lon="17.04497">
        <ele>100.15</ele>
        <time>2022-05-23T07:55:11.000Z</time>
      </trkpt>
      <trkpt lat="45.19554" lon="17.0453">
        <ele>99.14</ele>
        <time>2022-05-23T07:55:16.000Z</time>
      </trkpt>
      <trkpt lat="45.19538" lon="17.04563">
        <ele>97.42</ele>
        <time>2022-05-23T07:55:21.000Z</time>
      </trkpt>
      <trkpt lat="45.19523" lon="17.04597">
        <ele>97.61</ele>
        <time>2022-05-23T07:55:26.000Z</time>
      </trkpt>
      <trkpt lat="45.19508" lon="17.04629">
        <ele>98.96</ele>
        <time>2022-05-23T07:55:31.000Z</time>
      </trkpt>
      <trkpt lat="45.19493" lon="17.0466">
        <ele>100.08</ele>
        <time>2022-05-23T07:55:36.000Z</time>
      </trkpt>
      <trkpt lat="45.19479" lon="17.0469">
        <ele>100.08</ele>
        <time>2022-05-23T07:55:41.000Z</time>
      </trkpt>
      <trkpt lat="45.19468" lon="17.0472">
        <ele>100.5</ele>
        <time>2022-05-23T07:55:46.000Z</time>
      </trkpt>
      <trkpt lat="45.19459" lon="17.0475">
        <ele>100.63</ele>
        <time>2022-05-23T07:55:51.000Z</time>
      </trkpt>
      <trkpt lat="45.19448" lon="17.0478">
        <ele>101.59</ele>
        <time>2022-05-23T07:55:56.000Z</time>
      </trkpt>
      <trkpt lat="45.19439" lon="17.04812">
        <ele>103.32</ele>
        <time>2022-05-23T07:56:01.000Z</time>
      </trkpt>
      <trkpt lat="45.19429" lon="17.04842">
        <ele>103.01</ele>
        <time>2022-05-23T07:56:06.000Z</time>
      </trkpt>
      <trkpt lat="45.19417" lon="17.04874">
        <ele>103.21</ele>
        <time>2022-05-23T07:56:11.000Z</time>
      </trkpt>
      <trkpt lat="45.19407" lon="17.04903">
        <ele>104.4</ele>
        <time>2022-05-23T07:56:16.000Z</time>
      </trkpt>
      <trkpt lat="45.19395" lon="17.04933">
        <ele>104.65</ele>
        <time>2022-05-23T07:56:21.000Z</time>
      </trkpt>
      <trkpt lat="45.19386" lon="17.0496">
        <ele>104.6</ele>
        <time>2022-05-23T07:56:26.000Z</time>
      </trkpt>
      <trkpt lat="45.19376" lon="17.04987">
        <ele>104.4</ele>
        <time>2022-05-23T07:56:31.000Z</time>
      </trkpt>
      <trkpt lat="45.19366" lon="17.05016">
        <ele>104.35</ele>
        <time>2022-05-23T07:56:36.000Z</time>
      </trkpt>
      <trkpt lat="45.19348" lon="17.05042">
        <ele>103.38</ele>
        <time>2022-05-23T07:56:41.000Z</time>
      </trkpt>
      <trkpt lat="45.19333" lon="17.05065">
        <ele>102.63</ele>
        <time>2022-05-23T07:56:46.000Z</time>
      </trkpt>
      <trkpt lat="45.19321" lon="17.0508">
        <ele>102.02</ele>
        <time>2022-05-23T07:56:51.000Z</time>
      </trkpt>
      <trkpt lat="45.19306" lon="17.05099">
        <ele>103.37</ele>
        <time>2022-05-23T07:56:56.000Z</time>
      </trkpt>
      <trkpt lat="45.19292" lon="17.05119">
        <ele>104.25</ele>
        <time>2022-05-23T07:57:01.000Z</time>
      </trkpt>
      <trkpt lat="45.19281" lon="17.05139">
        <ele>105.68</ele>
        <time>2022-05-23T07:57:06.000Z</time>
      </trkpt>
      <trkpt lat="45.1927" lon="17.05159">
        <ele>106.98</ele>
        <time>2022-05-23T07:57:11.000Z</time>
      </trkpt>
      <trkpt lat="45.19258" lon="17.05182">
        <ele>106.34</ele>
        <time>2022-05-23T07:57:16.000Z</time>
      </trkpt>
      <trkpt lat="45.19244" lon="17.05208">
        <ele>105.78</ele>
        <time>2022-05-23T07:57:21.000Z</time>
      </trkpt>
      <trkpt lat="45.19232" lon="17.05234">
        <ele>104.3</ele>
        <time>2022-05-23T07:57:26.000Z</time>
      </trkpt>
      <trkpt lat="45.19224" lon="17.05257">
        <ele>104.01</ele>
        <time>2022-05-23T07:57:31.000Z</time>
      </trkpt>
      <trkpt lat="45.19212" lon="17.05292">
        <ele>103.9</ele>
        <time>2022-05-23T07:57:36.000Z</time>
      </trkpt>
      <trkpt lat="45.19205" lon="17.05313">
        <ele>105.47</ele>
        <time>2022-05-23T07:57:41.000Z</time>
      </trkpt>
      <trkpt lat="45.19194" lon="17.05338">
        <ele>105.35</ele>
        <time>2022-05-23T07:57:46.000Z</time>
      </trkpt>
      <trkpt lat="45.19185" lon="17.05364">
        <ele>104.6</ele>
        <time>2022-05-23T07:57:51.000Z</time>
      </trkpt>
      <trkpt lat="45.19172" lon="17.05394">
        <ele>105.37</ele>
        <time>2022-05-23T07:57:56.000Z</time>
      </trkpt>
      <trkpt lat="45.19159" lon="17.05424">
        <ele>104.07</ele>
        <time>2022-05-23T07:58:01.000Z</time>
      </trkpt>
      <trkpt lat="45.19147" lon="17.05453">
        <ele>104.33</ele>
        <time>2022-05-23T07:58:06.000Z</time>
      </trkpt>
      <trkpt lat="45.19136" lon="17.05483">
        <ele>104.1</ele>
        <time>2022-05-23T07:58:11.000Z</time>
      </trkpt>
      <trkpt lat="45.19127" lon="17.05515">
        <ele>103.29</ele>
        <time>2022-05-23T07:58:16.000Z</time>
      </trkpt>
      <trkpt lat="45.19119" lon="17.05546">
        <ele>102.21</ele>
        <time>2022-05-23T07:58:21.000Z</time>
      </trkpt>
      <trkpt lat="45.19115" lon="17.05576">
        <ele>102.5</ele>
        <time>2022-05-23T07:58:26.000Z</time>
      </trkpt>
      <trkpt lat="45.1912" lon="17.05609">
        <ele>101.74</ele>
        <time>2022-05-23T07:58:31.000Z</time>
      </trkpt>
      <trkpt lat="45.19118" lon="17.05644">
        <ele>101.57</ele>
        <time>2022-05-23T07:58:36.000Z</time>
      </trkpt>
      <trkpt lat="45.19113" lon="17.05683">
        <ele>100.67</ele>
        <time>2022-05-23T07:58:41.000Z</time>
      </trkpt>
      <trkpt lat="45.19104" lon="17.0572">
        <ele>99.35</ele>
        <time>2022-05-23T07:58:46.000Z</time>
      </trkpt>
      <trkpt lat="45.19094" lon="17.05748">
        <ele>99.39</ele>
        <time>2022-05-23T07:58:51.000Z</time>
      </trkpt>
      <trkpt lat="45.19086" lon="17.05774">
        <ele>98.41</ele>
        <time>2022-05-23T07:58:56.000Z</time>
      </trkpt>
      <trkpt lat="45.19075" lon="17.05805">
        <ele>99.7</ele>
        <time>2022-05-23T07:59:01.000Z</time>
      </trkpt>
      <trkpt lat="45.19066" lon="17.05831">
        <ele>100.65</ele>
        <time>2022-05-23T07:59:06.000Z</time>
      </trkpt>
      <trkpt lat="45.19058" lon="17.0586">
        <ele>102.32</ele>
        <time>2022-05-23T07:59:11.000Z</time>
      </trkpt>
      <trkpt lat="45.1905" lon="17.05889">
        <ele>103.96</ele>
        <time>2022-05-23T07:59:16.000Z</time>
      </trkpt>
      <trkpt lat="45.19042" lon="17.05921">
        <ele>102.58</ele>
        <time>2022-05-23T07:59:21.000Z</time>
      </trkpt>
      <trkpt lat="45.19033" lon="17.05953">
        <ele>102.85</ele>
        <time>2022-05-23T07:59:26.000Z</time>
      </trkpt>
      <trkpt lat="45.19024" lon="17.05987">
        <ele>101.7</ele>
        <time>2022-05-23T07:59:31.000Z</time>
      </trkpt>
      <trkpt lat="45.19016" lon="17.0602">
        <ele>101</ele>
        <time>2022-05-23T07:59:36.000Z</time>
      </trkpt>
      <trkpt lat="45.19003" lon="17.06055">
        <ele>100.62</ele>
        <time>2022-05-23T07:59:41.000Z</time>
      </trkpt>
      <trkpt lat="45.18993" lon="17.06095">
        <ele>100.28</ele>
        <time>2022-05-23T07:59:46.000Z</time>
      </trkpt>
      <trkpt lat="45.18979" lon="17.06133">
        <ele>100.68</ele>
        <time>2022-05-23T07:59:51.000Z</time>
      </trkpt>
      <trkpt lat="45.18961" lon="17.06167">
        <ele>99.18</ele>
        <time>2022-05-23T07:59:56.000Z</time>
      </trkpt>
      <trkpt lat="45.18945" lon="17.06195">
        <ele>98.36</ele>
        <time>2022-05-23T08:00:01.000Z</time>
      </trkpt>
      <trkpt lat="45.18929" lon="17.06224">
        <ele>97.11</ele>
        <time>2022-05-23T08:00:06.000Z</time>
      </trkpt>
      <trkpt lat="45.18916" lon="17.06259">
        <ele>97.09</ele>
        <time>2022-05-23T08:00:11.000Z</time>
      </trkpt>
      <trkpt lat="45.18902" lon="17.06292">
        <ele>98.11</ele>
        <time>2022-05-23T08:00:16.000Z</time>
      </trkpt>
      <trkpt lat="45.18886" lon="17.06322">
        <ele>98.17</ele>
        <time>2022-05-23T08:00:21.000Z</time>
      </trkpt>
      <trkpt lat="45.1887" lon="17.06351">
        <ele>98.19</ele>
        <time>2022-05-23T08:00:26.000Z</time>
      </trkpt>
      <trkpt lat="45.18855" lon="17.06379">
        <ele>98.2</ele>
        <time>2022-05-23T08:00:31.000Z</time>
      </trkpt>
      <trkpt lat="45.1884" lon="17.06407">
        <ele>99.02</ele>
        <time>2022-05-23T08:00:36.000Z</time>
      </trkpt>
      <trkpt lat="45.18825" lon="17.06436">
        <ele>99.54</ele>
        <time>2022-05-23T08:00:41.000Z</time>
      </trkpt>
      <trkpt lat="45.1881" lon="17.06463">
        <ele>100.2</ele>
        <time>2022-05-23T08:00:46.000Z</time>
      </trkpt>
      <trkpt lat="45.18795" lon="17.06492">
        <ele>100.9</ele>
        <time>2022-05-23T08:00:51.000Z</time>
      </trkpt>
      <trkpt lat="45.18778" lon="17.06521">
        <ele>101.78</ele>
        <time>2022-05-23T08:00:56.000Z</time>
      </trkpt>
      <trkpt lat="45.18762" lon="17.06549">
        <ele>101.3</ele>
        <time>2022-05-23T08:01:01.000Z</time>
      </trkpt>
      <trkpt lat="45.18747" lon="17.06576">
        <ele>99.85</ele>
        <time>2022-05-23T08:01:06.000Z</time>
      </trkpt>
      <trkpt lat="45.18734" lon="17.06598">
        <ele>100.28</ele>
        <time>2022-05-23T08:01:11.000Z</time>
      </trkpt>
      <trkpt lat="45.1872" lon="17.0662">
        <ele>99.83</ele>
        <time>2022-05-23T08:01:16.000Z</time>
      </trkpt>
      <trkpt lat="45.18707" lon="17.06644">
        <ele>99.55</ele>
        <time>2022-05-23T08:01:21.000Z</time>
      </trkpt>
      <trkpt lat="45.18694" lon="17.06666">
        <ele>99.3</ele>
        <time>2022-05-23T08:01:26.000Z</time>
      </trkpt>
      <trkpt lat="45.18681" lon="17.06688">
        <ele>99.06</ele>
        <time>2022-05-23T08:01:31.000Z</time>
      </trkpt>
      <trkpt lat="45.18668" lon="17.06712">
        <ele>98.35</ele>
        <time>2022-05-23T08:01:36.000Z</time>
      </trkpt>
      <trkpt lat="45.18654" lon="17.06737">
        <ele>97.81</ele>
        <time>2022-05-23T08:01:41.000Z</time>
      </trkpt>
      <trkpt lat="45.18643" lon="17.06762">
        <ele>96.39</ele>
        <time>2022-05-23T08:01:46.000Z</time>
      </trkpt>
      <trkpt lat="45.18631" lon="17.06792">
        <ele>97.32</ele>
        <time>2022-05-23T08:01:51.000Z</time>
      </trkpt>
      <trkpt lat="45.1862" lon="17.06821">
        <ele>98.28</ele>
        <time>2022-05-23T08:01:56.000Z</time>
      </trkpt>
      <trkpt lat="45.18609" lon="17.06849">
        <ele>98.48</ele>
        <time>2022-05-23T08:02:01.000Z</time>
      </trkpt>
      <trkpt lat="45.186" lon="17.06876">
        <ele>97.93</ele>
        <time>2022-05-23T08:02:06.000Z</time>
      </trkpt>
      <trkpt lat="45.1859" lon="17.06903">
        <ele>98.18</ele>
        <time>2022-05-23T08:02:11.000Z</time>
      </trkpt>
      <trkpt lat="45.18581" lon="17.06929">
        <ele>99.13</ele>
        <time>2022-05-23T08:02:16.000Z</time>
      </trkpt>
      <trkpt lat="45.18571" lon="17.06958">
        <ele>99.92</ele>
        <time>2022-05-23T08:02:21.000Z</time>
      </trkpt>
      <trkpt lat="45.18562" lon="17.06986">
        <ele>100.01</ele>
        <time>2022-05-23T08:02:26.000Z</time>
      </trkpt>
      <trkpt lat="45.18551" lon="17.07014">
        <ele>99.53</ele>
        <time>2022-05-23T08:02:31.000Z</time>
      </trkpt>
      <trkpt lat="45.18544" lon="17.0704">
        <ele>98.11</ele>
        <time>2022-05-23T08:02:36.000Z</time>
      </trkpt>
      <trkpt lat="45.18535" lon="17.07067">
        <ele>97.6</ele>
        <time>2022-05-23T08:02:41.000Z</time>
      </trkpt>
      <trkpt lat="45.18527" lon="17.07094">
        <ele>97.28</ele>
        <time>2022-05-23T08:02:46.000Z</time>
      </trkpt>
      <trkpt lat="45.18518" lon="17.07123">
        <ele>96.74</ele>
        <time>2022-05-23T08:02:51.000Z</time>
      </trkpt>
      <trkpt lat="45.18513" lon="17.07151">
        <ele>95.63</ele>
        <time>2022-05-23T08:02:56.000Z</time>
      </trkpt>
      <trkpt lat="45.18506" lon="17.0718">
        <ele>96.1</ele>
        <time>2022-05-23T08:03:01.000Z</time>
      </trkpt>
      <trkpt lat="45.18501" lon="17.0721">
        <ele>97.97</ele>
        <time>2022-05-23T08:03:06.000Z</time>
      </trkpt>
      <trkpt lat="45.18496" lon="17.0724">
        <ele>98.97</ele>
        <time>2022-05-23T08:03:11.000Z</time>
      </trkpt>
      <trkpt lat="45.18492" lon="17.0727">
        <ele>98.72</ele>
        <time>2022-05-23T08:03:16.000Z</time>
      </trkpt>
      <trkpt lat="45.18485" lon="17.07297">
        <ele>97.84</ele>
        <time>2022-05-23T08:03:21.000Z</time>
      </trkpt>
      <trkpt lat="45.1848" lon="17.07324">
        <ele>96.93</ele>
        <time>2022-05-23T08:03:26.000Z</time>
      </trkpt>
      <trkpt lat="45.1847" lon="17.07351">
        <ele>96.74</ele>
        <time>2022-05-23T08:03:31.000Z</time>
      </trkpt>
      <trkpt lat="45.18458" lon="17.07377">
        <ele>97.07</ele>
        <time>2022-05-23T08:03:36.000Z</time>
      </trkpt>
      <trkpt lat="45.18447" lon="17.07406">
        <ele>98.11</ele>
        <time>2022-05-23T08:03:41.000Z</time>
      </trkpt>
      <trkpt lat="45.18436" lon="17.07436">
        <ele>98.99</ele>
        <time>2022-05-23T08:03:46.000Z</time>
      </trkpt>
      <trkpt lat="45.18427" lon="17.07467">
        <ele>100.06</ele>
        <time>2022-05-23T08:03:51.000Z</time>
      </trkpt>
      <trkpt lat="45.18418" lon="17.07497">
        <ele>99.29</ele>
        <time>2022-05-23T08:03:56.000Z</time>
      </trkpt>
      <trkpt lat="45.18411" lon="17.07527">
        <ele>98.8</ele>
        <time>2022-05-23T08:04:01.000Z</time>
      </trkpt>
      <trkpt lat="45.18407" lon="17.07558">
        <ele>96.93</ele>
        <time>2022-05-23T08:04:06.000Z</time>
      </trkpt>
      <trkpt lat="45.18398" lon="17.07591">
        <ele>97.49</ele>
        <time>2022-05-23T08:04:11.000Z</time>
      </trkpt>
      <trkpt lat="45.18391" lon="17.07623">
        <ele>97.9</ele>
        <time>2022-05-23T08:04:16.000Z</time>
      </trkpt>
      <trkpt lat="45.18386" lon="17.07652">
        <ele>97.4</ele>
        <time>2022-05-23T08:04:21.000Z</time>
      </trkpt>
      <trkpt lat="45.18379" lon="17.0768">
        <ele>98.1</ele>
        <time>2022-05-23T08:04:26.000Z</time>
      </trkpt>
      <trkpt lat="45.18372" lon="17.07711">
        <ele>97.73</ele>
        <time>2022-05-23T08:04:31.000Z</time>
      </trkpt>
      <trkpt lat="45.18369" lon="17.07742">
        <ele>97.9</ele>
        <time>2022-05-23T08:04:36.000Z</time>
      </trkpt>
      <trkpt lat="45.18365" lon="17.07774">
        <ele>98.87</ele>
        <time>2022-05-23T08:04:41.000Z</time>
      </trkpt>
      <trkpt lat="45.18358" lon="17.07807">
        <ele>99.47</ele>
        <time>2022-05-23T08:04:46.000Z</time>
      </trkpt>
      <trkpt lat="45.18353" lon="17.0784">
        <ele>99.02</ele>
        <time>2022-05-23T08:04:51.000Z</time>
      </trkpt>
      <trkpt lat="45.18346" lon="17.07872">
        <ele>97.58</ele>
        <time>2022-05-23T08:04:56.000Z</time>
      </trkpt>
      <trkpt lat="45.1834" lon="17.07904">
        <ele>97.35</ele>
        <time>2022-05-23T08:05:01.000Z</time>
      </trkpt>
      <trkpt lat="45.18332" lon="17.07932">
        <ele>97.9</ele>
        <time>2022-05-23T08:05:06.000Z</time>
      </trkpt>
      <trkpt lat="45.18318" lon="17.07961">
        <ele>98.39</ele>
        <time>2022-05-23T08:05:11.000Z</time>
      </trkpt>
      <trkpt lat="45.18307" lon="17.0799">
        <ele>98.87</ele>
        <time>2022-05-23T08:05:16.000Z</time>
      </trkpt>
      <trkpt lat="45.18294" lon="17.08018">
        <ele>99.1</ele>
        <time>2022-05-23T08:05:21.000Z</time>
      </trkpt>
      <trkpt lat="45.18286" lon="17.0805">
        <ele>99.71</ele>
        <time>2022-05-23T08:05:26.000Z</time>
      </trkpt>
      <trkpt lat="45.18279" lon="17.08085">
        <ele>100.76</ele>
        <time>2022-05-23T08:05:31.000Z</time>
      </trkpt>
      <trkpt lat="45.18266" lon="17.08119">
        <ele>100.87</ele>
        <time>2022-05-23T08:05:36.000Z</time>
      </trkpt>
      <trkpt lat="45.18255" lon="17.08154">
        <ele>100.37</ele>
        <time>2022-05-23T08:05:41.000Z</time>
      </trkpt>
      <trkpt lat="45.18242" lon="17.08189">
        <ele>97.86</ele>
        <time>2022-05-23T08:05:46.000Z</time>
      </trkpt>
      <trkpt lat="45.18231" lon="17.0822">
        <ele>96.42</ele>
        <time>2022-05-23T08:05:51.000Z</time>
      </trkpt>
      <trkpt lat="45.18216" lon="17.08252">
        <ele>95.61</ele>
        <time>2022-05-23T08:05:56.000Z</time>
      </trkpt>
      <trkpt lat="45.182" lon="17.08279">
        <ele>95.6</ele>
        <time>2022-05-23T08:06:01.000Z</time>
      </trkpt>
      <trkpt lat="45.18187" lon="17.08308">
        <ele>95.49</ele>
        <time>2022-05-23T08:06:06.000Z</time>
      </trkpt>
      <trkpt lat="45.18172" lon="17.08335">
        <ele>95.19</ele>
        <time>2022-05-23T08:06:11.000Z</time>
      </trkpt>
      <trkpt lat="45.18157" lon="17.08363">
        <ele>95.54</ele>
        <time>2022-05-23T08:06:16.000Z</time>
      </trkpt>
      <trkpt lat="45.18145" lon="17.08392">
        <ele>95.93</ele>
        <time>2022-05-23T08:06:21.000Z</time>
      </trkpt>
      <trkpt lat="45.18131" lon="17.0842">
        <ele>97.65</ele>
        <time>2022-05-23T08:06:26.000Z</time>
      </trkpt>
      <trkpt lat="45.18119" lon="17.0845">
        <ele>98.79</ele>
        <time>2022-05-23T08:06:31.000Z</time>
      </trkpt>
      <trkpt lat="45.18106" lon="17.08478">
        <ele>99.21</ele>
        <time>2022-05-23T08:06:36.000Z</time>
      </trkpt>
      <trkpt lat="45.18097" lon="17.08508">
        <ele>99.16</ele>
        <time>2022-05-23T08:06:41.000Z</time>
      </trkpt>
      <trkpt lat="45.18088" lon="17.0854">
        <ele>99.36</ele>
        <time>2022-05-23T08:06:46.000Z</time>
      </trkpt>
      <trkpt lat="45.18085" lon="17.08576">
        <ele>99.63</ele>
        <time>2022-05-23T08:06:51.000Z</time>
      </trkpt>
      <trkpt lat="45.18086" lon="17.08618">
        <ele>99.79</ele>
        <time>2022-05-23T08:06:56.000Z</time>
      </trkpt>
      <trkpt lat="45.18085" lon="17.08661">
        <ele>98.69</ele>
        <time>2022-05-23T08:07:01.000Z</time>
      </trkpt>
      <trkpt lat="45.1808" lon="17.08701">
        <ele>97.87</ele>
        <time>2022-05-23T08:07:06.000Z</time>
      </trkpt>
      <trkpt lat="45.1807" lon="17.08739">
        <ele>97.47</ele>
        <time>2022-05-23T08:07:11.000Z</time>
      </trkpt>
      <trkpt lat="45.18063" lon="17.08777">
        <ele>97.66</ele>
        <time>2022-05-23T08:07:16.000Z</time>
      </trkpt>
      <trkpt lat="45.18053" lon="17.08813">
        <ele>96.04</ele>
        <time>2022-05-23T08:07:21.000Z</time>
      </trkpt>
      <trkpt lat="45.18045" lon="17.08849">
        <ele>96</ele>
        <time>2022-05-23T08:07:26.000Z</time>
      </trkpt>
      <trkpt lat="45.18038" lon="17.08882">
        <ele>95.8</ele>
        <time>2022-05-23T08:07:31.000Z</time>
      </trkpt>
      <trkpt lat="45.1803" lon="17.08913">
        <ele>95.13</ele>
        <time>2022-05-23T08:07:36.000Z</time>
      </trkpt>
      <trkpt lat="45.18023" lon="17.08944">
        <ele>95.01</ele>
        <time>2022-05-23T08:07:41.000Z</time>
      </trkpt>
      <trkpt lat="45.18016" lon="17.08973">
        <ele>94.77</ele>
        <time>2022-05-23T08:07:46.000Z</time>
      </trkpt>
      <trkpt lat="45.18009" lon="17.09003">
        <ele>95.26</ele>
        <time>2022-05-23T08:07:51.000Z</time>
      </trkpt>
      <trkpt lat="45.18003" lon="17.09034">
        <ele>94.37</ele>
        <time>2022-05-23T08:07:56.000Z</time>
      </trkpt>
      <trkpt lat="45.17997" lon="17.09068">
        <ele>93.56</ele>
        <time>2022-05-23T08:08:01.000Z</time>
      </trkpt>
      <trkpt lat="45.17992" lon="17.09101">
        <ele>92.61</ele>
        <time>2022-05-23T08:08:06.000Z</time>
      </trkpt>
      <trkpt lat="45.17986" lon="17.09131">
        <ele>92</ele>
        <time>2022-05-23T08:08:11.000Z</time>
      </trkpt>
      <trkpt lat="45.17974" lon="17.09161">
        <ele>90.11</ele>
        <time>2022-05-23T08:08:16.000Z</time>
      </trkpt>
      <trkpt lat="45.17964" lon="17.09192">
        <ele>90.65</ele>
        <time>2022-05-23T08:08:21.000Z</time>
      </trkpt>
      <trkpt lat="45.17955" lon="17.09221">
        <ele>91.02</ele>
        <time>2022-05-23T08:08:26.000Z</time>
      </trkpt>
      <trkpt lat="45.17945" lon="17.0925">
        <ele>91.14</ele>
        <time>2022-05-23T08:08:31.000Z</time>
      </trkpt>
      <trkpt lat="45.17933" lon="17.09274">
        <ele>91.7</ele>
        <time>2022-05-23T08:08:36.000Z</time>
      </trkpt>
      <trkpt lat="45.17915" lon="17.09296">
        <ele>91.21</ele>
        <time>2022-05-23T08:08:41.000Z</time>
      </trkpt>
      <trkpt lat="45.179" lon="17.09319">
        <ele>90.97</ele>
        <time>2022-05-23T08:08:46.000Z</time>
      </trkpt>
      <trkpt lat="45.17884" lon="17.09344">
        <ele>91.07</ele>
        <time>2022-05-23T08:08:51.000Z</time>
      </trkpt>
      <trkpt lat="45.17867" lon="17.09371">
        <ele>91.55</ele>
        <time>2022-05-23T08:08:56.000Z</time>
      </trkpt>
      <trkpt lat="45.17848" lon="17.09396">
        <ele>93</ele>
        <time>2022-05-23T08:09:01.000Z</time>
      </trkpt>
      <trkpt lat="45.17827" lon="17.09422">
        <ele>94.85</ele>
        <time>2022-05-23T08:09:06.000Z</time>
      </trkpt>
      <trkpt lat="45.17809" lon="17.09447">
        <ele>96.22</ele>
        <time>2022-05-23T08:09:11.000Z</time>
      </trkpt>
      <trkpt lat="45.17791" lon="17.09473">
        <ele>96.37</ele>
        <time>2022-05-23T08:09:16.000Z</time>
      </trkpt>
      <trkpt lat="45.17773" lon="17.09501">
        <ele>96.27</ele>
        <time>2022-05-23T08:09:21.000Z</time>
      </trkpt>
      <trkpt lat="45.17756" lon="17.09529">
        <ele>97.31</ele>
        <time>2022-05-23T08:09:26.000Z</time>
      </trkpt>
      <trkpt lat="45.1774" lon="17.09559">
        <ele>97.72</ele>
        <time>2022-05-23T08:09:31.000Z</time>
      </trkpt>
      <trkpt lat="45.17724" lon="17.09589">
        <ele>97.62</ele>
        <time>2022-05-23T08:09:36.000Z</time>
      </trkpt>
      <trkpt lat="45.1771" lon="17.09624">
        <ele>98.13</ele>
        <time>2022-05-23T08:09:41.000Z</time>
      </trkpt>
      <trkpt lat="45.17692" lon="17.09658">
        <ele>99.02</ele>
        <time>2022-05-23T08:09:46.000Z</time>
      </trkpt>
      <trkpt lat="45.17675" lon="17.09692">
        <ele>98.5</ele>
        <time>2022-05-23T08:09:51.000Z</time>
      </trkpt>
      <trkpt lat="45.17658" lon="17.09726">
        <ele>97.42</ele>
        <time>2022-05-23T08:09:56.000Z</time>
      </trkpt>
      <trkpt lat="45.17643" lon="17.0976">
        <ele>96.07</ele>
        <time>2022-05-23T08:10:01.000Z</time>
      </trkpt>
      <trkpt lat="45.17629" lon="17.09792">
        <ele>95.39</ele>
        <time>2022-05-23T08:10:06.000Z</time>
      </trkpt>
      <trkpt lat="45.17614" lon="17.09824">
        <ele>95.32</ele>
        <time>2022-05-23T08:10:11.000Z</time>
      </trkpt>
      <trkpt lat="45.17598" lon="17.09855">
        <ele>94.91</ele>
        <time>2022-05-23T08:10:16.000Z</time>
      </trkpt>
      <trkpt lat="45.17582" lon="17.09886">
        <ele>94.93</ele>
        <time>2022-05-23T08:10:21.000Z</time>
      </trkpt>
      <trkpt lat="45.17569" lon="17.09916">
        <ele>95.52</ele>
        <time>2022-05-23T08:10:26.000Z</time>
      </trkpt>
      <trkpt lat="45.17554" lon="17.09946">
        <ele>95.12</ele>
        <time>2022-05-23T08:10:31.000Z</time>
      </trkpt>
      <trkpt lat="45.17543" lon="17.09971">
        <ele>95.14</ele>
        <time>2022-05-23T08:10:36.000Z</time>
      </trkpt>
      <trkpt lat="45.17533" lon="17.09994">
        <ele>96.06</ele>
        <time>2022-05-23T08:10:41.000Z</time>
      </trkpt>
      <trkpt lat="45.17522" lon="17.10017">
        <ele>96.2</ele>
        <time>2022-05-23T08:10:46.000Z</time>
      </trkpt>
      <trkpt lat="45.17514" lon="17.10035">
        <ele>96.49</ele>
        <time>2022-05-23T08:10:51.000Z</time>
      </trkpt>
      <trkpt lat="45.17503" lon="17.1005">
        <ele>97.98</ele>
        <time>2022-05-23T08:10:56.000Z</time>
      </trkpt>
      <trkpt lat="45.17495" lon="17.10063">
        <ele>100.32</ele>
        <time>2022-05-23T08:11:50.000Z</time>
      </trkpt>
      <trkpt lat="45.17484" lon="17.10085">
        <ele>100.28</ele>
        <time>2022-05-23T08:11:55.000Z</time>
      </trkpt>
      <trkpt lat="45.17474" lon="17.10111">
        <ele>101.33</ele>
        <time>2022-05-23T08:12:00.000Z</time>
      </trkpt>
      <trkpt lat="45.17464" lon="17.10138">
        <ele>102.31</ele>
        <time>2022-05-23T08:12:05.000Z</time>
      </trkpt>
      <trkpt lat="45.17459" lon="17.10168">
        <ele>102.28</ele>
        <time>2022-05-23T08:12:10.000Z</time>
      </trkpt>
      <trkpt lat="45.17458" lon="17.10198">
        <ele>100.83</ele>
        <time>2022-05-23T08:12:15.000Z</time>
      </trkpt>
      <trkpt lat="45.17459" lon="17.10228">
        <ele>99.16</ele>
        <time>2022-05-23T08:12:20.000Z</time>
      </trkpt>
      <trkpt lat="45.17462" lon="17.10258">
        <ele>97.73</ele>
        <time>2022-05-23T08:12:25.000Z</time>
      </trkpt>
      <trkpt lat="45.17464" lon="17.10288">
        <ele>96.08</ele>
        <time>2022-05-23T08:12:30.000Z</time>
      </trkpt>
      <trkpt lat="45.17468" lon="17.10317">
        <ele>96.15</ele>
        <time>2022-05-23T08:12:35.000Z</time>
      </trkpt>
      <trkpt lat="45.1747" lon="17.10349">
        <ele>95.47</ele>
        <time>2022-05-23T08:12:40.000Z</time>
      </trkpt>
      <trkpt lat="45.17467" lon="17.1038">
        <ele>95.69</ele>
        <time>2022-05-23T08:12:45.000Z</time>
      </trkpt>
      <trkpt lat="45.17463" lon="17.10412">
        <ele>96.51</ele>
        <time>2022-05-23T08:12:50.000Z</time>
      </trkpt>
      <trkpt lat="45.17456" lon="17.10447">
        <ele>95.83</ele>
        <time>2022-05-23T08:12:55.000Z</time>
      </trkpt>
      <trkpt lat="45.17453" lon="17.10485">
        <ele>95.26</ele>
        <time>2022-05-23T08:13:00.000Z</time>
      </trkpt>
      <trkpt lat="45.17448" lon="17.10522">
        <ele>95.21</ele>
        <time>2022-05-23T08:13:05.000Z</time>
      </trkpt>
      <trkpt lat="45.17442" lon="17.1056">
        <ele>93.14</ele>
        <time>2022-05-23T08:13:10.000Z</time>
      </trkpt>
      <trkpt lat="45.17435" lon="17.10597">
        <ele>92.87</ele>
        <time>2022-05-23T08:13:15.000Z</time>
      </trkpt>
      <trkpt lat="45.17426" lon="17.10631">
        <ele>91.42</ele>
        <time>2022-05-23T08:13:20.000Z</time>
      </trkpt>
      <trkpt lat="45.17414" lon="17.10663">
        <ele>91.33</ele>
        <time>2022-05-23T08:13:25.000Z</time>
      </trkpt>
      <trkpt lat="45.17405" lon="17.10698">
        <ele>91.94</ele>
        <time>2022-05-23T08:13:30.000Z</time>
      </trkpt>
      <trkpt lat="45.17394" lon="17.1073">
        <ele>93.49</ele>
        <time>2022-05-23T08:13:35.000Z</time>
      </trkpt>
      <trkpt lat="45.17385" lon="17.10764">
        <ele>95.36</ele>
        <time>2022-05-23T08:13:40.000Z</time>
      </trkpt>
      <trkpt lat="45.17378" lon="17.10796">
        <ele>96.84</ele>
        <time>2022-05-23T08:13:45.000Z</time>
      </trkpt>
      <trkpt lat="45.1737" lon="17.10826">
        <ele>98.45</ele>
        <time>2022-05-23T08:13:50.000Z</time>
      </trkpt>
      <trkpt lat="45.17361" lon="17.10853">
        <ele>99.49</ele>
        <time>2022-05-23T08:13:55.000Z</time>
      </trkpt>
      <trkpt lat="45.1735" lon="17.1088">
        <ele>98.81</ele>
        <time>2022-05-23T08:14:00.000Z</time>
      </trkpt>
      <trkpt lat="45.17337" lon="17.10904">
        <ele>98.33</ele>
        <time>2022-05-23T08:14:05.000Z</time>
      </trkpt>
      <trkpt lat="45.17327" lon="17.10929">
        <ele>97.61</ele>
        <time>2022-05-23T08:14:10.000Z</time>
      </trkpt>
      <trkpt lat="45.17314" lon="17.10953">
        <ele>97.52</ele>
        <time>2022-05-23T08:14:15.000Z</time>
      </trkpt>
      <trkpt lat="45.17303" lon="17.10981">
        <ele>98.35</ele>
        <time>2022-05-23T08:14:20.000Z</time>
      </trkpt>
      <trkpt lat="45.17291" lon="17.11007">
        <ele>99.89</ele>
        <time>2022-05-23T08:14:25.000Z</time>
      </trkpt>
      <trkpt lat="45.17277" lon="17.11033">
        <ele>99.63</ele>
        <time>2022-05-23T08:14:30.000Z</time>
      </trkpt>
      <trkpt lat="45.17265" lon="17.11058">
        <ele>98.43</ele>
        <time>2022-05-23T08:14:35.000Z</time>
      </trkpt>
      <trkpt lat="45.17253" lon="17.11086">
        <ele>95</ele>
        <time>2022-05-23T08:14:40.000Z</time>
      </trkpt>
      <trkpt lat="45.17239" lon="17.11112">
        <ele>93</ele>
        <time>2022-05-23T08:14:45.000Z</time>
      </trkpt>
      <trkpt lat="45.17227" lon="17.11139">
        <ele>93.44</ele>
        <time>2022-05-23T08:14:50.000Z</time>
      </trkpt>
      <trkpt lat="45.17216" lon="17.11165">
        <ele>92.76</ele>
        <time>2022-05-23T08:14:55.000Z</time>
      </trkpt>
      <trkpt lat="45.17204" lon="17.11191">
        <ele>91.06</ele>
        <time>2022-05-23T08:15:00.000Z</time>
      </trkpt>
      <trkpt lat="45.17188" lon="17.11218">
        <ele>89.83</ele>
        <time>2022-05-23T08:15:05.000Z</time>
      </trkpt>
      <trkpt lat="45.17173" lon="17.11246">
        <ele>88.71</ele>
        <time>2022-05-23T08:15:10.000Z</time>
      </trkpt>
      <trkpt lat="45.17159" lon="17.11273">
        <ele>88.45</ele>
        <time>2022-05-23T08:15:15.000Z</time>
      </trkpt>
      <trkpt lat="45.17145" lon="17.113">
        <ele>89.37</ele>
        <time>2022-05-23T08:15:20.000Z</time>
      </trkpt>
      <trkpt lat="45.1713" lon="17.11326">
        <ele>90.84</ele>
        <time>2022-05-23T08:15:25.000Z</time>
      </trkpt>
      <trkpt lat="45.17116" lon="17.11354">
        <ele>92.83</ele>
        <time>2022-05-23T08:15:30.000Z</time>
      </trkpt>
      <trkpt lat="45.17102" lon="17.11381">
        <ele>94.39</ele>
        <time>2022-05-23T08:15:35.000Z</time>
      </trkpt>
      <trkpt lat="45.17089" lon="17.11412">
        <ele>97.12</ele>
        <time>2022-05-23T08:15:40.000Z</time>
      </trkpt>
      <trkpt lat="45.17076" lon="17.11442">
        <ele>97.69</ele>
        <time>2022-05-23T08:15:45.000Z</time>
      </trkpt>
      <trkpt lat="45.17065" lon="17.1147">
        <ele>96.93</ele>
        <time>2022-05-23T08:15:50.000Z</time>
      </trkpt>
      <trkpt lat="45.17054" lon="17.11496">
        <ele>95.91</ele>
        <time>2022-05-23T08:15:55.000Z</time>
      </trkpt>
      <trkpt lat="45.17041" lon="17.11523">
        <ele>94.76</ele>
        <time>2022-05-23T08:16:00.000Z</time>
      </trkpt>
      <trkpt lat="45.17029" lon="17.1155">
        <ele>93.19</ele>
        <time>2022-05-23T08:16:05.000Z</time>
      </trkpt>
      <trkpt lat="45.1702" lon="17.1158">
        <ele>91.72</ele>
        <time>2022-05-23T08:16:10.000Z</time>
      </trkpt>
      <trkpt lat="45.17009" lon="17.1161">
        <ele>90.46</ele>
        <time>2022-05-23T08:16:15.000Z</time>
      </trkpt>
      <trkpt lat="45.16999" lon="17.1164">
        <ele>89.39</ele>
        <time>2022-05-23T08:16:20.000Z</time>
      </trkpt>
      <trkpt lat="45.16988" lon="17.11667">
        <ele>89.63</ele>
        <time>2022-05-23T08:16:25.000Z</time>
      </trkpt>
      <trkpt lat="45.16975" lon="17.11694">
        <ele>89.92</ele>
        <time>2022-05-23T08:16:30.000Z</time>
      </trkpt>
      <trkpt lat="45.16963" lon="17.1172">
        <ele>90.78</ele>
        <time>2022-05-23T08:16:35.000Z</time>
      </trkpt>
      <trkpt lat="45.1695" lon="17.11748">
        <ele>91.88</ele>
        <time>2022-05-23T08:16:40.000Z</time>
      </trkpt>
      <trkpt lat="45.16936" lon="17.11774">
        <ele>92.77</ele>
        <time>2022-05-23T08:16:45.000Z</time>
      </trkpt>
      <trkpt lat="45.16923" lon="17.11803">
        <ele>94.51</ele>
        <time>2022-05-23T08:16:50.000Z</time>
      </trkpt>
      <trkpt lat="45.16908" lon="17.11831">
        <ele>96.46</ele>
        <time>2022-05-23T08:16:55.000Z</time>
      </trkpt>
      <trkpt lat="45.16895" lon="17.1186">
        <ele>97.68</ele>
        <time>2022-05-23T08:17:00.000Z</time>
      </trkpt>
      <trkpt lat="45.16881" lon="17.11888">
        <ele>98.68</ele>
        <time>2022-05-23T08:17:05.000Z</time>
      </trkpt>
      <trkpt lat="45.16867" lon="17.11916">
        <ele>97.72</ele>
        <time>2022-05-23T08:17:10.000Z</time>
      </trkpt>
      <trkpt lat="45.16854" lon="17.11945">
        <ele>96.91</ele>
        <time>2022-05-23T08:17:15.000Z</time>
      </trkpt>
      <trkpt lat="45.1684" lon="17.11973">
        <ele>95.87</ele>
        <time>2022-05-23T08:17:20.000Z</time>
      </trkpt>
      <trkpt lat="45.16825" lon="17.11998">
        <ele>95.65</ele>
        <time>2022-05-23T08:17:25.000Z</time>
      </trkpt>
      <trkpt lat="45.16812" lon="17.12019">
        <ele>95.65</ele>
        <time>2022-05-23T08:17:30.000Z</time>
      </trkpt>
      <trkpt lat="45.16796" lon="17.12039">
        <ele>93.39</ele>
        <time>2022-05-23T08:17:35.000Z</time>
      </trkpt>
      <trkpt lat="45.16781" lon="17.12056">
        <ele>92.59</ele>
        <time>2022-05-23T08:17:40.000Z</time>
      </trkpt>
      <trkpt lat="45.16763" lon="17.12076">
        <ele>93.79</ele>
        <time>2022-05-23T08:17:45.000Z</time>
      </trkpt>
      <trkpt lat="45.16745" lon="17.12094">
        <ele>94.06</ele>
        <time>2022-05-23T08:17:50.000Z</time>
      </trkpt>
      <trkpt lat="45.16725" lon="17.12112">
        <ele>93.32</ele>
        <time>2022-05-23T08:17:55.000Z</time>
      </trkpt>
      <trkpt lat="45.16705" lon="17.12128">
        <ele>91.86</ele>
        <time>2022-05-23T08:18:00.000Z</time>
      </trkpt>
      <trkpt lat="45.16684" lon="17.12144">
        <ele>89.96</ele>
        <time>2022-05-23T08:18:05.000Z</time>
      </trkpt>
      <trkpt lat="45.16663" lon="17.12162">
        <ele>88.12</ele>
        <time>2022-05-23T08:18:10.000Z</time>
      </trkpt>
      <trkpt lat="45.16643" lon="17.12177">
        <ele>86.03</ele>
        <time>2022-05-23T08:18:15.000Z</time>
      </trkpt>
      <trkpt lat="45.16621" lon="17.12194">
        <ele>84.6</ele>
        <time>2022-05-23T08:18:20.000Z</time>
      </trkpt>
      <trkpt lat="45.16603" lon="17.12214">
        <ele>85.24</ele>
        <time>2022-05-23T08:18:25.000Z</time>
      </trkpt>
      <trkpt lat="45.16583" lon="17.12229">
        <ele>87</ele>
        <time>2022-05-23T08:18:30.000Z</time>
      </trkpt>
      <trkpt lat="45.16564" lon="17.12245">
        <ele>88.34</ele>
        <time>2022-05-23T08:18:35.000Z</time>
      </trkpt>
      <trkpt lat="45.16545" lon="17.12261">
        <ele>88.56</ele>
        <time>2022-05-23T08:18:40.000Z</time>
      </trkpt>
      <trkpt lat="45.16524" lon="17.12277">
        <ele>88.51</ele>
        <time>2022-05-23T08:18:45.000Z</time>
      </trkpt>
      <trkpt lat="45.16503" lon="17.12295">
        <ele>88.59</ele>
        <time>2022-05-23T08:18:50.000Z</time>
      </trkpt>
      <trkpt lat="45.16486" lon="17.12313">
        <ele>87.19</ele>
        <time>2022-05-23T08:18:55.000Z</time>
      </trkpt>
      <trkpt lat="45.16466" lon="17.12329">
        <ele>86.04</ele>
        <time>2022-05-23T08:19:00.000Z</time>
      </trkpt>
      <trkpt lat="45.16444" lon="17.1235">
        <ele>88.61</ele>
        <time>2022-05-23T08:19:05.000Z</time>
      </trkpt>
      <trkpt lat="45.1642" lon="17.12365">
        <ele>90.6</ele>
        <time>2022-05-23T08:19:10.000Z</time>
      </trkpt>
      <trkpt lat="45.16394" lon="17.12372">
        <ele>90.31</ele>
        <time>2022-05-23T08:19:15.000Z</time>
      </trkpt>
      <trkpt lat="45.16369" lon="17.1238">
        <ele>90.09</ele>
        <time>2022-05-23T08:19:20.000Z</time>
      </trkpt>
      <trkpt lat="45.16346" lon="17.12385">
        <ele>90.31</ele>
        <time>2022-05-23T08:19:25.000Z</time>
      </trkpt>
      <trkpt lat="45.16323" lon="17.1239">
        <ele>89.92</ele>
        <time>2022-05-23T08:19:30.000Z</time>
      </trkpt>
      <trkpt lat="45.16299" lon="17.12397">
        <ele>91.69</ele>
        <time>2022-05-23T08:19:35.000Z</time>
      </trkpt>
      <trkpt lat="45.16275" lon="17.12401">
        <ele>93.05</ele>
        <time>2022-05-23T08:19:40.000Z</time>
      </trkpt>
      <trkpt lat="45.1625" lon="17.12405">
        <ele>94.83</ele>
        <time>2022-05-23T08:19:45.000Z</time>
      </trkpt>
      <trkpt lat="45.16224" lon="17.12409">
        <ele>96.54</ele>
        <time>2022-05-23T08:19:50.000Z</time>
      </trkpt>
      <trkpt lat="45.16198" lon="17.12416">
        <ele>97.85</ele>
        <time>2022-05-23T08:19:55.000Z</time>
      </trkpt>
      <trkpt lat="45.16174" lon="17.12425">
        <ele>98.89</ele>
        <time>2022-05-23T08:20:00.000Z</time>
      </trkpt>
      <trkpt lat="45.16152" lon="17.12438">
        <ele>99</ele>
        <time>2022-05-23T08:20:05.000Z</time>
      </trkpt>
      <trkpt lat="45.16129" lon="17.12452">
        <ele>98.81</ele>
        <time>2022-05-23T08:20:10.000Z</time>
      </trkpt>
      <trkpt lat="45.16107" lon="17.12465">
        <ele>97.82</ele>
        <time>2022-05-23T08:20:15.000Z</time>
      </trkpt>
      <trkpt lat="45.16087" lon="17.12478">
        <ele>96.81</ele>
        <time>2022-05-23T08:20:20.000Z</time>
      </trkpt>
      <trkpt lat="45.16066" lon="17.12492">
        <ele>96.55</ele>
        <time>2022-05-23T08:20:25.000Z</time>
      </trkpt>
      <trkpt lat="45.16043" lon="17.12506">
        <ele>96.19</ele>
        <time>2022-05-23T08:20:30.000Z</time>
      </trkpt>
      <trkpt lat="45.16021" lon="17.12518">
        <ele>95.82</ele>
        <time>2022-05-23T08:20:35.000Z</time>
      </trkpt>
      <trkpt lat="45.15998" lon="17.12533">
        <ele>95.77</ele>
        <time>2022-05-23T08:20:40.000Z</time>
      </trkpt>
      <trkpt lat="45.15976" lon="17.12546">
        <ele>95.81</ele>
        <time>2022-05-23T08:20:45.000Z</time>
      </trkpt>
      <trkpt lat="45.15954" lon="17.1256">
        <ele>95.82</ele>
        <time>2022-05-23T08:20:50.000Z</time>
      </trkpt>
      <trkpt lat="45.15935" lon="17.12573">
        <ele>95.87</ele>
        <time>2022-05-23T08:20:55.000Z</time>
      </trkpt>
      <trkpt lat="45.15915" lon="17.12586">
        <ele>95.48</ele>
        <time>2022-05-23T08:21:00.000Z</time>
      </trkpt>
      <trkpt lat="45.15898" lon="17.12597">
        <ele>97.69</ele>
        <time>2022-05-23T08:21:05.000Z</time>
      </trkpt>
      <trkpt lat="45.15886" lon="17.12604">
        <ele>98.44</ele>
        <time>2022-05-23T08:21:10.000Z</time>
      </trkpt>
      <trkpt lat="45.15876" lon="17.12609">
        <ele>98.87</ele>
        <time>2022-05-23T08:21:15.000Z</time>
      </trkpt>
      <trkpt lat="45.15866" lon="17.12611">
        <ele>97.24</ele>
        <time>2022-05-23T08:22:31.000Z</time>
      </trkpt>
      <trkpt lat="45.15858" lon="17.12617">
        <ele>97.03</ele>
        <time>2022-05-23T08:22:36.000Z</time>
      </trkpt>
      <trkpt lat="45.15843" lon="17.12628">
        <ele>96.56</ele>
        <time>2022-05-23T08:22:41.000Z</time>
      </trkpt>
      <trkpt lat="45.15826" lon="17.12638">
        <ele>95.42</ele>
        <time>2022-05-23T08:22:46.000Z</time>
      </trkpt>
      <trkpt lat="45.15809" lon="17.1265">
        <ele>94.29</ele>
        <time>2022-05-23T08:22:51.000Z</time>
      </trkpt>
      <trkpt lat="45.15794" lon="17.12661">
        <ele>93.46</ele>
        <time>2022-05-23T08:22:56.000Z</time>
      </trkpt>
      <trkpt lat="45.15778" lon="17.12673">
        <ele>93.33</ele>
        <time>2022-05-23T08:23:01.000Z</time>
      </trkpt>
      <trkpt lat="45.1576" lon="17.12684">
        <ele>93.55</ele>
        <time>2022-05-23T08:23:06.000Z</time>
      </trkpt>
      <trkpt lat="45.15741" lon="17.12696">
        <ele>93.5</ele>
        <time>2022-05-23T08:23:11.000Z</time>
      </trkpt>
      <trkpt lat="45.15724" lon="17.12708">
        <ele>93.97</ele>
        <time>2022-05-23T08:23:16.000Z</time>
      </trkpt>
      <trkpt lat="45.15706" lon="17.12719">
        <ele>95.34</ele>
        <time>2022-05-23T08:23:21.000Z</time>
      </trkpt>
      <trkpt lat="45.15687" lon="17.12731">
        <ele>95.55</ele>
        <time>2022-05-23T08:23:26.000Z</time>
      </trkpt>
      <trkpt lat="45.15669" lon="17.12742">
        <ele>95.1</ele>
        <time>2022-05-23T08:23:31.000Z</time>
      </trkpt>
      <trkpt lat="45.1565" lon="17.12754">
        <ele>95.69</ele>
        <time>2022-05-23T08:23:36.000Z</time>
      </trkpt>
      <trkpt lat="45.15629" lon="17.12765">
        <ele>96.38</ele>
        <time>2022-05-23T08:23:41.000Z</time>
      </trkpt>
      <trkpt lat="45.15611" lon="17.12777">
        <ele>96.45</ele>
        <time>2022-05-23T08:23:46.000Z</time>
      </trkpt>
      <trkpt lat="45.15592" lon="17.12789">
        <ele>96.09</ele>
        <time>2022-05-23T08:23:51.000Z</time>
      </trkpt>
      <trkpt lat="45.15574" lon="17.12802">
        <ele>95.08</ele>
        <time>2022-05-23T08:23:56.000Z</time>
      </trkpt>
      <trkpt lat="45.15556" lon="17.12819">
        <ele>95.41</ele>
        <time>2022-05-23T08:24:01.000Z</time>
      </trkpt>
      <trkpt lat="45.15539" lon="17.12838">
        <ele>96.04</ele>
        <time>2022-05-23T08:24:06.000Z</time>
      </trkpt>
      <trkpt lat="45.15523" lon="17.12859">
        <ele>96.08</ele>
        <time>2022-05-23T08:24:11.000Z</time>
      </trkpt>
      <trkpt lat="45.15511" lon="17.12882">
        <ele>95.65</ele>
        <time>2022-05-23T08:24:16.000Z</time>
      </trkpt>
      <trkpt lat="45.15499" lon="17.12906">
        <ele>95.58</ele>
        <time>2022-05-23T08:24:21.000Z</time>
      </trkpt>
      <trkpt lat="45.15487" lon="17.12931">
        <ele>94.63</ele>
        <time>2022-05-23T08:24:26.000Z</time>
      </trkpt>
      <trkpt lat="45.15474" lon="17.12955">
        <ele>93.58</ele>
        <time>2022-05-23T08:24:31.000Z</time>
      </trkpt>
      <trkpt lat="45.15463" lon="17.12978">
        <ele>93.85</ele>
        <time>2022-05-23T08:24:36.000Z</time>
      </trkpt>
      <trkpt lat="45.15447" lon="17.12998">
        <ele>93.8</ele>
        <time>2022-05-23T08:24:41.000Z</time>
      </trkpt>
      <trkpt lat="45.15433" lon="17.1302">
        <ele>93.46</ele>
        <time>2022-05-23T08:24:46.000Z</time>
      </trkpt>
      <trkpt lat="45.1542" lon="17.13044">
        <ele>94.1</ele>
        <time>2022-05-23T08:24:51.000Z</time>
      </trkpt>
      <trkpt lat="45.15405" lon="17.13067">
        <ele>94.95</ele>
        <time>2022-05-23T08:24:56.000Z</time>
      </trkpt>
      <trkpt lat="45.1539" lon="17.13093">
        <ele>96.91</ele>
        <time>2022-05-23T08:25:01.000Z</time>
      </trkpt>
      <trkpt lat="45.15373" lon="17.13115">
        <ele>97.39</ele>
        <time>2022-05-23T08:25:06.000Z</time>
      </trkpt>
      <trkpt lat="45.15357" lon="17.13137">
        <ele>97.52</ele>
        <time>2022-05-23T08:25:11.000Z</time>
      </trkpt>
      <trkpt lat="45.15345" lon="17.1316">
        <ele>98.17</ele>
        <time>2022-05-23T08:25:16.000Z</time>
      </trkpt>
      <trkpt lat="45.15331" lon="17.13184">
        <ele>97.74</ele>
        <time>2022-05-23T08:25:21.000Z</time>
      </trkpt>
      <trkpt lat="45.15314" lon="17.13207">
        <ele>97.81</ele>
        <time>2022-05-23T08:25:26.000Z</time>
      </trkpt>
      <trkpt lat="45.15299" lon="17.13231">
        <ele>98.77</ele>
        <time>2022-05-23T08:25:31.000Z</time>
      </trkpt>
      <trkpt lat="45.15284" lon="17.13255">
        <ele>98.34</ele>
        <time>2022-05-23T08:25:36.000Z</time>
      </trkpt>
      <trkpt lat="45.15268" lon="17.13282">
        <ele>97.6</ele>
        <time>2022-05-23T08:25:41.000Z</time>
      </trkpt>
      <trkpt lat="45.15256" lon="17.13309">
        <ele>97.14</ele>
        <time>2022-05-23T08:25:46.000Z</time>
      </trkpt>
      <trkpt lat="45.15248" lon="17.13338">
        <ele>96.41</ele>
        <time>2022-05-23T08:25:51.000Z</time>
      </trkpt>
      <trkpt lat="45.15237" lon="17.13366">
        <ele>95.93</ele>
        <time>2022-05-23T08:25:56.000Z</time>
      </trkpt>
      <trkpt lat="45.15227" lon="17.13395">
        <ele>95.33</ele>
        <time>2022-05-23T08:26:01.000Z</time>
      </trkpt>
      <trkpt lat="45.15213" lon="17.13426">
        <ele>94.93</ele>
        <time>2022-05-23T08:26:06.000Z</time>
      </trkpt>
      <trkpt lat="45.15198" lon="17.13454">
        <ele>93.41</ele>
        <time>2022-05-23T08:26:11.000Z</time>
      </trkpt>
      <trkpt lat="45.15185" lon="17.13479">
        <ele>92.49</ele>
        <time>2022-05-23T08:26:16.000Z</time>
      </trkpt>
      <trkpt lat="45.15169" lon="17.13513">
        <ele>95.03</ele>
        <time>2022-05-23T08:26:21.000Z</time>
      </trkpt>
      <trkpt lat="45.15147" lon="17.13541">
        <ele>97.44</ele>
        <time>2022-05-23T08:26:26.000Z</time>
      </trkpt>
      <trkpt lat="45.15129" lon="17.13568">
        <ele>98.9</ele>
        <time>2022-05-23T08:26:31.000Z</time>
      </trkpt>
      <trkpt lat="45.15111" lon="17.13596">
        <ele>99.86</ele>
        <time>2022-05-23T08:26:36.000Z</time>
      </trkpt>
      <trkpt lat="45.15094" lon="17.13624">
        <ele>100.75</ele>
        <time>2022-05-23T08:26:41.000Z</time>
      </trkpt>
      <trkpt lat="45.15076" lon="17.13651">
        <ele>100.26</ele>
        <time>2022-05-23T08:26:46.000Z</time>
      </trkpt>
      <trkpt lat="45.15059" lon="17.13679">
        <ele>100.55</ele>
        <time>2022-05-23T08:26:51.000Z</time>
      </trkpt>
      <trkpt lat="45.15039" lon="17.13706">
        <ele>100.03</ele>
        <time>2022-05-23T08:26:56.000Z</time>
      </trkpt>
      <trkpt lat="45.15024" lon="17.13735">
        <ele>99.44</ele>
        <time>2022-05-23T08:27:01.000Z</time>
      </trkpt>
      <trkpt lat="45.15013" lon="17.13769">
        <ele>99.6</ele>
        <time>2022-05-23T08:27:06.000Z</time>
      </trkpt>
      <trkpt lat="45.15013" lon="17.13806">
        <ele>99.89</ele>
        <time>2022-05-23T08:27:11.000Z</time>
      </trkpt>
      <trkpt lat="45.15016" lon="17.13846">
        <ele>99.6</ele>
        <time>2022-05-23T08:27:16.000Z</time>
      </trkpt>
      <trkpt lat="45.15015" lon="17.13887">
        <ele>99.72</ele>
        <time>2022-05-23T08:27:21.000Z</time>
      </trkpt>
      <trkpt lat="45.15008" lon="17.13932">
        <ele>99.68</ele>
        <time>2022-05-23T08:27:26.000Z</time>
      </trkpt>
      <trkpt lat="45.15" lon="17.13973">
        <ele>99.72</ele>
        <time>2022-05-23T08:27:31.000Z</time>
      </trkpt>
      <trkpt lat="45.1499" lon="17.14014">
        <ele>98.38</ele>
        <time>2022-05-23T08:27:36.000Z</time>
      </trkpt>
      <trkpt lat="45.14978" lon="17.14051">
        <ele>97.52</ele>
        <time>2022-05-23T08:27:41.000Z</time>
      </trkpt>
      <trkpt lat="45.14963" lon="17.14084">
        <ele>95.84</ele>
        <time>2022-05-23T08:27:46.000Z</time>
      </trkpt>
      <trkpt lat="45.14951" lon="17.14116">
        <ele>94.17</ele>
        <time>2022-05-23T08:27:51.000Z</time>
      </trkpt>
      <trkpt lat="45.14942" lon="17.14148">
        <ele>93.46</ele>
        <time>2022-05-23T08:27:56.000Z</time>
      </trkpt>
      <trkpt lat="45.14933" lon="17.1418">
        <ele>92.85</ele>
        <time>2022-05-23T08:28:01.000Z</time>
      </trkpt>
      <trkpt lat="45.14922" lon="17.14212">
        <ele>91.54</ele>
        <time>2022-05-23T08:28:06.000Z</time>
      </trkpt>
      <trkpt lat="45.14915" lon="17.14243">
        <ele>91.94</ele>
        <time>2022-05-23T08:28:11.000Z</time>
      </trkpt>
      <trkpt lat="45.14904" lon="17.14271">
        <ele>93.03</ele>
        <time>2022-05-23T08:28:16.000Z</time>
      </trkpt>
      <trkpt lat="45.14893" lon="17.14299">
        <ele>94.05</ele>
        <time>2022-05-23T08:28:21.000Z</time>
      </trkpt>
      <trkpt lat="45.14882" lon="17.14329">
        <ele>95.82</ele>
        <time>2022-05-23T08:28:26.000Z</time>
      </trkpt>
      <trkpt lat="45.1487" lon="17.14358">
        <ele>95.86</ele>
        <time>2022-05-23T08:28:31.000Z</time>
      </trkpt>
      <trkpt lat="45.14859" lon="17.14389">
        <ele>95.48</ele>
        <time>2022-05-23T08:28:36.000Z</time>
      </trkpt>
      <trkpt lat="45.14845" lon="17.1442">
        <ele>95.2</ele>
        <time>2022-05-23T08:28:41.000Z</time>
      </trkpt>
      <trkpt lat="45.14828" lon="17.1445">
        <ele>95.87</ele>
        <time>2022-05-23T08:28:46.000Z</time>
      </trkpt>
      <trkpt lat="45.14809" lon="17.14481">
        <ele>98.23</ele>
        <time>2022-05-23T08:28:51.000Z</time>
      </trkpt>
      <trkpt lat="45.14787" lon="17.14508">
        <ele>99.03</ele>
        <time>2022-05-23T08:28:56.000Z</time>
      </trkpt>
      <trkpt lat="45.14767" lon="17.14537">
        <ele>98.66</ele>
        <time>2022-05-23T08:29:01.000Z</time>
      </trkpt>
      <trkpt lat="45.14747" lon="17.14561">
        <ele>98.62</ele>
        <time>2022-05-23T08:29:06.000Z</time>
      </trkpt>
      <trkpt lat="45.14729" lon="17.14589">
        <ele>99.13</ele>
        <time>2022-05-23T08:29:11.000Z</time>
      </trkpt>
      <trkpt lat="45.1471" lon="17.14618">
        <ele>99.09</ele>
        <time>2022-05-23T08:29:16.000Z</time>
      </trkpt>
      <trkpt lat="45.14693" lon="17.14647">
        <ele>97.72</ele>
        <time>2022-05-23T08:29:21.000Z</time>
      </trkpt>
      <trkpt lat="45.14675" lon="17.14676">
        <ele>96.89</ele>
        <time>2022-05-23T08:29:26.000Z</time>
      </trkpt>
      <trkpt lat="45.14657" lon="17.14706">
        <ele>97.45</ele>
        <time>2022-05-23T08:29:31.000Z</time>
      </trkpt>
      <trkpt lat="45.14639" lon="17.14734">
        <ele>95.96</ele>
        <time>2022-05-23T08:29:36.000Z</time>
      </trkpt>
      <trkpt lat="45.14622" lon="17.14762">
        <ele>94.25</ele>
        <time>2022-05-23T08:29:41.000Z</time>
      </trkpt>
      <trkpt lat="45.14605" lon="17.14788">
        <ele>94.65</ele>
        <time>2022-05-23T08:29:46.000Z</time>
      </trkpt>
      <trkpt lat="45.14589" lon="17.14812">
        <ele>93.09</ele>
        <time>2022-05-23T08:29:51.000Z</time>
      </trkpt>
      <trkpt lat="45.14572" lon="17.14835">
        <ele>93.12</ele>
        <time>2022-05-23T08:29:56.000Z</time>
      </trkpt>
      <trkpt lat="45.14554" lon="17.14854">
        <ele>91.67</ele>
        <time>2022-05-23T08:30:01.000Z</time>
      </trkpt>
      <trkpt lat="45.14537" lon="17.14874">
        <ele>91.64</ele>
        <time>2022-05-23T08:30:06.000Z</time>
      </trkpt>
      <trkpt lat="45.14518" lon="17.14893">
        <ele>91.09</ele>
        <time>2022-05-23T08:30:11.000Z</time>
      </trkpt>
      <trkpt lat="45.14498" lon="17.14919">
        <ele>91.99</ele>
        <time>2022-05-23T08:30:16.000Z</time>
      </trkpt>
      <trkpt lat="45.14478" lon="17.14944">
        <ele>92.09</ele>
        <time>2022-05-23T08:30:21.000Z</time>
      </trkpt>
      <trkpt lat="45.14462" lon="17.14974">
        <ele>93.45</ele>
        <time>2022-05-23T08:30:26.000Z</time>
      </trkpt>
      <trkpt lat="45.14447" lon="17.15007">
        <ele>94.8</ele>
        <time>2022-05-23T08:30:31.000Z</time>
      </trkpt>
      <trkpt lat="45.14433" lon="17.15038">
        <ele>94.36</ele>
        <time>2022-05-23T08:30:36.000Z</time>
      </trkpt>
      <trkpt lat="45.14417" lon="17.15066">
        <ele>93.69</ele>
        <time>2022-05-23T08:30:41.000Z</time>
      </trkpt>
      <trkpt lat="45.14398" lon="17.15089">
        <ele>93.09</ele>
        <time>2022-05-23T08:30:46.000Z</time>
      </trkpt>
      <trkpt lat="45.14379" lon="17.15105">
        <ele>92.22</ele>
        <time>2022-05-23T08:30:51.000Z</time>
      </trkpt>
      <trkpt lat="45.14359" lon="17.15122">
        <ele>91.84</ele>
        <time>2022-05-23T08:30:56.000Z</time>
      </trkpt>
      <trkpt lat="45.14339" lon="17.1514">
        <ele>92.08</ele>
        <time>2022-05-23T08:31:01.000Z</time>
      </trkpt>
      <trkpt lat="45.14317" lon="17.15156">
        <ele>91.33</ele>
        <time>2022-05-23T08:31:06.000Z</time>
      </trkpt>
      <trkpt lat="45.14294" lon="17.15172">
        <ele>92.13</ele>
        <time>2022-05-23T08:31:11.000Z</time>
      </trkpt>
      <trkpt lat="45.14268" lon="17.1519">
        <ele>92.99</ele>
        <time>2022-05-23T08:31:16.000Z</time>
      </trkpt>
      <trkpt lat="45.14242" lon="17.15206">
        <ele>92.64</ele>
        <time>2022-05-23T08:31:21.000Z</time>
      </trkpt>
      <trkpt lat="45.14217" lon="17.1522">
        <ele>92.75</ele>
        <time>2022-05-23T08:31:26.000Z</time>
      </trkpt>
      <trkpt lat="45.14192" lon="17.15235">
        <ele>93.4</ele>
        <time>2022-05-23T08:31:31.000Z</time>
      </trkpt>
      <trkpt lat="45.14165" lon="17.15251">
        <ele>94.64</ele>
        <time>2022-05-23T08:31:36.000Z</time>
      </trkpt>
      <trkpt lat="45.14139" lon="17.15268">
        <ele>97.09</ele>
        <time>2022-05-23T08:31:41.000Z</time>
      </trkpt>
      <trkpt lat="45.14113" lon="17.15283">
        <ele>96.28</ele>
        <time>2022-05-23T08:31:46.000Z</time>
      </trkpt>
      <trkpt lat="45.14089" lon="17.15299">
        <ele>96.27</ele>
        <time>2022-05-23T08:31:51.000Z</time>
      </trkpt>
      <trkpt lat="45.14061" lon="17.15312">
        <ele>95.79</ele>
        <time>2022-05-23T08:31:56.000Z</time>
      </trkpt>
      <trkpt lat="45.14034" lon="17.15328">
        <ele>94.71</ele>
        <time>2022-05-23T08:32:01.000Z</time>
      </trkpt>
      <trkpt lat="45.14003" lon="17.15346">
        <ele>95.57</ele>
        <time>2022-05-23T08:32:06.000Z</time>
      </trkpt>
      <trkpt lat="45.13972" lon="17.15365">
        <ele>97.21</ele>
        <time>2022-05-23T08:32:11.000Z</time>
      </trkpt>
      <trkpt lat="45.13944" lon="17.15386">
        <ele>96.94</ele>
        <time>2022-05-23T08:32:16.000Z</time>
      </trkpt>
      <trkpt lat="45.13918" lon="17.15406">
        <ele>97.3</ele>
        <time>2022-05-23T08:32:21.000Z</time>
      </trkpt>
      <trkpt lat="45.13893" lon="17.15424">
        <ele>96.86</ele>
        <time>2022-05-23T08:32:26.000Z</time>
      </trkpt>
      <trkpt lat="45.13871" lon="17.15441">
        <ele>96.68</ele>
        <time>2022-05-23T08:32:31.000Z</time>
      </trkpt>
      <trkpt lat="45.1385" lon="17.15458">
        <ele>95.96</ele>
        <time>2022-05-23T08:32:36.000Z</time>
      </trkpt>
      <trkpt lat="45.13828" lon="17.15473">
        <ele>96.06</ele>
        <time>2022-05-23T08:32:41.000Z</time>
      </trkpt>
      <trkpt lat="45.13807" lon="17.15491">
        <ele>96.52</ele>
        <time>2022-05-23T08:32:46.000Z</time>
      </trkpt>
      <trkpt lat="45.13789" lon="17.15513">
        <ele>96.99</ele>
        <time>2022-05-23T08:32:51.000Z</time>
      </trkpt>
      <trkpt lat="45.1377" lon="17.15536">
        <ele>97.66</ele>
        <time>2022-05-23T08:32:56.000Z</time>
      </trkpt>
      <trkpt lat="45.13752" lon="17.15559">
        <ele>98.75</ele>
        <time>2022-05-23T08:33:01.000Z</time>
      </trkpt>
      <trkpt lat="45.13734" lon="17.15579">
        <ele>98.42</ele>
        <time>2022-05-23T08:33:06.000Z</time>
      </trkpt>
      <trkpt lat="45.13715" lon="17.15601">
        <ele>97.99</ele>
        <time>2022-05-23T08:33:11.000Z</time>
      </trkpt>
      <trkpt lat="45.13697" lon="17.15622">
        <ele>97.56</ele>
        <time>2022-05-23T08:33:16.000Z</time>
      </trkpt>
      <trkpt lat="45.13681" lon="17.15642">
        <ele>96.94</ele>
        <time>2022-05-23T08:33:21.000Z</time>
      </trkpt>
      <trkpt lat="45.13664" lon="17.15662">
        <ele>97.79</ele>
        <time>2022-05-23T08:33:26.000Z</time>
      </trkpt>
      <trkpt lat="45.13647" lon="17.15681">
        <ele>97.33</ele>
        <time>2022-05-23T08:33:31.000Z</time>
      </trkpt>
      <trkpt lat="45.13629" lon="17.15701">
        <ele>97.88</ele>
        <time>2022-05-23T08:33:36.000Z</time>
      </trkpt>
      <trkpt lat="45.13612" lon="17.15722">
        <ele>97.96</ele>
        <time>2022-05-23T08:33:41.000Z</time>
      </trkpt>
      <trkpt lat="45.13595" lon="17.15743">
        <ele>98.23</ele>
        <time>2022-05-23T08:33:46.000Z</time>
      </trkpt>
      <trkpt lat="45.13579" lon="17.15764">
        <ele>98.06</ele>
        <time>2022-05-23T08:33:51.000Z</time>
      </trkpt>
      <trkpt lat="45.13561" lon="17.15786">
        <ele>98.05</ele>
        <time>2022-05-23T08:33:56.000Z</time>
      </trkpt>
      <trkpt lat="45.13543" lon="17.15808">
        <ele>98.87</ele>
        <time>2022-05-23T08:34:01.000Z</time>
      </trkpt>
      <trkpt lat="45.13527" lon="17.15829">
        <ele>97.64</ele>
        <time>2022-05-23T08:34:06.000Z</time>
      </trkpt>
      <trkpt lat="45.13511" lon="17.15853">
        <ele>96.83</ele>
        <time>2022-05-23T08:34:11.000Z</time>
      </trkpt>
      <trkpt lat="45.13495" lon="17.15875">
        <ele>95.95</ele>
        <time>2022-05-23T08:34:16.000Z</time>
      </trkpt>
      <trkpt lat="45.13478" lon="17.15897">
        <ele>95.66</ele>
        <time>2022-05-23T08:34:21.000Z</time>
      </trkpt>
      <trkpt lat="45.1346" lon="17.15919">
        <ele>95.85</ele>
        <time>2022-05-23T08:34:26.000Z</time>
      </trkpt>
      <trkpt lat="45.13441" lon="17.15941">
        <ele>95.14</ele>
        <time>2022-05-23T08:34:31.000Z</time>
      </trkpt>
      <trkpt lat="45.13422" lon="17.15965">
        <ele>95.22</ele>
        <time>2022-05-23T08:34:36.000Z</time>
      </trkpt>
      <trkpt lat="45.13403" lon="17.15987">
        <ele>95.75</ele>
        <time>2022-05-23T08:34:41.000Z</time>
      </trkpt>
      <trkpt lat="45.13384" lon="17.1601">
        <ele>96.42</ele>
        <time>2022-05-23T08:34:46.000Z</time>
      </trkpt>
      <trkpt lat="45.13367" lon="17.16033">
        <ele>96.58</ele>
        <time>2022-05-23T08:34:51.000Z</time>
      </trkpt>
      <trkpt lat="45.13351" lon="17.16053">
        <ele>97.65</ele>
        <time>2022-05-23T08:34:56.000Z</time>
      </trkpt>
      <trkpt lat="45.13335" lon="17.16076">
        <ele>97.94</ele>
        <time>2022-05-23T08:35:01.000Z</time>
      </trkpt>
      <trkpt lat="45.1332" lon="17.161">
        <ele>97.14</ele>
        <time>2022-05-23T08:35:06.000Z</time>
      </trkpt>
      <trkpt lat="45.13306" lon="17.16125">
        <ele>96.33</ele>
        <time>2022-05-23T08:35:11.000Z</time>
      </trkpt>
      <trkpt lat="45.1329" lon="17.16149">
        <ele>95.85</ele>
        <time>2022-05-23T08:35:16.000Z</time>
      </trkpt>
      <trkpt lat="45.13274" lon="17.16171">
        <ele>96.13</ele>
        <time>2022-05-23T08:35:21.000Z</time>
      </trkpt>
      <trkpt lat="45.13259" lon="17.16196">
        <ele>95.86</ele>
        <time>2022-05-23T08:35:26.000Z</time>
      </trkpt>
      <trkpt lat="45.13242" lon="17.1622">
        <ele>95.96</ele>
        <time>2022-05-23T08:35:31.000Z</time>
      </trkpt>
      <trkpt lat="45.13225" lon="17.16244">
        <ele>95.68</ele>
        <time>2022-05-23T08:35:36.000Z</time>
      </trkpt>
      <trkpt lat="45.13208" lon="17.16266">
        <ele>94.93</ele>
        <time>2022-05-23T08:35:41.000Z</time>
      </trkpt>
      <trkpt lat="45.13192" lon="17.16289">
        <ele>93.99</ele>
        <time>2022-05-23T08:35:46.000Z</time>
      </trkpt>
      <trkpt lat="45.13171" lon="17.16309">
        <ele>92.31</ele>
        <time>2022-05-23T08:35:51.000Z</time>
      </trkpt>
      <trkpt lat="45.13153" lon="17.16331">
        <ele>92.27</ele>
        <time>2022-05-23T08:35:56.000Z</time>
      </trkpt>
      <trkpt lat="45.13136" lon="17.1635">
        <ele>93.24</ele>
        <time>2022-05-23T08:36:01.000Z</time>
      </trkpt>
      <trkpt lat="45.1312" lon="17.16368">
        <ele>93.21</ele>
        <time>2022-05-23T08:36:06.000Z</time>
      </trkpt>
      <trkpt lat="45.13101" lon="17.16389">
        <ele>93.2</ele>
        <time>2022-05-23T08:36:11.000Z</time>
      </trkpt>
      <trkpt lat="45.1308" lon="17.16409">
        <ele>92.88</ele>
        <time>2022-05-23T08:36:16.000Z</time>
      </trkpt>
      <trkpt lat="45.13057" lon="17.1643">
        <ele>92.57</ele>
        <time>2022-05-23T08:36:21.000Z</time>
      </trkpt>
      <trkpt lat="45.13033" lon="17.16449">
        <ele>92.54</ele>
        <time>2022-05-23T08:36:26.000Z</time>
      </trkpt>
      <trkpt lat="45.13009" lon="17.16467">
        <ele>93.56</ele>
        <time>2022-05-23T08:36:31.000Z</time>
      </trkpt>
      <trkpt lat="45.12986" lon="17.16489">
        <ele>94.78</ele>
        <time>2022-05-23T08:36:36.000Z</time>
      </trkpt>
      <trkpt lat="45.12966" lon="17.16511">
        <ele>95.61</ele>
        <time>2022-05-23T08:36:41.000Z</time>
      </trkpt>
      <trkpt lat="45.12946" lon="17.16532">
        <ele>95.92</ele>
        <time>2022-05-23T08:36:46.000Z</time>
      </trkpt>
      <trkpt lat="45.12925" lon="17.16552">
        <ele>95.93</ele>
        <time>2022-05-23T08:36:51.000Z</time>
      </trkpt>
      <trkpt lat="45.12906" lon="17.16572">
        <ele>95.64</ele>
        <time>2022-05-23T08:36:56.000Z</time>
      </trkpt>
      <trkpt lat="45.12888" lon="17.16594">
        <ele>96.42</ele>
        <time>2022-05-23T08:37:01.000Z</time>
      </trkpt>
      <trkpt lat="45.12872" lon="17.16615">
        <ele>96.98</ele>
        <time>2022-05-23T08:37:06.000Z</time>
      </trkpt>
      <trkpt lat="45.12859" lon="17.16639">
        <ele>96.84</ele>
        <time>2022-05-23T08:37:11.000Z</time>
      </trkpt>
      <trkpt lat="45.12846" lon="17.16665">
        <ele>96.83</ele>
        <time>2022-05-23T08:37:16.000Z</time>
      </trkpt>
      <trkpt lat="45.12834" lon="17.1669">
        <ele>96.81</ele>
        <time>2022-05-23T08:37:21.000Z</time>
      </trkpt>
      <trkpt lat="45.12823" lon="17.16711">
        <ele>95.92</ele>
        <time>2022-05-23T08:37:26.000Z</time>
      </trkpt>
      <trkpt lat="45.1281" lon="17.1673">
        <ele>96.66</ele>
        <time>2022-05-23T08:37:31.000Z</time>
      </trkpt>
      <trkpt lat="45.12801" lon="17.16746">
        <ele>96.23</ele>
        <time>2022-05-23T08:37:36.000Z</time>
      </trkpt>
      <trkpt lat="45.12794" lon="17.1676">
        <ele>96.17</ele>
        <time>2022-05-23T08:37:41.000Z</time>
      </trkpt>
      <trkpt lat="45.12804" lon="17.16763">
        <ele>98.52</ele>
        <time>2022-05-23T08:38:32.000Z</time>
      </trkpt>
      <trkpt lat="45.12812" lon="17.16771">
        <ele>97.13</ele>
        <time>2022-05-23T08:38:41.000Z</time>
      </trkpt>
      <trkpt lat="45.12802" lon="17.16777">
        <ele>93.5</ele>
        <time>2022-05-23T08:51:56.000Z</time>
      </trkpt>
      <trkpt lat="45.12811" lon="17.16776">
        <ele>92.45</ele>
        <time>2022-05-23T08:52:21.000Z</time>
      </trkpt>
      <trkpt lat="45.12803" lon="17.16769">
        <ele>93.49</ele>
        <time>2022-05-23T08:53:34.000Z</time>
      </trkpt>
      <trkpt lat="45.12797" lon="17.16759">
        <ele>94.22</ele>
        <time>2022-05-23T08:54:19.000Z</time>
      </trkpt>
      <trkpt lat="45.12788" lon="17.16762">
        <ele>95.1</ele>
        <time>2022-05-23T08:54:28.000Z</time>
      </trkpt>
      <trkpt lat="45.12785" lon="17.16774">
        <ele>94.93</ele>
        <time>2022-05-23T08:54:33.000Z</time>
      </trkpt>
      <trkpt lat="45.12779" lon="17.16784">
        <ele>95</ele>
        <time>2022-05-23T08:54:38.000Z</time>
      </trkpt>
      <trkpt lat="45.12771" lon="17.16797">
        <ele>94.98</ele>
        <time>2022-05-23T08:54:43.000Z</time>
      </trkpt>
      <trkpt lat="45.12761" lon="17.1681">
        <ele>94.75</ele>
        <time>2022-05-23T08:54:48.000Z</time>
      </trkpt>
      <trkpt lat="45.12751" lon="17.16822">
        <ele>93.29</ele>
        <time>2022-05-23T08:54:53.000Z</time>
      </trkpt>
      <trkpt lat="45.12743" lon="17.16836">
        <ele>92.11</ele>
        <time>2022-05-23T08:54:58.000Z</time>
      </trkpt>
      <trkpt lat="45.12732" lon="17.16851">
        <ele>91.03</ele>
        <time>2022-05-23T08:55:03.000Z</time>
      </trkpt>
      <trkpt lat="45.12719" lon="17.1687">
        <ele>90.38</ele>
        <time>2022-05-23T08:55:08.000Z</time>
      </trkpt>
      <trkpt lat="45.12705" lon="17.1689">
        <ele>90.43</ele>
        <time>2022-05-23T08:55:13.000Z</time>
      </trkpt>
      <trkpt lat="45.12688" lon="17.16911">
        <ele>89.84</ele>
        <time>2022-05-23T08:55:18.000Z</time>
      </trkpt>
      <trkpt lat="45.1267" lon="17.16932">
        <ele>88.4</ele>
        <time>2022-05-23T08:55:23.000Z</time>
      </trkpt>
      <trkpt lat="45.12654" lon="17.16958">
        <ele>87.9</ele>
        <time>2022-05-23T08:55:28.000Z</time>
      </trkpt>
      <trkpt lat="45.12638" lon="17.16985">
        <ele>87.69</ele>
        <time>2022-05-23T08:55:33.000Z</time>
      </trkpt>
      <trkpt lat="45.12622" lon="17.17011">
        <ele>87.21</ele>
        <time>2022-05-23T08:55:38.000Z</time>
      </trkpt>
      <trkpt lat="45.12609" lon="17.17045">
        <ele>91.1</ele>
        <time>2022-05-23T08:55:43.000Z</time>
      </trkpt>
      <trkpt lat="45.12596" lon="17.17076">
        <ele>92.72</ele>
        <time>2022-05-23T08:55:48.000Z</time>
      </trkpt>
      <trkpt lat="45.12583" lon="17.17105">
        <ele>92.75</ele>
        <time>2022-05-23T08:55:53.000Z</time>
      </trkpt>
      <trkpt lat="45.1257" lon="17.1713">
        <ele>92.1</ele>
        <time>2022-05-23T08:55:58.000Z</time>
      </trkpt>
      <trkpt lat="45.12558" lon="17.17158">
        <ele>92.09</ele>
        <time>2022-05-23T08:56:03.000Z</time>
      </trkpt>
      <trkpt lat="45.12544" lon="17.17187">
        <ele>91.34</ele>
        <time>2022-05-23T08:56:08.000Z</time>
      </trkpt>
      <trkpt lat="45.12533" lon="17.17215">
        <ele>90.3</ele>
        <time>2022-05-23T08:56:13.000Z</time>
      </trkpt>
      <trkpt lat="45.1252" lon="17.17244">
        <ele>89.1</ele>
        <time>2022-05-23T08:56:18.000Z</time>
      </trkpt>
      <trkpt lat="45.12507" lon="17.17281">
        <ele>91.52</ele>
        <time>2022-05-23T08:56:23.000Z</time>
      </trkpt>
      <trkpt lat="45.12497" lon="17.17312">
        <ele>92.12</ele>
        <time>2022-05-23T08:56:28.000Z</time>
      </trkpt>
      <trkpt lat="45.12482" lon="17.17344">
        <ele>93.12</ele>
        <time>2022-05-23T08:56:33.000Z</time>
      </trkpt>
      <trkpt lat="45.12467" lon="17.17372">
        <ele>93.2</ele>
        <time>2022-05-23T08:56:38.000Z</time>
      </trkpt>
      <trkpt lat="45.12453" lon="17.17401">
        <ele>93.76</ele>
        <time>2022-05-23T08:56:43.000Z</time>
      </trkpt>
      <trkpt lat="45.12433" lon="17.17429">
        <ele>93.84</ele>
        <time>2022-05-23T08:56:48.000Z</time>
      </trkpt>
      <trkpt lat="45.12413" lon="17.1745">
        <ele>94.27</ele>
        <time>2022-05-23T08:56:53.000Z</time>
      </trkpt>
      <trkpt lat="45.1239" lon="17.17465">
        <ele>93.84</ele>
        <time>2022-05-23T08:56:58.000Z</time>
      </trkpt>
      <trkpt lat="45.12367" lon="17.17478">
        <ele>92.3</ele>
        <time>2022-05-23T08:57:03.000Z</time>
      </trkpt>
      <trkpt lat="45.12343" lon="17.17491">
        <ele>92.84</ele>
        <time>2022-05-23T08:57:08.000Z</time>
      </trkpt>
      <trkpt lat="45.12317" lon="17.17504">
        <ele>93.96</ele>
        <time>2022-05-23T08:57:13.000Z</time>
      </trkpt>
      <trkpt lat="45.1229" lon="17.17517">
        <ele>94.49</ele>
        <time>2022-05-23T08:57:18.000Z</time>
      </trkpt>
      <trkpt lat="45.12264" lon="17.17529">
        <ele>94.21</ele>
        <time>2022-05-23T08:57:23.000Z</time>
      </trkpt>
      <trkpt lat="45.1224" lon="17.17541">
        <ele>93.5</ele>
        <time>2022-05-23T08:57:28.000Z</time>
      </trkpt>
      <trkpt lat="45.12216" lon="17.17557">
        <ele>93.96</ele>
        <time>2022-05-23T08:57:33.000Z</time>
      </trkpt>
      <trkpt lat="45.12188" lon="17.17571">
        <ele>94.13</ele>
        <time>2022-05-23T08:57:38.000Z</time>
      </trkpt>
      <trkpt lat="45.12161" lon="17.17585">
        <ele>94.2</ele>
        <time>2022-05-23T08:57:43.000Z</time>
      </trkpt>
      <trkpt lat="45.12134" lon="17.17597">
        <ele>94.18</ele>
        <time>2022-05-23T08:57:48.000Z</time>
      </trkpt>
      <trkpt lat="45.12107" lon="17.17611">
        <ele>95.09</ele>
        <time>2022-05-23T08:57:53.000Z</time>
      </trkpt>
      <trkpt lat="45.12082" lon="17.17624">
        <ele>94.4</ele>
        <time>2022-05-23T08:57:58.000Z</time>
      </trkpt>
      <trkpt lat="45.12058" lon="17.17637">
        <ele>94.11</ele>
        <time>2022-05-23T08:58:03.000Z</time>
      </trkpt>
      <trkpt lat="45.12033" lon="17.17648">
        <ele>93.74</ele>
        <time>2022-05-23T08:58:08.000Z</time>
      </trkpt>
      <trkpt lat="45.12008" lon="17.17661">
        <ele>94.4</ele>
        <time>2022-05-23T08:58:13.000Z</time>
      </trkpt>
      <trkpt lat="45.11982" lon="17.17673">
        <ele>93.62</ele>
        <time>2022-05-23T08:58:18.000Z</time>
      </trkpt>
      <trkpt lat="45.11957" lon="17.17687">
        <ele>94.08</ele>
        <time>2022-05-23T08:58:23.000Z</time>
      </trkpt>
      <trkpt lat="45.11933" lon="17.17702">
        <ele>95.34</ele>
        <time>2022-05-23T08:58:28.000Z</time>
      </trkpt>
      <trkpt lat="45.11909" lon="17.17718">
        <ele>95.74</ele>
        <time>2022-05-23T08:58:33.000Z</time>
      </trkpt>
      <trkpt lat="45.11888" lon="17.17734">
        <ele>95.09</ele>
        <time>2022-05-23T08:58:38.000Z</time>
      </trkpt>
      <trkpt lat="45.11868" lon="17.17755">
        <ele>94.79</ele>
        <time>2022-05-23T08:58:43.000Z</time>
      </trkpt>
      <trkpt lat="45.11851" lon="17.17774">
        <ele>94.87</ele>
        <time>2022-05-23T08:58:48.000Z</time>
      </trkpt>
      <trkpt lat="45.11834" lon="17.17796">
        <ele>94.58</ele>
        <time>2022-05-23T08:58:53.000Z</time>
      </trkpt>
      <trkpt lat="45.11819" lon="17.17818">
        <ele>94.18</ele>
        <time>2022-05-23T08:58:58.000Z</time>
      </trkpt>
      <trkpt lat="45.11806" lon="17.17842">
        <ele>94.18</ele>
        <time>2022-05-23T08:59:03.000Z</time>
      </trkpt>
      <trkpt lat="45.11793" lon="17.17866">
        <ele>93.77</ele>
        <time>2022-05-23T08:59:08.000Z</time>
      </trkpt>
      <trkpt lat="45.11781" lon="17.17892">
        <ele>93.07</ele>
        <time>2022-05-23T08:59:13.000Z</time>
      </trkpt>
      <trkpt lat="45.11766" lon="17.17921">
        <ele>91.87</ele>
        <time>2022-05-23T08:59:18.000Z</time>
      </trkpt>
      <trkpt lat="45.11752" lon="17.17951">
        <ele>91.9</ele>
        <time>2022-05-23T08:59:23.000Z</time>
      </trkpt>
      <trkpt lat="45.1174" lon="17.1798">
        <ele>92.94</ele>
        <time>2022-05-23T08:59:28.000Z</time>
      </trkpt>
      <trkpt lat="45.11728" lon="17.18008">
        <ele>94.13</ele>
        <time>2022-05-23T08:59:33.000Z</time>
      </trkpt>
      <trkpt lat="45.11714" lon="17.18036">
        <ele>94.93</ele>
        <time>2022-05-23T08:59:38.000Z</time>
      </trkpt>
      <trkpt lat="45.11701" lon="17.18063">
        <ele>95.12</ele>
        <time>2022-05-23T08:59:43.000Z</time>
      </trkpt>
      <trkpt lat="45.11688" lon="17.18091">
        <ele>95.5</ele>
        <time>2022-05-23T08:59:48.000Z</time>
      </trkpt>
      <trkpt lat="45.11676" lon="17.18118">
        <ele>96.6</ele>
        <time>2022-05-23T08:59:53.000Z</time>
      </trkpt>
      <trkpt lat="45.11663" lon="17.18145">
        <ele>96.13</ele>
        <time>2022-05-23T08:59:58.000Z</time>
      </trkpt>
      <trkpt lat="45.11649" lon="17.18171">
        <ele>95.41</ele>
        <time>2022-05-23T09:00:03.000Z</time>
      </trkpt>
      <trkpt lat="45.11635" lon="17.18198">
        <ele>94.77</ele>
        <time>2022-05-23T09:00:08.000Z</time>
      </trkpt>
      <trkpt lat="45.11622" lon="17.18227">
        <ele>95.61</ele>
        <time>2022-05-23T09:00:13.000Z</time>
      </trkpt>
      <trkpt lat="45.11608" lon="17.18253">
        <ele>95.92</ele>
        <time>2022-05-23T09:00:18.000Z</time>
      </trkpt>
      <trkpt lat="45.11596" lon="17.18276">
        <ele>95.73</ele>
        <time>2022-05-23T09:00:23.000Z</time>
      </trkpt>
      <trkpt lat="45.11583" lon="17.18296">
        <ele>95.8</ele>
        <time>2022-05-23T09:00:28.000Z</time>
      </trkpt>
      <trkpt lat="45.11566" lon="17.18318">
        <ele>94.52</ele>
        <time>2022-05-23T09:00:33.000Z</time>
      </trkpt>
      <trkpt lat="45.11549" lon="17.1834">
        <ele>94.87</ele>
        <time>2022-05-23T09:00:38.000Z</time>
      </trkpt>
      <trkpt lat="45.1153" lon="17.18358">
        <ele>96.55</ele>
        <time>2022-05-23T09:00:43.000Z</time>
      </trkpt>
      <trkpt lat="45.11512" lon="17.18373">
        <ele>95.95</ele>
        <time>2022-05-23T09:00:48.000Z</time>
      </trkpt>
      <trkpt lat="45.11494" lon="17.18387">
        <ele>95.95</ele>
        <time>2022-05-23T09:00:53.000Z</time>
      </trkpt>
      <trkpt lat="45.11475" lon="17.18399">
        <ele>96.62</ele>
        <time>2022-05-23T09:00:58.000Z</time>
      </trkpt>
      <trkpt lat="45.11454" lon="17.18412">
        <ele>97.12</ele>
        <time>2022-05-23T09:01:03.000Z</time>
      </trkpt>
      <trkpt lat="45.11434" lon="17.18427">
        <ele>98.33</ele>
        <time>2022-05-23T09:01:08.000Z</time>
      </trkpt>
      <trkpt lat="45.11416" lon="17.18445">
        <ele>98.81</ele>
        <time>2022-05-23T09:01:13.000Z</time>
      </trkpt>
      <trkpt lat="45.11401" lon="17.18467">
        <ele>98.96</ele>
        <time>2022-05-23T09:01:18.000Z</time>
      </trkpt>
      <trkpt lat="45.11389" lon="17.18493">
        <ele>98.61</ele>
        <time>2022-05-23T09:01:23.000Z</time>
      </trkpt>
      <trkpt lat="45.11381" lon="17.18516">
        <ele>98.34</ele>
        <time>2022-05-23T09:01:28.000Z</time>
      </trkpt>
      <trkpt lat="45.11375" lon="17.18533">
        <ele>97.24</ele>
        <time>2022-05-23T09:01:33.000Z</time>
      </trkpt>
      <trkpt lat="45.11374" lon="17.18546">
        <ele>97.19</ele>
        <time>2022-05-23T09:02:06.000Z</time>
      </trkpt>
      <trkpt lat="45.11368" lon="17.18561">
        <ele>96.64</ele>
        <time>2022-05-23T09:02:11.000Z</time>
      </trkpt>
      <trkpt lat="45.11361" lon="17.18582">
        <ele>95.72</ele>
        <time>2022-05-23T09:02:16.000Z</time>
      </trkpt>
      <trkpt lat="45.11352" lon="17.1861">
        <ele>95.14</ele>
        <time>2022-05-23T09:02:21.000Z</time>
      </trkpt>
      <trkpt lat="45.11341" lon="17.18639">
        <ele>93.25</ele>
        <time>2022-05-23T09:02:26.000Z</time>
      </trkpt>
      <trkpt lat="45.11332" lon="17.1867">
        <ele>91.51</ele>
        <time>2022-05-23T09:02:31.000Z</time>
      </trkpt>
      <trkpt lat="45.11325" lon="17.187">
        <ele>90.99</ele>
        <time>2022-05-23T09:02:36.000Z</time>
      </trkpt>
      <trkpt lat="45.11323" lon="17.1873">
        <ele>91.48</ele>
        <time>2022-05-23T09:02:41.000Z</time>
      </trkpt>
      <trkpt lat="45.11322" lon="17.18764">
        <ele>91.24</ele>
        <time>2022-05-23T09:02:46.000Z</time>
      </trkpt>
      <trkpt lat="45.11327" lon="17.18794">
        <ele>91.52</ele>
        <time>2022-05-23T09:02:51.000Z</time>
      </trkpt>
      <trkpt lat="45.11336" lon="17.18823">
        <ele>92</ele>
        <time>2022-05-23T09:02:56.000Z</time>
      </trkpt>
      <trkpt lat="45.11344" lon="17.1885">
        <ele>93.05</ele>
        <time>2022-05-23T09:03:01.000Z</time>
      </trkpt>
      <trkpt lat="45.11354" lon="17.18874">
        <ele>93.29</ele>
        <time>2022-05-23T09:03:06.000Z</time>
      </trkpt>
      <trkpt lat="45.11364" lon="17.18901">
        <ele>94.35</ele>
        <time>2022-05-23T09:03:11.000Z</time>
      </trkpt>
      <trkpt lat="45.11373" lon="17.18927">
        <ele>94.06</ele>
        <time>2022-05-23T09:03:16.000Z</time>
      </trkpt>
      <trkpt lat="45.11383" lon="17.18955">
        <ele>93.06</ele>
        <time>2022-05-23T09:03:21.000Z</time>
      </trkpt>
      <trkpt lat="45.11392" lon="17.18983">
        <ele>91.9</ele>
        <time>2022-05-23T09:03:26.000Z</time>
      </trkpt>
      <trkpt lat="45.11402" lon="17.19014">
        <ele>91.95</ele>
        <time>2022-05-23T09:03:31.000Z</time>
      </trkpt>
      <trkpt lat="45.11412" lon="17.19043">
        <ele>91.61</ele>
        <time>2022-05-23T09:03:36.000Z</time>
      </trkpt>
      <trkpt lat="45.1142" lon="17.19069">
        <ele>91.56</ele>
        <time>2022-05-23T09:03:41.000Z</time>
      </trkpt>
      <trkpt lat="45.11425" lon="17.1909">
        <ele>91.89</ele>
        <time>2022-05-23T09:03:46.000Z</time>
      </trkpt>
      <trkpt lat="45.11431" lon="17.19106">
        <ele>91.66</ele>
        <time>2022-05-23T09:03:51.000Z</time>
      </trkpt>
      <trkpt lat="45.11438" lon="17.19122">
        <ele>92.5</ele>
        <time>2022-05-23T09:03:56.000Z</time>
      </trkpt>
      <trkpt lat="45.11443" lon="17.19139">
        <ele>95.08</ele>
        <time>2022-05-23T09:04:01.000Z</time>
      </trkpt>
      <trkpt lat="45.11447" lon="17.1916">
        <ele>98.78</ele>
        <time>2022-05-23T09:04:06.000Z</time>
      </trkpt>
      <trkpt lat="45.11454" lon="17.19179">
        <ele>100.66</ele>
        <time>2022-05-23T09:04:11.000Z</time>
      </trkpt>
      <trkpt lat="45.11459" lon="17.192">
        <ele>102.19</ele>
        <time>2022-05-23T09:04:16.000Z</time>
      </trkpt>
      <trkpt lat="45.11466" lon="17.19222">
        <ele>103.53</ele>
        <time>2022-05-23T09:04:21.000Z</time>
      </trkpt>
      <trkpt lat="45.11474" lon="17.19246">
        <ele>103.49</ele>
        <time>2022-05-23T09:04:26.000Z</time>
      </trkpt>
      <trkpt lat="45.11484" lon="17.19276">
        <ele>103.4</ele>
        <time>2022-05-23T09:04:31.000Z</time>
      </trkpt>
      <trkpt lat="45.11497" lon="17.19316">
        <ele>103.32</ele>
        <time>2022-05-23T09:04:36.000Z</time>
      </trkpt>
      <trkpt lat="45.1151" lon="17.19366">
        <ele>101.98</ele>
        <time>2022-05-23T09:04:41.000Z</time>
      </trkpt>
      <trkpt lat="45.11525" lon="17.19413">
        <ele>99.37</ele>
        <time>2022-05-23T09:04:46.000Z</time>
      </trkpt>
      <trkpt lat="45.1153" lon="17.19468">
        <ele>96.52</ele>
        <time>2022-05-23T09:04:51.000Z</time>
      </trkpt>
      <trkpt lat="45.11533" lon="17.1952">
        <ele>95.03</ele>
        <time>2022-05-23T09:04:56.000Z</time>
      </trkpt>
      <trkpt lat="45.11536" lon="17.1957">
        <ele>93.45</ele>
        <time>2022-05-23T09:05:01.000Z</time>
      </trkpt>
      <trkpt lat="45.11538" lon="17.19616">
        <ele>92.3</ele>
        <time>2022-05-23T09:05:06.000Z</time>
      </trkpt>
      <trkpt lat="45.11539" lon="17.19661">
        <ele>92.33</ele>
        <time>2022-05-23T09:05:11.000Z</time>
      </trkpt>
      <trkpt lat="45.11542" lon="17.19702">
        <ele>92.24</ele>
        <time>2022-05-23T09:05:16.000Z</time>
      </trkpt>
      <trkpt lat="45.11545" lon="17.1974">
        <ele>92.37</ele>
        <time>2022-05-23T09:05:21.000Z</time>
      </trkpt>
      <trkpt lat="45.11546" lon="17.19777">
        <ele>91.32</ele>
        <time>2022-05-23T09:05:26.000Z</time>
      </trkpt>
      <trkpt lat="45.11549" lon="17.19812">
        <ele>91.45</ele>
        <time>2022-05-23T09:05:31.000Z</time>
      </trkpt>
      <trkpt lat="45.1155" lon="17.19845">
        <ele>91.19</ele>
        <time>2022-05-23T09:05:36.000Z</time>
      </trkpt>
      <trkpt lat="45.11551" lon="17.19879">
        <ele>90.05</ele>
        <time>2022-05-23T09:05:41.000Z</time>
      </trkpt>
      <trkpt lat="45.11552" lon="17.19914">
        <ele>89.8</ele>
        <time>2022-05-23T09:05:46.000Z</time>
      </trkpt>
      <trkpt lat="45.11554" lon="17.19947">
        <ele>89.62</ele>
        <time>2022-05-23T09:05:51.000Z</time>
      </trkpt>
      <trkpt lat="45.11555" lon="17.1998">
        <ele>89.36</ele>
        <time>2022-05-23T09:05:56.000Z</time>
      </trkpt>
      <trkpt lat="45.11557" lon="17.20012">
        <ele>89.48</ele>
        <time>2022-05-23T09:06:01.000Z</time>
      </trkpt>
      <trkpt lat="45.11558" lon="17.20044">
        <ele>88.96</ele>
        <time>2022-05-23T09:06:06.000Z</time>
      </trkpt>
      <trkpt lat="45.1156" lon="17.20077">
        <ele>88.21</ele>
        <time>2022-05-23T09:06:11.000Z</time>
      </trkpt>
      <trkpt lat="45.11562" lon="17.2011">
        <ele>88.14</ele>
        <time>2022-05-23T09:06:16.000Z</time>
      </trkpt>
      <trkpt lat="45.11562" lon="17.20145">
        <ele>88.8</ele>
        <time>2022-05-23T09:06:21.000Z</time>
      </trkpt>
      <trkpt lat="45.11565" lon="17.20175">
        <ele>88.8</ele>
        <time>2022-05-23T09:06:26.000Z</time>
      </trkpt>
      <trkpt lat="45.11566" lon="17.20206">
        <ele>88.63</ele>
        <time>2022-05-23T09:06:31.000Z</time>
      </trkpt>
      <trkpt lat="45.11569" lon="17.20237">
        <ele>88.16</ele>
        <time>2022-05-23T09:06:36.000Z</time>
      </trkpt>
      <trkpt lat="45.1157" lon="17.2027">
        <ele>87.73</ele>
        <time>2022-05-23T09:06:41.000Z</time>
      </trkpt>
      <trkpt lat="45.11572" lon="17.20303">
        <ele>88.51</ele>
        <time>2022-05-23T09:06:46.000Z</time>
      </trkpt>
      <trkpt lat="45.11573" lon="17.20336">
        <ele>88.96</ele>
        <time>2022-05-23T09:06:51.000Z</time>
      </trkpt>
      <trkpt lat="45.11575" lon="17.20368">
        <ele>88.43</ele>
        <time>2022-05-23T09:06:56.000Z</time>
      </trkpt>
      <trkpt lat="45.11575" lon="17.20402">
        <ele>87.96</ele>
        <time>2022-05-23T09:07:01.000Z</time>
      </trkpt>
      <trkpt lat="45.11576" lon="17.20434">
        <ele>88.32</ele>
        <time>2022-05-23T09:07:06.000Z</time>
      </trkpt>
      <trkpt lat="45.11585" lon="17.20465">
        <ele>88.33</ele>
        <time>2022-05-23T09:07:11.000Z</time>
      </trkpt>
      <trkpt lat="45.11595" lon="17.20495">
        <ele>88.49</ele>
        <time>2022-05-23T09:07:16.000Z</time>
      </trkpt>
      <trkpt lat="45.11606" lon="17.20526">
        <ele>87.97</ele>
        <time>2022-05-23T09:07:21.000Z</time>
      </trkpt>
      <trkpt lat="45.11613" lon="17.20562">
        <ele>87.18</ele>
        <time>2022-05-23T09:07:26.000Z</time>
      </trkpt>
      <trkpt lat="45.11621" lon="17.20598">
        <ele>86.59</ele>
        <time>2022-05-23T09:07:31.000Z</time>
      </trkpt>
      <trkpt lat="45.11629" lon="17.20634">
        <ele>86.59</ele>
        <time>2022-05-23T09:07:36.000Z</time>
      </trkpt>
      <trkpt lat="45.11636" lon="17.20671">
        <ele>87.73</ele>
        <time>2022-05-23T09:07:41.000Z</time>
      </trkpt>
      <trkpt lat="45.11643" lon="17.2071">
        <ele>88.62</ele>
        <time>2022-05-23T09:07:46.000Z</time>
      </trkpt>
      <trkpt lat="45.1165" lon="17.20746">
        <ele>88.57</ele>
        <time>2022-05-23T09:07:51.000Z</time>
      </trkpt>
      <trkpt lat="45.11657" lon="17.20782">
        <ele>88.85</ele>
        <time>2022-05-23T09:07:56.000Z</time>
      </trkpt>
      <trkpt lat="45.11665" lon="17.20818">
        <ele>89.41</ele>
        <time>2022-05-23T09:08:01.000Z</time>
      </trkpt>
      <trkpt lat="45.1167" lon="17.20853">
        <ele>89.57</ele>
        <time>2022-05-23T09:08:06.000Z</time>
      </trkpt>
      <trkpt lat="45.11677" lon="17.20889">
        <ele>90.41</ele>
        <time>2022-05-23T09:08:11.000Z</time>
      </trkpt>
      <trkpt lat="45.11683" lon="17.20923">
        <ele>90.07</ele>
        <time>2022-05-23T09:08:16.000Z</time>
      </trkpt>
      <trkpt lat="45.11689" lon="17.20957">
        <ele>90.39</ele>
        <time>2022-05-23T09:08:21.000Z</time>
      </trkpt>
      <trkpt lat="45.11696" lon="17.20989">
        <ele>89.93</ele>
        <time>2022-05-23T09:08:26.000Z</time>
      </trkpt>
      <trkpt lat="45.11703" lon="17.21019">
        <ele>89.56</ele>
        <time>2022-05-23T09:08:31.000Z</time>
      </trkpt>
      <trkpt lat="45.11714" lon="17.21047">
        <ele>88.84</ele>
        <time>2022-05-23T09:08:36.000Z</time>
      </trkpt>
      <trkpt lat="45.11728" lon="17.21071">
        <ele>88.9</ele>
        <time>2022-05-23T09:08:41.000Z</time>
      </trkpt>
      <trkpt lat="45.11741" lon="17.211">
        <ele>90.15</ele>
        <time>2022-05-23T09:08:46.000Z</time>
      </trkpt>
      <trkpt lat="45.11754" lon="17.21129">
        <ele>91.61</ele>
        <time>2022-05-23T09:08:51.000Z</time>
      </trkpt>
      <trkpt lat="45.11766" lon="17.21156">
        <ele>92.35</ele>
        <time>2022-05-23T09:08:56.000Z</time>
      </trkpt>
      <trkpt lat="45.11779" lon="17.21182">
        <ele>92.38</ele>
        <time>2022-05-23T09:09:01.000Z</time>
      </trkpt>
      <trkpt lat="45.11792" lon="17.21208">
        <ele>94.03</ele>
        <time>2022-05-23T09:09:06.000Z</time>
      </trkpt>
      <trkpt lat="45.11806" lon="17.21234">
        <ele>95.41</ele>
        <time>2022-05-23T09:09:11.000Z</time>
      </trkpt>
      <trkpt lat="45.11819" lon="17.2126">
        <ele>96.41</ele>
        <time>2022-05-23T09:09:16.000Z</time>
      </trkpt>
      <trkpt lat="45.11835" lon="17.21282">
        <ele>97.51</ele>
        <time>2022-05-23T09:09:21.000Z</time>
      </trkpt>
      <trkpt lat="45.11851" lon="17.21305">
        <ele>98.07</ele>
        <time>2022-05-23T09:09:26.000Z</time>
      </trkpt>
      <trkpt lat="45.11868" lon="17.21328">
        <ele>99.45</ele>
        <time>2022-05-23T09:09:31.000Z</time>
      </trkpt>
      <trkpt lat="45.11886" lon="17.21353">
        <ele>100.33</ele>
        <time>2022-05-23T09:09:36.000Z</time>
      </trkpt>
      <trkpt lat="45.11905" lon="17.21373">
        <ele>100.05</ele>
        <time>2022-05-23T09:09:41.000Z</time>
      </trkpt>
      <trkpt lat="45.11923" lon="17.21391">
        <ele>99.74</ele>
        <time>2022-05-23T09:09:46.000Z</time>
      </trkpt>
      <trkpt lat="45.1194" lon="17.21407">
        <ele>99.97</ele>
        <time>2022-05-23T09:09:51.000Z</time>
      </trkpt>
      <trkpt lat="45.11955" lon="17.21424">
        <ele>100.29</ele>
        <time>2022-05-23T09:09:56.000Z</time>
      </trkpt>
      <trkpt lat="45.1197" lon="17.21438">
        <ele>100.69</ele>
        <time>2022-05-23T09:10:01.000Z</time>
      </trkpt>
      <trkpt lat="45.11993" lon="17.21458">
        <ele>100.58</ele>
        <time>2022-05-23T09:10:06.000Z</time>
      </trkpt>
      <trkpt lat="45.12014" lon="17.21468">
        <ele>99.25</ele>
        <time>2022-05-23T09:10:11.000Z</time>
      </trkpt>
      <trkpt lat="45.12036" lon="17.21479">
        <ele>98.92</ele>
        <time>2022-05-23T09:10:16.000Z</time>
      </trkpt>
      <trkpt lat="45.1206" lon="17.21493">
        <ele>98.09</ele>
        <time>2022-05-23T09:10:21.000Z</time>
      </trkpt>
      <trkpt lat="45.12079" lon="17.21507">
        <ele>97.62</ele>
        <time>2022-05-23T09:10:26.000Z</time>
      </trkpt>
      <trkpt lat="45.12095" lon="17.21524">
        <ele>96.77</ele>
        <time>2022-05-23T09:10:31.000Z</time>
      </trkpt>
      <trkpt lat="45.12111" lon="17.21543">
        <ele>96.3</ele>
        <time>2022-05-23T09:10:36.000Z</time>
      </trkpt>
      <trkpt lat="45.12127" lon="17.21567">
        <ele>97.48</ele>
        <time>2022-05-23T09:10:41.000Z</time>
      </trkpt>
      <trkpt lat="45.12145" lon="17.21593">
        <ele>97.95</ele>
        <time>2022-05-23T09:10:46.000Z</time>
      </trkpt>
      <trkpt lat="45.12162" lon="17.21618">
        <ele>98</ele>
        <time>2022-05-23T09:10:51.000Z</time>
      </trkpt>
      <trkpt lat="45.12179" lon="17.21644">
        <ele>98.67</ele>
        <time>2022-05-23T09:10:56.000Z</time>
      </trkpt>
      <trkpt lat="45.12198" lon="17.21668">
        <ele>98.99</ele>
        <time>2022-05-23T09:11:01.000Z</time>
      </trkpt>
      <trkpt lat="45.12217" lon="17.21694">
        <ele>99.8</ele>
        <time>2022-05-23T09:11:06.000Z</time>
      </trkpt>
      <trkpt lat="45.12232" lon="17.21721">
        <ele>100.39</ele>
        <time>2022-05-23T09:11:11.000Z</time>
      </trkpt>
      <trkpt lat="45.12247" lon="17.21749">
        <ele>101.17</ele>
        <time>2022-05-23T09:11:16.000Z</time>
      </trkpt>
      <trkpt lat="45.12263" lon="17.21777">
        <ele>102.04</ele>
        <time>2022-05-23T09:11:21.000Z</time>
      </trkpt>
      <trkpt lat="45.12279" lon="17.21807">
        <ele>102.01</ele>
        <time>2022-05-23T09:11:26.000Z</time>
      </trkpt>
      <trkpt lat="45.12295" lon="17.21836">
        <ele>101.89</ele>
        <time>2022-05-23T09:11:31.000Z</time>
      </trkpt>
      <trkpt lat="45.12311" lon="17.21863">
        <ele>99.23</ele>
        <time>2022-05-23T09:11:36.000Z</time>
      </trkpt>
      <trkpt lat="45.12325" lon="17.2189">
        <ele>96.79</ele>
        <time>2022-05-23T09:11:41.000Z</time>
      </trkpt>
      <trkpt lat="45.1234" lon="17.21916">
        <ele>95.36</ele>
        <time>2022-05-23T09:11:46.000Z</time>
      </trkpt>
      <trkpt lat="45.12355" lon="17.21944">
        <ele>94.56</ele>
        <time>2022-05-23T09:11:51.000Z</time>
      </trkpt>
      <trkpt lat="45.12371" lon="17.21972">
        <ele>93.83</ele>
        <time>2022-05-23T09:11:56.000Z</time>
      </trkpt>
      <trkpt lat="45.12389" lon="17.21999">
        <ele>93.81</ele>
        <time>2022-05-23T09:12:01.000Z</time>
      </trkpt>
      <trkpt lat="45.12402" lon="17.22033">
        <ele>96.39</ele>
        <time>2022-05-23T09:12:06.000Z</time>
      </trkpt>
      <trkpt lat="45.12417" lon="17.22063">
        <ele>96.53</ele>
        <time>2022-05-23T09:12:11.000Z</time>
      </trkpt>
      <trkpt lat="45.12434" lon="17.22092">
        <ele>96.54</ele>
        <time>2022-05-23T09:12:16.000Z</time>
      </trkpt>
      <trkpt lat="45.12451" lon="17.2212">
        <ele>96.39</ele>
        <time>2022-05-23T09:12:21.000Z</time>
      </trkpt>
      <trkpt lat="45.12468" lon="17.22148">
        <ele>95.9</ele>
        <time>2022-05-23T09:12:26.000Z</time>
      </trkpt>
      <trkpt lat="45.12484" lon="17.22176">
        <ele>94.59</ele>
        <time>2022-05-23T09:12:31.000Z</time>
      </trkpt>
      <trkpt lat="45.12498" lon="17.22204">
        <ele>93.72</ele>
        <time>2022-05-23T09:12:36.000Z</time>
      </trkpt>
      <trkpt lat="45.12514" lon="17.22234">
        <ele>93.49</ele>
        <time>2022-05-23T09:12:41.000Z</time>
      </trkpt>
      <trkpt lat="45.1253" lon="17.22264">
        <ele>93.76</ele>
        <time>2022-05-23T09:12:46.000Z</time>
      </trkpt>
      <trkpt lat="45.12546" lon="17.22292">
        <ele>92.97</ele>
        <time>2022-05-23T09:12:51.000Z</time>
      </trkpt>
      <trkpt lat="45.12561" lon="17.22321">
        <ele>92.9</ele>
        <time>2022-05-23T09:12:56.000Z</time>
      </trkpt>
      <trkpt lat="45.1257" lon="17.22351">
        <ele>94.97</ele>
        <time>2022-05-23T09:13:01.000Z</time>
      </trkpt>
      <trkpt lat="45.12582" lon="17.22376">
        <ele>96.49</ele>
        <time>2022-05-23T09:13:06.000Z</time>
      </trkpt>
      <trkpt lat="45.12596" lon="17.22402">
        <ele>97.08</ele>
        <time>2022-05-23T09:13:11.000Z</time>
      </trkpt>
      <trkpt lat="45.12613" lon="17.22428">
        <ele>96.41</ele>
        <time>2022-05-23T09:13:16.000Z</time>
      </trkpt>
      <trkpt lat="45.1263" lon="17.22455">
        <ele>95.97</ele>
        <time>2022-05-23T09:13:21.000Z</time>
      </trkpt>
      <trkpt lat="45.12646" lon="17.22482">
        <ele>96.32</ele>
        <time>2022-05-23T09:13:26.000Z</time>
      </trkpt>
      <trkpt lat="45.12663" lon="17.22507">
        <ele>96.48</ele>
        <time>2022-05-23T09:13:31.000Z</time>
      </trkpt>
      <trkpt lat="45.1268" lon="17.22534">
        <ele>96.83</ele>
        <time>2022-05-23T09:13:36.000Z</time>
      </trkpt>
      <trkpt lat="45.12696" lon="17.22559">
        <ele>96.73</ele>
        <time>2022-05-23T09:13:41.000Z</time>
      </trkpt>
      <trkpt lat="45.12713" lon="17.22584">
        <ele>97.19</ele>
        <time>2022-05-23T09:13:46.000Z</time>
      </trkpt>
      <trkpt lat="45.12728" lon="17.22608">
        <ele>96.8</ele>
        <time>2022-05-23T09:13:51.000Z</time>
      </trkpt>
      <trkpt lat="45.12741" lon="17.22631">
        <ele>97.52</ele>
        <time>2022-05-23T09:13:56.000Z</time>
      </trkpt>
      <trkpt lat="45.12751" lon="17.22654">
        <ele>97.94</ele>
        <time>2022-05-23T09:14:01.000Z</time>
      </trkpt>
      <trkpt lat="45.12761" lon="17.22681">
        <ele>98.35</ele>
        <time>2022-05-23T09:14:06.000Z</time>
      </trkpt>
      <trkpt lat="45.12778" lon="17.22703">
        <ele>98.53</ele>
        <time>2022-05-23T09:14:11.000Z</time>
      </trkpt>
      <trkpt lat="45.12795" lon="17.22723">
        <ele>98.75</ele>
        <time>2022-05-23T09:14:16.000Z</time>
      </trkpt>
      <trkpt lat="45.12814" lon="17.22744">
        <ele>99.83</ele>
        <time>2022-05-23T09:14:21.000Z</time>
      </trkpt>
      <trkpt lat="45.12832" lon="17.22763">
        <ele>100.44</ele>
        <time>2022-05-23T09:14:26.000Z</time>
      </trkpt>
      <trkpt lat="45.1285" lon="17.22784">
        <ele>100.03</ele>
        <time>2022-05-23T09:14:31.000Z</time>
      </trkpt>
      <trkpt lat="45.12868" lon="17.22808">
        <ele>100.4</ele>
        <time>2022-05-23T09:14:36.000Z</time>
      </trkpt>
      <trkpt lat="45.12888" lon="17.22832">
        <ele>100.19</ele>
        <time>2022-05-23T09:14:41.000Z</time>
      </trkpt>
      <trkpt lat="45.12907" lon="17.22855">
        <ele>98.63</ele>
        <time>2022-05-23T09:14:46.000Z</time>
      </trkpt>
      <trkpt lat="45.12926" lon="17.2288">
        <ele>97.2</ele>
        <time>2022-05-23T09:14:51.000Z</time>
      </trkpt>
      <trkpt lat="45.12945" lon="17.22905">
        <ele>96.34</ele>
        <time>2022-05-23T09:14:56.000Z</time>
      </trkpt>
      <trkpt lat="45.12961" lon="17.22934">
        <ele>95.57</ele>
        <time>2022-05-23T09:15:01.000Z</time>
      </trkpt>
      <trkpt lat="45.12978" lon="17.22961">
        <ele>93.53</ele>
        <time>2022-05-23T09:15:06.000Z</time>
      </trkpt>
      <trkpt lat="45.12995" lon="17.22986">
        <ele>92.9</ele>
        <time>2022-05-23T09:15:11.000Z</time>
      </trkpt>
      <trkpt lat="45.13014" lon="17.23014">
        <ele>92.75</ele>
        <time>2022-05-23T09:15:16.000Z</time>
      </trkpt>
      <trkpt lat="45.1303" lon="17.23041">
        <ele>94.52</ele>
        <time>2022-05-23T09:15:21.000Z</time>
      </trkpt>
      <trkpt lat="45.13048" lon="17.23068">
        <ele>94.46</ele>
        <time>2022-05-23T09:15:26.000Z</time>
      </trkpt>
      <trkpt lat="45.13068" lon="17.23094">
        <ele>94.19</ele>
        <time>2022-05-23T09:15:31.000Z</time>
      </trkpt>
      <trkpt lat="45.13085" lon="17.23121">
        <ele>94.19</ele>
        <time>2022-05-23T09:15:36.000Z</time>
      </trkpt>
      <trkpt lat="45.13103" lon="17.23144">
        <ele>92.92</ele>
        <time>2022-05-23T09:15:41.000Z</time>
      </trkpt>
      <trkpt lat="45.13122" lon="17.2317">
        <ele>93.12</ele>
        <time>2022-05-23T09:15:46.000Z</time>
      </trkpt>
      <trkpt lat="45.1314" lon="17.23195">
        <ele>93.08</ele>
        <time>2022-05-23T09:15:51.000Z</time>
      </trkpt>
      <trkpt lat="45.13158" lon="17.23224">
        <ele>93.63</ele>
        <time>2022-05-23T09:15:56.000Z</time>
      </trkpt>
      <trkpt lat="45.13176" lon="17.2325">
        <ele>94.03</ele>
        <time>2022-05-23T09:16:01.000Z</time>
      </trkpt>
      <trkpt lat="45.13194" lon="17.23274">
        <ele>94.1</ele>
        <time>2022-05-23T09:16:06.000Z</time>
      </trkpt>
      <trkpt lat="45.1321" lon="17.23294">
        <ele>93.89</ele>
        <time>2022-05-23T09:16:11.000Z</time>
      </trkpt>
      <trkpt lat="45.13224" lon="17.23319">
        <ele>94.1</ele>
        <time>2022-05-23T09:16:16.000Z</time>
      </trkpt>
      <trkpt lat="45.1324" lon="17.23342">
        <ele>94.42</ele>
        <time>2022-05-23T09:16:21.000Z</time>
      </trkpt>
      <trkpt lat="45.1326" lon="17.23369">
        <ele>95.18</ele>
        <time>2022-05-23T09:16:26.000Z</time>
      </trkpt>
      <trkpt lat="45.13279" lon="17.2339">
        <ele>95.35</ele>
        <time>2022-05-23T09:16:31.000Z</time>
      </trkpt>
      <trkpt lat="45.13297" lon="17.23411">
        <ele>96.91</ele>
        <time>2022-05-23T09:16:36.000Z</time>
      </trkpt>
      <trkpt lat="45.13318" lon="17.2343">
        <ele>97.56</ele>
        <time>2022-05-23T09:16:41.000Z</time>
      </trkpt>
      <trkpt lat="45.13341" lon="17.23446">
        <ele>98.14</ele>
        <time>2022-05-23T09:16:46.000Z</time>
      </trkpt>
      <trkpt lat="45.13363" lon="17.23464">
        <ele>98.45</ele>
        <time>2022-05-23T09:16:51.000Z</time>
      </trkpt>
      <trkpt lat="45.13382" lon="17.23483">
        <ele>97.65</ele>
        <time>2022-05-23T09:16:56.000Z</time>
      </trkpt>
      <trkpt lat="45.13398" lon="17.23506">
        <ele>98.57</ele>
        <time>2022-05-23T09:17:01.000Z</time>
      </trkpt>
      <trkpt lat="45.13414" lon="17.23535">
        <ele>98.44</ele>
        <time>2022-05-23T09:17:06.000Z</time>
      </trkpt>
      <trkpt lat="45.13429" lon="17.23562">
        <ele>97.73</ele>
        <time>2022-05-23T09:17:11.000Z</time>
      </trkpt>
      <trkpt lat="45.13445" lon="17.23592">
        <ele>97</ele>
        <time>2022-05-23T09:17:16.000Z</time>
      </trkpt>
      <trkpt lat="45.1346" lon="17.23623">
        <ele>96.7</ele>
        <time>2022-05-23T09:17:21.000Z</time>
      </trkpt>
      <trkpt lat="45.13474" lon="17.2365">
        <ele>96.5</ele>
        <time>2022-05-23T09:17:26.000Z</time>
      </trkpt>
      <trkpt lat="45.13489" lon="17.23679">
        <ele>95.92</ele>
        <time>2022-05-23T09:17:31.000Z</time>
      </trkpt>
      <trkpt lat="45.13502" lon="17.23712">
        <ele>96.69</ele>
        <time>2022-05-23T09:17:36.000Z</time>
      </trkpt>
      <trkpt lat="45.13519" lon="17.23742">
        <ele>96.92</ele>
        <time>2022-05-23T09:17:41.000Z</time>
      </trkpt>
      <trkpt lat="45.13537" lon="17.23773">
        <ele>96.76</ele>
        <time>2022-05-23T09:17:46.000Z</time>
      </trkpt>
      <trkpt lat="45.13553" lon="17.23798">
        <ele>96.61</ele>
        <time>2022-05-23T09:17:51.000Z</time>
      </trkpt>
      <trkpt lat="45.13573" lon="17.23819">
        <ele>95.7</ele>
        <time>2022-05-23T09:17:56.000Z</time>
      </trkpt>
      <trkpt lat="45.13595" lon="17.23835">
        <ele>96.08</ele>
        <time>2022-05-23T09:18:01.000Z</time>
      </trkpt>
      <trkpt lat="45.13618" lon="17.23852">
        <ele>95.26</ele>
        <time>2022-05-23T09:18:06.000Z</time>
      </trkpt>
      <trkpt lat="45.13642" lon="17.23866">
        <ele>95.86</ele>
        <time>2022-05-23T09:18:11.000Z</time>
      </trkpt>
      <trkpt lat="45.13664" lon="17.23881">
        <ele>96.37</ele>
        <time>2022-05-23T09:18:16.000Z</time>
      </trkpt>
      <trkpt lat="45.13683" lon="17.23896">
        <ele>97.33</ele>
        <time>2022-05-23T09:18:21.000Z</time>
      </trkpt>
      <trkpt lat="45.13699" lon="17.23914">
        <ele>97.65</ele>
        <time>2022-05-23T09:18:26.000Z</time>
      </trkpt>
      <trkpt lat="45.13713" lon="17.23933">
        <ele>97.83</ele>
        <time>2022-05-23T09:18:31.000Z</time>
      </trkpt>
      <trkpt lat="45.13724" lon="17.23948">
        <ele>97.41</ele>
        <time>2022-05-23T09:18:36.000Z</time>
      </trkpt>
      <trkpt lat="45.13734" lon="17.23967">
        <ele>97.83</ele>
        <time>2022-05-23T09:18:41.000Z</time>
      </trkpt>
      <trkpt lat="45.13745" lon="17.23986">
        <ele>98.04</ele>
        <time>2022-05-23T09:18:46.000Z</time>
      </trkpt>
      <trkpt lat="45.13755" lon="17.24002">
        <ele>98.48</ele>
        <time>2022-05-23T09:18:51.000Z</time>
      </trkpt>
      <trkpt lat="45.13761" lon="17.24018">
        <ele>99.3</ele>
        <time>2022-05-23T09:18:56.000Z</time>
      </trkpt>
      <trkpt lat="45.1377" lon="17.24033">
        <ele>99.25</ele>
        <time>2022-05-23T09:19:01.000Z</time>
      </trkpt>
      <trkpt lat="45.13776" lon="17.24046">
        <ele>98.88</ele>
        <time>2022-05-23T09:19:06.000Z</time>
      </trkpt>
      <trkpt lat="45.13786" lon="17.2404">
        <ele>98.97</ele>
        <time>2022-05-23T09:19:33.000Z</time>
      </trkpt>
      <trkpt lat="45.13783" lon="17.24055">
        <ele>100.72</ele>
        <time>2022-05-23T09:20:37.000Z</time>
      </trkpt>
      <trkpt lat="45.13787" lon="17.24069">
        <ele>100.76</ele>
        <time>2022-05-23T09:20:59.000Z</time>
      </trkpt>
      <trkpt lat="45.138" lon="17.24085">
        <ele>100.06</ele>
        <time>2022-05-23T09:21:04.000Z</time>
      </trkpt>
      <trkpt lat="45.13814" lon="17.24106">
        <ele>99.85</ele>
        <time>2022-05-23T09:21:09.000Z</time>
      </trkpt>
      <trkpt lat="45.1383" lon="17.24128">
        <ele>99.59</ele>
        <time>2022-05-23T09:21:14.000Z</time>
      </trkpt>
      <trkpt lat="45.13847" lon="17.2415">
        <ele>98.24</ele>
        <time>2022-05-23T09:21:19.000Z</time>
      </trkpt>
      <trkpt lat="45.13864" lon="17.24173">
        <ele>99.27</ele>
        <time>2022-05-23T09:21:24.000Z</time>
      </trkpt>
      <trkpt lat="45.13884" lon="17.24192">
        <ele>99.88</ele>
        <time>2022-05-23T09:21:29.000Z</time>
      </trkpt>
      <trkpt lat="45.13901" lon="17.24211">
        <ele>100.07</ele>
        <time>2022-05-23T09:21:34.000Z</time>
      </trkpt>
      <trkpt lat="45.13918" lon="17.24232">
        <ele>100.34</ele>
        <time>2022-05-23T09:21:39.000Z</time>
      </trkpt>
      <trkpt lat="45.13936" lon="17.24252">
        <ele>100.69</ele>
        <time>2022-05-23T09:21:44.000Z</time>
      </trkpt>
      <trkpt lat="45.13952" lon="17.24275">
        <ele>101.32</ele>
        <time>2022-05-23T09:21:49.000Z</time>
      </trkpt>
      <trkpt lat="45.13967" lon="17.24294">
        <ele>100</ele>
        <time>2022-05-23T09:21:54.000Z</time>
      </trkpt>
      <trkpt lat="45.13984" lon="17.24315">
        <ele>99.03</ele>
        <time>2022-05-23T09:21:59.000Z</time>
      </trkpt>
      <trkpt lat="45.13996" lon="17.24339">
        <ele>99.26</ele>
        <time>2022-05-23T09:22:04.000Z</time>
      </trkpt>
      <trkpt lat="45.14006" lon="17.24366">
        <ele>99.5</ele>
        <time>2022-05-23T09:22:09.000Z</time>
      </trkpt>
      <trkpt lat="45.14014" lon="17.24395">
        <ele>98.39</ele>
        <time>2022-05-23T09:22:14.000Z</time>
      </trkpt>
      <trkpt lat="45.14023" lon="17.24425">
        <ele>97.59</ele>
        <time>2022-05-23T09:22:19.000Z</time>
      </trkpt>
      <trkpt lat="45.14032" lon="17.24454">
        <ele>97.59</ele>
        <time>2022-05-23T09:22:24.000Z</time>
      </trkpt>
      <trkpt lat="45.14042" lon="17.24486">
        <ele>98.98</ele>
        <time>2022-05-23T09:22:29.000Z</time>
      </trkpt>
      <trkpt lat="45.14052" lon="17.24517">
        <ele>98.93</ele>
        <time>2022-05-23T09:22:34.000Z</time>
      </trkpt>
      <trkpt lat="45.14065" lon="17.24549">
        <ele>99.25</ele>
        <time>2022-05-23T09:22:39.000Z</time>
      </trkpt>
      <trkpt lat="45.14076" lon="17.24579">
        <ele>99.42</ele>
        <time>2022-05-23T09:22:44.000Z</time>
      </trkpt>
      <trkpt lat="45.14088" lon="17.24607">
        <ele>99.25</ele>
        <time>2022-05-23T09:22:49.000Z</time>
      </trkpt>
      <trkpt lat="45.14105" lon="17.24629">
        <ele>99.5</ele>
        <time>2022-05-23T09:22:54.000Z</time>
      </trkpt>
      <trkpt lat="45.14123" lon="17.2465">
        <ele>99.5</ele>
        <time>2022-05-23T09:22:59.000Z</time>
      </trkpt>
      <trkpt lat="45.14142" lon="17.24661">
        <ele>99.32</ele>
        <time>2022-05-23T09:23:04.000Z</time>
      </trkpt>
      <trkpt lat="45.14158" lon="17.24672">
        <ele>99.57</ele>
        <time>2022-05-23T09:23:09.000Z</time>
      </trkpt>
      <trkpt lat="45.14178" lon="17.24681">
        <ele>101.1</ele>
        <time>2022-05-23T09:23:14.000Z</time>
      </trkpt>
      <trkpt lat="45.14198" lon="17.24684">
        <ele>102.37</ele>
        <time>2022-05-23T09:23:19.000Z</time>
      </trkpt>
      <trkpt lat="45.14219" lon="17.24684">
        <ele>103.52</ele>
        <time>2022-05-23T09:23:24.000Z</time>
      </trkpt>
      <trkpt lat="45.14242" lon="17.24688">
        <ele>103.61</ele>
        <time>2022-05-23T09:23:29.000Z</time>
      </trkpt>
      <trkpt lat="45.14264" lon="17.24694">
        <ele>105.84</ele>
        <time>2022-05-23T09:23:34.000Z</time>
      </trkpt>
      <trkpt lat="45.14288" lon="17.24706">
        <ele>105.86</ele>
        <time>2022-05-23T09:23:39.000Z</time>
      </trkpt>
      <trkpt lat="45.14308" lon="17.24718">
        <ele>106.58</ele>
        <time>2022-05-23T09:23:44.000Z</time>
      </trkpt>
      <trkpt lat="45.1433" lon="17.24731">
        <ele>105.74</ele>
        <time>2022-05-23T09:23:49.000Z</time>
      </trkpt>
      <trkpt lat="45.14348" lon="17.24742">
        <ele>105.62</ele>
        <time>2022-05-23T09:23:54.000Z</time>
      </trkpt>
      <trkpt lat="45.14368" lon="17.24754">
        <ele>106.76</ele>
        <time>2022-05-23T09:23:59.000Z</time>
      </trkpt>
      <trkpt lat="45.14389" lon="17.24767">
        <ele>107.76</ele>
        <time>2022-05-23T09:24:04.000Z</time>
      </trkpt>
      <trkpt lat="45.1441" lon="17.24776">
        <ele>107.91</ele>
        <time>2022-05-23T09:24:09.000Z</time>
      </trkpt>
      <trkpt lat="45.14429" lon="17.24788">
        <ele>107.75</ele>
        <time>2022-05-23T09:24:14.000Z</time>
      </trkpt>
      <trkpt lat="45.14445" lon="17.24796">
        <ele>107.47</ele>
        <time>2022-05-23T09:24:19.000Z</time>
      </trkpt>
      <trkpt lat="45.14457" lon="17.24803">
        <ele>108.25</ele>
        <time>2022-05-23T09:24:24.000Z</time>
      </trkpt>
      <trkpt lat="45.1447" lon="17.2481">
        <ele>108.83</ele>
        <time>2022-05-23T09:24:29.000Z</time>
      </trkpt>
      <trkpt lat="45.14483" lon="17.24826">
        <ele>108.33</ele>
        <time>2022-05-23T09:24:34.000Z</time>
      </trkpt>
      <trkpt lat="45.14492" lon="17.2483">
        <ele>108.85</ele>
        <time>2022-05-23T09:24:51.000Z</time>
      </trkpt>
      <trkpt lat="45.14486" lon="17.2484">
        <ele>109.24</ele>
        <time>2022-05-23T09:25:22.000Z</time>
      </trkpt>
      <trkpt lat="45.14489" lon="17.24852">
        <ele>108.71</ele>
        <time>2022-05-23T09:25:29.000Z</time>
      </trkpt>
      <trkpt lat="45.14485" lon="17.24866">
        <ele>107.69</ele>
        <time>2022-05-23T09:25:34.000Z</time>
      </trkpt>
      <trkpt lat="45.14484" lon="17.2488">
        <ele>106.38</ele>
        <time>2022-05-23T09:25:41.000Z</time>
      </trkpt>
      <trkpt lat="45.14476" lon="17.24896">
        <ele>103.58</ele>
        <time>2022-05-23T09:25:46.000Z</time>
      </trkpt>
      <trkpt lat="45.14467" lon="17.24905">
        <ele>101.13</ele>
        <time>2022-05-23T09:25:51.000Z</time>
      </trkpt>
      <trkpt lat="45.14454" lon="17.24915">
        <ele>100.79</ele>
        <time>2022-05-23T09:25:56.000Z</time>
      </trkpt>
      <trkpt lat="45.14441" lon="17.24922">
        <ele>99.38</ele>
        <time>2022-05-23T09:26:01.000Z</time>
      </trkpt>
      <trkpt lat="45.14426" lon="17.24932">
        <ele>98.3</ele>
        <time>2022-05-23T09:26:06.000Z</time>
      </trkpt>
      <trkpt lat="45.14411" lon="17.24939">
        <ele>97.27</ele>
        <time>2022-05-23T09:26:11.000Z</time>
      </trkpt>
      <trkpt lat="45.14413" lon="17.24952">
        <ele>96.49</ele>
        <time>2022-05-23T09:26:30.000Z</time>
      </trkpt>
      <trkpt lat="45.14422" lon="17.24962">
        <ele>96.38</ele>
        <time>2022-05-23T09:26:35.000Z</time>
      </trkpt>
      <trkpt lat="45.1443" lon="17.24967">
        <ele>95.66</ele>
        <time>2022-05-23T09:26:40.000Z</time>
      </trkpt>
      <trkpt lat="45.14439" lon="17.24973">
        <ele>94.9</ele>
        <time>2022-05-23T09:26:49.000Z</time>
      </trkpt>
      <trkpt lat="45.14446" lon="17.24988">
        <ele>94.6</ele>
        <time>2022-05-23T09:27:10.000Z</time>
      </trkpt>
      <trkpt lat="45.14444" lon="17.25013">
        <ele>96.3</ele>
        <time>2022-05-23T09:27:37.000Z</time>
      </trkpt>
      <trkpt lat="45.14456" lon="17.25001">
        <ele>101.35</ele>
        <time>2022-05-23T09:29:17.000Z</time>
      </trkpt>
      <trkpt lat="45.1444" lon="17.25007">
        <ele>102.68</ele>
        <time>2022-05-23T09:30:29.000Z</time>
      </trkpt>
      <trkpt lat="45.1445" lon="17.25004">
        <ele>103.02</ele>
        <time>2022-05-23T09:31:13.000Z</time>
      </trkpt>
      <trkpt lat="45.14462" lon="17.25004">
        <ele>102.88</ele>
        <time>2022-05-23T09:31:40.000Z</time>
      </trkpt>
      <trkpt lat="45.14448" lon="17.25007">
        <ele>106.32</ele>
        <time>2022-05-23T09:33:32.000Z</time>
      </trkpt>
      <trkpt lat="45.14455" lon="17.25016">
        <ele>107.8</ele>
        <time>2022-05-23T09:33:50.000Z</time>
      </trkpt>
      <trkpt lat="45.14459" lon="17.25028">
        <ele>104.24</ele>
        <time>2022-05-23T09:33:58.000Z</time>
      </trkpt>
      <trkpt lat="45.14469" lon="17.25032">
        <ele>105.07</ele>
        <time>2022-05-23T09:34:06.000Z</time>
      </trkpt>
      <trkpt lat="45.1448" lon="17.25031">
        <ele>104.09</ele>
        <time>2022-05-23T09:34:12.000Z</time>
      </trkpt>
      <trkpt lat="45.14489" lon="17.25033">
        <ele>104.69</ele>
        <time>2022-05-23T09:34:19.000Z</time>
      </trkpt>
      <trkpt lat="45.14497" lon="17.25016">
        <ele>104.17</ele>
        <time>2022-05-23T09:34:24.000Z</time>
      </trkpt>
      <trkpt lat="45.14499" lon="17.25002">
        <ele>104.01</ele>
        <time>2022-05-23T09:34:29.000Z</time>
      </trkpt>
      <trkpt lat="45.14507" lon="17.24986">
        <ele>103.56</ele>
        <time>2022-05-23T09:34:34.000Z</time>
      </trkpt>
      <trkpt lat="45.14515" lon="17.24979">
        <ele>103.06</ele>
        <time>2022-05-23T09:34:40.000Z</time>
      </trkpt>
      <trkpt lat="45.14526" lon="17.24975">
        <ele>103.1</ele>
        <time>2022-05-23T09:34:45.000Z</time>
      </trkpt>
      <trkpt lat="45.14539" lon="17.24967">
        <ele>102.73</ele>
        <time>2022-05-23T09:34:50.000Z</time>
      </trkpt>
      <trkpt lat="45.14551" lon="17.24964">
        <ele>102.7</ele>
        <time>2022-05-23T09:34:55.000Z</time>
      </trkpt>
      <trkpt lat="45.14561" lon="17.24962">
        <ele>102.61</ele>
        <time>2022-05-23T09:35:00.000Z</time>
      </trkpt>
      <trkpt lat="45.1457" lon="17.24961">
        <ele>104.93</ele>
        <time>2022-05-23T09:35:06.000Z</time>
      </trkpt>
      <trkpt lat="45.1458" lon="17.24955">
        <ele>107.5</ele>
        <time>2022-05-23T09:35:11.000Z</time>
      </trkpt>
      <trkpt lat="45.14589" lon="17.24944">
        <ele>108.77</ele>
        <time>2022-05-23T09:35:17.000Z</time>
      </trkpt>
      <trkpt lat="45.14596" lon="17.24936">
        <ele>108.34</ele>
        <time>2022-05-23T09:35:24.000Z</time>
      </trkpt>
      <trkpt lat="45.14607" lon="17.24928">
        <ele>107.42</ele>
        <time>2022-05-23T09:35:29.000Z</time>
      </trkpt>
      <trkpt lat="45.14618" lon="17.24926">
        <ele>105.54</ele>
        <time>2022-05-23T09:35:34.000Z</time>
      </trkpt>
      <trkpt lat="45.14629" lon="17.24918">
        <ele>104.84</ele>
        <time>2022-05-23T09:35:39.000Z</time>
      </trkpt>
      <trkpt lat="45.1464" lon="17.24906">
        <ele>105.06</ele>
        <time>2022-05-23T09:35:44.000Z</time>
      </trkpt>
      <trkpt lat="45.1465" lon="17.24891">
        <ele>105.2</ele>
        <time>2022-05-23T09:35:49.000Z</time>
      </trkpt>
      <trkpt lat="45.1466" lon="17.24879">
        <ele>106.46</ele>
        <time>2022-05-23T09:35:54.000Z</time>
      </trkpt>
      <trkpt lat="45.14669" lon="17.2487">
        <ele>106.88</ele>
        <time>2022-05-23T09:35:59.000Z</time>
      </trkpt>
      <trkpt lat="45.14675" lon="17.24861">
        <ele>101.72</ele>
        <time>2022-05-23T09:42:48.000Z</time>
      </trkpt>
      <trkpt lat="45.1467" lon="17.2485">
        <ele>101.98</ele>
        <time>2022-05-23T09:43:45.000Z</time>
      </trkpt>
      <trkpt lat="45.1467" lon="17.24864">
        <ele>102</ele>
        <time>2022-05-23T09:44:08.000Z</time>
      </trkpt>
      <trkpt lat="45.14659" lon="17.24871">
        <ele>96.42</ele>
        <time>2022-05-23T09:51:37.000Z</time>
      </trkpt>
      <trkpt lat="45.14668" lon="17.24865">
        <ele>90.98</ele>
        <time>2022-05-23T09:53:45.000Z</time>
      </trkpt>
      <trkpt lat="45.14661" lon="17.24874">
        <ele>90</ele>
        <time>2022-05-23T09:54:07.000Z</time>
      </trkpt>
      <trkpt lat="45.14653" lon="17.24887">
        <ele>89.73</ele>
        <time>2022-05-23T09:54:12.000Z</time>
      </trkpt>
      <trkpt lat="45.14649" lon="17.249">
        <ele>89.68</ele>
        <time>2022-05-23T09:54:17.000Z</time>
      </trkpt>
      <trkpt lat="45.14642" lon="17.24911">
        <ele>90.17</ele>
        <time>2022-05-23T09:54:22.000Z</time>
      </trkpt>
      <trkpt lat="45.14634" lon="17.24922">
        <ele>90.87</ele>
        <time>2022-05-23T09:54:28.000Z</time>
      </trkpt>
      <trkpt lat="45.14629" lon="17.24938">
        <ele>91.54</ele>
        <time>2022-05-23T09:54:33.000Z</time>
      </trkpt>
      <trkpt lat="45.14629" lon="17.24958">
        <ele>91.46</ele>
        <time>2022-05-23T09:54:38.000Z</time>
      </trkpt>
      <trkpt lat="45.14628" lon="17.24977">
        <ele>91.44</ele>
        <time>2022-05-23T09:54:43.000Z</time>
      </trkpt>
      <trkpt lat="45.14625" lon="17.24989">
        <ele>91.9</ele>
        <time>2022-05-23T09:54:48.000Z</time>
      </trkpt>
      <trkpt lat="45.1462" lon="17.25011">
        <ele>91.81</ele>
        <time>2022-05-23T09:54:53.000Z</time>
      </trkpt>
      <trkpt lat="45.14615" lon="17.25028">
        <ele>92.38</ele>
        <time>2022-05-23T09:54:58.000Z</time>
      </trkpt>
      <trkpt lat="45.1461" lon="17.25047">
        <ele>92.79</ele>
        <time>2022-05-23T09:55:03.000Z</time>
      </trkpt>
      <trkpt lat="45.14611" lon="17.25066">
        <ele>92.97</ele>
        <time>2022-05-23T09:55:08.000Z</time>
      </trkpt>
      <trkpt lat="45.14607" lon="17.25081">
        <ele>93.32</ele>
        <time>2022-05-23T09:55:13.000Z</time>
      </trkpt>
      <trkpt lat="45.14596" lon="17.25088">
        <ele>95.22</ele>
        <time>2022-05-23T09:55:41.000Z</time>
      </trkpt>
      <trkpt lat="45.14588" lon="17.2508">
        <ele>96</ele>
        <time>2022-05-23T09:55:49.000Z</time>
      </trkpt>
      <trkpt lat="45.14579" lon="17.25072">
        <ele>96.19</ele>
        <time>2022-05-23T09:55:57.000Z</time>
      </trkpt>
      <trkpt lat="45.1457" lon="17.25074">
        <ele>96.57</ele>
        <time>2022-05-23T09:56:11.000Z</time>
      </trkpt>
      <trkpt lat="45.14563" lon="17.25084">
        <ele>97.19</ele>
        <time>2022-05-23T09:56:16.000Z</time>
      </trkpt>
      <trkpt lat="45.14555" lon="17.25089">
        <ele>97</ele>
        <time>2022-05-23T09:56:31.000Z</time>
      </trkpt>
      <trkpt lat="45.14541" lon="17.25078">
        <ele>97.28</ele>
        <time>2022-05-23T09:57:13.000Z</time>
      </trkpt>
      <trkpt lat="45.14524" lon="17.25091">
        <ele>97.3</ele>
        <time>2022-05-23T09:57:26.000Z</time>
      </trkpt>
      <trkpt lat="45.14515" lon="17.25106">
        <ele>97.37</ele>
        <time>2022-05-23T09:57:32.000Z</time>
      </trkpt>
      <trkpt lat="45.1455" lon="17.25123">
        <ele>97.24</ele>
        <time>2022-05-23T09:57:49.000Z</time>
      </trkpt>
      <trkpt lat="45.14534" lon="17.25115">
        <ele>96.13</ele>
        <time>2022-05-23T09:58:00.000Z</time>
      </trkpt>
      <trkpt lat="45.14528" lon="17.25101">
        <ele>100.05</ele>
        <time>2022-05-23T09:58:07.000Z</time>
      </trkpt>
      <trkpt lat="45.14523" lon="17.2509">
        <ele>107.02</ele>
        <time>2022-05-23T09:58:13.000Z</time>
      </trkpt>
      <trkpt lat="45.14511" lon="17.25093">
        <ele>103.05</ele>
        <time>2022-05-23T09:58:25.000Z</time>
      </trkpt>
      <trkpt lat="45.145" lon="17.25094">
        <ele>102.9</ele>
        <time>2022-05-23T09:58:30.000Z</time>
      </trkpt>
      <trkpt lat="45.14491" lon="17.25091">
        <ele>102.63</ele>
        <time>2022-05-23T09:58:37.000Z</time>
      </trkpt>
      <trkpt lat="45.1449" lon="17.25077">
        <ele>102.11</ele>
        <time>2022-05-23T09:58:46.000Z</time>
      </trkpt>
      <trkpt lat="45.14497" lon="17.25068">
        <ele>102</ele>
        <time>2022-05-23T09:59:01.000Z</time>
      </trkpt>
      <trkpt lat="45.14505" lon="17.25058">
        <ele>101.9</ele>
        <time>2022-05-23T09:59:10.000Z</time>
      </trkpt>
      <trkpt lat="45.14627" lon="17.25129">
        <ele>100.73</ele>
        <time>2022-05-23T10:12:46.000Z</time>
      </trkpt>
      <trkpt lat="45.14638" lon="17.25135">
        <ele>101.83</ele>
        <time>2022-05-23T10:12:51.000Z</time>
      </trkpt>
      <trkpt lat="45.14647" lon="17.25142">
        <ele>103.26</ele>
        <time>2022-05-23T10:12:56.000Z</time>
      </trkpt>
      <trkpt lat="45.14656" lon="17.25147">
        <ele>103.5</ele>
        <time>2022-05-23T10:13:01.000Z</time>
      </trkpt>
      <trkpt lat="45.14665" lon="17.25154">
        <ele>103.35</ele>
        <time>2022-05-23T10:13:06.000Z</time>
      </trkpt>
      <trkpt lat="45.14678" lon="17.25168">
        <ele>104.15</ele>
        <time>2022-05-23T10:13:11.000Z</time>
      </trkpt>
      <trkpt lat="45.14696" lon="17.25175">
        <ele>104.67</ele>
        <time>2022-05-23T10:13:16.000Z</time>
      </trkpt>
      <trkpt lat="45.1471" lon="17.25185">
        <ele>106.05</ele>
        <time>2022-05-23T10:13:21.000Z</time>
      </trkpt>
      <trkpt lat="45.14722" lon="17.25194">
        <ele>106.63</ele>
        <time>2022-05-23T10:13:26.000Z</time>
      </trkpt>
      <trkpt lat="45.14732" lon="17.25201">
        <ele>108.49</ele>
        <time>2022-05-23T10:13:31.000Z</time>
      </trkpt>
      <trkpt lat="45.1474" lon="17.25209">
        <ele>109.88</ele>
        <time>2022-05-23T10:13:36.000Z</time>
      </trkpt>
      <trkpt lat="45.14747" lon="17.25218">
        <ele>109.07</ele>
        <time>2022-05-23T10:13:45.000Z</time>
      </trkpt>
      <trkpt lat="45.14756" lon="17.25227">
        <ele>107.04</ele>
        <time>2022-05-23T10:13:50.000Z</time>
      </trkpt>
      <trkpt lat="45.14774" lon="17.25228">
        <ele>105.34</ele>
        <time>2022-05-23T10:13:55.000Z</time>
      </trkpt>
      <trkpt lat="45.14788" lon="17.25241">
        <ele>106.31</ele>
        <time>2022-05-23T10:14:00.000Z</time>
      </trkpt>
      <trkpt lat="45.14804" lon="17.25256">
        <ele>105.91</ele>
        <time>2022-05-23T10:14:05.000Z</time>
      </trkpt>
      <trkpt lat="45.14819" lon="17.25275">
        <ele>106.5</ele>
        <time>2022-05-23T10:14:10.000Z</time>
      </trkpt>
      <trkpt lat="45.14832" lon="17.25291">
        <ele>104.95</ele>
        <time>2022-05-23T10:14:15.000Z</time>
      </trkpt>
      <trkpt lat="45.1484" lon="17.25296">
        <ele>103.53</ele>
        <time>2022-05-23T10:14:31.000Z</time>
      </trkpt>
      <trkpt lat="45.14831" lon="17.25294">
        <ele>105.04</ele>
        <time>2022-05-23T10:15:10.000Z</time>
      </trkpt>
      <trkpt lat="45.1482" lon="17.25304">
        <ele>105.19</ele>
        <time>2022-05-23T10:15:15.000Z</time>
      </trkpt>
      <trkpt lat="45.1481" lon="17.25324">
        <ele>105.77</ele>
        <time>2022-05-23T10:15:20.000Z</time>
      </trkpt>
      <trkpt lat="45.14801" lon="17.25341">
        <ele>105.07</ele>
        <time>2022-05-23T10:15:25.000Z</time>
      </trkpt>
      <trkpt lat="45.14788" lon="17.25346">
        <ele>105.35</ele>
        <time>2022-05-23T10:15:30.000Z</time>
      </trkpt>
      <trkpt lat="45.14778" lon="17.25352">
        <ele>104.1</ele>
        <time>2022-05-23T10:15:35.000Z</time>
      </trkpt>
      <trkpt lat="45.1477" lon="17.25359">
        <ele>103.26</ele>
        <time>2022-05-23T10:15:40.000Z</time>
      </trkpt>
      <trkpt lat="45.14772" lon="17.25372">
        <ele>102.54</ele>
        <time>2022-05-23T10:16:26.000Z</time>
      </trkpt>
      <trkpt lat="45.14768" lon="17.25384">
        <ele>98.55</ele>
        <time>2022-05-23T10:16:52.000Z</time>
      </trkpt>
      <trkpt lat="45.14773" lon="17.25395">
        <ele>96.18</ele>
        <time>2022-05-23T10:35:43.000Z</time>
      </trkpt>
      <trkpt lat="45.14775" lon="17.25382">
        <ele>99.15</ele>
        <time>2022-05-23T10:41:47.000Z</time>
      </trkpt>
      <trkpt lat="45.1477" lon="17.25394">
        <ele>101.78</ele>
        <time>2022-05-23T10:43:19.000Z</time>
      </trkpt>
      <trkpt lat="45.14776" lon="17.25377">
        <ele>95.45</ele>
        <time>2022-05-23T10:48:22.000Z</time>
      </trkpt>
      <trkpt lat="45.14775" lon="17.2539">
        <ele>93.16</ele>
        <time>2022-05-23T10:48:51.000Z</time>
      </trkpt>
      <trkpt lat="45.14775" lon="17.25377">
        <ele>91.1</ele>
        <time>2022-05-23T10:51:19.000Z</time>
      </trkpt>
      <trkpt lat="45.1477" lon="17.25388">
        <ele>89.68</ele>
        <time>2022-05-23T10:52:07.000Z</time>
      </trkpt>
      <trkpt lat="45.1478" lon="17.25375">
        <ele>95.05</ele>
        <time>2022-05-23T10:55:24.000Z</time>
      </trkpt>
      <trkpt lat="45.14766" lon="17.25388">
        <ele>98.15</ele>
        <time>2022-05-23T10:58:53.000Z</time>
      </trkpt>
      <trkpt lat="45.14775" lon="17.25383">
        <ele>98.47</ele>
        <time>2022-05-23T11:04:56.000Z</time>
      </trkpt>
      <trkpt lat="45.14771" lon="17.25399">
        <ele>102.42</ele>
        <time>2022-05-23T11:27:18.000Z</time>
      </trkpt>
      <trkpt lat="45.14769" lon="17.25387">
        <ele>106.25</ele>
        <time>2022-05-23T11:28:20.000Z</time>
      </trkpt>
      <trkpt lat="45.14768" lon="17.25374">
        <ele>104.33</ele>
        <time>2022-05-23T11:30:38.000Z</time>
      </trkpt>
      <trkpt lat="45.1476" lon="17.25363">
        <ele>103.3</ele>
        <time>2022-05-23T11:31:19.000Z</time>
      </trkpt>
      <trkpt lat="45.14768" lon="17.25356">
        <ele>102</ele>
        <time>2022-05-23T11:32:02.000Z</time>
      </trkpt>
      <trkpt lat="45.14785" lon="17.25364">
        <ele>101.7</ele>
        <time>2022-05-23T11:32:07.000Z</time>
      </trkpt>
      <trkpt lat="45.14794" lon="17.25364">
        <ele>101.39</ele>
        <time>2022-05-23T11:32:15.000Z</time>
      </trkpt>
      <trkpt lat="45.14805" lon="17.2535">
        <ele>100.34</ele>
        <time>2022-05-23T11:32:20.000Z</time>
      </trkpt>
      <trkpt lat="45.14816" lon="17.25336">
        <ele>99.07</ele>
        <time>2022-05-23T11:32:25.000Z</time>
      </trkpt>
      <trkpt lat="45.14825" lon="17.2532">
        <ele>97.94</ele>
        <time>2022-05-23T11:32:30.000Z</time>
      </trkpt>
      <trkpt lat="45.14834" lon="17.25307">
        <ele>97.11</ele>
        <time>2022-05-23T11:32:35.000Z</time>
      </trkpt>
      <trkpt lat="45.14842" lon="17.253">
        <ele>95.85</ele>
        <time>2022-05-23T11:32:40.000Z</time>
      </trkpt>
      <trkpt lat="45.14853" lon="17.25303">
        <ele>95.99</ele>
        <time>2022-05-23T11:32:45.000Z</time>
      </trkpt>
      <trkpt lat="45.14866" lon="17.25318">
        <ele>96.63</ele>
        <time>2022-05-23T11:32:50.000Z</time>
      </trkpt>
      <trkpt lat="45.14879" lon="17.25335">
        <ele>96.67</ele>
        <time>2022-05-23T11:32:55.000Z</time>
      </trkpt>
      <trkpt lat="45.1489" lon="17.25353">
        <ele>96.77</ele>
        <time>2022-05-23T11:33:00.000Z</time>
      </trkpt>
      <trkpt lat="45.14902" lon="17.25374">
        <ele>97.11</ele>
        <time>2022-05-23T11:33:05.000Z</time>
      </trkpt>
      <trkpt lat="45.14915" lon="17.25396">
        <ele>97.06</ele>
        <time>2022-05-23T11:33:10.000Z</time>
      </trkpt>
      <trkpt lat="45.14925" lon="17.2542">
        <ele>96.14</ele>
        <time>2022-05-23T11:33:15.000Z</time>
      </trkpt>
      <trkpt lat="45.14936" lon="17.2544">
        <ele>97.06</ele>
        <time>2022-05-23T11:33:20.000Z</time>
      </trkpt>
      <trkpt lat="45.14949" lon="17.25447">
        <ele>98.68</ele>
        <time>2022-05-23T11:33:25.000Z</time>
      </trkpt>
      <trkpt lat="45.14962" lon="17.25439">
        <ele>98.98</ele>
        <time>2022-05-23T11:33:30.000Z</time>
      </trkpt>
      <trkpt lat="45.14975" lon="17.25425">
        <ele>99.26</ele>
        <time>2022-05-23T11:33:35.000Z</time>
      </trkpt>
      <trkpt lat="45.14989" lon="17.25404">
        <ele>98.47</ele>
        <time>2022-05-23T11:33:40.000Z</time>
      </trkpt>
      <trkpt lat="45.15002" lon="17.25382">
        <ele>97.95</ele>
        <time>2022-05-23T11:33:45.000Z</time>
      </trkpt>
      <trkpt lat="45.15013" lon="17.25363">
        <ele>97.34</ele>
        <time>2022-05-23T11:33:50.000Z</time>
      </trkpt>
      <trkpt lat="45.1502" lon="17.25354">
        <ele>98.05</ele>
        <time>2022-05-23T11:33:55.000Z</time>
      </trkpt>
      <trkpt lat="45.15035" lon="17.25363">
        <ele>100.34</ele>
        <time>2022-05-23T11:34:00.000Z</time>
      </trkpt>
      <trkpt lat="45.15045" lon="17.25371">
        <ele>100.05</ele>
        <time>2022-05-23T11:34:05.000Z</time>
      </trkpt>
      <trkpt lat="45.1506" lon="17.25382">
        <ele>101.63</ele>
        <time>2022-05-23T11:34:10.000Z</time>
      </trkpt>
      <trkpt lat="45.15075" lon="17.25397">
        <ele>101.68</ele>
        <time>2022-05-23T11:34:15.000Z</time>
      </trkpt>
      <trkpt lat="45.15088" lon="17.2541">
        <ele>101.59</ele>
        <time>2022-05-23T11:34:20.000Z</time>
      </trkpt>
      <trkpt lat="45.15105" lon="17.25424">
        <ele>101.39</ele>
        <time>2022-05-23T11:34:25.000Z</time>
      </trkpt>
      <trkpt lat="45.15125" lon="17.25438">
        <ele>101.98</ele>
        <time>2022-05-23T11:34:30.000Z</time>
      </trkpt>
      <trkpt lat="45.15143" lon="17.25454">
        <ele>102.22</ele>
        <time>2022-05-23T11:34:35.000Z</time>
      </trkpt>
      <trkpt lat="45.15156" lon="17.25471">
        <ele>103.72</ele>
        <time>2022-05-23T11:34:40.000Z</time>
      </trkpt>
      <trkpt lat="45.15172" lon="17.25486">
        <ele>104.86</ele>
        <time>2022-05-23T11:34:45.000Z</time>
      </trkpt>
      <trkpt lat="45.15192" lon="17.25502">
        <ele>104.74</ele>
        <time>2022-05-23T11:34:50.000Z</time>
      </trkpt>
      <trkpt lat="45.15213" lon="17.25518">
        <ele>104.75</ele>
        <time>2022-05-23T11:34:55.000Z</time>
      </trkpt>
      <trkpt lat="45.15233" lon="17.25531">
        <ele>104.43</ele>
        <time>2022-05-23T11:35:00.000Z</time>
      </trkpt>
      <trkpt lat="45.15251" lon="17.25545">
        <ele>104.45</ele>
        <time>2022-05-23T11:35:05.000Z</time>
      </trkpt>
      <trkpt lat="45.1527" lon="17.25562">
        <ele>105.27</ele>
        <time>2022-05-23T11:35:10.000Z</time>
      </trkpt>
      <trkpt lat="45.15291" lon="17.25579">
        <ele>105.57</ele>
        <time>2022-05-23T11:35:15.000Z</time>
      </trkpt>
      <trkpt lat="45.15311" lon="17.25594">
        <ele>106.37</ele>
        <time>2022-05-23T11:35:20.000Z</time>
      </trkpt>
      <trkpt lat="45.15329" lon="17.25606">
        <ele>105.93</ele>
        <time>2022-05-23T11:35:25.000Z</time>
      </trkpt>
      <trkpt lat="45.15349" lon="17.25621">
        <ele>105.85</ele>
        <time>2022-05-23T11:35:30.000Z</time>
      </trkpt>
      <trkpt lat="45.15364" lon="17.25637">
        <ele>105.5</ele>
        <time>2022-05-23T11:35:35.000Z</time>
      </trkpt>
      <trkpt lat="45.15386" lon="17.25654">
        <ele>106.65</ele>
        <time>2022-05-23T11:35:40.000Z</time>
      </trkpt>
      <trkpt lat="45.15406" lon="17.25672">
        <ele>107.54</ele>
        <time>2022-05-23T11:35:45.000Z</time>
      </trkpt>
      <trkpt lat="45.15427" lon="17.25687">
        <ele>108.92</ele>
        <time>2022-05-23T11:35:50.000Z</time>
      </trkpt>
      <trkpt lat="45.15446" lon="17.257">
        <ele>109.15</ele>
        <time>2022-05-23T11:35:55.000Z</time>
      </trkpt>
      <trkpt lat="45.15467" lon="17.25713">
        <ele>109.33</ele>
        <time>2022-05-23T11:36:00.000Z</time>
      </trkpt>
      <trkpt lat="45.1548" lon="17.25725">
        <ele>109.28</ele>
        <time>2022-05-23T11:36:05.000Z</time>
      </trkpt>
      <trkpt lat="45.15494" lon="17.25735">
        <ele>109.58</ele>
        <time>2022-05-23T11:36:10.000Z</time>
      </trkpt>
      <trkpt lat="45.1551" lon="17.25746">
        <ele>109.03</ele>
        <time>2022-05-23T11:36:15.000Z</time>
      </trkpt>
      <trkpt lat="45.15528" lon="17.25754">
        <ele>109.01</ele>
        <time>2022-05-23T11:36:20.000Z</time>
      </trkpt>
      <trkpt lat="45.15548" lon="17.25761">
        <ele>108.34</ele>
        <time>2022-05-23T11:36:25.000Z</time>
      </trkpt>
      <trkpt lat="45.15569" lon="17.25773">
        <ele>108.78</ele>
        <time>2022-05-23T11:36:30.000Z</time>
      </trkpt>
      <trkpt lat="45.15585" lon="17.25787">
        <ele>107.81</ele>
        <time>2022-05-23T11:36:35.000Z</time>
      </trkpt>
      <trkpt lat="45.15601" lon="17.258">
        <ele>106.38</ele>
        <time>2022-05-23T11:36:40.000Z</time>
      </trkpt>
      <trkpt lat="45.15614" lon="17.25813">
        <ele>105.33</ele>
        <time>2022-05-23T11:36:45.000Z</time>
      </trkpt>
      <trkpt lat="45.15628" lon="17.25828">
        <ele>104.39</ele>
        <time>2022-05-23T11:36:50.000Z</time>
      </trkpt>
      <trkpt lat="45.15643" lon="17.25835">
        <ele>103.96</ele>
        <time>2022-05-23T11:36:55.000Z</time>
      </trkpt>
      <trkpt lat="45.15656" lon="17.25845">
        <ele>103.12</ele>
        <time>2022-05-23T11:37:00.000Z</time>
      </trkpt>
      <trkpt lat="45.15664" lon="17.25853">
        <ele>102.07</ele>
        <time>2022-05-23T11:37:05.000Z</time>
      </trkpt>
      <trkpt lat="45.15674" lon="17.25857">
        <ele>99.93</ele>
        <time>2022-05-23T11:37:22.000Z</time>
      </trkpt>
      <trkpt lat="45.15683" lon="17.25859">
        <ele>99.8</ele>
        <time>2022-05-23T11:37:29.000Z</time>
      </trkpt>
      <trkpt lat="45.15695" lon="17.25863">
        <ele>99.33</ele>
        <time>2022-05-23T11:37:34.000Z</time>
      </trkpt>
      <trkpt lat="45.15709" lon="17.2587">
        <ele>99.81</ele>
        <time>2022-05-23T11:37:39.000Z</time>
      </trkpt>
      <trkpt lat="45.15723" lon="17.25878">
        <ele>100.13</ele>
        <time>2022-05-23T11:37:44.000Z</time>
      </trkpt>
      <trkpt lat="45.15737" lon="17.25887">
        <ele>100.15</ele>
        <time>2022-05-23T11:37:49.000Z</time>
      </trkpt>
      <trkpt lat="45.15754" lon="17.25895">
        <ele>100.22</ele>
        <time>2022-05-23T11:37:54.000Z</time>
      </trkpt>
      <trkpt lat="45.15771" lon="17.25905">
        <ele>100.56</ele>
        <time>2022-05-23T11:37:59.000Z</time>
      </trkpt>
      <trkpt lat="45.15788" lon="17.25915">
        <ele>100.73</ele>
        <time>2022-05-23T11:38:04.000Z</time>
      </trkpt>
      <trkpt lat="45.15806" lon="17.25925">
        <ele>100.34</ele>
        <time>2022-05-23T11:38:09.000Z</time>
      </trkpt>
      <trkpt lat="45.15825" lon="17.25937">
        <ele>99.9</ele>
        <time>2022-05-23T11:38:14.000Z</time>
      </trkpt>
      <trkpt lat="45.15844" lon="17.25948">
        <ele>99.61</ele>
        <time>2022-05-23T11:38:19.000Z</time>
      </trkpt>
      <trkpt lat="45.15863" lon="17.25959">
        <ele>100.4</ele>
        <time>2022-05-23T11:38:24.000Z</time>
      </trkpt>
      <trkpt lat="45.15881" lon="17.25969">
        <ele>99.79</ele>
        <time>2022-05-23T11:38:29.000Z</time>
      </trkpt>
      <trkpt lat="45.15903" lon="17.25981">
        <ele>98</ele>
        <time>2022-05-23T11:38:34.000Z</time>
      </trkpt>
      <trkpt lat="45.15923" lon="17.25993">
        <ele>96.72</ele>
        <time>2022-05-23T11:38:39.000Z</time>
      </trkpt>
      <trkpt lat="45.15942" lon="17.26004">
        <ele>97.37</ele>
        <time>2022-05-23T11:38:44.000Z</time>
      </trkpt>
      <trkpt lat="45.1596" lon="17.26013">
        <ele>98.99</ele>
        <time>2022-05-23T11:38:49.000Z</time>
      </trkpt>
      <trkpt lat="45.1598" lon="17.26024">
        <ele>100.29</ele>
        <time>2022-05-23T11:38:54.000Z</time>
      </trkpt>
      <trkpt lat="45.15998" lon="17.26033">
        <ele>100.46</ele>
        <time>2022-05-23T11:38:59.000Z</time>
      </trkpt>
      <trkpt lat="45.16007" lon="17.26038">
        <ele>102.11</ele>
        <time>2022-05-23T11:39:04.000Z</time>
      </trkpt>
      <trkpt lat="45.16018" lon="17.26047">
        <ele>103.92</ele>
        <time>2022-05-23T11:39:09.000Z</time>
      </trkpt>
      <trkpt lat="45.16032" lon="17.26055">
        <ele>103.7</ele>
        <time>2022-05-23T11:39:14.000Z</time>
      </trkpt>
      <trkpt lat="45.16049" lon="17.26062">
        <ele>103.36</ele>
        <time>2022-05-23T11:39:19.000Z</time>
      </trkpt>
      <trkpt lat="45.16066" lon="17.26071">
        <ele>103.45</ele>
        <time>2022-05-23T11:39:24.000Z</time>
      </trkpt>
      <trkpt lat="45.16083" lon="17.26078">
        <ele>103.81</ele>
        <time>2022-05-23T11:39:29.000Z</time>
      </trkpt>
      <trkpt lat="45.16101" lon="17.26087">
        <ele>104.78</ele>
        <time>2022-05-23T11:39:34.000Z</time>
      </trkpt>
      <trkpt lat="45.16118" lon="17.26095">
        <ele>106.45</ele>
        <time>2022-05-23T11:39:39.000Z</time>
      </trkpt>
      <trkpt lat="45.16136" lon="17.26103">
        <ele>105.9</ele>
        <time>2022-05-23T11:39:44.000Z</time>
      </trkpt>
      <trkpt lat="45.16155" lon="17.2611">
        <ele>105.47</ele>
        <time>2022-05-23T11:39:49.000Z</time>
      </trkpt>
      <trkpt lat="45.16174" lon="17.26117">
        <ele>103.44</ele>
        <time>2022-05-23T11:39:54.000Z</time>
      </trkpt>
      <trkpt lat="45.16196" lon="17.26125">
        <ele>100.76</ele>
        <time>2022-05-23T11:39:59.000Z</time>
      </trkpt>
      <trkpt lat="45.16217" lon="17.26133">
        <ele>99.94</ele>
        <time>2022-05-23T11:40:04.000Z</time>
      </trkpt>
      <trkpt lat="45.16239" lon="17.26139">
        <ele>98.93</ele>
        <time>2022-05-23T11:40:09.000Z</time>
      </trkpt>
      <trkpt lat="45.16262" lon="17.26148">
        <ele>97.03</ele>
        <time>2022-05-23T11:40:14.000Z</time>
      </trkpt>
      <trkpt lat="45.16284" lon="17.26155">
        <ele>97.38</ele>
        <time>2022-05-23T11:40:19.000Z</time>
      </trkpt>
      <trkpt lat="45.16306" lon="17.26162">
        <ele>98.02</ele>
        <time>2022-05-23T11:40:24.000Z</time>
      </trkpt>
      <trkpt lat="45.16324" lon="17.26167">
        <ele>97.2</ele>
        <time>2022-05-23T11:40:29.000Z</time>
      </trkpt>
      <trkpt lat="45.16341" lon="17.26171">
        <ele>98.54</ele>
        <time>2022-05-23T11:40:34.000Z</time>
      </trkpt>
      <trkpt lat="45.16359" lon="17.26177">
        <ele>98.88</ele>
        <time>2022-05-23T11:40:39.000Z</time>
      </trkpt>
      <trkpt lat="45.16378" lon="17.26185">
        <ele>97.42</ele>
        <time>2022-05-23T11:40:44.000Z</time>
      </trkpt>
      <trkpt lat="45.16398" lon="17.26191">
        <ele>97.55</ele>
        <time>2022-05-23T11:40:49.000Z</time>
      </trkpt>
      <trkpt lat="45.16417" lon="17.26197">
        <ele>97.74</ele>
        <time>2022-05-23T11:40:54.000Z</time>
      </trkpt>
      <trkpt lat="45.16436" lon="17.26203">
        <ele>100.09</ele>
        <time>2022-05-23T11:40:59.000Z</time>
      </trkpt>
      <trkpt lat="45.16456" lon="17.2621">
        <ele>101.88</ele>
        <time>2022-05-23T11:41:04.000Z</time>
      </trkpt>
      <trkpt lat="45.16476" lon="17.26216">
        <ele>102.57</ele>
        <time>2022-05-23T11:41:09.000Z</time>
      </trkpt>
      <trkpt lat="45.16496" lon="17.26222">
        <ele>100.49</ele>
        <time>2022-05-23T11:41:14.000Z</time>
      </trkpt>
      <trkpt lat="45.16515" lon="17.26227">
        <ele>100.01</ele>
        <time>2022-05-23T11:41:19.000Z</time>
      </trkpt>
      <trkpt lat="45.16536" lon="17.26233">
        <ele>100.91</ele>
        <time>2022-05-23T11:41:24.000Z</time>
      </trkpt>
      <trkpt lat="45.16558" lon="17.26239">
        <ele>100.96</ele>
        <time>2022-05-23T11:41:29.000Z</time>
      </trkpt>
      <trkpt lat="45.1658" lon="17.26245">
        <ele>102.17</ele>
        <time>2022-05-23T11:41:34.000Z</time>
      </trkpt>
      <trkpt lat="45.16599" lon="17.26252">
        <ele>102.35</ele>
        <time>2022-05-23T11:41:39.000Z</time>
      </trkpt>
      <trkpt lat="45.16619" lon="17.26259">
        <ele>104.42</ele>
        <time>2022-05-23T11:41:44.000Z</time>
      </trkpt>
      <trkpt lat="45.16638" lon="17.26265">
        <ele>103.32</ele>
        <time>2022-05-23T11:41:49.000Z</time>
      </trkpt>
      <trkpt lat="45.16658" lon="17.26271">
        <ele>101.14</ele>
        <time>2022-05-23T11:41:54.000Z</time>
      </trkpt>
      <trkpt lat="45.16677" lon="17.26276">
        <ele>98.92</ele>
        <time>2022-05-23T11:41:59.000Z</time>
      </trkpt>
      <trkpt lat="45.16695" lon="17.26282">
        <ele>97.36</ele>
        <time>2022-05-23T11:42:04.000Z</time>
      </trkpt>
      <trkpt lat="45.16714" lon="17.26289">
        <ele>97.18</ele>
        <time>2022-05-23T11:42:09.000Z</time>
      </trkpt>
      <trkpt lat="45.16733" lon="17.26295">
        <ele>97.75</ele>
        <time>2022-05-23T11:42:14.000Z</time>
      </trkpt>
      <trkpt lat="45.16751" lon="17.26301">
        <ele>97.54</ele>
        <time>2022-05-23T11:42:19.000Z</time>
      </trkpt>
      <trkpt lat="45.16766" lon="17.26304">
        <ele>99.78</ele>
        <time>2022-05-23T11:42:24.000Z</time>
      </trkpt>
      <trkpt lat="45.16778" lon="17.26308">
        <ele>101.24</ele>
        <time>2022-05-23T11:42:29.000Z</time>
      </trkpt>
      <trkpt lat="45.16788" lon="17.26311">
        <ele>102.15</ele>
        <time>2022-05-23T11:42:34.000Z</time>
      </trkpt>
      <trkpt lat="45.16798" lon="17.26312">
        <ele>102.3</ele>
        <time>2022-05-23T11:42:40.000Z</time>
      </trkpt>
      <trkpt lat="45.16808" lon="17.26318">
        <ele>99.96</ele>
        <time>2022-05-23T11:43:15.000Z</time>
      </trkpt>
      <trkpt lat="45.16823" lon="17.26337">
        <ele>99.41</ele>
        <time>2022-05-23T11:43:20.000Z</time>
      </trkpt>
      <trkpt lat="45.16849" lon="17.26347">
        <ele>98.99</ele>
        <time>2022-05-23T11:43:25.000Z</time>
      </trkpt>
      <trkpt lat="45.16877" lon="17.26352">
        <ele>98.12</ele>
        <time>2022-05-23T11:43:30.000Z</time>
      </trkpt>
      <trkpt lat="45.16901" lon="17.2636">
        <ele>98.81</ele>
        <time>2022-05-23T11:43:35.000Z</time>
      </trkpt>
      <trkpt lat="45.16925" lon="17.26368">
        <ele>99.72</ele>
        <time>2022-05-23T11:43:40.000Z</time>
      </trkpt>
      <trkpt lat="45.16948" lon="17.26375">
        <ele>100.65</ele>
        <time>2022-05-23T11:43:45.000Z</time>
      </trkpt>
      <trkpt lat="45.16972" lon="17.26386">
        <ele>100.84</ele>
        <time>2022-05-23T11:43:50.000Z</time>
      </trkpt>
      <trkpt lat="45.16997" lon="17.26393">
        <ele>100.36</ele>
        <time>2022-05-23T11:43:55.000Z</time>
      </trkpt>
      <trkpt lat="45.17021" lon="17.264">
        <ele>102.34</ele>
        <time>2022-05-23T11:44:00.000Z</time>
      </trkpt>
      <trkpt lat="45.17046" lon="17.26409">
        <ele>103.73</ele>
        <time>2022-05-23T11:44:05.000Z</time>
      </trkpt>
      <trkpt lat="45.17069" lon="17.26418">
        <ele>103.19</ele>
        <time>2022-05-23T11:44:10.000Z</time>
      </trkpt>
      <trkpt lat="45.1709" lon="17.26426">
        <ele>104.27</ele>
        <time>2022-05-23T11:44:15.000Z</time>
      </trkpt>
      <trkpt lat="45.17109" lon="17.26437">
        <ele>105.93</ele>
        <time>2022-05-23T11:44:20.000Z</time>
      </trkpt>
      <trkpt lat="45.17133" lon="17.26447">
        <ele>105.13</ele>
        <time>2022-05-23T11:44:25.000Z</time>
      </trkpt>
      <trkpt lat="45.17154" lon="17.26458">
        <ele>103.55</ele>
        <time>2022-05-23T11:44:30.000Z</time>
      </trkpt>
      <trkpt lat="45.17176" lon="17.26472">
        <ele>101.53</ele>
        <time>2022-05-23T11:44:35.000Z</time>
      </trkpt>
      <trkpt lat="45.172" lon="17.26486">
        <ele>98.7</ele>
        <time>2022-05-23T11:44:40.000Z</time>
      </trkpt>
      <trkpt lat="45.17222" lon="17.26498">
        <ele>95.89</ele>
        <time>2022-05-23T11:44:45.000Z</time>
      </trkpt>
      <trkpt lat="45.17247" lon="17.26516">
        <ele>93.07</ele>
        <time>2022-05-23T11:44:50.000Z</time>
      </trkpt>
      <trkpt lat="45.17265" lon="17.26531">
        <ele>92.97</ele>
        <time>2022-05-23T11:44:55.000Z</time>
      </trkpt>
      <trkpt lat="45.17282" lon="17.26545">
        <ele>93.81</ele>
        <time>2022-05-23T11:45:00.000Z</time>
      </trkpt>
      <trkpt lat="45.17294" lon="17.26557">
        <ele>93.63</ele>
        <time>2022-05-23T11:45:05.000Z</time>
      </trkpt>
      <trkpt lat="45.17307" lon="17.26573">
        <ele>93.98</ele>
        <time>2022-05-23T11:45:10.000Z</time>
      </trkpt>
      <trkpt lat="45.17324" lon="17.2659">
        <ele>94.09</ele>
        <time>2022-05-23T11:45:15.000Z</time>
      </trkpt>
      <trkpt lat="45.17342" lon="17.26606">
        <ele>94.1</ele>
        <time>2022-05-23T11:45:20.000Z</time>
      </trkpt>
      <trkpt lat="45.1736" lon="17.26623">
        <ele>93.92</ele>
        <time>2022-05-23T11:45:25.000Z</time>
      </trkpt>
      <trkpt lat="45.17377" lon="17.2664">
        <ele>93.2</ele>
        <time>2022-05-23T11:45:30.000Z</time>
      </trkpt>
      <trkpt lat="45.17393" lon="17.26659">
        <ele>92.14</ele>
        <time>2022-05-23T11:45:35.000Z</time>
      </trkpt>
      <trkpt lat="45.1741" lon="17.26678">
        <ele>92.76</ele>
        <time>2022-05-23T11:45:40.000Z</time>
      </trkpt>
      <trkpt lat="45.17424" lon="17.26698">
        <ele>93.21</ele>
        <time>2022-05-23T11:45:45.000Z</time>
      </trkpt>
      <trkpt lat="45.17437" lon="17.26717">
        <ele>93.3</ele>
        <time>2022-05-23T11:45:50.000Z</time>
      </trkpt>
      <trkpt lat="45.17448" lon="17.26733">
        <ele>92.63</ele>
        <time>2022-05-23T11:45:55.000Z</time>
      </trkpt>
      <trkpt lat="45.17462" lon="17.26753">
        <ele>92.49</ele>
        <time>2022-05-23T11:46:00.000Z</time>
      </trkpt>
      <trkpt lat="45.17472" lon="17.26773">
        <ele>92.14</ele>
        <time>2022-05-23T11:46:05.000Z</time>
      </trkpt>
      <trkpt lat="45.17481" lon="17.26794">
        <ele>92.64</ele>
        <time>2022-05-23T11:46:10.000Z</time>
      </trkpt>
      <trkpt lat="45.17489" lon="17.26813">
        <ele>91.44</ele>
        <time>2022-05-23T11:46:15.000Z</time>
      </trkpt>
      <trkpt lat="45.17499" lon="17.26832">
        <ele>91.17</ele>
        <time>2022-05-23T11:46:20.000Z</time>
      </trkpt>
      <trkpt lat="45.1751" lon="17.26848">
        <ele>90.65</ele>
        <time>2022-05-23T11:46:25.000Z</time>
      </trkpt>
      <trkpt lat="45.17518" lon="17.26868">
        <ele>89.64</ele>
        <time>2022-05-23T11:46:30.000Z</time>
      </trkpt>
      <trkpt lat="45.17526" lon="17.2689">
        <ele>89.19</ele>
        <time>2022-05-23T11:46:35.000Z</time>
      </trkpt>
      <trkpt lat="45.17534" lon="17.26913">
        <ele>89.06</ele>
        <time>2022-05-23T11:46:40.000Z</time>
      </trkpt>
      <trkpt lat="45.17543" lon="17.26935">
        <ele>89.33</ele>
        <time>2022-05-23T11:46:45.000Z</time>
      </trkpt>
      <trkpt lat="45.17552" lon="17.26959">
        <ele>90.63</ele>
        <time>2022-05-23T11:46:50.000Z</time>
      </trkpt>
      <trkpt lat="45.1756" lon="17.26984">
        <ele>91.32</ele>
        <time>2022-05-23T11:46:55.000Z</time>
      </trkpt>
      <trkpt lat="45.17566" lon="17.27007">
        <ele>91.84</ele>
        <time>2022-05-23T11:47:00.000Z</time>
      </trkpt>
      <trkpt lat="45.1757" lon="17.2703">
        <ele>92.66</ele>
        <time>2022-05-23T11:47:05.000Z</time>
      </trkpt>
      <trkpt lat="45.17576" lon="17.27052">
        <ele>92.81</ele>
        <time>2022-05-23T11:47:10.000Z</time>
      </trkpt>
      <trkpt lat="45.17581" lon="17.27073">
        <ele>93.4</ele>
        <time>2022-05-23T11:47:15.000Z</time>
      </trkpt>
      <trkpt lat="45.17586" lon="17.27096">
        <ele>94.7</ele>
        <time>2022-05-23T11:47:20.000Z</time>
      </trkpt>
      <trkpt lat="45.17588" lon="17.2712">
        <ele>95.93</ele>
        <time>2022-05-23T11:47:25.000Z</time>
      </trkpt>
      <trkpt lat="45.1759" lon="17.27144">
        <ele>96.67</ele>
        <time>2022-05-23T11:47:30.000Z</time>
      </trkpt>
      <trkpt lat="45.17593" lon="17.2717">
        <ele>96.12</ele>
        <time>2022-05-23T11:47:35.000Z</time>
      </trkpt>
      <trkpt lat="45.17595" lon="17.27193">
        <ele>96.57</ele>
        <time>2022-05-23T11:47:40.000Z</time>
      </trkpt>
      <trkpt lat="45.17598" lon="17.27218">
        <ele>96.74</ele>
        <time>2022-05-23T11:47:45.000Z</time>
      </trkpt>
      <trkpt lat="45.176" lon="17.27241">
        <ele>98.07</ele>
        <time>2022-05-23T11:47:50.000Z</time>
      </trkpt>
      <trkpt lat="45.176" lon="17.27266">
        <ele>96.71</ele>
        <time>2022-05-23T11:47:55.000Z</time>
      </trkpt>
      <trkpt lat="45.17602" lon="17.2729">
        <ele>95.9</ele>
        <time>2022-05-23T11:48:00.000Z</time>
      </trkpt>
      <trkpt lat="45.17604" lon="17.27313">
        <ele>95.51</ele>
        <time>2022-05-23T11:48:05.000Z</time>
      </trkpt>
      <trkpt lat="45.17606" lon="17.27337">
        <ele>95.64</ele>
        <time>2022-05-23T11:48:10.000Z</time>
      </trkpt>
      <trkpt lat="45.17607" lon="17.2736">
        <ele>96.39</ele>
        <time>2022-05-23T11:48:15.000Z</time>
      </trkpt>
      <trkpt lat="45.1761" lon="17.27382">
        <ele>97.56</ele>
        <time>2022-05-23T11:48:20.000Z</time>
      </trkpt>
      <trkpt lat="45.17612" lon="17.27406">
        <ele>98.43</ele>
        <time>2022-05-23T11:48:25.000Z</time>
      </trkpt>
      <trkpt lat="45.17614" lon="17.27432">
        <ele>97.39</ele>
        <time>2022-05-23T11:48:30.000Z</time>
      </trkpt>
      <trkpt lat="45.17615" lon="17.27457">
        <ele>96.5</ele>
        <time>2022-05-23T11:48:35.000Z</time>
      </trkpt>
      <trkpt lat="45.17615" lon="17.27481">
        <ele>95.66</ele>
        <time>2022-05-23T11:48:40.000Z</time>
      </trkpt>
      <trkpt lat="45.17613" lon="17.27505">
        <ele>95.62</ele>
        <time>2022-05-23T11:48:45.000Z</time>
      </trkpt>
      <trkpt lat="45.17611" lon="17.27532">
        <ele>95.57</ele>
        <time>2022-05-23T11:48:50.000Z</time>
      </trkpt>
      <trkpt lat="45.17611" lon="17.27559">
        <ele>95.46</ele>
        <time>2022-05-23T11:48:55.000Z</time>
      </trkpt>
      <trkpt lat="45.17611" lon="17.27584">
        <ele>95.55</ele>
        <time>2022-05-23T11:49:00.000Z</time>
      </trkpt>
      <trkpt lat="45.17611" lon="17.2761">
        <ele>95.34</ele>
        <time>2022-05-23T11:49:05.000Z</time>
      </trkpt>
      <trkpt lat="45.17611" lon="17.27637">
        <ele>95.08</ele>
        <time>2022-05-23T11:49:10.000Z</time>
      </trkpt>
      <trkpt lat="45.1761" lon="17.27663">
        <ele>95.07</ele>
        <time>2022-05-23T11:49:15.000Z</time>
      </trkpt>
      <trkpt lat="45.17608" lon="17.27688">
        <ele>94.6</ele>
        <time>2022-05-23T11:49:20.000Z</time>
      </trkpt>
      <trkpt lat="45.17605" lon="17.27714">
        <ele>94.95</ele>
        <time>2022-05-23T11:49:25.000Z</time>
      </trkpt>
      <trkpt lat="45.17601" lon="17.27739">
        <ele>95.57</ele>
        <time>2022-05-23T11:49:30.000Z</time>
      </trkpt>
      <trkpt lat="45.17598" lon="17.27764">
        <ele>94.4</ele>
        <time>2022-05-23T11:49:35.000Z</time>
      </trkpt>
      <trkpt lat="45.17596" lon="17.27788">
        <ele>94.32</ele>
        <time>2022-05-23T11:49:40.000Z</time>
      </trkpt>
      <trkpt lat="45.17596" lon="17.27807">
        <ele>94.57</ele>
        <time>2022-05-23T11:49:45.000Z</time>
      </trkpt>
      <trkpt lat="45.17593" lon="17.27823">
        <ele>97.52</ele>
        <time>2022-05-23T11:51:35.000Z</time>
      </trkpt>
      <trkpt lat="45.17592" lon="17.27839">
        <ele>97.27</ele>
        <time>2022-05-23T11:51:41.000Z</time>
      </trkpt>
      <trkpt lat="45.1759" lon="17.27865">
        <ele>96.26</ele>
        <time>2022-05-23T11:51:46.000Z</time>
      </trkpt>
      <trkpt lat="45.17588" lon="17.2789">
        <ele>95.73</ele>
        <time>2022-05-23T11:51:51.000Z</time>
      </trkpt>
      <trkpt lat="45.17583" lon="17.27915">
        <ele>95.33</ele>
        <time>2022-05-23T11:51:56.000Z</time>
      </trkpt>
      <trkpt lat="45.17576" lon="17.27942">
        <ele>95.89</ele>
        <time>2022-05-23T11:52:01.000Z</time>
      </trkpt>
      <trkpt lat="45.17569" lon="17.27968">
        <ele>96.02</ele>
        <time>2022-05-23T11:52:06.000Z</time>
      </trkpt>
      <trkpt lat="45.17563" lon="17.27992">
        <ele>96.93</ele>
        <time>2022-05-23T11:52:11.000Z</time>
      </trkpt>
      <trkpt lat="45.17558" lon="17.28014">
        <ele>97.66</ele>
        <time>2022-05-23T11:52:16.000Z</time>
      </trkpt>
      <trkpt lat="45.17553" lon="17.28036">
        <ele>98.57</ele>
        <time>2022-05-23T11:52:21.000Z</time>
      </trkpt>
      <trkpt lat="45.17547" lon="17.28061">
        <ele>98.67</ele>
        <time>2022-05-23T11:52:26.000Z</time>
      </trkpt>
      <trkpt lat="45.17541" lon="17.28081">
        <ele>99.74</ele>
        <time>2022-05-23T11:52:31.000Z</time>
      </trkpt>
      <trkpt lat="45.17534" lon="17.28102">
        <ele>101.14</ele>
        <time>2022-05-23T11:52:36.000Z</time>
      </trkpt>
      <trkpt lat="45.17529" lon="17.28129">
        <ele>101.11</ele>
        <time>2022-05-23T11:52:41.000Z</time>
      </trkpt>
      <trkpt lat="45.17522" lon="17.28152">
        <ele>101.29</ele>
        <time>2022-05-23T11:52:46.000Z</time>
      </trkpt>
      <trkpt lat="45.17514" lon="17.28175">
        <ele>101.96</ele>
        <time>2022-05-23T11:52:51.000Z</time>
      </trkpt>
      <trkpt lat="45.17506" lon="17.28197">
        <ele>102.14</ele>
        <time>2022-05-23T11:52:56.000Z</time>
      </trkpt>
      <trkpt lat="45.17497" lon="17.28219">
        <ele>102.87</ele>
        <time>2022-05-23T11:53:01.000Z</time>
      </trkpt>
      <trkpt lat="45.1749" lon="17.2824">
        <ele>103.23</ele>
        <time>2022-05-23T11:53:06.000Z</time>
      </trkpt>
      <trkpt lat="45.1749" lon="17.28255">
        <ele>103.12</ele>
        <time>2022-05-23T11:53:11.000Z</time>
      </trkpt>
      <trkpt lat="45.17486" lon="17.28268">
        <ele>102.68</ele>
        <time>2022-05-23T11:53:18.000Z</time>
      </trkpt>
      <trkpt lat="45.17485" lon="17.28283">
        <ele>101.92</ele>
        <time>2022-05-23T11:53:25.000Z</time>
      </trkpt>
      <trkpt lat="45.17483" lon="17.28296">
        <ele>101.33</ele>
        <time>2022-05-23T11:53:31.000Z</time>
      </trkpt>
      <trkpt lat="45.17491" lon="17.28307">
        <ele>100.66</ele>
        <time>2022-05-23T11:53:58.000Z</time>
      </trkpt>
      <trkpt lat="45.17505" lon="17.28325">
        <ele>100.19</ele>
        <time>2022-05-23T11:54:03.000Z</time>
      </trkpt>
      <trkpt lat="45.17518" lon="17.28349">
        <ele>99.63</ele>
        <time>2022-05-23T11:54:08.000Z</time>
      </trkpt>
      <trkpt lat="45.17524" lon="17.28371">
        <ele>99.13</ele>
        <time>2022-05-23T11:54:13.000Z</time>
      </trkpt>
      <trkpt lat="45.17529" lon="17.28392">
        <ele>98.98</ele>
        <time>2022-05-23T11:54:18.000Z</time>
      </trkpt>
      <trkpt lat="45.17534" lon="17.28409">
        <ele>98.61</ele>
        <time>2022-05-23T11:54:23.000Z</time>
      </trkpt>
      <trkpt lat="45.17539" lon="17.28425">
        <ele>98.4</ele>
        <time>2022-05-23T11:54:28.000Z</time>
      </trkpt>
      <trkpt lat="45.17542" lon="17.2844">
        <ele>98.23</ele>
        <time>2022-05-23T11:54:33.000Z</time>
      </trkpt>
      <trkpt lat="45.17542" lon="17.28456">
        <ele>98.29</ele>
        <time>2022-05-23T11:54:38.000Z</time>
      </trkpt>
      <trkpt lat="45.17544" lon="17.28471">
        <ele>98.35</ele>
        <time>2022-05-23T11:54:43.000Z</time>
      </trkpt>
      <trkpt lat="45.17547" lon="17.28484">
        <ele>99.06</ele>
        <time>2022-05-23T11:54:48.000Z</time>
      </trkpt>
      <trkpt lat="45.17546" lon="17.28497">
        <ele>96.63</ele>
        <time>2022-05-23T11:56:23.000Z</time>
      </trkpt>
      <trkpt lat="45.17544" lon="17.28511">
        <ele>95.72</ele>
        <time>2022-05-23T11:57:30.000Z</time>
      </trkpt>
      <trkpt lat="45.17549" lon="17.28498">
        <ele>96.36</ele>
        <time>2022-05-23T11:58:30.000Z</time>
      </trkpt>
      <trkpt lat="45.1754" lon="17.28503">
        <ele>98.09</ele>
        <time>2022-05-23T12:00:26.000Z</time>
      </trkpt>
      <trkpt lat="45.17546" lon="17.28493">
        <ele>97.8</ele>
        <time>2022-05-23T12:01:17.000Z</time>
      </trkpt>
      <trkpt lat="45.17544" lon="17.28506">
        <ele>103.5</ele>
        <time>2022-05-23T12:04:04.000Z</time>
      </trkpt>
      <trkpt lat="45.1754" lon="17.28494">
        <ele>101.82</ele>
        <time>2022-05-23T12:13:34.000Z</time>
      </trkpt>
      <trkpt lat="45.17541" lon="17.28508">
        <ele>101.44</ele>
        <time>2022-05-23T12:16:32.000Z</time>
      </trkpt>
      <trkpt lat="45.17544" lon="17.28495">
        <ele>101.4</ele>
        <time>2022-05-23T12:19:28.000Z</time>
      </trkpt>
      <trkpt lat="45.17541" lon="17.28508">
        <ele>101.96</ele>
        <time>2022-05-23T12:20:04.000Z</time>
      </trkpt>
      <trkpt lat="45.17549" lon="17.28502">
        <ele>101.25</ele>
        <time>2022-05-23T12:21:20.000Z</time>
      </trkpt>
      <trkpt lat="45.1754" lon="17.28499">
        <ele>100.02</ele>
        <time>2022-05-23T12:23:19.000Z</time>
      </trkpt>
      <trkpt lat="45.1755" lon="17.28499">
        <ele>97.32</ele>
        <time>2022-05-23T12:27:36.000Z</time>
      </trkpt>
      <trkpt lat="45.17547" lon="17.28486">
        <ele>98.37</ele>
        <time>2022-05-23T12:27:55.000Z</time>
      </trkpt>
      <trkpt lat="45.17543" lon="17.28474">
        <ele>98.7</ele>
        <time>2022-05-23T12:28:02.000Z</time>
      </trkpt>
      <trkpt lat="45.17543" lon="17.2846">
        <ele>98.77</ele>
        <time>2022-05-23T12:28:08.000Z</time>
      </trkpt>
      <trkpt lat="45.17541" lon="17.28447">
        <ele>98.89</ele>
        <time>2022-05-23T12:28:13.000Z</time>
      </trkpt>
      <trkpt lat="45.17538" lon="17.28434">
        <ele>99.2</ele>
        <time>2022-05-23T12:28:19.000Z</time>
      </trkpt>
      <trkpt lat="45.17533" lon="17.2842">
        <ele>99.57</ele>
        <time>2022-05-23T12:28:24.000Z</time>
      </trkpt>
      <trkpt lat="45.17531" lon="17.28404">
        <ele>99.89</ele>
        <time>2022-05-23T12:28:29.000Z</time>
      </trkpt>
      <trkpt lat="45.17528" lon="17.2839">
        <ele>100</ele>
        <time>2022-05-23T12:28:34.000Z</time>
      </trkpt>
      <trkpt lat="45.17527" lon="17.28376">
        <ele>100.07</ele>
        <time>2022-05-23T12:28:40.000Z</time>
      </trkpt>
      <trkpt lat="45.17523" lon="17.28361">
        <ele>100.54</ele>
        <time>2022-05-23T12:28:45.000Z</time>
      </trkpt>
      <trkpt lat="45.17516" lon="17.28344">
        <ele>100.77</ele>
        <time>2022-05-23T12:28:50.000Z</time>
      </trkpt>
      <trkpt lat="45.17508" lon="17.2833">
        <ele>101.22</ele>
        <time>2022-05-23T12:28:55.000Z</time>
      </trkpt>
      <trkpt lat="45.17504" lon="17.28317">
        <ele>101.7</ele>
        <time>2022-05-23T12:29:00.000Z</time>
      </trkpt>
      <trkpt lat="45.17496" lon="17.28309">
        <ele>101.4</ele>
        <time>2022-05-23T12:29:06.000Z</time>
      </trkpt>
      <trkpt lat="45.17489" lon="17.28301">
        <ele>101.22</ele>
        <time>2022-05-23T12:29:11.000Z</time>
      </trkpt>
      <trkpt lat="45.1748" lon="17.28294">
        <ele>101.06</ele>
        <time>2022-05-23T12:29:18.000Z</time>
      </trkpt>
      <trkpt lat="45.17473" lon="17.28303">
        <ele>104.26</ele>
        <time>2022-05-23T12:30:23.000Z</time>
      </trkpt>
      <trkpt lat="45.17459" lon="17.28317">
        <ele>103.39</ele>
        <time>2022-05-23T12:30:28.000Z</time>
      </trkpt>
      <trkpt lat="45.17438" lon="17.28346">
        <ele>102.65</ele>
        <time>2022-05-23T12:30:33.000Z</time>
      </trkpt>
      <trkpt lat="45.17426" lon="17.28376">
        <ele>101.86</ele>
        <time>2022-05-23T12:30:38.000Z</time>
      </trkpt>
      <trkpt lat="45.17417" lon="17.28404">
        <ele>100.23</ele>
        <time>2022-05-23T12:30:43.000Z</time>
      </trkpt>
      <trkpt lat="45.17406" lon="17.2843">
        <ele>99.63</ele>
        <time>2022-05-23T12:30:48.000Z</time>
      </trkpt>
      <trkpt lat="45.17396" lon="17.28452">
        <ele>98.64</ele>
        <time>2022-05-23T12:30:53.000Z</time>
      </trkpt>
      <trkpt lat="45.17388" lon="17.28471">
        <ele>97.44</ele>
        <time>2022-05-23T12:30:58.000Z</time>
      </trkpt>
      <trkpt lat="45.17379" lon="17.28493">
        <ele>96.56</ele>
        <time>2022-05-23T12:31:03.000Z</time>
      </trkpt>
      <trkpt lat="45.1737" lon="17.28514">
        <ele>95.35</ele>
        <time>2022-05-23T12:31:08.000Z</time>
      </trkpt>
      <trkpt lat="45.17361" lon="17.28535">
        <ele>94.54</ele>
        <time>2022-05-23T12:31:13.000Z</time>
      </trkpt>
      <trkpt lat="45.17353" lon="17.28556">
        <ele>94.03</ele>
        <time>2022-05-23T12:31:18.000Z</time>
      </trkpt>
      <trkpt lat="45.17344" lon="17.28578">
        <ele>93.36</ele>
        <time>2022-05-23T12:31:23.000Z</time>
      </trkpt>
      <trkpt lat="45.17335" lon="17.28595">
        <ele>92.93</ele>
        <time>2022-05-23T12:31:28.000Z</time>
      </trkpt>
      <trkpt lat="45.17326" lon="17.28617">
        <ele>92.45</ele>
        <time>2022-05-23T12:31:33.000Z</time>
      </trkpt>
      <trkpt lat="45.17316" lon="17.28639">
        <ele>92.15</ele>
        <time>2022-05-23T12:31:38.000Z</time>
      </trkpt>
      <trkpt lat="45.17307" lon="17.28662">
        <ele>91.83</ele>
        <time>2022-05-23T12:31:43.000Z</time>
      </trkpt>
      <trkpt lat="45.17297" lon="17.28684">
        <ele>92.4</ele>
        <time>2022-05-23T12:31:48.000Z</time>
      </trkpt>
      <trkpt lat="45.17289" lon="17.28706">
        <ele>94.19</ele>
        <time>2022-05-23T12:31:53.000Z</time>
      </trkpt>
      <trkpt lat="45.17279" lon="17.28727">
        <ele>94.79</ele>
        <time>2022-05-23T12:31:58.000Z</time>
      </trkpt>
      <trkpt lat="45.1727" lon="17.28745">
        <ele>95.55</ele>
        <time>2022-05-23T12:32:03.000Z</time>
      </trkpt>
      <trkpt lat="45.1726" lon="17.28766">
        <ele>95.46</ele>
        <time>2022-05-23T12:32:08.000Z</time>
      </trkpt>
      <trkpt lat="45.1725" lon="17.28787">
        <ele>94.82</ele>
        <time>2022-05-23T12:32:13.000Z</time>
      </trkpt>
      <trkpt lat="45.17241" lon="17.28808">
        <ele>94.8</ele>
        <time>2022-05-23T12:32:18.000Z</time>
      </trkpt>
      <trkpt lat="45.17235" lon="17.28829">
        <ele>94.41</ele>
        <time>2022-05-23T12:32:23.000Z</time>
      </trkpt>
      <trkpt lat="45.17224" lon="17.28847">
        <ele>94.07</ele>
        <time>2022-05-23T12:32:28.000Z</time>
      </trkpt>
      <trkpt lat="45.17215" lon="17.28868">
        <ele>93.87</ele>
        <time>2022-05-23T12:32:33.000Z</time>
      </trkpt>
      <trkpt lat="45.17206" lon="17.28888">
        <ele>93.19</ele>
        <time>2022-05-23T12:32:38.000Z</time>
      </trkpt>
      <trkpt lat="45.17197" lon="17.28911">
        <ele>93.76</ele>
        <time>2022-05-23T12:32:43.000Z</time>
      </trkpt>
      <trkpt lat="45.17188" lon="17.28934">
        <ele>93.73</ele>
        <time>2022-05-23T12:32:48.000Z</time>
      </trkpt>
      <trkpt lat="45.17178" lon="17.28957">
        <ele>93.16</ele>
        <time>2022-05-23T12:32:53.000Z</time>
      </trkpt>
      <trkpt lat="45.1717" lon="17.28978">
        <ele>93.94</ele>
        <time>2022-05-23T12:32:58.000Z</time>
      </trkpt>
      <trkpt lat="45.1716" lon="17.29002">
        <ele>94.93</ele>
        <time>2022-05-23T12:33:03.000Z</time>
      </trkpt>
      <trkpt lat="45.17147" lon="17.29026">
        <ele>95.73</ele>
        <time>2022-05-23T12:33:08.000Z</time>
      </trkpt>
      <trkpt lat="45.17138" lon="17.2905">
        <ele>97.51</ele>
        <time>2022-05-23T12:33:13.000Z</time>
      </trkpt>
      <trkpt lat="45.17127" lon="17.29073">
        <ele>97.62</ele>
        <time>2022-05-23T12:33:18.000Z</time>
      </trkpt>
      <trkpt lat="45.17118" lon="17.291">
        <ele>98.84</ele>
        <time>2022-05-23T12:33:23.000Z</time>
      </trkpt>
      <trkpt lat="45.17108" lon="17.29123">
        <ele>99.47</ele>
        <time>2022-05-23T12:33:28.000Z</time>
      </trkpt>
      <trkpt lat="45.17099" lon="17.29144">
        <ele>99.25</ele>
        <time>2022-05-23T12:33:33.000Z</time>
      </trkpt>
      <trkpt lat="45.17091" lon="17.29166">
        <ele>100.29</ele>
        <time>2022-05-23T12:33:38.000Z</time>
      </trkpt>
      <trkpt lat="45.17081" lon="17.29188">
        <ele>100.03</ele>
        <time>2022-05-23T12:33:43.000Z</time>
      </trkpt>
      <trkpt lat="45.17069" lon="17.29208">
        <ele>99.28</ele>
        <time>2022-05-23T12:33:48.000Z</time>
      </trkpt>
      <trkpt lat="45.17059" lon="17.2923">
        <ele>98.7</ele>
        <time>2022-05-23T12:33:53.000Z</time>
      </trkpt>
      <trkpt lat="45.17051" lon="17.2925">
        <ele>97.85</ele>
        <time>2022-05-23T12:33:58.000Z</time>
      </trkpt>
      <trkpt lat="45.1704" lon="17.29269">
        <ele>95.67</ele>
        <time>2022-05-23T12:34:03.000Z</time>
      </trkpt>
      <trkpt lat="45.17031" lon="17.29293">
        <ele>94.12</ele>
        <time>2022-05-23T12:34:08.000Z</time>
      </trkpt>
      <trkpt lat="45.17021" lon="17.2932">
        <ele>93.67</ele>
        <time>2022-05-23T12:34:13.000Z</time>
      </trkpt>
      <trkpt lat="45.1701" lon="17.29348">
        <ele>92.25</ele>
        <time>2022-05-23T12:34:18.000Z</time>
      </trkpt>
      <trkpt lat="45.16998" lon="17.29377">
        <ele>91.36</ele>
        <time>2022-05-23T12:34:23.000Z</time>
      </trkpt>
      <trkpt lat="45.16987" lon="17.29402">
        <ele>90.16</ele>
        <time>2022-05-23T12:34:28.000Z</time>
      </trkpt>
      <trkpt lat="45.16974" lon="17.29424">
        <ele>91.33</ele>
        <time>2022-05-23T12:34:33.000Z</time>
      </trkpt>
      <trkpt lat="45.16963" lon="17.29451">
        <ele>92.77</ele>
        <time>2022-05-23T12:34:38.000Z</time>
      </trkpt>
      <trkpt lat="45.16952" lon="17.29477">
        <ele>93.12</ele>
        <time>2022-05-23T12:34:43.000Z</time>
      </trkpt>
      <trkpt lat="45.16943" lon="17.29502">
        <ele>92.41</ele>
        <time>2022-05-23T12:34:48.000Z</time>
      </trkpt>
      <trkpt lat="45.16932" lon="17.29524">
        <ele>91.48</ele>
        <time>2022-05-23T12:34:53.000Z</time>
      </trkpt>
      <trkpt lat="45.16922" lon="17.29547">
        <ele>90.39</ele>
        <time>2022-05-23T12:34:58.000Z</time>
      </trkpt>
      <trkpt lat="45.16911" lon="17.29571">
        <ele>90.78</ele>
        <time>2022-05-23T12:35:03.000Z</time>
      </trkpt>
      <trkpt lat="45.16902" lon="17.29593">
        <ele>90.88</ele>
        <time>2022-05-23T12:35:08.000Z</time>
      </trkpt>
      <trkpt lat="45.16894" lon="17.29612">
        <ele>90.44</ele>
        <time>2022-05-23T12:35:13.000Z</time>
      </trkpt>
      <trkpt lat="45.16885" lon="17.2962">
        <ele>94.17</ele>
        <time>2022-05-23T12:36:35.000Z</time>
      </trkpt>
      <trkpt lat="45.1688" lon="17.29635">
        <ele>94.7</ele>
        <time>2022-05-23T12:36:40.000Z</time>
      </trkpt>
      <trkpt lat="45.16873" lon="17.29658">
        <ele>94.13</ele>
        <time>2022-05-23T12:36:45.000Z</time>
      </trkpt>
      <trkpt lat="45.16865" lon="17.2968">
        <ele>94</ele>
        <time>2022-05-23T12:36:50.000Z</time>
      </trkpt>
      <trkpt lat="45.16856" lon="17.29702">
        <ele>93.69</ele>
        <time>2022-05-23T12:36:55.000Z</time>
      </trkpt>
      <trkpt lat="45.16846" lon="17.29725">
        <ele>93.08</ele>
        <time>2022-05-23T12:37:00.000Z</time>
      </trkpt>
      <trkpt lat="45.16838" lon="17.29747">
        <ele>92.31</ele>
        <time>2022-05-23T12:37:05.000Z</time>
      </trkpt>
      <trkpt lat="45.16825" lon="17.29772">
        <ele>91.83</ele>
        <time>2022-05-23T12:37:10.000Z</time>
      </trkpt>
      <trkpt lat="45.16816" lon="17.29795">
        <ele>91.55</ele>
        <time>2022-05-23T12:37:15.000Z</time>
      </trkpt>
      <trkpt lat="45.16803" lon="17.2982">
        <ele>92.31</ele>
        <time>2022-05-23T12:37:20.000Z</time>
      </trkpt>
      <trkpt lat="45.16792" lon="17.29844">
        <ele>93.48</ele>
        <time>2022-05-23T12:37:25.000Z</time>
      </trkpt>
      <trkpt lat="45.16782" lon="17.29868">
        <ele>93.22</ele>
        <time>2022-05-23T12:37:30.000Z</time>
      </trkpt>
      <trkpt lat="45.16772" lon="17.29893">
        <ele>92.58</ele>
        <time>2022-05-23T12:37:35.000Z</time>
      </trkpt>
      <trkpt lat="45.16765" lon="17.29915">
        <ele>91.39</ele>
        <time>2022-05-23T12:37:40.000Z</time>
      </trkpt>
      <trkpt lat="45.16755" lon="17.29934">
        <ele>91</ele>
        <time>2022-05-23T12:37:45.000Z</time>
      </trkpt>
      <trkpt lat="45.16745" lon="17.29953">
        <ele>89.5</ele>
        <time>2022-05-23T12:37:50.000Z</time>
      </trkpt>
      <trkpt lat="45.16735" lon="17.29977">
        <ele>89.55</ele>
        <time>2022-05-23T12:37:55.000Z</time>
      </trkpt>
      <trkpt lat="45.16724" lon="17.30001">
        <ele>89.73</ele>
        <time>2022-05-23T12:38:00.000Z</time>
      </trkpt>
      <trkpt lat="45.16714" lon="17.30024">
        <ele>91.19</ele>
        <time>2022-05-23T12:38:05.000Z</time>
      </trkpt>
      <trkpt lat="45.16705" lon="17.30047">
        <ele>92.01</ele>
        <time>2022-05-23T12:38:10.000Z</time>
      </trkpt>
      <trkpt lat="45.16695" lon="17.30069">
        <ele>93.69</ele>
        <time>2022-05-23T12:38:15.000Z</time>
      </trkpt>
      <trkpt lat="45.16687" lon="17.3009">
        <ele>94.38</ele>
        <time>2022-05-23T12:38:20.000Z</time>
      </trkpt>
      <trkpt lat="45.16679" lon="17.30111">
        <ele>95.27</ele>
        <time>2022-05-23T12:38:25.000Z</time>
      </trkpt>
      <trkpt lat="45.16672" lon="17.3013">
        <ele>96.55</ele>
        <time>2022-05-23T12:38:30.000Z</time>
      </trkpt>
      <trkpt lat="45.16666" lon="17.3014">
        <ele>96.79</ele>
        <time>2022-05-23T12:38:35.000Z</time>
      </trkpt>
      <trkpt lat="45.16661" lon="17.30151">
        <ele>97.76</ele>
        <time>2022-05-23T12:38:40.000Z</time>
      </trkpt>
      <trkpt lat="45.16658" lon="17.30165">
        <ele>98.46</ele>
        <time>2022-05-23T12:38:46.000Z</time>
      </trkpt>
      <trkpt lat="45.16646" lon="17.30189">
        <ele>98.31</ele>
        <time>2022-05-23T12:38:51.000Z</time>
      </trkpt>
      <trkpt lat="45.16631" lon="17.30222">
        <ele>98.08</ele>
        <time>2022-05-23T12:38:56.000Z</time>
      </trkpt>
      <trkpt lat="45.16619" lon="17.3025">
        <ele>97.7</ele>
        <time>2022-05-23T12:39:01.000Z</time>
      </trkpt>
      <trkpt lat="45.16606" lon="17.30277">
        <ele>97.21</ele>
        <time>2022-05-23T12:39:06.000Z</time>
      </trkpt>
      <trkpt lat="45.16595" lon="17.30301">
        <ele>96.9</ele>
        <time>2022-05-23T12:39:11.000Z</time>
      </trkpt>
      <trkpt lat="45.16585" lon="17.30324">
        <ele>96.25</ele>
        <time>2022-05-23T12:39:16.000Z</time>
      </trkpt>
      <trkpt lat="45.16575" lon="17.30348">
        <ele>95.83</ele>
        <time>2022-05-23T12:39:21.000Z</time>
      </trkpt>
      <trkpt lat="45.16564" lon="17.30374">
        <ele>95.13</ele>
        <time>2022-05-23T12:39:26.000Z</time>
      </trkpt>
      <trkpt lat="45.16554" lon="17.30399">
        <ele>94.95</ele>
        <time>2022-05-23T12:39:31.000Z</time>
      </trkpt>
      <trkpt lat="45.16543" lon="17.30425">
        <ele>95.25</ele>
        <time>2022-05-23T12:39:36.000Z</time>
      </trkpt>
      <trkpt lat="45.16534" lon="17.30448">
        <ele>94.35</ele>
        <time>2022-05-23T12:39:41.000Z</time>
      </trkpt>
      <trkpt lat="45.16522" lon="17.30471">
        <ele>93.58</ele>
        <time>2022-05-23T12:39:46.000Z</time>
      </trkpt>
      <trkpt lat="45.16511" lon="17.30497">
        <ele>93.03</ele>
        <time>2022-05-23T12:39:51.000Z</time>
      </trkpt>
      <trkpt lat="45.16501" lon="17.3052">
        <ele>92.22</ele>
        <time>2022-05-23T12:39:56.000Z</time>
      </trkpt>
      <trkpt lat="45.1649" lon="17.30545">
        <ele>91.17</ele>
        <time>2022-05-23T12:40:01.000Z</time>
      </trkpt>
      <trkpt lat="45.16478" lon="17.30572">
        <ele>90.44</ele>
        <time>2022-05-23T12:40:06.000Z</time>
      </trkpt>
      <trkpt lat="45.16466" lon="17.30599">
        <ele>92.05</ele>
        <time>2022-05-23T12:40:11.000Z</time>
      </trkpt>
      <trkpt lat="45.16454" lon="17.30625">
        <ele>93.58</ele>
        <time>2022-05-23T12:40:16.000Z</time>
      </trkpt>
      <trkpt lat="45.16442" lon="17.30652">
        <ele>94.82</ele>
        <time>2022-05-23T12:40:21.000Z</time>
      </trkpt>
      <trkpt lat="45.16432" lon="17.30678">
        <ele>94.12</ele>
        <time>2022-05-23T12:40:26.000Z</time>
      </trkpt>
      <trkpt lat="45.16421" lon="17.307">
        <ele>94.81</ele>
        <time>2022-05-23T12:40:31.000Z</time>
      </trkpt>
      <trkpt lat="45.16411" lon="17.30723">
        <ele>94.9</ele>
        <time>2022-05-23T12:40:36.000Z</time>
      </trkpt>
      <trkpt lat="45.16404" lon="17.30745">
        <ele>94.75</ele>
        <time>2022-05-23T12:40:41.000Z</time>
      </trkpt>
      <trkpt lat="45.16395" lon="17.30763">
        <ele>94.07</ele>
        <time>2022-05-23T12:40:46.000Z</time>
      </trkpt>
      <trkpt lat="45.16384" lon="17.30784">
        <ele>93.66</ele>
        <time>2022-05-23T12:40:51.000Z</time>
      </trkpt>
      <trkpt lat="45.16375" lon="17.30805">
        <ele>93.14</ele>
        <time>2022-05-23T12:40:56.000Z</time>
      </trkpt>
      <trkpt lat="45.16366" lon="17.30825">
        <ele>92.21</ele>
        <time>2022-05-23T12:41:01.000Z</time>
      </trkpt>
      <trkpt lat="45.16356" lon="17.30847">
        <ele>90.99</ele>
        <time>2022-05-23T12:41:06.000Z</time>
      </trkpt>
      <trkpt lat="45.16346" lon="17.30868">
        <ele>89.64</ele>
        <time>2022-05-23T12:41:11.000Z</time>
      </trkpt>
      <trkpt lat="45.16338" lon="17.30888">
        <ele>89.54</ele>
        <time>2022-05-23T12:41:16.000Z</time>
      </trkpt>
      <trkpt lat="45.16331" lon="17.30911">
        <ele>88.65</ele>
        <time>2022-05-23T12:41:21.000Z</time>
      </trkpt>
      <trkpt lat="45.16321" lon="17.30935">
        <ele>88.28</ele>
        <time>2022-05-23T12:41:26.000Z</time>
      </trkpt>
      <trkpt lat="45.1631" lon="17.30961">
        <ele>88.22</ele>
        <time>2022-05-23T12:41:31.000Z</time>
      </trkpt>
      <trkpt lat="45.16297" lon="17.30987">
        <ele>89.64</ele>
        <time>2022-05-23T12:41:36.000Z</time>
      </trkpt>
      <trkpt lat="45.16287" lon="17.31011">
        <ele>89.01</ele>
        <time>2022-05-23T12:41:41.000Z</time>
      </trkpt>
      <trkpt lat="45.16275" lon="17.31036">
        <ele>90.52</ele>
        <time>2022-05-23T12:41:46.000Z</time>
      </trkpt>
      <trkpt lat="45.16265" lon="17.31056">
        <ele>90.8</ele>
        <time>2022-05-23T12:41:51.000Z</time>
      </trkpt>
      <trkpt lat="45.16257" lon="17.31077">
        <ele>92.01</ele>
        <time>2022-05-23T12:41:56.000Z</time>
      </trkpt>
      <trkpt lat="45.16246" lon="17.31099">
        <ele>91.9</ele>
        <time>2022-05-23T12:42:01.000Z</time>
      </trkpt>
      <trkpt lat="45.16233" lon="17.31122">
        <ele>90.94</ele>
        <time>2022-05-23T12:42:06.000Z</time>
      </trkpt>
      <trkpt lat="45.16221" lon="17.31144">
        <ele>91.46</ele>
        <time>2022-05-23T12:42:11.000Z</time>
      </trkpt>
      <trkpt lat="45.1621" lon="17.31162">
        <ele>91.19</ele>
        <time>2022-05-23T12:42:16.000Z</time>
      </trkpt>
      <trkpt lat="45.16201" lon="17.31178">
        <ele>90.18</ele>
        <time>2022-05-23T12:42:21.000Z</time>
      </trkpt>
      <trkpt lat="45.16188" lon="17.31195">
        <ele>90.57</ele>
        <time>2022-05-23T12:42:26.000Z</time>
      </trkpt>
      <trkpt lat="45.16175" lon="17.31213">
        <ele>91.23</ele>
        <time>2022-05-23T12:42:31.000Z</time>
      </trkpt>
      <trkpt lat="45.16161" lon="17.31233">
        <ele>91.66</ele>
        <time>2022-05-23T12:42:36.000Z</time>
      </trkpt>
      <trkpt lat="45.16147" lon="17.31252">
        <ele>92.37</ele>
        <time>2022-05-23T12:42:41.000Z</time>
      </trkpt>
      <trkpt lat="45.16133" lon="17.31269">
        <ele>92.75</ele>
        <time>2022-05-23T12:42:46.000Z</time>
      </trkpt>
      <trkpt lat="45.16121" lon="17.31284">
        <ele>94.21</ele>
        <time>2022-05-23T12:42:51.000Z</time>
      </trkpt>
      <trkpt lat="45.16107" lon="17.31301">
        <ele>95.05</ele>
        <time>2022-05-23T12:42:56.000Z</time>
      </trkpt>
      <trkpt lat="45.16094" lon="17.31321">
        <ele>95.64</ele>
        <time>2022-05-23T12:43:01.000Z</time>
      </trkpt>
      <trkpt lat="45.16081" lon="17.31339">
        <ele>95.51</ele>
        <time>2022-05-23T12:43:06.000Z</time>
      </trkpt>
      <trkpt lat="45.16065" lon="17.31361">
        <ele>95.93</ele>
        <time>2022-05-23T12:43:11.000Z</time>
      </trkpt>
      <trkpt lat="45.1605" lon="17.3138">
        <ele>96.97</ele>
        <time>2022-05-23T12:43:16.000Z</time>
      </trkpt>
      <trkpt lat="45.16039" lon="17.31397">
        <ele>98.03</ele>
        <time>2022-05-23T12:43:21.000Z</time>
      </trkpt>
      <trkpt lat="45.16024" lon="17.31412">
        <ele>98.31</ele>
        <time>2022-05-23T12:43:26.000Z</time>
      </trkpt>
      <trkpt lat="45.1601" lon="17.31428">
        <ele>98.55</ele>
        <time>2022-05-23T12:43:31.000Z</time>
      </trkpt>
      <trkpt lat="45.16003" lon="17.31437">
        <ele>100.27</ele>
        <time>2022-05-23T12:43:36.000Z</time>
      </trkpt>
      <trkpt lat="45.15995" lon="17.31447">
        <ele>101.72</ele>
        <time>2022-05-23T12:44:15.000Z</time>
      </trkpt>
      <trkpt lat="45.15985" lon="17.31461">
        <ele>101.41</ele>
        <time>2022-05-23T12:44:20.000Z</time>
      </trkpt>
      <trkpt lat="45.15973" lon="17.31476">
        <ele>101.23</ele>
        <time>2022-05-23T12:44:25.000Z</time>
      </trkpt>
      <trkpt lat="45.1596" lon="17.31494">
        <ele>101.01</ele>
        <time>2022-05-23T12:44:30.000Z</time>
      </trkpt>
      <trkpt lat="45.15951" lon="17.31507">
        <ele>100.91</ele>
        <time>2022-05-23T12:44:35.000Z</time>
      </trkpt>
      <trkpt lat="45.15938" lon="17.31527">
        <ele>101</ele>
        <time>2022-05-23T12:44:40.000Z</time>
      </trkpt>
      <trkpt lat="45.15921" lon="17.3155">
        <ele>100.53</ele>
        <time>2022-05-23T12:44:45.000Z</time>
      </trkpt>
      <trkpt lat="45.15906" lon="17.31567">
        <ele>100.3</ele>
        <time>2022-05-23T12:44:50.000Z</time>
      </trkpt>
      <trkpt lat="45.15892" lon="17.31584">
        <ele>98.88</ele>
        <time>2022-05-23T12:44:55.000Z</time>
      </trkpt>
      <trkpt lat="45.15879" lon="17.316">
        <ele>97.95</ele>
        <time>2022-05-23T12:45:00.000Z</time>
      </trkpt>
      <trkpt lat="45.15867" lon="17.31615">
        <ele>97.1</ele>
        <time>2022-05-23T12:45:05.000Z</time>
      </trkpt>
      <trkpt lat="45.15855" lon="17.31632">
        <ele>97.02</ele>
        <time>2022-05-23T12:45:10.000Z</time>
      </trkpt>
      <trkpt lat="45.15842" lon="17.3165">
        <ele>96.28</ele>
        <time>2022-05-23T12:45:15.000Z</time>
      </trkpt>
      <trkpt lat="45.15828" lon="17.31669">
        <ele>95.66</ele>
        <time>2022-05-23T12:45:20.000Z</time>
      </trkpt>
      <trkpt lat="45.15816" lon="17.31686">
        <ele>94.67</ele>
        <time>2022-05-23T12:45:25.000Z</time>
      </trkpt>
      <trkpt lat="45.15805" lon="17.317">
        <ele>94.36</ele>
        <time>2022-05-23T12:45:30.000Z</time>
      </trkpt>
      <trkpt lat="45.15791" lon="17.31719">
        <ele>93.48</ele>
        <time>2022-05-23T12:45:35.000Z</time>
      </trkpt>
      <trkpt lat="45.15778" lon="17.31737">
        <ele>93.47</ele>
        <time>2022-05-23T12:45:40.000Z</time>
      </trkpt>
      <trkpt lat="45.15764" lon="17.31755">
        <ele>92.76</ele>
        <time>2022-05-23T12:45:45.000Z</time>
      </trkpt>
      <trkpt lat="45.15753" lon="17.3177">
        <ele>92.81</ele>
        <time>2022-05-23T12:45:50.000Z</time>
      </trkpt>
      <trkpt lat="45.15741" lon="17.31786">
        <ele>92.86</ele>
        <time>2022-05-23T12:45:55.000Z</time>
      </trkpt>
      <trkpt lat="45.15729" lon="17.31801">
        <ele>93.17</ele>
        <time>2022-05-23T12:46:00.000Z</time>
      </trkpt>
      <trkpt lat="45.15715" lon="17.31822">
        <ele>94.1</ele>
        <time>2022-05-23T12:46:05.000Z</time>
      </trkpt>
      <trkpt lat="45.15701" lon="17.31839">
        <ele>94.6</ele>
        <time>2022-05-23T12:46:10.000Z</time>
      </trkpt>
      <trkpt lat="45.15687" lon="17.31857">
        <ele>95.38</ele>
        <time>2022-05-23T12:46:15.000Z</time>
      </trkpt>
      <trkpt lat="45.15675" lon="17.31874">
        <ele>94.73</ele>
        <time>2022-05-23T12:46:20.000Z</time>
      </trkpt>
      <trkpt lat="45.1566" lon="17.31891">
        <ele>94.41</ele>
        <time>2022-05-23T12:46:25.000Z</time>
      </trkpt>
      <trkpt lat="45.1565" lon="17.31903">
        <ele>95.37</ele>
        <time>2022-05-23T12:46:30.000Z</time>
      </trkpt>
      <trkpt lat="45.15642" lon="17.31909">
        <ele>95.31</ele>
        <time>2022-05-23T12:46:35.000Z</time>
      </trkpt>
      <trkpt lat="45.15634" lon="17.31917">
        <ele>96.32</ele>
        <time>2022-05-23T12:46:44.000Z</time>
      </trkpt>
      <trkpt lat="45.15625" lon="17.31922">
        <ele>97.6</ele>
        <time>2022-05-23T12:47:53.000Z</time>
      </trkpt>
      <trkpt lat="45.15618" lon="17.31932">
        <ele>97.06</ele>
        <time>2022-05-23T12:47:58.000Z</time>
      </trkpt>
      <trkpt lat="45.15606" lon="17.31949">
        <ele>96.46</ele>
        <time>2022-05-23T12:48:03.000Z</time>
      </trkpt>
      <trkpt lat="45.15593" lon="17.31964">
        <ele>95.6</ele>
        <time>2022-05-23T12:48:08.000Z</time>
      </trkpt>
      <trkpt lat="45.1558" lon="17.31983">
        <ele>94.44</ele>
        <time>2022-05-23T12:48:13.000Z</time>
      </trkpt>
      <trkpt lat="45.15566" lon="17.31999">
        <ele>94.09</ele>
        <time>2022-05-23T12:48:18.000Z</time>
      </trkpt>
      <trkpt lat="45.15552" lon="17.32016">
        <ele>93.21</ele>
        <time>2022-05-23T12:48:23.000Z</time>
      </trkpt>
      <trkpt lat="45.15538" lon="17.32038">
        <ele>91.51</ele>
        <time>2022-05-23T12:48:28.000Z</time>
      </trkpt>
      <trkpt lat="45.15521" lon="17.32058">
        <ele>90.2</ele>
        <time>2022-05-23T12:48:33.000Z</time>
      </trkpt>
      <trkpt lat="45.15506" lon="17.32076">
        <ele>88.55</ele>
        <time>2022-05-23T12:48:38.000Z</time>
      </trkpt>
      <trkpt lat="45.15492" lon="17.32094">
        <ele>88.18</ele>
        <time>2022-05-23T12:48:43.000Z</time>
      </trkpt>
      <trkpt lat="45.15477" lon="17.3211">
        <ele>88.41</ele>
        <time>2022-05-23T12:48:48.000Z</time>
      </trkpt>
      <trkpt lat="45.1546" lon="17.32124">
        <ele>88.89</ele>
        <time>2022-05-23T12:48:53.000Z</time>
      </trkpt>
      <trkpt lat="45.15446" lon="17.32137">
        <ele>89.95</ele>
        <time>2022-05-23T12:48:58.000Z</time>
      </trkpt>
      <trkpt lat="45.15444" lon="17.32156">
        <ele>91.2</ele>
        <time>2022-05-23T12:49:03.000Z</time>
      </trkpt>
      <trkpt lat="45.15444" lon="17.32183">
        <ele>91.74</ele>
        <time>2022-05-23T12:49:08.000Z</time>
      </trkpt>
      <trkpt lat="45.15431" lon="17.32205">
        <ele>93.96</ele>
        <time>2022-05-23T12:49:13.000Z</time>
      </trkpt>
      <trkpt lat="45.15416" lon="17.32224">
        <ele>95.42</ele>
        <time>2022-05-23T12:49:18.000Z</time>
      </trkpt>
      <trkpt lat="45.15402" lon="17.32243">
        <ele>96.73</ele>
        <time>2022-05-23T12:49:23.000Z</time>
      </trkpt>
      <trkpt lat="45.15388" lon="17.32261">
        <ele>96.7</ele>
        <time>2022-05-23T12:49:28.000Z</time>
      </trkpt>
      <trkpt lat="45.15372" lon="17.32281">
        <ele>98.75</ele>
        <time>2022-05-23T12:49:33.000Z</time>
      </trkpt>
      <trkpt lat="45.1536" lon="17.32298">
        <ele>98.6</ele>
        <time>2022-05-23T12:49:38.000Z</time>
      </trkpt>
      <trkpt lat="45.15346" lon="17.32316">
        <ele>97.7</ele>
        <time>2022-05-23T12:49:43.000Z</time>
      </trkpt>
      <trkpt lat="45.15332" lon="17.32335">
        <ele>97.56</ele>
        <time>2022-05-23T12:49:48.000Z</time>
      </trkpt>
      <trkpt lat="45.15318" lon="17.32352">
        <ele>98.33</ele>
        <time>2022-05-23T12:49:53.000Z</time>
      </trkpt>
      <trkpt lat="45.15303" lon="17.3237">
        <ele>98.31</ele>
        <time>2022-05-23T12:49:58.000Z</time>
      </trkpt>
      <trkpt lat="45.15289" lon="17.32389">
        <ele>98.45</ele>
        <time>2022-05-23T12:50:03.000Z</time>
      </trkpt>
      <trkpt lat="45.15276" lon="17.32408">
        <ele>100.65</ele>
        <time>2022-05-23T12:50:08.000Z</time>
      </trkpt>
      <trkpt lat="45.15264" lon="17.32428">
        <ele>102.52</ele>
        <time>2022-05-23T12:50:13.000Z</time>
      </trkpt>
      <trkpt lat="45.15252" lon="17.32446">
        <ele>102.66</ele>
        <time>2022-05-23T12:50:18.000Z</time>
      </trkpt>
      <trkpt lat="45.15239" lon="17.32462">
        <ele>102.04</ele>
        <time>2022-05-23T12:50:23.000Z</time>
      </trkpt>
      <trkpt lat="45.15225" lon="17.3248">
        <ele>101.5</ele>
        <time>2022-05-23T12:50:28.000Z</time>
      </trkpt>
      <trkpt lat="45.15212" lon="17.32494">
        <ele>101.81</ele>
        <time>2022-05-23T12:50:33.000Z</time>
      </trkpt>
      <trkpt lat="45.15197" lon="17.32512">
        <ele>101.57</ele>
        <time>2022-05-23T12:50:38.000Z</time>
      </trkpt>
      <trkpt lat="45.15184" lon="17.32532">
        <ele>103.33</ele>
        <time>2022-05-23T12:50:43.000Z</time>
      </trkpt>
      <trkpt lat="45.15171" lon="17.32552">
        <ele>103.8</ele>
        <time>2022-05-23T12:50:48.000Z</time>
      </trkpt>
      <trkpt lat="45.15156" lon="17.32572">
        <ele>104.61</ele>
        <time>2022-05-23T12:50:53.000Z</time>
      </trkpt>
      <trkpt lat="45.15141" lon="17.32592">
        <ele>104.19</ele>
        <time>2022-05-23T12:50:58.000Z</time>
      </trkpt>
      <trkpt lat="45.15127" lon="17.32609">
        <ele>104.28</ele>
        <time>2022-05-23T12:51:03.000Z</time>
      </trkpt>
      <trkpt lat="45.15114" lon="17.32628">
        <ele>103.26</ele>
        <time>2022-05-23T12:51:08.000Z</time>
      </trkpt>
      <trkpt lat="45.15098" lon="17.32647">
        <ele>102.5</ele>
        <time>2022-05-23T12:51:13.000Z</time>
      </trkpt>
      <trkpt lat="45.15083" lon="17.32667">
        <ele>101.53</ele>
        <time>2022-05-23T12:51:18.000Z</time>
      </trkpt>
      <trkpt lat="45.15068" lon="17.32684">
        <ele>100.71</ele>
        <time>2022-05-23T12:51:23.000Z</time>
      </trkpt>
      <trkpt lat="45.15056" lon="17.32702">
        <ele>100.26</ele>
        <time>2022-05-23T12:51:28.000Z</time>
      </trkpt>
      <trkpt lat="45.15039" lon="17.32723">
        <ele>99.71</ele>
        <time>2022-05-23T12:51:33.000Z</time>
      </trkpt>
      <trkpt lat="45.15021" lon="17.32746">
        <ele>98.96</ele>
        <time>2022-05-23T12:51:38.000Z</time>
      </trkpt>
      <trkpt lat="45.15005" lon="17.32767">
        <ele>96.95</ele>
        <time>2022-05-23T12:51:43.000Z</time>
      </trkpt>
      <trkpt lat="45.14992" lon="17.32786">
        <ele>95.58</ele>
        <time>2022-05-23T12:51:48.000Z</time>
      </trkpt>
      <trkpt lat="45.14978" lon="17.32805">
        <ele>95.82</ele>
        <time>2022-05-23T12:51:53.000Z</time>
      </trkpt>
      <trkpt lat="45.14965" lon="17.32822">
        <ele>95.28</ele>
        <time>2022-05-23T12:51:58.000Z</time>
      </trkpt>
      <trkpt lat="45.14952" lon="17.32836">
        <ele>96.12</ele>
        <time>2022-05-23T12:52:03.000Z</time>
      </trkpt>
      <trkpt lat="45.14939" lon="17.32854">
        <ele>97.98</ele>
        <time>2022-05-23T12:52:08.000Z</time>
      </trkpt>
      <trkpt lat="45.14926" lon="17.32873">
        <ele>97.1</ele>
        <time>2022-05-23T12:52:13.000Z</time>
      </trkpt>
      <trkpt lat="45.14912" lon="17.3289">
        <ele>96.17</ele>
        <time>2022-05-23T12:52:18.000Z</time>
      </trkpt>
      <trkpt lat="45.149" lon="17.32907">
        <ele>95.91</ele>
        <time>2022-05-23T12:52:23.000Z</time>
      </trkpt>
      <trkpt lat="45.14886" lon="17.32925">
        <ele>93.6</ele>
        <time>2022-05-23T12:52:28.000Z</time>
      </trkpt>
      <trkpt lat="45.14873" lon="17.32942">
        <ele>92.96</ele>
        <time>2022-05-23T12:52:33.000Z</time>
      </trkpt>
      <trkpt lat="45.14861" lon="17.32956">
        <ele>95.36</ele>
        <time>2022-05-23T12:52:38.000Z</time>
      </trkpt>
      <trkpt lat="45.14847" lon="17.32973">
        <ele>95.17</ele>
        <time>2022-05-23T12:52:43.000Z</time>
      </trkpt>
      <trkpt lat="45.14833" lon="17.32991">
        <ele>93.81</ele>
        <time>2022-05-23T12:52:48.000Z</time>
      </trkpt>
      <trkpt lat="45.14821" lon="17.33007">
        <ele>92.79</ele>
        <time>2022-05-23T12:52:53.000Z</time>
      </trkpt>
      <trkpt lat="45.14808" lon="17.33023">
        <ele>92.61</ele>
        <time>2022-05-23T12:52:58.000Z</time>
      </trkpt>
      <trkpt lat="45.14796" lon="17.33038">
        <ele>92.15</ele>
        <time>2022-05-23T12:53:03.000Z</time>
      </trkpt>
      <trkpt lat="45.14784" lon="17.33056">
        <ele>90.11</ele>
        <time>2022-05-23T12:53:08.000Z</time>
      </trkpt>
      <trkpt lat="45.14769" lon="17.33072">
        <ele>89.47</ele>
        <time>2022-05-23T12:53:13.000Z</time>
      </trkpt>
      <trkpt lat="45.14756" lon="17.33087">
        <ele>88.73</ele>
        <time>2022-05-23T12:53:18.000Z</time>
      </trkpt>
      <trkpt lat="45.14745" lon="17.33105">
        <ele>92.22</ele>
        <time>2022-05-23T12:53:23.000Z</time>
      </trkpt>
      <trkpt lat="45.14733" lon="17.33121">
        <ele>96.03</ele>
        <time>2022-05-23T12:53:28.000Z</time>
      </trkpt>
      <trkpt lat="45.14722" lon="17.33134">
        <ele>96.74</ele>
        <time>2022-05-23T12:53:33.000Z</time>
      </trkpt>
      <trkpt lat="45.14713" lon="17.33148">
        <ele>97.44</ele>
        <time>2022-05-23T12:53:38.000Z</time>
      </trkpt>
      <trkpt lat="45.14701" lon="17.33166">
        <ele>98.79</ele>
        <time>2022-05-23T12:53:43.000Z</time>
      </trkpt>
      <trkpt lat="45.14688" lon="17.33184">
        <ele>99.24</ele>
        <time>2022-05-23T12:53:48.000Z</time>
      </trkpt>
      <trkpt lat="45.14677" lon="17.332">
        <ele>99.48</ele>
        <time>2022-05-23T12:53:53.000Z</time>
      </trkpt>
      <trkpt lat="45.14665" lon="17.33214">
        <ele>99.55</ele>
        <time>2022-05-23T12:53:58.000Z</time>
      </trkpt>
      <trkpt lat="45.14654" lon="17.33231">
        <ele>99.89</ele>
        <time>2022-05-23T12:54:03.000Z</time>
      </trkpt>
      <trkpt lat="45.14641" lon="17.33246">
        <ele>99.89</ele>
        <time>2022-05-23T12:54:08.000Z</time>
      </trkpt>
      <trkpt lat="45.1463" lon="17.33258">
        <ele>100.91</ele>
        <time>2022-05-23T12:54:13.000Z</time>
      </trkpt>
      <trkpt lat="45.14618" lon="17.33276">
        <ele>100.11</ele>
        <time>2022-05-23T12:54:18.000Z</time>
      </trkpt>
      <trkpt lat="45.14606" lon="17.33293">
        <ele>99.43</ele>
        <time>2022-05-23T12:54:23.000Z</time>
      </trkpt>
      <trkpt lat="45.14592" lon="17.33313">
        <ele>100.15</ele>
        <time>2022-05-23T12:54:28.000Z</time>
      </trkpt>
      <trkpt lat="45.1458" lon="17.33331">
        <ele>100.24</ele>
        <time>2022-05-23T12:54:33.000Z</time>
      </trkpt>
      <trkpt lat="45.14568" lon="17.33348">
        <ele>99.78</ele>
        <time>2022-05-23T12:54:38.000Z</time>
      </trkpt>
      <trkpt lat="45.14557" lon="17.33364">
        <ele>101.44</ele>
        <time>2022-05-23T12:54:43.000Z</time>
      </trkpt>
      <trkpt lat="45.14546" lon="17.33377">
        <ele>102.32</ele>
        <time>2022-05-23T12:54:48.000Z</time>
      </trkpt>
      <trkpt lat="45.14535" lon="17.33391">
        <ele>104.65</ele>
        <time>2022-05-23T12:54:53.000Z</time>
      </trkpt>
      <trkpt lat="45.14522" lon="17.33407">
        <ele>104.82</ele>
        <time>2022-05-23T12:54:58.000Z</time>
      </trkpt>
      <trkpt lat="45.14511" lon="17.33421">
        <ele>105.02</ele>
        <time>2022-05-23T12:55:03.000Z</time>
      </trkpt>
      <trkpt lat="45.14497" lon="17.33437">
        <ele>104.5</ele>
        <time>2022-05-23T12:55:08.000Z</time>
      </trkpt>
      <trkpt lat="45.14485" lon="17.33454">
        <ele>104.33</ele>
        <time>2022-05-23T12:55:13.000Z</time>
      </trkpt>
      <trkpt lat="45.14474" lon="17.33469">
        <ele>104.51</ele>
        <time>2022-05-23T12:55:18.000Z</time>
      </trkpt>
      <trkpt lat="45.1446" lon="17.33484">
        <ele>103.87</ele>
        <time>2022-05-23T12:55:23.000Z</time>
      </trkpt>
      <trkpt lat="45.14447" lon="17.335">
        <ele>102.23</ele>
        <time>2022-05-23T12:55:28.000Z</time>
      </trkpt>
      <trkpt lat="45.14437" lon="17.33516">
        <ele>102.28</ele>
        <time>2022-05-23T12:55:33.000Z</time>
      </trkpt>
      <trkpt lat="45.14425" lon="17.33531">
        <ele>101.76</ele>
        <time>2022-05-23T12:55:38.000Z</time>
      </trkpt>
      <trkpt lat="45.14413" lon="17.33545">
        <ele>100.83</ele>
        <time>2022-05-23T12:55:43.000Z</time>
      </trkpt>
      <trkpt lat="45.14402" lon="17.3356">
        <ele>100.1</ele>
        <time>2022-05-23T12:55:48.000Z</time>
      </trkpt>
      <trkpt lat="45.14393" lon="17.33574">
        <ele>100.38</ele>
        <time>2022-05-23T12:55:53.000Z</time>
      </trkpt>
      <trkpt lat="45.14383" lon="17.33588">
        <ele>100.79</ele>
        <time>2022-05-23T12:55:58.000Z</time>
      </trkpt>
      <trkpt lat="45.14371" lon="17.33601">
        <ele>100.65</ele>
        <time>2022-05-23T12:56:03.000Z</time>
      </trkpt>
      <trkpt lat="45.1436" lon="17.33612">
        <ele>100.38</ele>
        <time>2022-05-23T12:56:08.000Z</time>
      </trkpt>
      <trkpt lat="45.14349" lon="17.33623">
        <ele>99.93</ele>
        <time>2022-05-23T12:56:13.000Z</time>
      </trkpt>
      <trkpt lat="45.1434" lon="17.33637">
        <ele>99.53</ele>
        <time>2022-05-23T12:56:18.000Z</time>
      </trkpt>
      <trkpt lat="45.14327" lon="17.33655">
        <ele>99.52</ele>
        <time>2022-05-23T12:56:23.000Z</time>
      </trkpt>
      <trkpt lat="45.14314" lon="17.33671">
        <ele>99.14</ele>
        <time>2022-05-23T12:56:28.000Z</time>
      </trkpt>
      <trkpt lat="45.14302" lon="17.33689">
        <ele>99.21</ele>
        <time>2022-05-23T12:56:33.000Z</time>
      </trkpt>
      <trkpt lat="45.1429" lon="17.33705">
        <ele>99.63</ele>
        <time>2022-05-23T12:56:38.000Z</time>
      </trkpt>
      <trkpt lat="45.14278" lon="17.3372">
        <ele>99.78</ele>
        <time>2022-05-23T12:56:43.000Z</time>
      </trkpt>
      <trkpt lat="45.14265" lon="17.33736">
        <ele>99.63</ele>
        <time>2022-05-23T12:56:48.000Z</time>
      </trkpt>
      <trkpt lat="45.14252" lon="17.3375">
        <ele>98.98</ele>
        <time>2022-05-23T12:56:53.000Z</time>
      </trkpt>
      <trkpt lat="45.1424" lon="17.33768">
        <ele>97</ele>
        <time>2022-05-23T12:56:58.000Z</time>
      </trkpt>
      <trkpt lat="45.14227" lon="17.33783">
        <ele>95.84</ele>
        <time>2022-05-23T12:57:03.000Z</time>
      </trkpt>
      <trkpt lat="45.14215" lon="17.33801">
        <ele>95.51</ele>
        <time>2022-05-23T12:57:08.000Z</time>
      </trkpt>
      <trkpt lat="45.14201" lon="17.3382">
        <ele>94.97</ele>
        <time>2022-05-23T12:57:13.000Z</time>
      </trkpt>
      <trkpt lat="45.14188" lon="17.33838">
        <ele>94.68</ele>
        <time>2022-05-23T12:57:18.000Z</time>
      </trkpt>
      <trkpt lat="45.14176" lon="17.33853">
        <ele>94.55</ele>
        <time>2022-05-23T12:57:23.000Z</time>
      </trkpt>
      <trkpt lat="45.14165" lon="17.33868">
        <ele>95.05</ele>
        <time>2022-05-23T12:57:28.000Z</time>
      </trkpt>
      <trkpt lat="45.14152" lon="17.33884">
        <ele>95.43</ele>
        <time>2022-05-23T12:57:33.000Z</time>
      </trkpt>
      <trkpt lat="45.14139" lon="17.33901">
        <ele>96.37</ele>
        <time>2022-05-23T12:57:38.000Z</time>
      </trkpt>
      <trkpt lat="45.14127" lon="17.33918">
        <ele>97</ele>
        <time>2022-05-23T12:57:43.000Z</time>
      </trkpt>
      <trkpt lat="45.14116" lon="17.33933">
        <ele>97.15</ele>
        <time>2022-05-23T12:57:48.000Z</time>
      </trkpt>
      <trkpt lat="45.14104" lon="17.33948">
        <ele>97.98</ele>
        <time>2022-05-23T12:57:53.000Z</time>
      </trkpt>
      <trkpt lat="45.14092" lon="17.33964">
        <ele>98.64</ele>
        <time>2022-05-23T12:57:58.000Z</time>
      </trkpt>
      <trkpt lat="45.14079" lon="17.33982">
        <ele>98.44</ele>
        <time>2022-05-23T12:58:03.000Z</time>
      </trkpt>
      <trkpt lat="45.14066" lon="17.34">
        <ele>98.11</ele>
        <time>2022-05-23T12:58:08.000Z</time>
      </trkpt>
      <trkpt lat="45.14053" lon="17.34017">
        <ele>98.2</ele>
        <time>2022-05-23T12:58:13.000Z</time>
      </trkpt>
      <trkpt lat="45.14041" lon="17.34036">
        <ele>98.57</ele>
        <time>2022-05-23T12:58:18.000Z</time>
      </trkpt>
      <trkpt lat="45.14028" lon="17.34054">
        <ele>99.72</ele>
        <time>2022-05-23T12:58:23.000Z</time>
      </trkpt>
      <trkpt lat="45.14016" lon="17.34074">
        <ele>99.28</ele>
        <time>2022-05-23T12:58:28.000Z</time>
      </trkpt>
      <trkpt lat="45.14003" lon="17.34093">
        <ele>98.98</ele>
        <time>2022-05-23T12:58:33.000Z</time>
      </trkpt>
      <trkpt lat="45.1399" lon="17.34112">
        <ele>99.37</ele>
        <time>2022-05-23T12:58:38.000Z</time>
      </trkpt>
      <trkpt lat="45.13978" lon="17.34131">
        <ele>99.86</ele>
        <time>2022-05-23T12:58:43.000Z</time>
      </trkpt>
      <trkpt lat="45.13969" lon="17.34148">
        <ele>98.35</ele>
        <time>2022-05-23T12:58:48.000Z</time>
      </trkpt>
      <trkpt lat="45.13959" lon="17.34168">
        <ele>99.69</ele>
        <time>2022-05-23T12:58:53.000Z</time>
      </trkpt>
      <trkpt lat="45.13947" lon="17.3419">
        <ele>100.99</ele>
        <time>2022-05-23T12:58:58.000Z</time>
      </trkpt>
      <trkpt lat="45.13935" lon="17.3421">
        <ele>101.44</ele>
        <time>2022-05-23T12:59:03.000Z</time>
      </trkpt>
      <trkpt lat="45.13924" lon="17.34231">
        <ele>101.05</ele>
        <time>2022-05-23T12:59:08.000Z</time>
      </trkpt>
      <trkpt lat="45.13913" lon="17.34251">
        <ele>101.43</ele>
        <time>2022-05-23T12:59:13.000Z</time>
      </trkpt>
      <trkpt lat="45.13905" lon="17.34272">
        <ele>101.19</ele>
        <time>2022-05-23T12:59:18.000Z</time>
      </trkpt>
      <trkpt lat="45.13895" lon="17.34293">
        <ele>101.17</ele>
        <time>2022-05-23T12:59:23.000Z</time>
      </trkpt>
      <trkpt lat="45.13885" lon="17.34315">
        <ele>101.57</ele>
        <time>2022-05-23T12:59:28.000Z</time>
      </trkpt>
      <trkpt lat="45.13876" lon="17.34336">
        <ele>99.48</ele>
        <time>2022-05-23T12:59:33.000Z</time>
      </trkpt>
      <trkpt lat="45.13866" lon="17.34349">
        <ele>97.66</ele>
        <time>2022-05-23T12:59:38.000Z</time>
      </trkpt>
      <trkpt lat="45.13858" lon="17.34358">
        <ele>97.99</ele>
        <time>2022-05-23T12:59:43.000Z</time>
      </trkpt>
      <trkpt lat="45.13848" lon="17.34367">
        <ele>96.43</ele>
        <time>2022-05-23T13:00:15.000Z</time>
      </trkpt>
      <trkpt lat="45.1384" lon="17.34374">
        <ele>92.8</ele>
        <time>2022-05-23T13:02:00.000Z</time>
      </trkpt>
      <trkpt lat="45.13831" lon="17.34387">
        <ele>92.71</ele>
        <time>2022-05-23T13:02:05.000Z</time>
      </trkpt>
      <trkpt lat="45.1382" lon="17.34408">
        <ele>92.87</ele>
        <time>2022-05-23T13:02:10.000Z</time>
      </trkpt>
      <trkpt lat="45.13814" lon="17.34432">
        <ele>92.95</ele>
        <time>2022-05-23T13:02:15.000Z</time>
      </trkpt>
      <trkpt lat="45.13807" lon="17.34455">
        <ele>93.33</ele>
        <time>2022-05-23T13:02:20.000Z</time>
      </trkpt>
      <trkpt lat="45.13801" lon="17.34481">
        <ele>93.96</ele>
        <time>2022-05-23T13:02:25.000Z</time>
      </trkpt>
      <trkpt lat="45.13795" lon="17.34507">
        <ele>94.7</ele>
        <time>2022-05-23T13:02:30.000Z</time>
      </trkpt>
      <trkpt lat="45.13789" lon="17.34536">
        <ele>95.48</ele>
        <time>2022-05-23T13:02:35.000Z</time>
      </trkpt>
      <trkpt lat="45.13782" lon="17.34563">
        <ele>94.14</ele>
        <time>2022-05-23T13:02:40.000Z</time>
      </trkpt>
      <trkpt lat="45.13777" lon="17.34591">
        <ele>93.98</ele>
        <time>2022-05-23T13:02:45.000Z</time>
      </trkpt>
      <trkpt lat="45.13771" lon="17.34619">
        <ele>95.86</ele>
        <time>2022-05-23T13:02:50.000Z</time>
      </trkpt>
      <trkpt lat="45.13766" lon="17.34644">
        <ele>94.81</ele>
        <time>2022-05-23T13:02:55.000Z</time>
      </trkpt>
      <trkpt lat="45.13761" lon="17.34668">
        <ele>92.6</ele>
        <time>2022-05-23T13:03:00.000Z</time>
      </trkpt>
      <trkpt lat="45.13755" lon="17.34694">
        <ele>92.63</ele>
        <time>2022-05-23T13:03:05.000Z</time>
      </trkpt>
      <trkpt lat="45.1375" lon="17.34718">
        <ele>91.6</ele>
        <time>2022-05-23T13:03:10.000Z</time>
      </trkpt>
      <trkpt lat="45.13745" lon="17.34744">
        <ele>91.75</ele>
        <time>2022-05-23T13:03:15.000Z</time>
      </trkpt>
      <trkpt lat="45.1374" lon="17.34769">
        <ele>91.87</ele>
        <time>2022-05-23T13:03:20.000Z</time>
      </trkpt>
      <trkpt lat="45.13736" lon="17.34796">
        <ele>91.55</ele>
        <time>2022-05-23T13:03:25.000Z</time>
      </trkpt>
      <trkpt lat="45.13731" lon="17.34824">
        <ele>90.98</ele>
        <time>2022-05-23T13:03:30.000Z</time>
      </trkpt>
      <trkpt lat="45.13726" lon="17.3485">
        <ele>90.97</ele>
        <time>2022-05-23T13:03:35.000Z</time>
      </trkpt>
      <trkpt lat="45.13721" lon="17.34877">
        <ele>92.76</ele>
        <time>2022-05-23T13:03:40.000Z</time>
      </trkpt>
      <trkpt lat="45.13717" lon="17.34901">
        <ele>92.91</ele>
        <time>2022-05-23T13:03:45.000Z</time>
      </trkpt>
      <trkpt lat="45.13713" lon="17.34927">
        <ele>94.19</ele>
        <time>2022-05-23T13:03:50.000Z</time>
      </trkpt>
      <trkpt lat="45.13708" lon="17.34952">
        <ele>93.9</ele>
        <time>2022-05-23T13:03:55.000Z</time>
      </trkpt>
      <trkpt lat="45.13705" lon="17.34976">
        <ele>95.08</ele>
        <time>2022-05-23T13:04:00.000Z</time>
      </trkpt>
      <trkpt lat="45.13697" lon="17.35002">
        <ele>94.44</ele>
        <time>2022-05-23T13:04:05.000Z</time>
      </trkpt>
      <trkpt lat="45.1369" lon="17.35031">
        <ele>93.84</ele>
        <time>2022-05-23T13:04:10.000Z</time>
      </trkpt>
      <trkpt lat="45.13684" lon="17.35054">
        <ele>94.04</ele>
        <time>2022-05-23T13:04:15.000Z</time>
      </trkpt>
      <trkpt lat="45.13679" lon="17.35079">
        <ele>95</ele>
        <time>2022-05-23T13:04:20.000Z</time>
      </trkpt>
      <trkpt lat="45.13675" lon="17.35105">
        <ele>96.12</ele>
        <time>2022-05-23T13:04:25.000Z</time>
      </trkpt>
      <trkpt lat="45.1367" lon="17.35135">
        <ele>97.26</ele>
        <time>2022-05-23T13:04:30.000Z</time>
      </trkpt>
      <trkpt lat="45.13668" lon="17.35163">
        <ele>98.1</ele>
        <time>2022-05-23T13:04:35.000Z</time>
      </trkpt>
      <trkpt lat="45.13666" lon="17.35191">
        <ele>97.18</ele>
        <time>2022-05-23T13:04:40.000Z</time>
      </trkpt>
      <trkpt lat="45.13663" lon="17.3522">
        <ele>97.1</ele>
        <time>2022-05-23T13:04:45.000Z</time>
      </trkpt>
      <trkpt lat="45.1366" lon="17.35253">
        <ele>96.55</ele>
        <time>2022-05-23T13:04:50.000Z</time>
      </trkpt>
      <trkpt lat="45.13655" lon="17.35285">
        <ele>94.59</ele>
        <time>2022-05-23T13:04:55.000Z</time>
      </trkpt>
      <trkpt lat="45.13653" lon="17.35313">
        <ele>94.31</ele>
        <time>2022-05-23T13:05:00.000Z</time>
      </trkpt>
      <trkpt lat="45.13651" lon="17.35345">
        <ele>92.9</ele>
        <time>2022-05-23T13:05:05.000Z</time>
      </trkpt>
      <trkpt lat="45.13649" lon="17.35375">
        <ele>92.24</ele>
        <time>2022-05-23T13:05:10.000Z</time>
      </trkpt>
      <trkpt lat="45.13646" lon="17.35407">
        <ele>92.84</ele>
        <time>2022-05-23T13:05:15.000Z</time>
      </trkpt>
      <trkpt lat="45.13646" lon="17.35433">
        <ele>92.96</ele>
        <time>2022-05-23T13:05:20.000Z</time>
      </trkpt>
      <trkpt lat="45.13644" lon="17.35461">
        <ele>92.44</ele>
        <time>2022-05-23T13:05:25.000Z</time>
      </trkpt>
      <trkpt lat="45.13642" lon="17.35491">
        <ele>92.49</ele>
        <time>2022-05-23T13:05:30.000Z</time>
      </trkpt>
      <trkpt lat="45.1364" lon="17.35516">
        <ele>91.91</ele>
        <time>2022-05-23T13:05:35.000Z</time>
      </trkpt>
      <trkpt lat="45.13638" lon="17.35549">
        <ele>92.23</ele>
        <time>2022-05-23T13:05:40.000Z</time>
      </trkpt>
      <trkpt lat="45.13634" lon="17.35578">
        <ele>92.19</ele>
        <time>2022-05-23T13:05:45.000Z</time>
      </trkpt>
      <trkpt lat="45.13631" lon="17.35608">
        <ele>91.76</ele>
        <time>2022-05-23T13:05:50.000Z</time>
      </trkpt>
      <trkpt lat="45.13628" lon="17.35639">
        <ele>91.61</ele>
        <time>2022-05-23T13:05:55.000Z</time>
      </trkpt>
      <trkpt lat="45.13625" lon="17.35671">
        <ele>91.88</ele>
        <time>2022-05-23T13:06:00.000Z</time>
      </trkpt>
      <trkpt lat="45.13626" lon="17.35697">
        <ele>92.49</ele>
        <time>2022-05-23T13:06:05.000Z</time>
      </trkpt>
      <trkpt lat="45.13624" lon="17.35732">
        <ele>93.29</ele>
        <time>2022-05-23T13:06:10.000Z</time>
      </trkpt>
      <trkpt lat="45.1362" lon="17.35768">
        <ele>92.74</ele>
        <time>2022-05-23T13:06:15.000Z</time>
      </trkpt>
      <trkpt lat="45.13617" lon="17.35799">
        <ele>92.67</ele>
        <time>2022-05-23T13:06:20.000Z</time>
      </trkpt>
      <trkpt lat="45.13615" lon="17.35829">
        <ele>92.62</ele>
        <time>2022-05-23T13:06:25.000Z</time>
      </trkpt>
      <trkpt lat="45.13614" lon="17.35861">
        <ele>92.19</ele>
        <time>2022-05-23T13:06:30.000Z</time>
      </trkpt>
      <trkpt lat="45.13613" lon="17.3589">
        <ele>92.57</ele>
        <time>2022-05-23T13:06:35.000Z</time>
      </trkpt>
      <trkpt lat="45.13613" lon="17.35919">
        <ele>92.02</ele>
        <time>2022-05-23T13:06:40.000Z</time>
      </trkpt>
      <trkpt lat="45.13612" lon="17.3595">
        <ele>92.2</ele>
        <time>2022-05-23T13:06:45.000Z</time>
      </trkpt>
      <trkpt lat="45.13611" lon="17.35981">
        <ele>92.21</ele>
        <time>2022-05-23T13:06:50.000Z</time>
      </trkpt>
      <trkpt lat="45.13609" lon="17.36011">
        <ele>92.86</ele>
        <time>2022-05-23T13:06:55.000Z</time>
      </trkpt>
      <trkpt lat="45.13608" lon="17.36039">
        <ele>92.97</ele>
        <time>2022-05-23T13:07:00.000Z</time>
      </trkpt>
      <trkpt lat="45.13605" lon="17.3607">
        <ele>92.64</ele>
        <time>2022-05-23T13:07:05.000Z</time>
      </trkpt>
      <trkpt lat="45.13607" lon="17.36099">
        <ele>93.76</ele>
        <time>2022-05-23T13:07:10.000Z</time>
      </trkpt>
      <trkpt lat="45.13604" lon="17.36131">
        <ele>92.37</ele>
        <time>2022-05-23T13:07:15.000Z</time>
      </trkpt>
      <trkpt lat="45.13601" lon="17.36163">
        <ele>90.58</ele>
        <time>2022-05-23T13:07:20.000Z</time>
      </trkpt>
      <trkpt lat="45.13599" lon="17.36194">
        <ele>89.7</ele>
        <time>2022-05-23T13:07:25.000Z</time>
      </trkpt>
      <trkpt lat="45.13597" lon="17.36225">
        <ele>89.01</ele>
        <time>2022-05-23T13:07:30.000Z</time>
      </trkpt>
      <trkpt lat="45.13595" lon="17.36254">
        <ele>87.98</ele>
        <time>2022-05-23T13:07:35.000Z</time>
      </trkpt>
      <trkpt lat="45.13591" lon="17.36281">
        <ele>87.05</ele>
        <time>2022-05-23T13:07:40.000Z</time>
      </trkpt>
      <trkpt lat="45.13586" lon="17.3631">
        <ele>86.49</ele>
        <time>2022-05-23T13:07:45.000Z</time>
      </trkpt>
      <trkpt lat="45.13582" lon="17.36338">
        <ele>86.18</ele>
        <time>2022-05-23T13:07:50.000Z</time>
      </trkpt>
      <trkpt lat="45.13576" lon="17.36369">
        <ele>86.03</ele>
        <time>2022-05-23T13:07:55.000Z</time>
      </trkpt>
      <trkpt lat="45.13569" lon="17.364">
        <ele>86.62</ele>
        <time>2022-05-23T13:08:00.000Z</time>
      </trkpt>
      <trkpt lat="45.13564" lon="17.36429">
        <ele>87.08</ele>
        <time>2022-05-23T13:08:05.000Z</time>
      </trkpt>
      <trkpt lat="45.13557" lon="17.36459">
        <ele>87.52</ele>
        <time>2022-05-23T13:08:10.000Z</time>
      </trkpt>
      <trkpt lat="45.13552" lon="17.36486">
        <ele>88.33</ele>
        <time>2022-05-23T13:08:15.000Z</time>
      </trkpt>
      <trkpt lat="45.13543" lon="17.36507">
        <ele>88.24</ele>
        <time>2022-05-23T13:08:20.000Z</time>
      </trkpt>
      <trkpt lat="45.13534" lon="17.36522">
        <ele>87.91</ele>
        <time>2022-05-23T13:08:25.000Z</time>
      </trkpt>
      <trkpt lat="45.13531" lon="17.36535">
        <ele>87.85</ele>
        <time>2022-05-23T13:08:41.000Z</time>
      </trkpt>
      <trkpt lat="45.13523" lon="17.36541">
        <ele>90.3</ele>
        <time>2022-05-23T13:15:50.000Z</time>
      </trkpt>
      <trkpt lat="45.13518" lon="17.36556">
        <ele>90.27</ele>
        <time>2022-05-23T13:15:55.000Z</time>
      </trkpt>
      <trkpt lat="45.13513" lon="17.36578">
        <ele>90.62</ele>
        <time>2022-05-23T13:16:00.000Z</time>
      </trkpt>
      <trkpt lat="45.13508" lon="17.36599">
        <ele>91.14</ele>
        <time>2022-05-23T13:16:05.000Z</time>
      </trkpt>
      <trkpt lat="45.13502" lon="17.36618">
        <ele>91.02</ele>
        <time>2022-05-23T13:16:10.000Z</time>
      </trkpt>
      <trkpt lat="45.13497" lon="17.3664">
        <ele>91.14</ele>
        <time>2022-05-23T13:16:15.000Z</time>
      </trkpt>
      <trkpt lat="45.1349" lon="17.36665">
        <ele>90.76</ele>
        <time>2022-05-23T13:16:20.000Z</time>
      </trkpt>
      <trkpt lat="45.13484" lon="17.36687">
        <ele>89.24</ele>
        <time>2022-05-23T13:16:25.000Z</time>
      </trkpt>
      <trkpt lat="45.13479" lon="17.36718">
        <ele>88.12</ele>
        <time>2022-05-23T13:16:30.000Z</time>
      </trkpt>
      <trkpt lat="45.13481" lon="17.36741">
        <ele>86.84</ele>
        <time>2022-05-23T13:16:35.000Z</time>
      </trkpt>
      <trkpt lat="45.13487" lon="17.36764">
        <ele>86.61</ele>
        <time>2022-05-23T13:16:40.000Z</time>
      </trkpt>
      <trkpt lat="45.13489" lon="17.36784">
        <ele>86.77</ele>
        <time>2022-05-23T13:16:45.000Z</time>
      </trkpt>
      <trkpt lat="45.13492" lon="17.36807">
        <ele>85.83</ele>
        <time>2022-05-23T13:16:50.000Z</time>
      </trkpt>
      <trkpt lat="45.13492" lon="17.36831">
        <ele>85.8</ele>
        <time>2022-05-23T13:16:55.000Z</time>
      </trkpt>
      <trkpt lat="45.13491" lon="17.36855">
        <ele>87.53</ele>
        <time>2022-05-23T13:17:00.000Z</time>
      </trkpt>
      <trkpt lat="45.13485" lon="17.36883">
        <ele>88.11</ele>
        <time>2022-05-23T13:17:05.000Z</time>
      </trkpt>
      <trkpt lat="45.1348" lon="17.36911">
        <ele>89.29</ele>
        <time>2022-05-23T13:17:10.000Z</time>
      </trkpt>
      <trkpt lat="45.13474" lon="17.36936">
        <ele>89.79</ele>
        <time>2022-05-23T13:17:15.000Z</time>
      </trkpt>
      <trkpt lat="45.13466" lon="17.36966">
        <ele>91.36</ele>
        <time>2022-05-23T13:17:20.000Z</time>
      </trkpt>
      <trkpt lat="45.1346" lon="17.36995">
        <ele>90.28</ele>
        <time>2022-05-23T13:17:25.000Z</time>
      </trkpt>
      <trkpt lat="45.13455" lon="17.37021">
        <ele>91.11</ele>
        <time>2022-05-23T13:17:30.000Z</time>
      </trkpt>
      <trkpt lat="45.13445" lon="17.37051">
        <ele>90.61</ele>
        <time>2022-05-23T13:17:35.000Z</time>
      </trkpt>
      <trkpt lat="45.13437" lon="17.37078">
        <ele>89.66</ele>
        <time>2022-05-23T13:17:40.000Z</time>
      </trkpt>
      <trkpt lat="45.13426" lon="17.37108">
        <ele>88.5</ele>
        <time>2022-05-23T13:17:45.000Z</time>
      </trkpt>
      <trkpt lat="45.13418" lon="17.37137">
        <ele>88.04</ele>
        <time>2022-05-23T13:17:50.000Z</time>
      </trkpt>
      <trkpt lat="45.13408" lon="17.37165">
        <ele>85.29</ele>
        <time>2022-05-23T13:17:55.000Z</time>
      </trkpt>
      <trkpt lat="45.13398" lon="17.37198">
        <ele>84.83</ele>
        <time>2022-05-23T13:18:00.000Z</time>
      </trkpt>
      <trkpt lat="45.13389" lon="17.37227">
        <ele>84.46</ele>
        <time>2022-05-23T13:18:05.000Z</time>
      </trkpt>
      <trkpt lat="45.13383" lon="17.37256">
        <ele>84.45</ele>
        <time>2022-05-23T13:18:10.000Z</time>
      </trkpt>
      <trkpt lat="45.13376" lon="17.37286">
        <ele>84.67</ele>
        <time>2022-05-23T13:18:15.000Z</time>
      </trkpt>
      <trkpt lat="45.1337" lon="17.37316">
        <ele>84.81</ele>
        <time>2022-05-23T13:18:20.000Z</time>
      </trkpt>
      <trkpt lat="45.13364" lon="17.37348">
        <ele>85.17</ele>
        <time>2022-05-23T13:18:25.000Z</time>
      </trkpt>
      <trkpt lat="45.13356" lon="17.37377">
        <ele>86.33</ele>
        <time>2022-05-23T13:18:30.000Z</time>
      </trkpt>
      <trkpt lat="45.13351" lon="17.37412">
        <ele>87.76</ele>
        <time>2022-05-23T13:18:35.000Z</time>
      </trkpt>
      <trkpt lat="45.13345" lon="17.37441">
        <ele>88.43</ele>
        <time>2022-05-23T13:18:40.000Z</time>
      </trkpt>
      <trkpt lat="45.13338" lon="17.3747">
        <ele>88.21</ele>
        <time>2022-05-23T13:18:45.000Z</time>
      </trkpt>
      <trkpt lat="45.13329" lon="17.375">
        <ele>88.54</ele>
        <time>2022-05-23T13:18:50.000Z</time>
      </trkpt>
      <trkpt lat="45.13318" lon="17.37529">
        <ele>88.11</ele>
        <time>2022-05-23T13:18:55.000Z</time>
      </trkpt>
      <trkpt lat="45.13307" lon="17.37555">
        <ele>88.31</ele>
        <time>2022-05-23T13:19:00.000Z</time>
      </trkpt>
      <trkpt lat="45.13297" lon="17.37583">
        <ele>88.4</ele>
        <time>2022-05-23T13:19:05.000Z</time>
      </trkpt>
      <trkpt lat="45.13289" lon="17.37612">
        <ele>88.04</ele>
        <time>2022-05-23T13:19:10.000Z</time>
      </trkpt>
      <trkpt lat="45.13278" lon="17.3764">
        <ele>88.09</ele>
        <time>2022-05-23T13:19:15.000Z</time>
      </trkpt>
      <trkpt lat="45.13271" lon="17.37662">
        <ele>87.18</ele>
        <time>2022-05-23T13:19:20.000Z</time>
      </trkpt>
      <trkpt lat="45.13263" lon="17.37688">
        <ele>87.47</ele>
        <time>2022-05-23T13:19:25.000Z</time>
      </trkpt>
      <trkpt lat="45.13255" lon="17.3772">
        <ele>88.02</ele>
        <time>2022-05-23T13:19:30.000Z</time>
      </trkpt>
      <trkpt lat="45.13247" lon="17.37749">
        <ele>87.7</ele>
        <time>2022-05-23T13:19:35.000Z</time>
      </trkpt>
      <trkpt lat="45.13242" lon="17.37784">
        <ele>86.59</ele>
        <time>2022-05-23T13:19:40.000Z</time>
      </trkpt>
      <trkpt lat="45.13234" lon="17.37815">
        <ele>87.03</ele>
        <time>2022-05-23T13:19:45.000Z</time>
      </trkpt>
      <trkpt lat="45.13228" lon="17.37843">
        <ele>88.22</ele>
        <time>2022-05-23T13:19:50.000Z</time>
      </trkpt>
      <trkpt lat="45.13221" lon="17.37876">
        <ele>88.97</ele>
        <time>2022-05-23T13:19:55.000Z</time>
      </trkpt>
      <trkpt lat="45.13214" lon="17.37909">
        <ele>89.09</ele>
        <time>2022-05-23T13:20:00.000Z</time>
      </trkpt>
      <trkpt lat="45.13209" lon="17.37938">
        <ele>89.28</ele>
        <time>2022-05-23T13:20:05.000Z</time>
      </trkpt>
      <trkpt lat="45.13204" lon="17.37964">
        <ele>89.67</ele>
        <time>2022-05-23T13:20:10.000Z</time>
      </trkpt>
      <trkpt lat="45.13196" lon="17.37995">
        <ele>90</ele>
        <time>2022-05-23T13:20:15.000Z</time>
      </trkpt>
      <trkpt lat="45.13191" lon="17.38028">
        <ele>89.34</ele>
        <time>2022-05-23T13:20:20.000Z</time>
      </trkpt>
      <trkpt lat="45.13182" lon="17.38061">
        <ele>88.95</ele>
        <time>2022-05-23T13:20:25.000Z</time>
      </trkpt>
      <trkpt lat="45.13173" lon="17.38094">
        <ele>88.12</ele>
        <time>2022-05-23T13:20:30.000Z</time>
      </trkpt>
      <trkpt lat="45.13165" lon="17.38127">
        <ele>88.22</ele>
        <time>2022-05-23T13:20:35.000Z</time>
      </trkpt>
      <trkpt lat="45.1316" lon="17.38157">
        <ele>88.43</ele>
        <time>2022-05-23T13:20:40.000Z</time>
      </trkpt>
      <trkpt lat="45.13156" lon="17.38188">
        <ele>89.13</ele>
        <time>2022-05-23T13:20:45.000Z</time>
      </trkpt>
      <trkpt lat="45.13151" lon="17.38222">
        <ele>90.76</ele>
        <time>2022-05-23T13:20:50.000Z</time>
      </trkpt>
      <trkpt lat="45.13147" lon="17.38255">
        <ele>93.04</ele>
        <time>2022-05-23T13:20:55.000Z</time>
      </trkpt>
      <trkpt lat="45.13139" lon="17.38286">
        <ele>93.24</ele>
        <time>2022-05-23T13:21:00.000Z</time>
      </trkpt>
      <trkpt lat="45.1313" lon="17.38315">
        <ele>89.79</ele>
        <time>2022-05-23T13:21:05.000Z</time>
      </trkpt>
      <trkpt lat="45.13122" lon="17.38338">
        <ele>88.89</ele>
        <time>2022-05-23T13:21:10.000Z</time>
      </trkpt>
      <trkpt lat="45.13112" lon="17.38368">
        <ele>88.46</ele>
        <time>2022-05-23T13:21:15.000Z</time>
      </trkpt>
      <trkpt lat="45.13102" lon="17.38395">
        <ele>88.03</ele>
        <time>2022-05-23T13:21:20.000Z</time>
      </trkpt>
      <trkpt lat="45.13091" lon="17.38423">
        <ele>88.62</ele>
        <time>2022-05-23T13:21:25.000Z</time>
      </trkpt>
      <trkpt lat="45.13081" lon="17.38452">
        <ele>88.68</ele>
        <time>2022-05-23T13:21:30.000Z</time>
      </trkpt>
      <trkpt lat="45.13069" lon="17.38482">
        <ele>88.62</ele>
        <time>2022-05-23T13:21:35.000Z</time>
      </trkpt>
      <trkpt lat="45.13058" lon="17.38513">
        <ele>87.42</ele>
        <time>2022-05-23T13:21:40.000Z</time>
      </trkpt>
      <trkpt lat="45.13045" lon="17.38544">
        <ele>87.89</ele>
        <time>2022-05-23T13:21:45.000Z</time>
      </trkpt>
      <trkpt lat="45.13032" lon="17.38575">
        <ele>87.61</ele>
        <time>2022-05-23T13:21:50.000Z</time>
      </trkpt>
      <trkpt lat="45.1302" lon="17.38603">
        <ele>87.68</ele>
        <time>2022-05-23T13:21:55.000Z</time>
      </trkpt>
      <trkpt lat="45.13011" lon="17.38627">
        <ele>87.8</ele>
        <time>2022-05-23T13:22:00.000Z</time>
      </trkpt>
      <trkpt lat="45.12999" lon="17.38654">
        <ele>87.81</ele>
        <time>2022-05-23T13:22:05.000Z</time>
      </trkpt>
      <trkpt lat="45.12985" lon="17.38682">
        <ele>87.8</ele>
        <time>2022-05-23T13:22:10.000Z</time>
      </trkpt>
      <trkpt lat="45.12974" lon="17.38709">
        <ele>88.27</ele>
        <time>2022-05-23T13:22:15.000Z</time>
      </trkpt>
      <trkpt lat="45.12962" lon="17.38744">
        <ele>89.16</ele>
        <time>2022-05-23T13:22:20.000Z</time>
      </trkpt>
      <trkpt lat="45.1295" lon="17.3877">
        <ele>89.85</ele>
        <time>2022-05-23T13:22:25.000Z</time>
      </trkpt>
      <trkpt lat="45.12936" lon="17.38796">
        <ele>90.34</ele>
        <time>2022-05-23T13:22:30.000Z</time>
      </trkpt>
      <trkpt lat="45.12923" lon="17.38824">
        <ele>91.28</ele>
        <time>2022-05-23T13:22:35.000Z</time>
      </trkpt>
      <trkpt lat="45.12909" lon="17.38851">
        <ele>91.02</ele>
        <time>2022-05-23T13:22:40.000Z</time>
      </trkpt>
      <trkpt lat="45.12897" lon="17.38879">
        <ele>90.31</ele>
        <time>2022-05-23T13:22:45.000Z</time>
      </trkpt>
      <trkpt lat="45.12886" lon="17.38903">
        <ele>90</ele>
        <time>2022-05-23T13:22:50.000Z</time>
      </trkpt>
      <trkpt lat="45.12881" lon="17.38923">
        <ele>90.17</ele>
        <time>2022-05-23T13:22:55.000Z</time>
      </trkpt>
      <trkpt lat="45.12871" lon="17.38948">
        <ele>90.37</ele>
        <time>2022-05-23T13:23:00.000Z</time>
      </trkpt>
      <trkpt lat="45.12864" lon="17.38973">
        <ele>90.6</ele>
        <time>2022-05-23T13:23:05.000Z</time>
      </trkpt>
      <trkpt lat="45.12849" lon="17.39004">
        <ele>90.83</ele>
        <time>2022-05-23T13:23:10.000Z</time>
      </trkpt>
      <trkpt lat="45.12833" lon="17.3904">
        <ele>91.76</ele>
        <time>2022-05-23T13:23:15.000Z</time>
      </trkpt>
      <trkpt lat="45.12821" lon="17.3907">
        <ele>92.4</ele>
        <time>2022-05-23T13:23:20.000Z</time>
      </trkpt>
      <trkpt lat="45.12809" lon="17.39094">
        <ele>92.64</ele>
        <time>2022-05-23T13:23:25.000Z</time>
      </trkpt>
      <trkpt lat="45.12795" lon="17.39118">
        <ele>91.79</ele>
        <time>2022-05-23T13:23:30.000Z</time>
      </trkpt>
      <trkpt lat="45.12781" lon="17.39141">
        <ele>91.77</ele>
        <time>2022-05-23T13:23:35.000Z</time>
      </trkpt>
      <trkpt lat="45.12767" lon="17.39166">
        <ele>90.69</ele>
        <time>2022-05-23T13:23:40.000Z</time>
      </trkpt>
      <trkpt lat="45.12756" lon="17.39194">
        <ele>89.96</ele>
        <time>2022-05-23T13:23:45.000Z</time>
      </trkpt>
      <trkpt lat="45.1275" lon="17.39228">
        <ele>90.76</ele>
        <time>2022-05-23T13:23:50.000Z</time>
      </trkpt>
      <trkpt lat="45.12748" lon="17.3926">
        <ele>91.47</ele>
        <time>2022-05-23T13:23:55.000Z</time>
      </trkpt>
      <trkpt lat="45.12748" lon="17.39274">
        <ele>93.38</ele>
        <time>2022-05-23T13:24:00.000Z</time>
      </trkpt>
      <trkpt lat="45.1274" lon="17.39281">
        <ele>94.09</ele>
        <time>2022-05-23T13:24:20.000Z</time>
      </trkpt>
      <trkpt lat="45.12749" lon="17.39284">
        <ele>95.09</ele>
        <time>2022-05-23T13:25:02.000Z</time>
      </trkpt>
      <trkpt lat="45.12758" lon="17.39283">
        <ele>95.47</ele>
        <time>2022-05-23T13:25:10.000Z</time>
      </trkpt>
      <trkpt lat="45.12756" lon="17.39298">
        <ele>96.31</ele>
        <time>2022-05-23T13:25:40.000Z</time>
      </trkpt>
      <trkpt lat="45.12759" lon="17.39323">
        <ele>96.37</ele>
        <time>2022-05-23T13:25:45.000Z</time>
      </trkpt>
      <trkpt lat="45.1276" lon="17.39349">
        <ele>95.8</ele>
        <time>2022-05-23T13:25:50.000Z</time>
      </trkpt>
      <trkpt lat="45.1276" lon="17.39377">
        <ele>97</ele>
        <time>2022-05-23T13:25:55.000Z</time>
      </trkpt>
      <trkpt lat="45.12758" lon="17.39407">
        <ele>97.88</ele>
        <time>2022-05-23T13:26:00.000Z</time>
      </trkpt>
      <trkpt lat="45.12751" lon="17.39434">
        <ele>94.67</ele>
        <time>2022-05-23T13:26:05.000Z</time>
      </trkpt>
      <trkpt lat="45.12747" lon="17.39462">
        <ele>93.42</ele>
        <time>2022-05-23T13:26:10.000Z</time>
      </trkpt>
      <trkpt lat="45.12744" lon="17.39492">
        <ele>91.51</ele>
        <time>2022-05-23T13:26:15.000Z</time>
      </trkpt>
      <trkpt lat="45.12738" lon="17.39524">
        <ele>90.88</ele>
        <time>2022-05-23T13:26:20.000Z</time>
      </trkpt>
      <trkpt lat="45.12732" lon="17.39554">
        <ele>90.19</ele>
        <time>2022-05-23T13:26:25.000Z</time>
      </trkpt>
      <trkpt lat="45.12727" lon="17.39585">
        <ele>91.59</ele>
        <time>2022-05-23T13:26:30.000Z</time>
      </trkpt>
      <trkpt lat="45.1272" lon="17.39619">
        <ele>91.53</ele>
        <time>2022-05-23T13:26:35.000Z</time>
      </trkpt>
      <trkpt lat="45.12717" lon="17.39649">
        <ele>91.38</ele>
        <time>2022-05-23T13:26:40.000Z</time>
      </trkpt>
      <trkpt lat="45.12714" lon="17.39684">
        <ele>92.17</ele>
        <time>2022-05-23T13:26:45.000Z</time>
      </trkpt>
      <trkpt lat="45.12715" lon="17.39716">
        <ele>92.1</ele>
        <time>2022-05-23T13:26:50.000Z</time>
      </trkpt>
      <trkpt lat="45.12722" lon="17.39746">
        <ele>91.73</ele>
        <time>2022-05-23T13:26:55.000Z</time>
      </trkpt>
      <trkpt lat="45.12732" lon="17.39779">
        <ele>92.55</ele>
        <time>2022-05-23T13:27:00.000Z</time>
      </trkpt>
      <trkpt lat="45.12743" lon="17.39807">
        <ele>92.84</ele>
        <time>2022-05-23T13:27:05.000Z</time>
      </trkpt>
      <trkpt lat="45.12755" lon="17.39838">
        <ele>93.18</ele>
        <time>2022-05-23T13:27:10.000Z</time>
      </trkpt>
      <trkpt lat="45.12767" lon="17.39868">
        <ele>92.17</ele>
        <time>2022-05-23T13:27:15.000Z</time>
      </trkpt>
      <trkpt lat="45.12777" lon="17.39895">
        <ele>91.8</ele>
        <time>2022-05-23T13:27:20.000Z</time>
      </trkpt>
      <trkpt lat="45.1279" lon="17.39924">
        <ele>91.32</ele>
        <time>2022-05-23T13:27:25.000Z</time>
      </trkpt>
      <trkpt lat="45.12801" lon="17.39954">
        <ele>90.16</ele>
        <time>2022-05-23T13:27:30.000Z</time>
      </trkpt>
      <trkpt lat="45.12814" lon="17.39983">
        <ele>88.63</ele>
        <time>2022-05-23T13:27:35.000Z</time>
      </trkpt>
      <trkpt lat="45.12828" lon="17.40014">
        <ele>88.73</ele>
        <time>2022-05-23T13:27:40.000Z</time>
      </trkpt>
      <trkpt lat="45.1284" lon="17.40044">
        <ele>87.69</ele>
        <time>2022-05-23T13:27:45.000Z</time>
      </trkpt>
      <trkpt lat="45.12853" lon="17.40073">
        <ele>87.26</ele>
        <time>2022-05-23T13:27:50.000Z</time>
      </trkpt>
      <trkpt lat="45.12867" lon="17.401">
        <ele>88.25</ele>
        <time>2022-05-23T13:27:55.000Z</time>
      </trkpt>
      <trkpt lat="45.12876" lon="17.40126">
        <ele>89.47</ele>
        <time>2022-05-23T13:28:00.000Z</time>
      </trkpt>
      <trkpt lat="45.12887" lon="17.40151">
        <ele>90.15</ele>
        <time>2022-05-23T13:28:05.000Z</time>
      </trkpt>
      <trkpt lat="45.12896" lon="17.40178">
        <ele>90.58</ele>
        <time>2022-05-23T13:28:10.000Z</time>
      </trkpt>
      <trkpt lat="45.129" lon="17.40206">
        <ele>90.91</ele>
        <time>2022-05-23T13:28:15.000Z</time>
      </trkpt>
      <trkpt lat="45.12905" lon="17.40236">
        <ele>91.29</ele>
        <time>2022-05-23T13:28:20.000Z</time>
      </trkpt>
      <trkpt lat="45.12912" lon="17.40265">
        <ele>90.37</ele>
        <time>2022-05-23T13:28:25.000Z</time>
      </trkpt>
      <trkpt lat="45.12916" lon="17.40297">
        <ele>89.53</ele>
        <time>2022-05-23T13:28:30.000Z</time>
      </trkpt>
      <trkpt lat="45.1292" lon="17.40327">
        <ele>89.4</ele>
        <time>2022-05-23T13:28:35.000Z</time>
      </trkpt>
      <trkpt lat="45.12925" lon="17.40359">
        <ele>87.97</ele>
        <time>2022-05-23T13:28:40.000Z</time>
      </trkpt>
      <trkpt lat="45.12929" lon="17.4039">
        <ele>86.52</ele>
        <time>2022-05-23T13:28:45.000Z</time>
      </trkpt>
      <trkpt lat="45.12937" lon="17.40424">
        <ele>86.36</ele>
        <time>2022-05-23T13:28:50.000Z</time>
      </trkpt>
      <trkpt lat="45.12945" lon="17.40454">
        <ele>87.02</ele>
        <time>2022-05-23T13:28:55.000Z</time>
      </trkpt>
      <trkpt lat="45.12949" lon="17.40487">
        <ele>87.33</ele>
        <time>2022-05-23T13:29:00.000Z</time>
      </trkpt>
      <trkpt lat="45.12953" lon="17.40517">
        <ele>86.49</ele>
        <time>2022-05-23T13:29:05.000Z</time>
      </trkpt>
      <trkpt lat="45.12956" lon="17.40546">
        <ele>86.47</ele>
        <time>2022-05-23T13:29:10.000Z</time>
      </trkpt>
      <trkpt lat="45.1296" lon="17.40574">
        <ele>87.79</ele>
        <time>2022-05-23T13:29:15.000Z</time>
      </trkpt>
      <trkpt lat="45.12964" lon="17.40592">
        <ele>88.2</ele>
        <time>2022-05-23T13:29:20.000Z</time>
      </trkpt>
      <trkpt lat="45.12964" lon="17.40606">
        <ele>87.26</ele>
        <time>2022-05-23T13:29:53.000Z</time>
      </trkpt>
      <trkpt lat="45.12963" lon="17.4063">
        <ele>87.89</ele>
        <time>2022-05-23T13:29:58.000Z</time>
      </trkpt>
      <trkpt lat="45.12957" lon="17.40658">
        <ele>88.44</ele>
        <time>2022-05-23T13:30:03.000Z</time>
      </trkpt>
      <trkpt lat="45.12949" lon="17.40686">
        <ele>88.97</ele>
        <time>2022-05-23T13:30:08.000Z</time>
      </trkpt>
      <trkpt lat="45.1294" lon="17.40715">
        <ele>88.44</ele>
        <time>2022-05-23T13:30:13.000Z</time>
      </trkpt>
      <trkpt lat="45.12934" lon="17.40743">
        <ele>90.5</ele>
        <time>2022-05-23T13:30:18.000Z</time>
      </trkpt>
      <trkpt lat="45.12928" lon="17.40772">
        <ele>91.7</ele>
        <time>2022-05-23T13:30:23.000Z</time>
      </trkpt>
      <trkpt lat="45.12922" lon="17.40801">
        <ele>91.99</ele>
        <time>2022-05-23T13:30:28.000Z</time>
      </trkpt>
      <trkpt lat="45.12917" lon="17.40831">
        <ele>91.74</ele>
        <time>2022-05-23T13:30:33.000Z</time>
      </trkpt>
      <trkpt lat="45.12914" lon="17.40858">
        <ele>91.35</ele>
        <time>2022-05-23T13:30:38.000Z</time>
      </trkpt>
      <trkpt lat="45.12912" lon="17.40887">
        <ele>90.39</ele>
        <time>2022-05-23T13:30:43.000Z</time>
      </trkpt>
      <trkpt lat="45.12924" lon="17.40916">
        <ele>92.94</ele>
        <time>2022-05-23T13:30:48.000Z</time>
      </trkpt>
      <trkpt lat="45.12937" lon="17.4094">
        <ele>94.3</ele>
        <time>2022-05-23T13:30:53.000Z</time>
      </trkpt>
      <trkpt lat="45.12948" lon="17.40968">
        <ele>94.5</ele>
        <time>2022-05-23T13:30:58.000Z</time>
      </trkpt>
      <trkpt lat="45.12954" lon="17.40996">
        <ele>93.46</ele>
        <time>2022-05-23T13:31:03.000Z</time>
      </trkpt>
      <trkpt lat="45.12962" lon="17.41023">
        <ele>93.04</ele>
        <time>2022-05-23T13:31:08.000Z</time>
      </trkpt>
      <trkpt lat="45.12971" lon="17.41051">
        <ele>92.81</ele>
        <time>2022-05-23T13:31:13.000Z</time>
      </trkpt>
      <trkpt lat="45.12978" lon="17.4108">
        <ele>93.2</ele>
        <time>2022-05-23T13:31:18.000Z</time>
      </trkpt>
      <trkpt lat="45.12986" lon="17.41109">
        <ele>93.35</ele>
        <time>2022-05-23T13:31:23.000Z</time>
      </trkpt>
      <trkpt lat="45.12993" lon="17.41138">
        <ele>94.58</ele>
        <time>2022-05-23T13:31:28.000Z</time>
      </trkpt>
      <trkpt lat="45.13" lon="17.4117">
        <ele>95.41</ele>
        <time>2022-05-23T13:31:33.000Z</time>
      </trkpt>
      <trkpt lat="45.13001" lon="17.41194">
        <ele>96</ele>
        <time>2022-05-23T13:31:38.000Z</time>
      </trkpt>
      <trkpt lat="45.12993" lon="17.41209">
        <ele>94.94</ele>
        <time>2022-05-23T13:31:43.000Z</time>
      </trkpt>
      <trkpt lat="45.12995" lon="17.41222">
        <ele>93.9</ele>
        <time>2022-05-23T13:33:14.000Z</time>
      </trkpt>
      <trkpt lat="45.13003" lon="17.41232">
        <ele>93.71</ele>
        <time>2022-05-23T13:33:19.000Z</time>
      </trkpt>
      <trkpt lat="45.13017" lon="17.41244">
        <ele>93.24</ele>
        <time>2022-05-23T13:33:24.000Z</time>
      </trkpt>
      <trkpt lat="45.13034" lon="17.41255">
        <ele>92.54</ele>
        <time>2022-05-23T13:33:29.000Z</time>
      </trkpt>
      <trkpt lat="45.13051" lon="17.41263">
        <ele>91.76</ele>
        <time>2022-05-23T13:33:34.000Z</time>
      </trkpt>
      <trkpt lat="45.13069" lon="17.41263">
        <ele>91.01</ele>
        <time>2022-05-23T13:33:39.000Z</time>
      </trkpt>
      <trkpt lat="45.13084" lon="17.41253">
        <ele>90.16</ele>
        <time>2022-05-23T13:33:44.000Z</time>
      </trkpt>
      <trkpt lat="45.13097" lon="17.41243">
        <ele>90.17</ele>
        <time>2022-05-23T13:33:49.000Z</time>
      </trkpt>
      <trkpt lat="45.13109" lon="17.4123">
        <ele>90.09</ele>
        <time>2022-05-23T13:33:54.000Z</time>
      </trkpt>
      <trkpt lat="45.13124" lon="17.41219">
        <ele>89.42</ele>
        <time>2022-05-23T13:33:59.000Z</time>
      </trkpt>
      <trkpt lat="45.13139" lon="17.41212">
        <ele>88.25</ele>
        <time>2022-05-23T13:34:04.000Z</time>
      </trkpt>
      <trkpt lat="45.1315" lon="17.41212">
        <ele>89.27</ele>
        <time>2022-05-23T13:34:09.000Z</time>
      </trkpt>
      <trkpt lat="45.13162" lon="17.41215">
        <ele>89.5</ele>
        <time>2022-05-23T13:34:14.000Z</time>
      </trkpt>
      <trkpt lat="45.1317" lon="17.41228">
        <ele>90.41</ele>
        <time>2022-05-23T13:34:19.000Z</time>
      </trkpt>
      <trkpt lat="45.13172" lon="17.41243">
        <ele>93.57</ele>
        <time>2022-05-23T13:34:24.000Z</time>
      </trkpt>
      <trkpt lat="45.1317" lon="17.41257">
        <ele>96.5</ele>
        <time>2022-05-23T13:34:30.000Z</time>
      </trkpt>
      <trkpt lat="45.13168" lon="17.4127">
        <ele>97.68</ele>
        <time>2022-05-23T13:34:35.000Z</time>
      </trkpt>
      <trkpt lat="45.13165" lon="17.41286">
        <ele>96.86</ele>
        <time>2022-05-23T13:34:40.000Z</time>
      </trkpt>
      <trkpt lat="45.1316" lon="17.41303">
        <ele>96.37</ele>
        <time>2022-05-23T13:34:45.000Z</time>
      </trkpt>
      <trkpt lat="45.13158" lon="17.41324">
        <ele>95.85</ele>
        <time>2022-05-23T13:34:50.000Z</time>
      </trkpt>
      <trkpt lat="45.13155" lon="17.41346">
        <ele>96.42</ele>
        <time>2022-05-23T13:34:55.000Z</time>
      </trkpt>
      <trkpt lat="45.13151" lon="17.41372">
        <ele>97.46</ele>
        <time>2022-05-23T13:35:00.000Z</time>
      </trkpt>
      <trkpt lat="45.13147" lon="17.41398">
        <ele>97.76</ele>
        <time>2022-05-23T13:35:05.000Z</time>
      </trkpt>
      <trkpt lat="45.13143" lon="17.41424">
        <ele>98.03</ele>
        <time>2022-05-23T13:35:10.000Z</time>
      </trkpt>
      <trkpt lat="45.13138" lon="17.41453">
        <ele>97.88</ele>
        <time>2022-05-23T13:35:15.000Z</time>
      </trkpt>
      <trkpt lat="45.13135" lon="17.41481">
        <ele>97.2</ele>
        <time>2022-05-23T13:35:20.000Z</time>
      </trkpt>
      <trkpt lat="45.1313" lon="17.41511">
        <ele>96.95</ele>
        <time>2022-05-23T13:35:25.000Z</time>
      </trkpt>
      <trkpt lat="45.13125" lon="17.41542">
        <ele>97.3</ele>
        <time>2022-05-23T13:35:30.000Z</time>
      </trkpt>
      <trkpt lat="45.1312" lon="17.41572">
        <ele>97.49</ele>
        <time>2022-05-23T13:35:35.000Z</time>
      </trkpt>
      <trkpt lat="45.13114" lon="17.41601">
        <ele>97.34</ele>
        <time>2022-05-23T13:35:40.000Z</time>
      </trkpt>
      <trkpt lat="45.1311" lon="17.41632">
        <ele>96.78</ele>
        <time>2022-05-23T13:35:45.000Z</time>
      </trkpt>
      <trkpt lat="45.13105" lon="17.41658">
        <ele>96.15</ele>
        <time>2022-05-23T13:35:50.000Z</time>
      </trkpt>
      <trkpt lat="45.13099" lon="17.4169">
        <ele>96.7</ele>
        <time>2022-05-23T13:35:55.000Z</time>
      </trkpt>
      <trkpt lat="45.13094" lon="17.4172">
        <ele>95.93</ele>
        <time>2022-05-23T13:36:00.000Z</time>
      </trkpt>
      <trkpt lat="45.13088" lon="17.41752">
        <ele>94.87</ele>
        <time>2022-05-23T13:36:05.000Z</time>
      </trkpt>
      <trkpt lat="45.13082" lon="17.41781">
        <ele>92.78</ele>
        <time>2022-05-23T13:36:10.000Z</time>
      </trkpt>
      <trkpt lat="45.13077" lon="17.41812">
        <ele>92.41</ele>
        <time>2022-05-23T13:36:15.000Z</time>
      </trkpt>
      <trkpt lat="45.1307" lon="17.41842">
        <ele>92.07</ele>
        <time>2022-05-23T13:36:20.000Z</time>
      </trkpt>
      <trkpt lat="45.13067" lon="17.41869">
        <ele>93.3</ele>
        <time>2022-05-23T13:36:25.000Z</time>
      </trkpt>
      <trkpt lat="45.13061" lon="17.41897">
        <ele>93.99</ele>
        <time>2022-05-23T13:36:30.000Z</time>
      </trkpt>
      <trkpt lat="45.13057" lon="17.41921">
        <ele>94.15</ele>
        <time>2022-05-23T13:36:35.000Z</time>
      </trkpt>
      <trkpt lat="45.13054" lon="17.41944">
        <ele>93.68</ele>
        <time>2022-05-23T13:36:40.000Z</time>
      </trkpt>
      <trkpt lat="45.13049" lon="17.41969">
        <ele>93.64</ele>
        <time>2022-05-23T13:36:45.000Z</time>
      </trkpt>
      <trkpt lat="45.13044" lon="17.41998">
        <ele>93.49</ele>
        <time>2022-05-23T13:36:50.000Z</time>
      </trkpt>
      <trkpt lat="45.13041" lon="17.42024">
        <ele>93.12</ele>
        <time>2022-05-23T13:36:55.000Z</time>
      </trkpt>
      <trkpt lat="45.13037" lon="17.42049">
        <ele>92.94</ele>
        <time>2022-05-23T13:37:00.000Z</time>
      </trkpt>
      <trkpt lat="45.13032" lon="17.42076">
        <ele>93.18</ele>
        <time>2022-05-23T13:37:05.000Z</time>
      </trkpt>
      <trkpt lat="45.13027" lon="17.42104">
        <ele>92.9</ele>
        <time>2022-05-23T13:37:10.000Z</time>
      </trkpt>
      <trkpt lat="45.13023" lon="17.42131">
        <ele>93.29</ele>
        <time>2022-05-23T13:37:15.000Z</time>
      </trkpt>
      <trkpt lat="45.13018" lon="17.42161">
        <ele>94.49</ele>
        <time>2022-05-23T13:37:20.000Z</time>
      </trkpt>
      <trkpt lat="45.13013" lon="17.42188">
        <ele>94.3</ele>
        <time>2022-05-23T13:37:25.000Z</time>
      </trkpt>
      <trkpt lat="45.13009" lon="17.42215">
        <ele>94.22</ele>
        <time>2022-05-23T13:37:30.000Z</time>
      </trkpt>
      <trkpt lat="45.13006" lon="17.42241">
        <ele>94.1</ele>
        <time>2022-05-23T13:37:35.000Z</time>
      </trkpt>
      <trkpt lat="45.13001" lon="17.42269">
        <ele>93.7</ele>
        <time>2022-05-23T13:37:40.000Z</time>
      </trkpt>
      <trkpt lat="45.12996" lon="17.42296">
        <ele>93.9</ele>
        <time>2022-05-23T13:37:45.000Z</time>
      </trkpt>
      <trkpt lat="45.12991" lon="17.42322">
        <ele>93.87</ele>
        <time>2022-05-23T13:37:50.000Z</time>
      </trkpt>
      <trkpt lat="45.12985" lon="17.42347">
        <ele>93.83</ele>
        <time>2022-05-23T13:37:55.000Z</time>
      </trkpt>
      <trkpt lat="45.1298" lon="17.42371">
        <ele>92.69</ele>
        <time>2022-05-23T13:38:00.000Z</time>
      </trkpt>
      <trkpt lat="45.12977" lon="17.42383">
        <ele>91.87</ele>
        <time>2022-05-23T13:38:05.000Z</time>
      </trkpt>
      <trkpt lat="45.12975" lon="17.42397">
        <ele>92.37</ele>
        <time>2022-05-23T13:39:29.000Z</time>
      </trkpt>
      <trkpt lat="45.12974" lon="17.42413">
        <ele>92.32</ele>
        <time>2022-05-23T13:39:34.000Z</time>
      </trkpt>
      <trkpt lat="45.12971" lon="17.42437">
        <ele>92.51</ele>
        <time>2022-05-23T13:39:39.000Z</time>
      </trkpt>
      <trkpt lat="45.12965" lon="17.42467">
        <ele>92.28</ele>
        <time>2022-05-23T13:39:44.000Z</time>
      </trkpt>
      <trkpt lat="45.1296" lon="17.42499">
        <ele>92.92</ele>
        <time>2022-05-23T13:39:49.000Z</time>
      </trkpt>
      <trkpt lat="45.12954" lon="17.42528">
        <ele>92.88</ele>
        <time>2022-05-23T13:39:54.000Z</time>
      </trkpt>
      <trkpt lat="45.12949" lon="17.42556">
        <ele>92.22</ele>
        <time>2022-05-23T13:39:59.000Z</time>
      </trkpt>
      <trkpt lat="45.12943" lon="17.42582">
        <ele>91.38</ele>
        <time>2022-05-23T13:40:04.000Z</time>
      </trkpt>
      <trkpt lat="45.12938" lon="17.42612">
        <ele>91.47</ele>
        <time>2022-05-23T13:40:09.000Z</time>
      </trkpt>
      <trkpt lat="45.12932" lon="17.42643">
        <ele>91.6</ele>
        <time>2022-05-23T13:40:14.000Z</time>
      </trkpt>
      <trkpt lat="45.12927" lon="17.42673">
        <ele>92.37</ele>
        <time>2022-05-23T13:40:19.000Z</time>
      </trkpt>
      <trkpt lat="45.12922" lon="17.42696">
        <ele>93.14</ele>
        <time>2022-05-23T13:40:24.000Z</time>
      </trkpt>
      <trkpt lat="45.12918" lon="17.42719">
        <ele>93.68</ele>
        <time>2022-05-23T13:40:29.000Z</time>
      </trkpt>
      <trkpt lat="45.12913" lon="17.42744">
        <ele>93.51</ele>
        <time>2022-05-23T13:40:34.000Z</time>
      </trkpt>
      <trkpt lat="45.12908" lon="17.42766">
        <ele>93.7</ele>
        <time>2022-05-23T13:40:39.000Z</time>
      </trkpt>
      <trkpt lat="45.12903" lon="17.4279">
        <ele>94.77</ele>
        <time>2022-05-23T13:40:44.000Z</time>
      </trkpt>
      <trkpt lat="45.12896" lon="17.42815">
        <ele>94.7</ele>
        <time>2022-05-23T13:40:49.000Z</time>
      </trkpt>
      <trkpt lat="45.12886" lon="17.42842">
        <ele>94.6</ele>
        <time>2022-05-23T13:40:54.000Z</time>
      </trkpt>
      <trkpt lat="45.12876" lon="17.4287">
        <ele>94.79</ele>
        <time>2022-05-23T13:40:59.000Z</time>
      </trkpt>
      <trkpt lat="45.12867" lon="17.42894">
        <ele>93.36</ele>
        <time>2022-05-23T13:41:04.000Z</time>
      </trkpt>
      <trkpt lat="45.12857" lon="17.4292">
        <ele>91.51</ele>
        <time>2022-05-23T13:41:09.000Z</time>
      </trkpt>
      <trkpt lat="45.12847" lon="17.42947">
        <ele>91.75</ele>
        <time>2022-05-23T13:41:14.000Z</time>
      </trkpt>
      <trkpt lat="45.12836" lon="17.42973">
        <ele>92.7</ele>
        <time>2022-05-23T13:41:19.000Z</time>
      </trkpt>
      <trkpt lat="45.12825" lon="17.42998">
        <ele>92.75</ele>
        <time>2022-05-23T13:41:24.000Z</time>
      </trkpt>
      <trkpt lat="45.12814" lon="17.43024">
        <ele>91.3</ele>
        <time>2022-05-23T13:41:29.000Z</time>
      </trkpt>
      <trkpt lat="45.12804" lon="17.43047">
        <ele>90.53</ele>
        <time>2022-05-23T13:41:34.000Z</time>
      </trkpt>
      <trkpt lat="45.12791" lon="17.43071">
        <ele>89.79</ele>
        <time>2022-05-23T13:41:39.000Z</time>
      </trkpt>
      <trkpt lat="45.12777" lon="17.43095">
        <ele>88.26</ele>
        <time>2022-05-23T13:41:44.000Z</time>
      </trkpt>
      <trkpt lat="45.12763" lon="17.43119">
        <ele>88.06</ele>
        <time>2022-05-23T13:41:49.000Z</time>
      </trkpt>
      <trkpt lat="45.12748" lon="17.43141">
        <ele>88.1</ele>
        <time>2022-05-23T13:41:54.000Z</time>
      </trkpt>
      <trkpt lat="45.12732" lon="17.43164">
        <ele>89.36</ele>
        <time>2022-05-23T13:41:59.000Z</time>
      </trkpt>
      <trkpt lat="45.12717" lon="17.43185">
        <ele>89.16</ele>
        <time>2022-05-23T13:42:04.000Z</time>
      </trkpt>
      <trkpt lat="45.12701" lon="17.43204">
        <ele>88.95</ele>
        <time>2022-05-23T13:42:09.000Z</time>
      </trkpt>
      <trkpt lat="45.12684" lon="17.43222">
        <ele>89.14</ele>
        <time>2022-05-23T13:42:14.000Z</time>
      </trkpt>
      <trkpt lat="45.12664" lon="17.43238">
        <ele>89.7</ele>
        <time>2022-05-23T13:42:19.000Z</time>
      </trkpt>
      <trkpt lat="45.12646" lon="17.43256">
        <ele>90.07</ele>
        <time>2022-05-23T13:42:24.000Z</time>
      </trkpt>
      <trkpt lat="45.12628" lon="17.43274">
        <ele>91.42</ele>
        <time>2022-05-23T13:42:29.000Z</time>
      </trkpt>
      <trkpt lat="45.1261" lon="17.43292">
        <ele>93.35</ele>
        <time>2022-05-23T13:42:34.000Z</time>
      </trkpt>
      <trkpt lat="45.12592" lon="17.43306">
        <ele>93.69</ele>
        <time>2022-05-23T13:42:39.000Z</time>
      </trkpt>
      <trkpt lat="45.12572" lon="17.43319">
        <ele>93.97</ele>
        <time>2022-05-23T13:42:44.000Z</time>
      </trkpt>
      <trkpt lat="45.12555" lon="17.43328">
        <ele>93.38</ele>
        <time>2022-05-23T13:42:49.000Z</time>
      </trkpt>
      <trkpt lat="45.12536" lon="17.43338">
        <ele>93.02</ele>
        <time>2022-05-23T13:42:54.000Z</time>
      </trkpt>
      <trkpt lat="45.12518" lon="17.43346">
        <ele>92.4</ele>
        <time>2022-05-23T13:42:59.000Z</time>
      </trkpt>
      <trkpt lat="45.12499" lon="17.43354">
        <ele>92.72</ele>
        <time>2022-05-23T13:43:04.000Z</time>
      </trkpt>
      <trkpt lat="45.12481" lon="17.43359">
        <ele>93.29</ele>
        <time>2022-05-23T13:43:09.000Z</time>
      </trkpt>
      <trkpt lat="45.12461" lon="17.43365">
        <ele>94.3</ele>
        <time>2022-05-23T13:43:14.000Z</time>
      </trkpt>
      <trkpt lat="45.12441" lon="17.4337">
        <ele>94.28</ele>
        <time>2022-05-23T13:43:19.000Z</time>
      </trkpt>
      <trkpt lat="45.12421" lon="17.43372">
        <ele>94.32</ele>
        <time>2022-05-23T13:43:24.000Z</time>
      </trkpt>
      <trkpt lat="45.12403" lon="17.43378">
        <ele>95.17</ele>
        <time>2022-05-23T13:43:29.000Z</time>
      </trkpt>
      <trkpt lat="45.12385" lon="17.43388">
        <ele>94.2</ele>
        <time>2022-05-23T13:43:34.000Z</time>
      </trkpt>
      <trkpt lat="45.12375" lon="17.43385">
        <ele>93.2</ele>
        <time>2022-05-23T13:44:56.000Z</time>
      </trkpt>
      <trkpt lat="45.12359" lon="17.43377">
        <ele>92.73</ele>
        <time>2022-05-23T13:45:01.000Z</time>
      </trkpt>
      <trkpt lat="45.1234" lon="17.43373">
        <ele>92.13</ele>
        <time>2022-05-23T13:45:06.000Z</time>
      </trkpt>
      <trkpt lat="45.12322" lon="17.43369">
        <ele>91.27</ele>
        <time>2022-05-23T13:45:11.000Z</time>
      </trkpt>
      <trkpt lat="45.12307" lon="17.43367">
        <ele>91.2</ele>
        <time>2022-05-23T13:45:16.000Z</time>
      </trkpt>
      <trkpt lat="45.12294" lon="17.43363">
        <ele>91.18</ele>
        <time>2022-05-23T13:45:21.000Z</time>
      </trkpt>
      <trkpt lat="45.12283" lon="17.43363">
        <ele>91.12</ele>
        <time>2022-05-23T13:45:37.000Z</time>
      </trkpt>
      <trkpt lat="45.12293" lon="17.43365">
        <ele>91.42</ele>
        <time>2022-05-23T13:46:32.000Z</time>
      </trkpt>
      <trkpt lat="45.12303" lon="17.4337">
        <ele>92.22</ele>
        <time>2022-05-23T13:46:46.000Z</time>
      </trkpt>
      <trkpt lat="45.12315" lon="17.43371">
        <ele>91.83</ele>
        <time>2022-05-23T13:46:51.000Z</time>
      </trkpt>
      <trkpt lat="45.12332" lon="17.43371">
        <ele>90.26</ele>
        <time>2022-05-23T13:46:56.000Z</time>
      </trkpt>
      <trkpt lat="45.1235" lon="17.43373">
        <ele>90.86</ele>
        <time>2022-05-23T13:47:01.000Z</time>
      </trkpt>
      <trkpt lat="45.12366" lon="17.43384">
        <ele>92.27</ele>
        <time>2022-05-23T13:47:06.000Z</time>
      </trkpt>
      <trkpt lat="45.12369" lon="17.434">
        <ele>94.76</ele>
        <time>2022-05-23T13:47:11.000Z</time>
      </trkpt>
      <trkpt lat="45.12362" lon="17.43417">
        <ele>95.33</ele>
        <time>2022-05-23T13:47:16.000Z</time>
      </trkpt>
      <trkpt lat="45.12353" lon="17.43435">
        <ele>96.61</ele>
        <time>2022-05-23T13:47:21.000Z</time>
      </trkpt>
      <trkpt lat="45.12347" lon="17.43455">
        <ele>98.03</ele>
        <time>2022-05-23T13:47:26.000Z</time>
      </trkpt>
      <trkpt lat="45.12339" lon="17.43478">
        <ele>98.85</ele>
        <time>2022-05-23T13:47:31.000Z</time>
      </trkpt>
      <trkpt lat="45.12332" lon="17.43499">
        <ele>99.7</ele>
        <time>2022-05-23T13:47:36.000Z</time>
      </trkpt>
      <trkpt lat="45.12325" lon="17.43518">
        <ele>99.3</ele>
        <time>2022-05-23T13:47:41.000Z</time>
      </trkpt>
      <trkpt lat="45.12319" lon="17.43538">
        <ele>99.16</ele>
        <time>2022-05-23T13:47:46.000Z</time>
      </trkpt>
      <trkpt lat="45.12316" lon="17.43555">
        <ele>98.36</ele>
        <time>2022-05-23T13:47:51.000Z</time>
      </trkpt>
      <trkpt lat="45.1231" lon="17.43566">
        <ele>96.84</ele>
        <time>2022-05-23T13:47:56.000Z</time>
      </trkpt>
      <trkpt lat="45.12299" lon="17.4357">
        <ele>94.77</ele>
        <time>2022-05-23T13:48:11.000Z</time>
      </trkpt>
      <trkpt lat="45.12283" lon="17.43566">
        <ele>94.24</ele>
        <time>2022-05-23T13:48:16.000Z</time>
      </trkpt>
      <trkpt lat="45.12265" lon="17.43561">
        <ele>93.62</ele>
        <time>2022-05-23T13:48:21.000Z</time>
      </trkpt>
      <trkpt lat="45.12247" lon="17.43554">
        <ele>94.39</ele>
        <time>2022-05-23T13:48:26.000Z</time>
      </trkpt>
      <trkpt lat="45.12229" lon="17.43554">
        <ele>94.24</ele>
        <time>2022-05-23T13:48:31.000Z</time>
      </trkpt>
      <trkpt lat="45.12209" lon="17.43554">
        <ele>94.35</ele>
        <time>2022-05-23T13:48:36.000Z</time>
      </trkpt>
      <trkpt lat="45.1219" lon="17.4355">
        <ele>94.65</ele>
        <time>2022-05-23T13:48:41.000Z</time>
      </trkpt>
      <trkpt lat="45.12169" lon="17.43549">
        <ele>93.6</ele>
        <time>2022-05-23T13:48:46.000Z</time>
      </trkpt>
      <trkpt lat="45.12147" lon="17.43548">
        <ele>92.92</ele>
        <time>2022-05-23T13:48:51.000Z</time>
      </trkpt>
      <trkpt lat="45.12126" lon="17.43547">
        <ele>92.49</ele>
        <time>2022-05-23T13:48:56.000Z</time>
      </trkpt>
      <trkpt lat="45.12105" lon="17.43546">
        <ele>92.32</ele>
        <time>2022-05-23T13:49:01.000Z</time>
      </trkpt>
      <trkpt lat="45.12085" lon="17.43545">
        <ele>93.54</ele>
        <time>2022-05-23T13:49:06.000Z</time>
      </trkpt>
      <trkpt lat="45.12065" lon="17.43543">
        <ele>93.65</ele>
        <time>2022-05-23T13:49:11.000Z</time>
      </trkpt>
      <trkpt lat="45.12046" lon="17.43543">
        <ele>93.52</ele>
        <time>2022-05-23T13:49:16.000Z</time>
      </trkpt>
      <trkpt lat="45.12026" lon="17.43542">
        <ele>93.81</ele>
        <time>2022-05-23T13:49:21.000Z</time>
      </trkpt>
      <trkpt lat="45.12006" lon="17.43541">
        <ele>93.77</ele>
        <time>2022-05-23T13:49:26.000Z</time>
      </trkpt>
      <trkpt lat="45.11985" lon="17.43544">
        <ele>94.19</ele>
        <time>2022-05-23T13:49:31.000Z</time>
      </trkpt>
      <trkpt lat="45.11964" lon="17.43542">
        <ele>93.94</ele>
        <time>2022-05-23T13:49:36.000Z</time>
      </trkpt>
      <trkpt lat="45.11947" lon="17.43538">
        <ele>93.95</ele>
        <time>2022-05-23T13:49:41.000Z</time>
      </trkpt>
      <trkpt lat="45.11928" lon="17.43536">
        <ele>94.08</ele>
        <time>2022-05-23T13:49:46.000Z</time>
      </trkpt>
      <trkpt lat="45.11909" lon="17.43533">
        <ele>93.98</ele>
        <time>2022-05-23T13:49:51.000Z</time>
      </trkpt>
      <trkpt lat="45.11893" lon="17.43528">
        <ele>94.76</ele>
        <time>2022-05-23T13:49:56.000Z</time>
      </trkpt>
      <trkpt lat="45.11875" lon="17.4352">
        <ele>94.72</ele>
        <time>2022-05-23T13:50:01.000Z</time>
      </trkpt>
      <trkpt lat="45.11857" lon="17.4351">
        <ele>95.76</ele>
        <time>2022-05-23T13:50:06.000Z</time>
      </trkpt>
      <trkpt lat="45.1184" lon="17.43497">
        <ele>96.67</ele>
        <time>2022-05-23T13:50:11.000Z</time>
      </trkpt>
      <trkpt lat="45.11823" lon="17.43479">
        <ele>99.04</ele>
        <time>2022-05-23T13:50:16.000Z</time>
      </trkpt>
      <trkpt lat="45.11808" lon="17.43459">
        <ele>99.6</ele>
        <time>2022-05-23T13:50:21.000Z</time>
      </trkpt>
      <trkpt lat="45.11795" lon="17.43435">
        <ele>99.89</ele>
        <time>2022-05-23T13:50:26.000Z</time>
      </trkpt>
      <trkpt lat="45.11786" lon="17.43412">
        <ele>99.84</ele>
        <time>2022-05-23T13:50:31.000Z</time>
      </trkpt>
      <trkpt lat="45.11776" lon="17.43391">
        <ele>100.66</ele>
        <time>2022-05-23T13:50:36.000Z</time>
      </trkpt>
      <trkpt lat="45.11764" lon="17.43378">
        <ele>102.16</ele>
        <time>2022-05-23T13:50:41.000Z</time>
      </trkpt>
      <trkpt lat="45.11753" lon="17.43357">
        <ele>102.98</ele>
        <time>2022-05-23T13:50:46.000Z</time>
      </trkpt>
      <trkpt lat="45.1174" lon="17.4333">
        <ele>102.93</ele>
        <time>2022-05-23T13:50:51.000Z</time>
      </trkpt>
      <trkpt lat="45.11728" lon="17.43301">
        <ele>102.97</ele>
        <time>2022-05-23T13:50:56.000Z</time>
      </trkpt>
      <trkpt lat="45.11715" lon="17.43275">
        <ele>103.95</ele>
        <time>2022-05-23T13:51:01.000Z</time>
      </trkpt>
      <trkpt lat="45.11703" lon="17.43253">
        <ele>103.55</ele>
        <time>2022-05-23T13:51:06.000Z</time>
      </trkpt>
      <trkpt lat="45.1169" lon="17.43226">
        <ele>104.23</ele>
        <time>2022-05-23T13:51:11.000Z</time>
      </trkpt>
      <trkpt lat="45.11677" lon="17.432">
        <ele>104.86</ele>
        <time>2022-05-23T13:51:16.000Z</time>
      </trkpt>
      <trkpt lat="45.11665" lon="17.43173">
        <ele>102.08</ele>
        <time>2022-05-23T13:51:21.000Z</time>
      </trkpt>
      <trkpt lat="45.1165" lon="17.43144">
        <ele>101.85</ele>
        <time>2022-05-23T13:51:26.000Z</time>
      </trkpt>
      <trkpt lat="45.11636" lon="17.43117">
        <ele>102.31</ele>
        <time>2022-05-23T13:51:31.000Z</time>
      </trkpt>
      <trkpt lat="45.11622" lon="17.43093">
        <ele>103.36</ele>
        <time>2022-05-23T13:51:36.000Z</time>
      </trkpt>
      <trkpt lat="45.11609" lon="17.43069">
        <ele>105.27</ele>
        <time>2022-05-23T13:51:41.000Z</time>
      </trkpt>
      <trkpt lat="45.11596" lon="17.43042">
        <ele>108.04</ele>
        <time>2022-05-23T13:51:46.000Z</time>
      </trkpt>
      <trkpt lat="45.11581" lon="17.43017">
        <ele>109.59</ele>
        <time>2022-05-23T13:51:51.000Z</time>
      </trkpt>
      <trkpt lat="45.11568" lon="17.42994">
        <ele>109.83</ele>
        <time>2022-05-23T13:51:56.000Z</time>
      </trkpt>
      <trkpt lat="45.11556" lon="17.42969">
        <ele>108.48</ele>
        <time>2022-05-23T13:52:01.000Z</time>
      </trkpt>
      <trkpt lat="45.11546" lon="17.42939">
        <ele>104.73</ele>
        <time>2022-05-23T13:52:06.000Z</time>
      </trkpt>
      <trkpt lat="45.11533" lon="17.42916">
        <ele>102.33</ele>
        <time>2022-05-23T13:52:11.000Z</time>
      </trkpt>
      <trkpt lat="45.11523" lon="17.42892">
        <ele>99.77</ele>
        <time>2022-05-23T13:52:16.000Z</time>
      </trkpt>
      <trkpt lat="45.11512" lon="17.42869">
        <ele>98.08</ele>
        <time>2022-05-23T13:52:21.000Z</time>
      </trkpt>
      <trkpt lat="45.11499" lon="17.42851">
        <ele>97.41</ele>
        <time>2022-05-23T13:52:26.000Z</time>
      </trkpt>
      <trkpt lat="45.11488" lon="17.42832">
        <ele>98.04</ele>
        <time>2022-05-23T13:52:31.000Z</time>
      </trkpt>
      <trkpt lat="45.11477" lon="17.42809">
        <ele>98.09</ele>
        <time>2022-05-23T13:52:36.000Z</time>
      </trkpt>
      <trkpt lat="45.11465" lon="17.42787">
        <ele>98.44</ele>
        <time>2022-05-23T13:52:41.000Z</time>
      </trkpt>
      <trkpt lat="45.1145" lon="17.42766">
        <ele>99.8</ele>
        <time>2022-05-23T13:52:46.000Z</time>
      </trkpt>
      <trkpt lat="45.11437" lon="17.42747">
        <ele>99.25</ele>
        <time>2022-05-23T13:52:51.000Z</time>
      </trkpt>
      <trkpt lat="45.1142" lon="17.42729">
        <ele>98.09</ele>
        <time>2022-05-23T13:52:56.000Z</time>
      </trkpt>
      <trkpt lat="45.11403" lon="17.42714">
        <ele>97.63</ele>
        <time>2022-05-23T13:53:01.000Z</time>
      </trkpt>
      <trkpt lat="45.11386" lon="17.427">
        <ele>96.59</ele>
        <time>2022-05-23T13:53:06.000Z</time>
      </trkpt>
      <trkpt lat="45.11367" lon="17.42691">
        <ele>95.36</ele>
        <time>2022-05-23T13:53:11.000Z</time>
      </trkpt>
      <trkpt lat="45.11347" lon="17.42684">
        <ele>95.01</ele>
        <time>2022-05-23T13:53:16.000Z</time>
      </trkpt>
      <trkpt lat="45.11327" lon="17.42677">
        <ele>95.1</ele>
        <time>2022-05-23T13:53:21.000Z</time>
      </trkpt>
      <trkpt lat="45.11309" lon="17.42674">
        <ele>94.87</ele>
        <time>2022-05-23T13:53:26.000Z</time>
      </trkpt>
      <trkpt lat="45.1129" lon="17.42672">
        <ele>94.59</ele>
        <time>2022-05-23T13:53:31.000Z</time>
      </trkpt>
      <trkpt lat="45.11271" lon="17.4267">
        <ele>95.08</ele>
        <time>2022-05-23T13:53:36.000Z</time>
      </trkpt>
      <trkpt lat="45.11253" lon="17.42668">
        <ele>96.57</ele>
        <time>2022-05-23T13:53:41.000Z</time>
      </trkpt>
      <trkpt lat="45.11234" lon="17.42668">
        <ele>96.08</ele>
        <time>2022-05-23T13:53:46.000Z</time>
      </trkpt>
      <trkpt lat="45.11213" lon="17.42668">
        <ele>95.05</ele>
        <time>2022-05-23T13:53:51.000Z</time>
      </trkpt>
      <trkpt lat="45.11193" lon="17.42666">
        <ele>94.99</ele>
        <time>2022-05-23T13:53:56.000Z</time>
      </trkpt>
      <trkpt lat="45.11172" lon="17.42663">
        <ele>95.31</ele>
        <time>2022-05-23T13:54:01.000Z</time>
      </trkpt>
      <trkpt lat="45.11151" lon="17.42661">
        <ele>95.14</ele>
        <time>2022-05-23T13:54:06.000Z</time>
      </trkpt>
      <trkpt lat="45.11131" lon="17.42659">
        <ele>94.54</ele>
        <time>2022-05-23T13:54:11.000Z</time>
      </trkpt>
      <trkpt lat="45.11112" lon="17.42657">
        <ele>93.28</ele>
        <time>2022-05-23T13:54:16.000Z</time>
      </trkpt>
      <trkpt lat="45.11095" lon="17.4266">
        <ele>92.7</ele>
        <time>2022-05-23T13:54:21.000Z</time>
      </trkpt>
      <trkpt lat="45.11078" lon="17.4266">
        <ele>92.96</ele>
        <time>2022-05-23T13:54:26.000Z</time>
      </trkpt>
      <trkpt lat="45.1106" lon="17.4266">
        <ele>92.47</ele>
        <time>2022-05-23T13:54:31.000Z</time>
      </trkpt>
      <trkpt lat="45.11042" lon="17.42659">
        <ele>92.48</ele>
        <time>2022-05-23T13:54:36.000Z</time>
      </trkpt>
      <trkpt lat="45.11022" lon="17.4266">
        <ele>92.63</ele>
        <time>2022-05-23T13:54:41.000Z</time>
      </trkpt>
      <trkpt lat="45.11001" lon="17.4266">
        <ele>92.73</ele>
        <time>2022-05-23T13:54:46.000Z</time>
      </trkpt>
      <trkpt lat="45.10979" lon="17.4266">
        <ele>93.03</ele>
        <time>2022-05-23T13:54:51.000Z</time>
      </trkpt>
      <trkpt lat="45.10957" lon="17.4266">
        <ele>93.56</ele>
        <time>2022-05-23T13:54:56.000Z</time>
      </trkpt>
      <trkpt lat="45.10937" lon="17.4266">
        <ele>93.8</ele>
        <time>2022-05-23T13:55:01.000Z</time>
      </trkpt>
      <trkpt lat="45.10917" lon="17.42659">
        <ele>93.92</ele>
        <time>2022-05-23T13:55:06.000Z</time>
      </trkpt>
      <trkpt lat="45.10896" lon="17.42659">
        <ele>93.62</ele>
        <time>2022-05-23T13:55:11.000Z</time>
      </trkpt>
      <trkpt lat="45.10876" lon="17.42658">
        <ele>93.95</ele>
        <time>2022-05-23T13:55:16.000Z</time>
      </trkpt>
      <trkpt lat="45.10855" lon="17.42657">
        <ele>93.29</ele>
        <time>2022-05-23T13:55:21.000Z</time>
      </trkpt>
      <trkpt lat="45.10833" lon="17.42656">
        <ele>93.47</ele>
        <time>2022-05-23T13:55:26.000Z</time>
      </trkpt>
      <trkpt lat="45.10814" lon="17.42653">
        <ele>93.54</ele>
        <time>2022-05-23T13:55:31.000Z</time>
      </trkpt>
      <trkpt lat="45.10794" lon="17.4265">
        <ele>94.13</ele>
        <time>2022-05-23T13:55:36.000Z</time>
      </trkpt>
      <trkpt lat="45.10774" lon="17.42647">
        <ele>95.19</ele>
        <time>2022-05-23T13:55:41.000Z</time>
      </trkpt>
      <trkpt lat="45.10755" lon="17.42639">
        <ele>96.03</ele>
        <time>2022-05-23T13:55:46.000Z</time>
      </trkpt>
      <trkpt lat="45.10736" lon="17.42628">
        <ele>98.06</ele>
        <time>2022-05-23T13:55:51.000Z</time>
      </trkpt>
      <trkpt lat="45.10719" lon="17.42621">
        <ele>100.13</ele>
        <time>2022-05-23T13:55:56.000Z</time>
      </trkpt>
      <trkpt lat="45.10715" lon="17.42636">
        <ele>88.4</ele>
        <time>2022-05-23T13:59:49.000Z</time>
      </trkpt>
      <trkpt lat="45.10708" lon="17.42656">
        <ele>88.69</ele>
        <time>2022-05-23T13:59:54.000Z</time>
      </trkpt>
      <trkpt lat="45.10698" lon="17.42678">
        <ele>88.7</ele>
        <time>2022-05-23T13:59:59.000Z</time>
      </trkpt>
      <trkpt lat="45.10686" lon="17.42706">
        <ele>88.85</ele>
        <time>2022-05-23T14:00:04.000Z</time>
      </trkpt>
      <trkpt lat="45.10673" lon="17.42731">
        <ele>90.19</ele>
        <time>2022-05-23T14:00:09.000Z</time>
      </trkpt>
      <trkpt lat="45.10657" lon="17.42751">
        <ele>90.68</ele>
        <time>2022-05-23T14:00:14.000Z</time>
      </trkpt>
      <trkpt lat="45.10643" lon="17.42769">
        <ele>91.33</ele>
        <time>2022-05-23T14:00:19.000Z</time>
      </trkpt>
      <trkpt lat="45.10627" lon="17.42781">
        <ele>91.7</ele>
        <time>2022-05-23T14:00:24.000Z</time>
      </trkpt>
      <trkpt lat="45.10612" lon="17.42795">
        <ele>92.05</ele>
        <time>2022-05-23T14:00:29.000Z</time>
      </trkpt>
      <trkpt lat="45.10597" lon="17.42806">
        <ele>92.81</ele>
        <time>2022-05-23T14:00:34.000Z</time>
      </trkpt>
      <trkpt lat="45.10584" lon="17.42815">
        <ele>93.36</ele>
        <time>2022-05-23T14:00:39.000Z</time>
      </trkpt>
      <trkpt lat="45.10568" lon="17.42823">
        <ele>92.57</ele>
        <time>2022-05-23T14:00:44.000Z</time>
      </trkpt>
      <trkpt lat="45.10552" lon="17.42831">
        <ele>91.98</ele>
        <time>2022-05-23T14:00:49.000Z</time>
      </trkpt>
      <trkpt lat="45.10534" lon="17.42839">
        <ele>91.71</ele>
        <time>2022-05-23T14:00:54.000Z</time>
      </trkpt>
      <trkpt lat="45.10514" lon="17.42848">
        <ele>91.09</ele>
        <time>2022-05-23T14:00:59.000Z</time>
      </trkpt>
      <trkpt lat="45.10497" lon="17.42857">
        <ele>90.97</ele>
        <time>2022-05-23T14:01:04.000Z</time>
      </trkpt>
      <trkpt lat="45.10478" lon="17.42868">
        <ele>91.36</ele>
        <time>2022-05-23T14:01:09.000Z</time>
      </trkpt>
      <trkpt lat="45.10465" lon="17.42878">
        <ele>91.99</ele>
        <time>2022-05-23T14:01:14.000Z</time>
      </trkpt>
      <trkpt lat="45.10456" lon="17.42882">
        <ele>92.89</ele>
        <time>2022-05-23T14:01:19.000Z</time>
      </trkpt>
      <trkpt lat="45.10447" lon="17.42885">
        <ele>92.36</ele>
        <time>2022-05-23T14:01:35.000Z</time>
      </trkpt>
      <trkpt lat="45.10431" lon="17.42893">
        <ele>90.78</ele>
        <time>2022-05-23T14:01:40.000Z</time>
      </trkpt>
      <trkpt lat="45.10414" lon="17.429">
        <ele>90.13</ele>
        <time>2022-05-23T14:01:45.000Z</time>
      </trkpt>
      <trkpt lat="45.104" lon="17.42905">
        <ele>89.56</ele>
        <time>2022-05-23T14:01:50.000Z</time>
      </trkpt>
      <trkpt lat="45.10387" lon="17.42912">
        <ele>90.01</ele>
        <time>2022-05-23T14:01:55.000Z</time>
      </trkpt>
      <trkpt lat="45.1037" lon="17.42915">
        <ele>88.38</ele>
        <time>2022-05-23T14:02:48.000Z</time>
      </trkpt>
      <trkpt lat="45.10379" lon="17.42915">
        <ele>85.33</ele>
        <time>2022-05-23T14:03:45.000Z</time>
      </trkpt>
      <trkpt lat="45.10368" lon="17.42915">
        <ele>85.28</ele>
        <time>2022-05-23T14:04:13.000Z</time>
      </trkpt>
      <trkpt lat="45.10358" lon="17.4292">
        <ele>85.68</ele>
        <time>2022-05-23T14:04:18.000Z</time>
      </trkpt>
      <trkpt lat="45.10343" lon="17.42926">
        <ele>86.74</ele>
        <time>2022-05-23T14:04:23.000Z</time>
      </trkpt>
      <trkpt lat="45.10332" lon="17.42936">
        <ele>87.93</ele>
        <time>2022-05-23T14:04:28.000Z</time>
      </trkpt>
      <trkpt lat="45.10316" lon="17.42944">
        <ele>89.55</ele>
        <time>2022-05-23T14:04:33.000Z</time>
      </trkpt>
      <trkpt lat="45.10302" lon="17.42951">
        <ele>91.31</ele>
        <time>2022-05-23T14:04:38.000Z</time>
      </trkpt>
      <trkpt lat="45.10291" lon="17.42955">
        <ele>91.42</ele>
        <time>2022-05-23T14:04:43.000Z</time>
      </trkpt>
      <trkpt lat="45.10299" lon="17.42947">
        <ele>92.44</ele>
        <time>2022-05-23T14:05:35.000Z</time>
      </trkpt>
      <trkpt lat="45.10308" lon="17.42942">
        <ele>92.51</ele>
        <time>2022-05-23T14:05:46.000Z</time>
      </trkpt>
      <trkpt lat="45.103" lon="17.42947">
        <ele>92.79</ele>
        <time>2022-05-23T14:07:03.000Z</time>
      </trkpt>
      <trkpt lat="45.10288" lon="17.42948">
        <ele>92.8</ele>
        <time>2022-05-23T14:07:09.000Z</time>
      </trkpt>
      <trkpt lat="45.10274" lon="17.42953">
        <ele>92.43</ele>
        <time>2022-05-23T14:07:14.000Z</time>
      </trkpt>
      <trkpt lat="45.10263" lon="17.42957">
        <ele>92.38</ele>
        <time>2022-05-23T14:07:19.000Z</time>
      </trkpt>
      <trkpt lat="45.10251" lon="17.42962">
        <ele>92.41</ele>
        <time>2022-05-23T14:07:24.000Z</time>
      </trkpt>
      <trkpt lat="45.10235" lon="17.42968">
        <ele>93.82</ele>
        <time>2022-05-23T14:07:29.000Z</time>
      </trkpt>
      <trkpt lat="45.10217" lon="17.42975">
        <ele>95.03</ele>
        <time>2022-05-23T14:07:34.000Z</time>
      </trkpt>
      <trkpt lat="45.10195" lon="17.4298">
        <ele>95.49</ele>
        <time>2022-05-23T14:07:39.000Z</time>
      </trkpt>
      <trkpt lat="45.10179" lon="17.42984">
        <ele>95.95</ele>
        <time>2022-05-23T14:07:44.000Z</time>
      </trkpt>
      <trkpt lat="45.10164" lon="17.42987">
        <ele>96.24</ele>
        <time>2022-05-23T14:07:49.000Z</time>
      </trkpt>
      <trkpt lat="45.10144" lon="17.42986">
        <ele>95.77</ele>
        <time>2022-05-23T14:07:54.000Z</time>
      </trkpt>
      <trkpt lat="45.10125" lon="17.42986">
        <ele>94.33</ele>
        <time>2022-05-23T14:07:59.000Z</time>
      </trkpt>
      <trkpt lat="45.10105" lon="17.42985">
        <ele>94.37</ele>
        <time>2022-05-23T14:08:04.000Z</time>
      </trkpt>
      <trkpt lat="45.10083" lon="17.42986">
        <ele>94.33</ele>
        <time>2022-05-23T14:08:09.000Z</time>
      </trkpt>
      <trkpt lat="45.10063" lon="17.42988">
        <ele>92.9</ele>
        <time>2022-05-23T14:08:14.000Z</time>
      </trkpt>
      <trkpt lat="45.10043" lon="17.42992">
        <ele>93.02</ele>
        <time>2022-05-23T14:08:19.000Z</time>
      </trkpt>
      <trkpt lat="45.10023" lon="17.42997">
        <ele>92.81</ele>
        <time>2022-05-23T14:08:24.000Z</time>
      </trkpt>
      <trkpt lat="45.10007" lon="17.43005">
        <ele>91.91</ele>
        <time>2022-05-23T14:08:29.000Z</time>
      </trkpt>
      <trkpt lat="45.09989" lon="17.43012">
        <ele>90.81</ele>
        <time>2022-05-23T14:08:34.000Z</time>
      </trkpt>
      <trkpt lat="45.0997" lon="17.43019">
        <ele>89.91</ele>
        <time>2022-05-23T14:08:39.000Z</time>
      </trkpt>
      <trkpt lat="45.09951" lon="17.43024">
        <ele>89.22</ele>
        <time>2022-05-23T14:08:44.000Z</time>
      </trkpt>
      <trkpt lat="45.09933" lon="17.4303">
        <ele>89.08</ele>
        <time>2022-05-23T14:08:49.000Z</time>
      </trkpt>
      <trkpt lat="45.09917" lon="17.43039">
        <ele>89.32</ele>
        <time>2022-05-23T14:08:54.000Z</time>
      </trkpt>
      <trkpt lat="45.099" lon="17.43048">
        <ele>88.73</ele>
        <time>2022-05-23T14:08:59.000Z</time>
      </trkpt>
      <trkpt lat="45.09885" lon="17.43057">
        <ele>88.61</ele>
        <time>2022-05-23T14:09:04.000Z</time>
      </trkpt>
      <trkpt lat="45.09869" lon="17.43063">
        <ele>89.26</ele>
        <time>2022-05-23T14:09:09.000Z</time>
      </trkpt>
      <trkpt lat="45.09853" lon="17.43069">
        <ele>90.42</ele>
        <time>2022-05-23T14:09:14.000Z</time>
      </trkpt>
      <trkpt lat="45.09837" lon="17.43076">
        <ele>90.64</ele>
        <time>2022-05-23T14:09:19.000Z</time>
      </trkpt>
      <trkpt lat="45.09811" lon="17.43084">
        <ele>90.91</ele>
        <time>2022-05-23T14:09:24.000Z</time>
      </trkpt>
      <trkpt lat="45.09792" lon="17.43093">
        <ele>89.42</ele>
        <time>2022-05-23T14:09:29.000Z</time>
      </trkpt>
      <trkpt lat="45.09775" lon="17.43099">
        <ele>88.94</ele>
        <time>2022-05-23T14:09:34.000Z</time>
      </trkpt>
      <trkpt lat="45.09762" lon="17.43104">
        <ele>88.93</ele>
        <time>2022-05-23T14:09:39.000Z</time>
      </trkpt>
      <trkpt lat="45.09752" lon="17.43103">
        <ele>88.73</ele>
        <time>2022-05-23T14:10:04.000Z</time>
      </trkpt>
      <trkpt lat="45.09744" lon="17.43114">
        <ele>89.71</ele>
        <time>2022-05-23T14:10:18.000Z</time>
      </trkpt>
      <trkpt lat="45.0973" lon="17.43121">
        <ele>89.09</ele>
        <time>2022-05-23T14:10:23.000Z</time>
      </trkpt>
      <trkpt lat="45.09713" lon="17.43134">
        <ele>89.45</ele>
        <time>2022-05-23T14:10:28.000Z</time>
      </trkpt>
      <trkpt lat="45.09695" lon="17.4315">
        <ele>90.53</ele>
        <time>2022-05-23T14:10:33.000Z</time>
      </trkpt>
      <trkpt lat="45.09677" lon="17.4317">
        <ele>90.59</ele>
        <time>2022-05-23T14:10:38.000Z</time>
      </trkpt>
      <trkpt lat="45.09661" lon="17.43191">
        <ele>90.97</ele>
        <time>2022-05-23T14:10:43.000Z</time>
      </trkpt>
      <trkpt lat="45.09645" lon="17.43212">
        <ele>90.37</ele>
        <time>2022-05-23T14:10:48.000Z</time>
      </trkpt>
      <trkpt lat="45.09632" lon="17.43236">
        <ele>89.25</ele>
        <time>2022-05-23T14:10:53.000Z</time>
      </trkpt>
      <trkpt lat="45.09623" lon="17.43262">
        <ele>88.61</ele>
        <time>2022-05-23T14:10:58.000Z</time>
      </trkpt>
      <trkpt lat="45.09617" lon="17.43292">
        <ele>87.98</ele>
        <time>2022-05-23T14:11:03.000Z</time>
      </trkpt>
      <trkpt lat="45.09615" lon="17.43324">
        <ele>87.71</ele>
        <time>2022-05-23T14:11:08.000Z</time>
      </trkpt>
      <trkpt lat="45.09618" lon="17.43361">
        <ele>88.66</ele>
        <time>2022-05-23T14:11:13.000Z</time>
      </trkpt>
      <trkpt lat="45.09621" lon="17.43397">
        <ele>90.24</ele>
        <time>2022-05-23T14:11:18.000Z</time>
      </trkpt>
      <trkpt lat="45.09624" lon="17.4343">
        <ele>90.98</ele>
        <time>2022-05-23T14:11:23.000Z</time>
      </trkpt>
      <trkpt lat="45.09628" lon="17.43465">
        <ele>91.48</ele>
        <time>2022-05-23T14:11:28.000Z</time>
      </trkpt>
      <trkpt lat="45.09632" lon="17.43501">
        <ele>91.55</ele>
        <time>2022-05-23T14:11:33.000Z</time>
      </trkpt>
      <trkpt lat="45.09636" lon="17.43532">
        <ele>91.26</ele>
        <time>2022-05-23T14:11:38.000Z</time>
      </trkpt>
      <trkpt lat="45.09637" lon="17.43567">
        <ele>90.35</ele>
        <time>2022-05-23T14:11:43.000Z</time>
      </trkpt>
      <trkpt lat="45.09638" lon="17.43599">
        <ele>90.35</ele>
        <time>2022-05-23T14:11:48.000Z</time>
      </trkpt>
      <trkpt lat="45.09639" lon="17.43633">
        <ele>89.02</ele>
        <time>2022-05-23T14:11:53.000Z</time>
      </trkpt>
      <trkpt lat="45.09639" lon="17.43666">
        <ele>89.46</ele>
        <time>2022-05-23T14:11:58.000Z</time>
      </trkpt>
      <trkpt lat="45.09638" lon="17.43699">
        <ele>88.98</ele>
        <time>2022-05-23T14:12:03.000Z</time>
      </trkpt>
      <trkpt lat="45.09635" lon="17.43732">
        <ele>88.71</ele>
        <time>2022-05-23T14:12:08.000Z</time>
      </trkpt>
      <trkpt lat="45.0963" lon="17.43769">
        <ele>89.84</ele>
        <time>2022-05-23T14:12:13.000Z</time>
      </trkpt>
      <trkpt lat="45.09627" lon="17.43801">
        <ele>89.57</ele>
        <time>2022-05-23T14:12:18.000Z</time>
      </trkpt>
      <trkpt lat="45.09623" lon="17.43835">
        <ele>89.44</ele>
        <time>2022-05-23T14:12:23.000Z</time>
      </trkpt>
      <trkpt lat="45.09617" lon="17.43867">
        <ele>90.09</ele>
        <time>2022-05-23T14:12:28.000Z</time>
      </trkpt>
      <trkpt lat="45.09608" lon="17.43895">
        <ele>89.19</ele>
        <time>2022-05-23T14:12:33.000Z</time>
      </trkpt>
      <trkpt lat="45.09598" lon="17.43922">
        <ele>88.25</ele>
        <time>2022-05-23T14:12:38.000Z</time>
      </trkpt>
      <trkpt lat="45.09585" lon="17.43951">
        <ele>88.7</ele>
        <time>2022-05-23T14:12:43.000Z</time>
      </trkpt>
      <trkpt lat="45.09572" lon="17.43974">
        <ele>88.54</ele>
        <time>2022-05-23T14:12:48.000Z</time>
      </trkpt>
      <trkpt lat="45.09559" lon="17.43985">
        <ele>88.33</ele>
        <time>2022-05-23T14:12:53.000Z</time>
      </trkpt>
      <trkpt lat="45.09549" lon="17.43999">
        <ele>88.32</ele>
        <time>2022-05-23T14:12:58.000Z</time>
      </trkpt>
      <trkpt lat="45.0954" lon="17.44009">
        <ele>87.61</ele>
        <time>2022-05-23T14:13:12.000Z</time>
      </trkpt>
      <trkpt lat="45.09526" lon="17.44024">
        <ele>87.57</ele>
        <time>2022-05-23T14:13:17.000Z</time>
      </trkpt>
      <trkpt lat="45.0951" lon="17.44044">
        <ele>88.89</ele>
        <time>2022-05-23T14:13:22.000Z</time>
      </trkpt>
      <trkpt lat="45.09493" lon="17.44059">
        <ele>89.58</ele>
        <time>2022-05-23T14:13:27.000Z</time>
      </trkpt>
      <trkpt lat="45.09475" lon="17.44076">
        <ele>91.13</ele>
        <time>2022-05-23T14:13:32.000Z</time>
      </trkpt>
      <trkpt lat="45.09459" lon="17.44093">
        <ele>91.89</ele>
        <time>2022-05-23T14:13:37.000Z</time>
      </trkpt>
      <trkpt lat="45.09442" lon="17.4411">
        <ele>92.98</ele>
        <time>2022-05-23T14:13:42.000Z</time>
      </trkpt>
      <trkpt lat="45.09424" lon="17.44127">
        <ele>92.85</ele>
        <time>2022-05-23T14:13:47.000Z</time>
      </trkpt>
      <trkpt lat="45.09404" lon="17.44139">
        <ele>93.02</ele>
        <time>2022-05-23T14:13:52.000Z</time>
      </trkpt>
      <trkpt lat="45.0938" lon="17.44143">
        <ele>93.03</ele>
        <time>2022-05-23T14:13:57.000Z</time>
      </trkpt>
      <trkpt lat="45.09355" lon="17.4414">
        <ele>91.93</ele>
        <time>2022-05-23T14:14:02.000Z</time>
      </trkpt>
      <trkpt lat="45.09328" lon="17.44136">
        <ele>91.24</ele>
        <time>2022-05-23T14:14:07.000Z</time>
      </trkpt>
      <trkpt lat="45.09302" lon="17.44138">
        <ele>91.64</ele>
        <time>2022-05-23T14:14:12.000Z</time>
      </trkpt>
      <trkpt lat="45.09275" lon="17.44144">
        <ele>91.91</ele>
        <time>2022-05-23T14:14:17.000Z</time>
      </trkpt>
      <trkpt lat="45.09252" lon="17.44147">
        <ele>91.04</ele>
        <time>2022-05-23T14:14:22.000Z</time>
      </trkpt>
      <trkpt lat="45.09232" lon="17.4415">
        <ele>90.21</ele>
        <time>2022-05-23T14:14:27.000Z</time>
      </trkpt>
      <trkpt lat="45.09209" lon="17.44155">
        <ele>89.67</ele>
        <time>2022-05-23T14:14:32.000Z</time>
      </trkpt>
      <trkpt lat="45.09184" lon="17.44158">
        <ele>89.39</ele>
        <time>2022-05-23T14:14:37.000Z</time>
      </trkpt>
      <trkpt lat="45.0916" lon="17.44163">
        <ele>89.02</ele>
        <time>2022-05-23T14:14:42.000Z</time>
      </trkpt>
      <trkpt lat="45.09135" lon="17.44172">
        <ele>89.05</ele>
        <time>2022-05-23T14:14:47.000Z</time>
      </trkpt>
      <trkpt lat="45.09109" lon="17.44182">
        <ele>88.2</ele>
        <time>2022-05-23T14:14:52.000Z</time>
      </trkpt>
      <trkpt lat="45.09083" lon="17.4419">
        <ele>87.82</ele>
        <time>2022-05-23T14:14:57.000Z</time>
      </trkpt>
      <trkpt lat="45.09056" lon="17.44199">
        <ele>87.3</ele>
        <time>2022-05-23T14:15:02.000Z</time>
      </trkpt>
      <trkpt lat="45.09029" lon="17.44208">
        <ele>87.35</ele>
        <time>2022-05-23T14:15:07.000Z</time>
      </trkpt>
      <trkpt lat="45.09003" lon="17.44217">
        <ele>87.69</ele>
        <time>2022-05-23T14:15:12.000Z</time>
      </trkpt>
      <trkpt lat="45.08976" lon="17.44228">
        <ele>88.16</ele>
        <time>2022-05-23T14:15:17.000Z</time>
      </trkpt>
      <trkpt lat="45.0895" lon="17.4424">
        <ele>88.42</ele>
        <time>2022-05-23T14:15:22.000Z</time>
      </trkpt>
      <trkpt lat="45.08926" lon="17.44251">
        <ele>88.47</ele>
        <time>2022-05-23T14:15:27.000Z</time>
      </trkpt>
      <trkpt lat="45.08902" lon="17.44266">
        <ele>89.28</ele>
        <time>2022-05-23T14:15:32.000Z</time>
      </trkpt>
      <trkpt lat="45.0888" lon="17.44281">
        <ele>89.92</ele>
        <time>2022-05-23T14:15:37.000Z</time>
      </trkpt>
      <trkpt lat="45.08859" lon="17.44294">
        <ele>90.27</ele>
        <time>2022-05-23T14:15:42.000Z</time>
      </trkpt>
      <trkpt lat="45.0884" lon="17.44305">
        <ele>90.67</ele>
        <time>2022-05-23T14:15:47.000Z</time>
      </trkpt>
      <trkpt lat="45.08819" lon="17.44318">
        <ele>90.99</ele>
        <time>2022-05-23T14:15:52.000Z</time>
      </trkpt>
      <trkpt lat="45.08797" lon="17.4433">
        <ele>90.78</ele>
        <time>2022-05-23T14:15:57.000Z</time>
      </trkpt>
      <trkpt lat="45.08774" lon="17.44343">
        <ele>91.27</ele>
        <time>2022-05-23T14:16:02.000Z</time>
      </trkpt>
      <trkpt lat="45.0875" lon="17.44355">
        <ele>91.84</ele>
        <time>2022-05-23T14:16:07.000Z</time>
      </trkpt>
      <trkpt lat="45.08723" lon="17.44363">
        <ele>92.05</ele>
        <time>2022-05-23T14:16:12.000Z</time>
      </trkpt>
      <trkpt lat="45.08698" lon="17.4436">
        <ele>92.12</ele>
        <time>2022-05-23T14:16:17.000Z</time>
      </trkpt>
      <trkpt lat="45.08674" lon="17.44349">
        <ele>92.46</ele>
        <time>2022-05-23T14:16:22.000Z</time>
      </trkpt>
      <trkpt lat="45.08649" lon="17.44339">
        <ele>92.37</ele>
        <time>2022-05-23T14:16:27.000Z</time>
      </trkpt>
      <trkpt lat="45.08623" lon="17.44326">
        <ele>92.25</ele>
        <time>2022-05-23T14:16:32.000Z</time>
      </trkpt>
      <trkpt lat="45.08596" lon="17.4431">
        <ele>91.47</ele>
        <time>2022-05-23T14:16:37.000Z</time>
      </trkpt>
      <trkpt lat="45.08571" lon="17.44292">
        <ele>91.81</ele>
        <time>2022-05-23T14:16:42.000Z</time>
      </trkpt>
      <trkpt lat="45.08547" lon="17.44276">
        <ele>92.41</ele>
        <time>2022-05-23T14:16:47.000Z</time>
      </trkpt>
      <trkpt lat="45.08522" lon="17.44261">
        <ele>92.29</ele>
        <time>2022-05-23T14:16:52.000Z</time>
      </trkpt>
      <trkpt lat="45.08495" lon="17.4424">
        <ele>92.51</ele>
        <time>2022-05-23T14:16:57.000Z</time>
      </trkpt>
      <trkpt lat="45.08468" lon="17.44226">
        <ele>93.39</ele>
        <time>2022-05-23T14:17:02.000Z</time>
      </trkpt>
      <trkpt lat="45.08442" lon="17.44211">
        <ele>94.75</ele>
        <time>2022-05-23T14:17:07.000Z</time>
      </trkpt>
      <trkpt lat="45.08415" lon="17.44202">
        <ele>95.2</ele>
        <time>2022-05-23T14:17:12.000Z</time>
      </trkpt>
      <trkpt lat="45.08388" lon="17.44202">
        <ele>94.51</ele>
        <time>2022-05-23T14:17:17.000Z</time>
      </trkpt>
      <trkpt lat="45.08364" lon="17.44202">
        <ele>94.5</ele>
        <time>2022-05-23T14:17:22.000Z</time>
      </trkpt>
      <trkpt lat="45.08344" lon="17.44205">
        <ele>94.06</ele>
        <time>2022-05-23T14:17:27.000Z</time>
      </trkpt>
      <trkpt lat="45.08318" lon="17.44208">
        <ele>93.02</ele>
        <time>2022-05-23T14:17:32.000Z</time>
      </trkpt>
      <trkpt lat="45.08292" lon="17.44211">
        <ele>92.09</ele>
        <time>2022-05-23T14:17:37.000Z</time>
      </trkpt>
      <trkpt lat="45.08265" lon="17.44214">
        <ele>91.8</ele>
        <time>2022-05-23T14:17:42.000Z</time>
      </trkpt>
      <trkpt lat="45.0824" lon="17.44222">
        <ele>90.15</ele>
        <time>2022-05-23T14:17:47.000Z</time>
      </trkpt>
      <trkpt lat="45.08214" lon="17.44231">
        <ele>89.96</ele>
        <time>2022-05-23T14:17:52.000Z</time>
      </trkpt>
      <trkpt lat="45.08191" lon="17.44253">
        <ele>89.33</ele>
        <time>2022-05-23T14:17:57.000Z</time>
      </trkpt>
      <trkpt lat="45.08169" lon="17.44274">
        <ele>88.48</ele>
        <time>2022-05-23T14:18:02.000Z</time>
      </trkpt>
      <trkpt lat="45.08146" lon="17.44297">
        <ele>88.05</ele>
        <time>2022-05-23T14:18:07.000Z</time>
      </trkpt>
      <trkpt lat="45.08122" lon="17.44319">
        <ele>87.6</ele>
        <time>2022-05-23T14:18:12.000Z</time>
      </trkpt>
      <trkpt lat="45.08096" lon="17.44336">
        <ele>87.39</ele>
        <time>2022-05-23T14:18:17.000Z</time>
      </trkpt>
      <trkpt lat="45.0807" lon="17.44346">
        <ele>88.99</ele>
        <time>2022-05-23T14:18:22.000Z</time>
      </trkpt>
      <trkpt lat="45.08043" lon="17.44349">
        <ele>89.9</ele>
        <time>2022-05-23T14:18:27.000Z</time>
      </trkpt>
      <trkpt lat="45.08015" lon="17.44354">
        <ele>90.06</ele>
        <time>2022-05-23T14:18:32.000Z</time>
      </trkpt>
      <trkpt lat="45.07988" lon="17.44359">
        <ele>90</ele>
        <time>2022-05-23T14:18:37.000Z</time>
      </trkpt>
      <trkpt lat="45.07962" lon="17.44363">
        <ele>90.42</ele>
        <time>2022-05-23T14:18:42.000Z</time>
      </trkpt>
      <trkpt lat="45.07937" lon="17.44368">
        <ele>91.16</ele>
        <time>2022-05-23T14:18:47.000Z</time>
      </trkpt>
      <trkpt lat="45.07913" lon="17.44372">
        <ele>90.57</ele>
        <time>2022-05-23T14:18:52.000Z</time>
      </trkpt>
      <trkpt lat="45.07889" lon="17.44375">
        <ele>90.63</ele>
        <time>2022-05-23T14:18:57.000Z</time>
      </trkpt>
      <trkpt lat="45.07865" lon="17.44383">
        <ele>90.23</ele>
        <time>2022-05-23T14:19:02.000Z</time>
      </trkpt>
      <trkpt lat="45.07841" lon="17.44391">
        <ele>90.48</ele>
        <time>2022-05-23T14:19:07.000Z</time>
      </trkpt>
      <trkpt lat="45.07821" lon="17.44405">
        <ele>90.01</ele>
        <time>2022-05-23T14:19:12.000Z</time>
      </trkpt>
      <trkpt lat="45.07799" lon="17.44419">
        <ele>89.15</ele>
        <time>2022-05-23T14:19:17.000Z</time>
      </trkpt>
      <trkpt lat="45.07777" lon="17.44435">
        <ele>87.98</ele>
        <time>2022-05-23T14:19:22.000Z</time>
      </trkpt>
      <trkpt lat="45.07751" lon="17.44446">
        <ele>87.98</ele>
        <time>2022-05-23T14:19:27.000Z</time>
      </trkpt>
      <trkpt lat="45.0773" lon="17.44458">
        <ele>87.88</ele>
        <time>2022-05-23T14:19:32.000Z</time>
      </trkpt>
      <trkpt lat="45.07714" lon="17.44464">
        <ele>87.71</ele>
        <time>2022-05-23T14:19:37.000Z</time>
      </trkpt>
      <trkpt lat="45.07698" lon="17.44468">
        <ele>87.93</ele>
        <time>2022-05-23T14:19:42.000Z</time>
      </trkpt>
      <trkpt lat="45.07683" lon="17.4447">
        <ele>88.52</ele>
        <time>2022-05-23T14:19:47.000Z</time>
      </trkpt>
      <trkpt lat="45.07668" lon="17.44472">
        <ele>89.25</ele>
        <time>2022-05-23T14:19:52.000Z</time>
      </trkpt>
      <trkpt lat="45.07646" lon="17.44488">
        <ele>89.15</ele>
        <time>2022-05-23T14:19:57.000Z</time>
      </trkpt>
      <trkpt lat="45.07626" lon="17.44504">
        <ele>88.93</ele>
        <time>2022-05-23T14:20:02.000Z</time>
      </trkpt>
      <trkpt lat="45.07607" lon="17.44521">
        <ele>89.09</ele>
        <time>2022-05-23T14:20:07.000Z</time>
      </trkpt>
      <trkpt lat="45.07588" lon="17.44534">
        <ele>88.83</ele>
        <time>2022-05-23T14:20:12.000Z</time>
      </trkpt>
      <trkpt lat="45.07572" lon="17.44543">
        <ele>89.62</ele>
        <time>2022-05-23T14:20:17.000Z</time>
      </trkpt>
      <trkpt lat="45.07562" lon="17.44543">
        <ele>90.35</ele>
        <time>2022-05-23T14:20:55.000Z</time>
      </trkpt>
      <trkpt lat="45.07556" lon="17.44553">
        <ele>90.53</ele>
        <time>2022-05-23T14:22:28.000Z</time>
      </trkpt>
      <trkpt lat="45.07543" lon="17.4457">
        <ele>90.11</ele>
        <time>2022-05-23T14:22:33.000Z</time>
      </trkpt>
      <trkpt lat="45.07526" lon="17.44589">
        <ele>89.07</ele>
        <time>2022-05-23T14:22:38.000Z</time>
      </trkpt>
      <trkpt lat="45.07507" lon="17.44609">
        <ele>87.92</ele>
        <time>2022-05-23T14:22:43.000Z</time>
      </trkpt>
      <trkpt lat="45.07488" lon="17.44628">
        <ele>87.24</ele>
        <time>2022-05-23T14:22:48.000Z</time>
      </trkpt>
      <trkpt lat="45.07468" lon="17.44647">
        <ele>86.63</ele>
        <time>2022-05-23T14:22:53.000Z</time>
      </trkpt>
      <trkpt lat="45.07448" lon="17.44663">
        <ele>86.53</ele>
        <time>2022-05-23T14:22:58.000Z</time>
      </trkpt>
      <trkpt lat="45.07426" lon="17.44681">
        <ele>87.77</ele>
        <time>2022-05-23T14:23:03.000Z</time>
      </trkpt>
      <trkpt lat="45.07404" lon="17.447">
        <ele>88.48</ele>
        <time>2022-05-23T14:23:08.000Z</time>
      </trkpt>
      <trkpt lat="45.07382" lon="17.44716">
        <ele>90.25</ele>
        <time>2022-05-23T14:23:13.000Z</time>
      </trkpt>
      <trkpt lat="45.07362" lon="17.44735">
        <ele>91.17</ele>
        <time>2022-05-23T14:23:18.000Z</time>
      </trkpt>
      <trkpt lat="45.07341" lon="17.4475">
        <ele>91.75</ele>
        <time>2022-05-23T14:23:23.000Z</time>
      </trkpt>
      <trkpt lat="45.07322" lon="17.44765">
        <ele>92.1</ele>
        <time>2022-05-23T14:23:28.000Z</time>
      </trkpt>
      <trkpt lat="45.07303" lon="17.44783">
        <ele>92.36</ele>
        <time>2022-05-23T14:23:33.000Z</time>
      </trkpt>
      <trkpt lat="45.07281" lon="17.44795">
        <ele>93.2</ele>
        <time>2022-05-23T14:23:38.000Z</time>
      </trkpt>
      <trkpt lat="45.07257" lon="17.44803">
        <ele>93.81</ele>
        <time>2022-05-23T14:23:43.000Z</time>
      </trkpt>
      <trkpt lat="45.07233" lon="17.44808">
        <ele>94.62</ele>
        <time>2022-05-23T14:23:48.000Z</time>
      </trkpt>
      <trkpt lat="45.07207" lon="17.44817">
        <ele>95.15</ele>
        <time>2022-05-23T14:23:53.000Z</time>
      </trkpt>
      <trkpt lat="45.07182" lon="17.44829">
        <ele>95.06</ele>
        <time>2022-05-23T14:23:58.000Z</time>
      </trkpt>
      <trkpt lat="45.07158" lon="17.44841">
        <ele>95.1</ele>
        <time>2022-05-23T14:24:03.000Z</time>
      </trkpt>
      <trkpt lat="45.07134" lon="17.44852">
        <ele>95.37</ele>
        <time>2022-05-23T14:24:08.000Z</time>
      </trkpt>
      <trkpt lat="45.07109" lon="17.44861">
        <ele>95.3</ele>
        <time>2022-05-23T14:24:13.000Z</time>
      </trkpt>
      <trkpt lat="45.07084" lon="17.44872">
        <ele>94.71</ele>
        <time>2022-05-23T14:24:18.000Z</time>
      </trkpt>
      <trkpt lat="45.07062" lon="17.44883">
        <ele>94.68</ele>
        <time>2022-05-23T14:24:23.000Z</time>
      </trkpt>
      <trkpt lat="45.07039" lon="17.44899">
        <ele>94.55</ele>
        <time>2022-05-23T14:24:28.000Z</time>
      </trkpt>
      <trkpt lat="45.07019" lon="17.44917">
        <ele>93.97</ele>
        <time>2022-05-23T14:24:33.000Z</time>
      </trkpt>
      <trkpt lat="45.06998" lon="17.44936">
        <ele>93.03</ele>
        <time>2022-05-23T14:24:38.000Z</time>
      </trkpt>
      <trkpt lat="45.06979" lon="17.44953">
        <ele>93.3</ele>
        <time>2022-05-23T14:24:43.000Z</time>
      </trkpt>
      <trkpt lat="45.06958" lon="17.44968">
        <ele>93.14</ele>
        <time>2022-05-23T14:24:48.000Z</time>
      </trkpt>
      <trkpt lat="45.06941" lon="17.44993">
        <ele>92.48</ele>
        <time>2022-05-23T14:24:53.000Z</time>
      </trkpt>
      <trkpt lat="45.06933" lon="17.45026">
        <ele>91.16</ele>
        <time>2022-05-23T14:24:58.000Z</time>
      </trkpt>
      <trkpt lat="45.06929" lon="17.45057">
        <ele>90.71</ele>
        <time>2022-05-23T14:25:03.000Z</time>
      </trkpt>
      <trkpt lat="45.06923" lon="17.45087">
        <ele>90.13</ele>
        <time>2022-05-23T14:25:08.000Z</time>
      </trkpt>
      <trkpt lat="45.06914" lon="17.45117">
        <ele>88.88</ele>
        <time>2022-05-23T14:25:13.000Z</time>
      </trkpt>
      <trkpt lat="45.06892" lon="17.45134">
        <ele>88.49</ele>
        <time>2022-05-23T14:25:18.000Z</time>
      </trkpt>
      <trkpt lat="45.06867" lon="17.45135">
        <ele>88.89</ele>
        <time>2022-05-23T14:25:23.000Z</time>
      </trkpt>
      <trkpt lat="45.06843" lon="17.45136">
        <ele>88.71</ele>
        <time>2022-05-23T14:25:28.000Z</time>
      </trkpt>
      <trkpt lat="45.06817" lon="17.45136">
        <ele>88.7</ele>
        <time>2022-05-23T14:25:33.000Z</time>
      </trkpt>
      <trkpt lat="45.0679" lon="17.45132">
        <ele>89.04</ele>
        <time>2022-05-23T14:25:38.000Z</time>
      </trkpt>
      <trkpt lat="45.06765" lon="17.45128">
        <ele>89.78</ele>
        <time>2022-05-23T14:25:43.000Z</time>
      </trkpt>
      <trkpt lat="45.06743" lon="17.45127">
        <ele>89.8</ele>
        <time>2022-05-23T14:25:48.000Z</time>
      </trkpt>
      <trkpt lat="45.06725" lon="17.45124">
        <ele>90.89</ele>
        <time>2022-05-23T14:25:53.000Z</time>
      </trkpt>
      <trkpt lat="45.06708" lon="17.45119">
        <ele>91.58</ele>
        <time>2022-05-23T14:25:58.000Z</time>
      </trkpt>
      <trkpt lat="45.06691" lon="17.4511">
        <ele>92.48</ele>
        <time>2022-05-23T14:26:03.000Z</time>
      </trkpt>
      <trkpt lat="45.06675" lon="17.45099">
        <ele>93.47</ele>
        <time>2022-05-23T14:26:08.000Z</time>
      </trkpt>
      <trkpt lat="45.06654" lon="17.45083">
        <ele>94.33</ele>
        <time>2022-05-23T14:26:13.000Z</time>
      </trkpt>
      <trkpt lat="45.06633" lon="17.45078">
        <ele>94.99</ele>
        <time>2022-05-23T14:26:18.000Z</time>
      </trkpt>
      <trkpt lat="45.06612" lon="17.45073">
        <ele>95.81</ele>
        <time>2022-05-23T14:26:23.000Z</time>
      </trkpt>
      <trkpt lat="45.06587" lon="17.45069">
        <ele>96.76</ele>
        <time>2022-05-23T14:26:28.000Z</time>
      </trkpt>
      <trkpt lat="45.06562" lon="17.45066">
        <ele>97.75</ele>
        <time>2022-05-23T14:26:33.000Z</time>
      </trkpt>
      <trkpt lat="45.06539" lon="17.45064">
        <ele>98.99</ele>
        <time>2022-05-23T14:26:38.000Z</time>
      </trkpt>
      <trkpt lat="45.06513" lon="17.45061">
        <ele>99.59</ele>
        <time>2022-05-23T14:26:43.000Z</time>
      </trkpt>
      <trkpt lat="45.06488" lon="17.45056">
        <ele>99.68</ele>
        <time>2022-05-23T14:26:48.000Z</time>
      </trkpt>
      <trkpt lat="45.06462" lon="17.45052">
        <ele>100.27</ele>
        <time>2022-05-23T14:26:53.000Z</time>
      </trkpt>
      <trkpt lat="45.06436" lon="17.45048">
        <ele>101.42</ele>
        <time>2022-05-23T14:26:58.000Z</time>
      </trkpt>
      <trkpt lat="45.06411" lon="17.45045">
        <ele>101.83</ele>
        <time>2022-05-23T14:27:03.000Z</time>
      </trkpt>
      <trkpt lat="45.06388" lon="17.45041">
        <ele>102.57</ele>
        <time>2022-05-23T14:27:08.000Z</time>
      </trkpt>
      <trkpt lat="45.06367" lon="17.45037">
        <ele>102.89</ele>
        <time>2022-05-23T14:27:13.000Z</time>
      </trkpt>
      <trkpt lat="45.06351" lon="17.45034">
        <ele>103.27</ele>
        <time>2022-05-23T14:27:18.000Z</time>
      </trkpt>
      <trkpt lat="45.06338" lon="17.45029">
        <ele>103.14</ele>
        <time>2022-05-23T14:27:23.000Z</time>
      </trkpt>
      <trkpt lat="45.06328" lon="17.4503">
        <ele>94.74</ele>
        <time>2022-05-23T14:28:06.000Z</time>
      </trkpt>
      <trkpt lat="45.06316" lon="17.45028">
        <ele>95.09</ele>
        <time>2022-05-23T14:28:11.000Z</time>
      </trkpt>
      <trkpt lat="45.06295" lon="17.45024">
        <ele>95.08</ele>
        <time>2022-05-23T14:28:16.000Z</time>
      </trkpt>
      <trkpt lat="45.06272" lon="17.45018">
        <ele>95.74</ele>
        <time>2022-05-23T14:28:21.000Z</time>
      </trkpt>
      <trkpt lat="45.06252" lon="17.45013">
        <ele>95.98</ele>
        <time>2022-05-23T14:28:26.000Z</time>
      </trkpt>
      <trkpt lat="45.06233" lon="17.45007">
        <ele>95.83</ele>
        <time>2022-05-23T14:28:31.000Z</time>
      </trkpt>
      <trkpt lat="45.06216" lon="17.45">
        <ele>96.11</ele>
        <time>2022-05-23T14:28:36.000Z</time>
      </trkpt>
      <trkpt lat="45.06206" lon="17.44996">
        <ele>96.82</ele>
        <time>2022-05-23T14:28:41.000Z</time>
      </trkpt>
      <trkpt lat="45.06194" lon="17.4499">
        <ele>97.93</ele>
        <time>2022-05-23T14:28:46.000Z</time>
      </trkpt>
      <trkpt lat="45.06181" lon="17.44986">
        <ele>97.17</ele>
        <time>2022-05-23T14:28:51.000Z</time>
      </trkpt>
      <trkpt lat="45.06168" lon="17.44979">
        <ele>97.32</ele>
        <time>2022-05-23T14:28:56.000Z</time>
      </trkpt>
      <trkpt lat="45.06154" lon="17.44971">
        <ele>97.06</ele>
        <time>2022-05-23T14:29:01.000Z</time>
      </trkpt>
      <trkpt lat="45.06142" lon="17.44959">
        <ele>95.3</ele>
        <time>2022-05-23T14:29:06.000Z</time>
      </trkpt>
      <trkpt lat="45.06134" lon="17.44951">
        <ele>94.73</ele>
        <time>2022-05-23T14:29:12.000Z</time>
      </trkpt>
      <trkpt lat="45.06138" lon="17.44963">
        <ele>94.29</ele>
        <time>2022-05-23T14:29:31.000Z</time>
      </trkpt>
      <trkpt lat="45.06154" lon="17.44975">
        <ele>93.51</ele>
        <time>2022-05-23T14:29:36.000Z</time>
      </trkpt>
      <trkpt lat="45.06174" lon="17.44983">
        <ele>93.53</ele>
        <time>2022-05-23T14:29:41.000Z</time>
      </trkpt>
      <trkpt lat="45.06193" lon="17.44994">
        <ele>93.41</ele>
        <time>2022-05-23T14:29:46.000Z</time>
      </trkpt>
      <trkpt lat="45.06212" lon="17.44998">
        <ele>95.3</ele>
        <time>2022-05-23T14:29:51.000Z</time>
      </trkpt>
      <trkpt lat="45.06207" lon="17.44986">
        <ele>94.24</ele>
        <time>2022-05-23T14:30:24.000Z</time>
      </trkpt>
      <trkpt lat="45.06199" lon="17.44979">
        <ele>91.09</ele>
        <time>2022-05-23T14:31:10.000Z</time>
      </trkpt>
      <trkpt lat="45.06191" lon="17.44987">
        <ele>91.21</ele>
        <time>2022-05-23T14:31:37.000Z</time>
      </trkpt>
      <trkpt lat="45.06177" lon="17.44989">
        <ele>90.81</ele>
        <time>2022-05-23T14:31:42.000Z</time>
      </trkpt>
      <trkpt lat="45.0617" lon="17.4498">
        <ele>93.52</ele>
        <time>2022-05-23T14:32:19.000Z</time>
      </trkpt>
      <trkpt lat="45.06162" lon="17.44973">
        <ele>93.9</ele>
        <time>2022-05-23T14:32:43.000Z</time>
      </trkpt>
      <trkpt lat="45.06174" lon="17.44979">
        <ele>94.7</ele>
        <time>2022-05-23T14:33:44.000Z</time>
      </trkpt>
      <trkpt lat="45.06165" lon="17.44976">
        <ele>96.64</ele>
        <time>2022-05-23T14:34:00.000Z</time>
      </trkpt>
      <trkpt lat="45.06153" lon="17.44977">
        <ele>99.12</ele>
        <time>2022-05-23T14:34:43.000Z</time>
      </trkpt>
      <trkpt lat="45.06162" lon="17.44974">
        <ele>100.1</ele>
        <time>2022-05-23T14:35:14.000Z</time>
      </trkpt>
      <trkpt lat="45.06171" lon="17.44984">
        <ele>100.4</ele>
        <time>2022-05-23T14:35:39.000Z</time>
      </trkpt>
      <trkpt lat="45.06167" lon="17.44973">
        <ele>101.77</ele>
        <time>2022-05-23T14:36:21.000Z</time>
      </trkpt>
      <trkpt lat="45.06179" lon="17.44975">
        <ele>104.55</ele>
        <time>2022-05-23T14:37:18.000Z</time>
      </trkpt>
      <trkpt lat="45.06168" lon="17.44968">
        <ele>104.9</ele>
        <time>2022-05-23T14:37:51.000Z</time>
      </trkpt>
      <trkpt lat="45.06177" lon="17.44971">
        <ele>103.71</ele>
        <time>2022-05-23T14:38:33.000Z</time>
      </trkpt>
      <trkpt lat="45.06168" lon="17.44976">
        <ele>106.89</ele>
        <time>2022-05-23T14:39:39.000Z</time>
      </trkpt>
      <trkpt lat="45.06176" lon="17.44967">
        <ele>106.28</ele>
        <time>2022-05-23T14:40:02.000Z</time>
      </trkpt>
      <trkpt lat="45.06189" lon="17.44967">
        <ele>106</ele>
        <time>2022-05-23T14:40:21.000Z</time>
      </trkpt>
      <trkpt lat="45.06179" lon="17.44973">
        <ele>108</ele>
        <time>2022-05-23T14:40:55.000Z</time>
      </trkpt>
      <trkpt lat="45.06169" lon="17.44976">
        <ele>106.63</ele>
        <time>2022-05-23T14:41:12.000Z</time>
      </trkpt>
      <trkpt lat="45.06175" lon="17.44985">
        <ele>106.3</ele>
        <time>2022-05-23T14:41:47.000Z</time>
      </trkpt>
      <trkpt lat="45.06179" lon="17.44973">
        <ele>104.2</ele>
        <time>2022-05-23T14:43:04.000Z</time>
      </trkpt>
      <trkpt lat="45.06171" lon="17.4498">
        <ele>103.92</ele>
        <time>2022-05-23T14:43:48.000Z</time>
      </trkpt>
      <trkpt lat="45.06185" lon="17.4498">
        <ele>104.6</ele>
        <time>2022-05-23T14:45:00.000Z</time>
      </trkpt>
      <trkpt lat="45.06173" lon="17.44981">
        <ele>101.95</ele>
        <time>2022-05-23T14:45:35.000Z</time>
      </trkpt>
      <trkpt lat="45.0618" lon="17.44991">
        <ele>103.42</ele>
        <time>2022-05-23T14:46:19.000Z</time>
      </trkpt>
      <trkpt lat="45.0619" lon="17.44991">
        <ele>103.7</ele>
        <time>2022-05-23T14:46:27.000Z</time>
      </trkpt>
      <trkpt lat="45.06189" lon="17.44978">
        <ele>104.4</ele>
        <time>2022-05-23T14:46:50.000Z</time>
      </trkpt>
      <trkpt lat="45.06177" lon="17.44977">
        <ele>104.31</ele>
        <time>2022-05-23T14:46:55.000Z</time>
      </trkpt>
      <trkpt lat="45.06168" lon="17.44975">
        <ele>104.1</ele>
        <time>2022-05-23T14:47:01.000Z</time>
      </trkpt>
      <trkpt lat="45.06177" lon="17.4498">
        <ele>104.87</ele>
        <time>2022-05-23T14:47:18.000Z</time>
      </trkpt>
      <trkpt lat="45.06149" lon="17.4496">
        <ele>106.09</ele>
        <time>2022-05-23T14:47:31.000Z</time>
      </trkpt>
      <trkpt lat="45.06133" lon="17.4498">
        <ele>112.3</ele>
        <time>2022-05-23T14:49:39.000Z</time>
      </trkpt>
      <trkpt lat="45.06143" lon="17.44979">
        <ele>112.3</ele>
        <time>2022-05-23T14:49:44.000Z</time>
      </trkpt>
      <trkpt lat="45.06153" lon="17.44985">
        <ele>112.3</ele>
        <time>2022-05-23T14:49:57.000Z</time>
      </trkpt>
      <trkpt lat="45.06162" lon="17.44976">
        <ele>112.22</ele>
        <time>2022-05-23T14:50:16.000Z</time>
      </trkpt>
      <trkpt lat="45.06153" lon="17.44979">
        <ele>111.82</ele>
        <time>2022-05-23T14:51:32.000Z</time>
      </trkpt>
      <trkpt lat="45.06139" lon="17.44972">
        <ele>111.63</ele>
        <time>2022-05-23T14:51:37.000Z</time>
      </trkpt>
      <trkpt lat="45.06172" lon="17.44955">
        <ele>111.7</ele>
        <time>2022-05-23T14:54:38.000Z</time>
      </trkpt>
      <trkpt lat="45.06189" lon="17.44957">
        <ele>111.7</ele>
        <time>2022-05-23T14:54:46.000Z</time>
      </trkpt>
      <trkpt lat="45.06205" lon="17.44956">
        <ele>111.7</ele>
        <time>2022-05-23T14:54:56.000Z</time>
      </trkpt>
      <trkpt lat="45.06148" lon="17.44958">
        <ele>111.6</ele>
        <time>2022-05-23T14:55:30.000Z</time>
      </trkpt>
      <trkpt lat="45.06161" lon="17.4497">
        <ele>111.5</ele>
        <time>2022-05-23T14:55:35.000Z</time>
      </trkpt>
      <trkpt lat="45.06166" lon="17.44982">
        <ele>111.02</ele>
        <time>2022-05-23T14:56:00.000Z</time>
      </trkpt>
      <trkpt lat="45.06169" lon="17.44965">
        <ele>110.18</ele>
        <time>2022-05-23T14:56:58.000Z</time>
      </trkpt>
      <trkpt lat="45.0616" lon="17.44959">
        <ele>110</ele>
        <time>2022-05-23T14:57:05.000Z</time>
      </trkpt>
      <trkpt lat="45.06156" lon="17.44973">
        <ele>110</ele>
        <time>2022-05-23T14:57:38.000Z</time>
      </trkpt>
      <trkpt lat="45.0615" lon="17.44984">
        <ele>110.08</ele>
        <time>2022-05-23T14:57:44.000Z</time>
      </trkpt>
      <trkpt lat="45.06162" lon="17.44984">
        <ele>110</ele>
        <time>2022-05-23T14:57:49.000Z</time>
      </trkpt>
      <trkpt lat="45.06202" lon="17.44978">
        <ele>110</ele>
        <time>2022-05-23T14:57:54.000Z</time>
      </trkpt>
      <trkpt lat="45.06195" lon="17.44969">
        <ele>109.7</ele>
        <time>2022-05-23T14:58:15.000Z</time>
      </trkpt>
      <trkpt lat="45.06186" lon="17.44968">
        <ele>109.7</ele>
        <time>2022-05-23T14:58:21.000Z</time>
      </trkpt>
      <trkpt lat="45.06176" lon="17.44969">
        <ele>109.62</ele>
        <time>2022-05-23T14:58:35.000Z</time>
      </trkpt>
      <trkpt lat="45.06162" lon="17.44968">
        <ele>109.6</ele>
        <time>2022-05-23T14:58:51.000Z</time>
      </trkpt>
      <trkpt lat="45.06153" lon="17.4497">
        <ele>109.5</ele>
        <time>2022-05-23T14:59:00.000Z</time>
      </trkpt>
      <trkpt lat="45.06161" lon="17.44975">
        <ele>109.5</ele>
        <time>2022-05-23T14:59:33.000Z</time>
      </trkpt>
      <trkpt lat="45.06171" lon="17.44983">
        <ele>109.5</ele>
        <time>2022-05-23T14:59:48.000Z</time>
      </trkpt>
      <trkpt lat="45.06162" lon="17.44978">
        <ele>109.42</ele>
        <time>2022-05-23T15:00:06.000Z</time>
      </trkpt>
      <trkpt lat="45.06147" lon="17.44979">
        <ele>109.08</ele>
        <time>2022-05-23T15:00:21.000Z</time>
      </trkpt>
      <trkpt lat="45.06136" lon="17.44979">
        <ele>108.85</ele>
        <time>2022-05-23T15:00:46.000Z</time>
      </trkpt>
      <trkpt lat="45.06169" lon="17.44974">
        <ele>108.71</ele>
        <time>2022-05-23T15:00:51.000Z</time>
      </trkpt>
      <trkpt lat="45.0618" lon="17.44981">
        <ele>97.35</ele>
        <time>2022-05-23T15:06:40.000Z</time>
      </trkpt>
      <trkpt lat="45.06185" lon="17.44994">
        <ele>99</ele>
        <time>2022-05-23T15:08:44.000Z</time>
      </trkpt>
      <trkpt lat="45.06195" lon="17.45002">
        <ele>99.07</ele>
        <time>2022-05-23T15:08:49.000Z</time>
      </trkpt>
      <trkpt lat="45.06213" lon="17.45009">
        <ele>99.82</ele>
        <time>2022-05-23T15:08:54.000Z</time>
      </trkpt>
      <trkpt lat="45.06231" lon="17.45015">
        <ele>101.06</ele>
        <time>2022-05-23T15:08:59.000Z</time>
      </trkpt>
      <trkpt lat="45.0625" lon="17.45019">
        <ele>100.71</ele>
        <time>2022-05-23T15:09:04.000Z</time>
      </trkpt>
      <trkpt lat="45.0627" lon="17.45022">
        <ele>100.36</ele>
        <time>2022-05-23T15:09:09.000Z</time>
      </trkpt>
      <trkpt lat="45.06294" lon="17.45029">
        <ele>97.78</ele>
        <time>2022-05-23T15:09:14.000Z</time>
      </trkpt>
      <trkpt lat="45.06315" lon="17.45043">
        <ele>97.32</ele>
        <time>2022-05-23T15:09:19.000Z</time>
      </trkpt>
      <trkpt lat="45.06331" lon="17.45064">
        <ele>96.55</ele>
        <time>2022-05-23T15:09:24.000Z</time>
      </trkpt>
      <trkpt lat="45.0634" lon="17.45091">
        <ele>96.27</ele>
        <time>2022-05-23T15:09:29.000Z</time>
      </trkpt>
      <trkpt lat="45.06342" lon="17.45118">
        <ele>94.67</ele>
        <time>2022-05-23T15:09:34.000Z</time>
      </trkpt>
      <trkpt lat="45.06344" lon="17.45146">
        <ele>94.18</ele>
        <time>2022-05-23T15:09:39.000Z</time>
      </trkpt>
      <trkpt lat="45.06346" lon="17.45174">
        <ele>92.55</ele>
        <time>2022-05-23T15:09:44.000Z</time>
      </trkpt>
      <trkpt lat="45.06348" lon="17.45203">
        <ele>91.69</ele>
        <time>2022-05-23T15:09:49.000Z</time>
      </trkpt>
      <trkpt lat="45.06349" lon="17.45234">
        <ele>90.06</ele>
        <time>2022-05-23T15:09:54.000Z</time>
      </trkpt>
      <trkpt lat="45.06351" lon="17.45265">
        <ele>90</ele>
        <time>2022-05-23T15:09:59.000Z</time>
      </trkpt>
      <trkpt lat="45.06354" lon="17.45296">
        <ele>88.34</ele>
        <time>2022-05-23T15:10:04.000Z</time>
      </trkpt>
      <trkpt lat="45.06355" lon="17.45329">
        <ele>87.2</ele>
        <time>2022-05-23T15:10:09.000Z</time>
      </trkpt>
      <trkpt lat="45.06357" lon="17.45361">
        <ele>86.35</ele>
        <time>2022-05-23T15:10:14.000Z</time>
      </trkpt>
      <trkpt lat="45.0636" lon="17.45392">
        <ele>87.13</ele>
        <time>2022-05-23T15:10:19.000Z</time>
      </trkpt>
      <trkpt lat="45.06364" lon="17.45421">
        <ele>86.54</ele>
        <time>2022-05-23T15:10:24.000Z</time>
      </trkpt>
      <trkpt lat="45.06367" lon="17.45454">
        <ele>86.63</ele>
        <time>2022-05-23T15:10:29.000Z</time>
      </trkpt>
      <trkpt lat="45.06365" lon="17.45484">
        <ele>86.11</ele>
        <time>2022-05-23T15:10:34.000Z</time>
      </trkpt>
      <trkpt lat="45.06361" lon="17.45514">
        <ele>85.17</ele>
        <time>2022-05-23T15:10:39.000Z</time>
      </trkpt>
      <trkpt lat="45.06352" lon="17.45539">
        <ele>86.54</ele>
        <time>2022-05-23T15:10:44.000Z</time>
      </trkpt>
      <trkpt lat="45.06343" lon="17.4556">
        <ele>86.73</ele>
        <time>2022-05-23T15:10:49.000Z</time>
      </trkpt>
      <trkpt lat="45.06334" lon="17.45582">
        <ele>86.99</ele>
        <time>2022-05-23T15:10:54.000Z</time>
      </trkpt>
      <trkpt lat="45.06323" lon="17.45606">
        <ele>87.42</ele>
        <time>2022-05-23T15:10:59.000Z</time>
      </trkpt>
      <trkpt lat="45.06311" lon="17.45627">
        <ele>87.28</ele>
        <time>2022-05-23T15:11:04.000Z</time>
      </trkpt>
      <trkpt lat="45.06301" lon="17.4565">
        <ele>87.68</ele>
        <time>2022-05-23T15:11:09.000Z</time>
      </trkpt>
      <trkpt lat="45.0629" lon="17.45672">
        <ele>88.56</ele>
        <time>2022-05-23T15:11:14.000Z</time>
      </trkpt>
      <trkpt lat="45.0628" lon="17.45695">
        <ele>89.1</ele>
        <time>2022-05-23T15:11:19.000Z</time>
      </trkpt>
      <trkpt lat="45.06268" lon="17.45717">
        <ele>89.65</ele>
        <time>2022-05-23T15:11:24.000Z</time>
      </trkpt>
      <trkpt lat="45.06255" lon="17.45748">
        <ele>90.49</ele>
        <time>2022-05-23T15:11:29.000Z</time>
      </trkpt>
      <trkpt lat="45.06239" lon="17.45779">
        <ele>90.79</ele>
        <time>2022-05-23T15:11:34.000Z</time>
      </trkpt>
      <trkpt lat="45.06218" lon="17.45807">
        <ele>90.34</ele>
        <time>2022-05-23T15:11:39.000Z</time>
      </trkpt>
      <trkpt lat="45.06193" lon="17.45831">
        <ele>89.24</ele>
        <time>2022-05-23T15:11:44.000Z</time>
      </trkpt>
      <trkpt lat="45.06164" lon="17.4585">
        <ele>89.07</ele>
        <time>2022-05-23T15:11:49.000Z</time>
      </trkpt>
      <trkpt lat="45.06136" lon="17.45865">
        <ele>89.37</ele>
        <time>2022-05-23T15:11:54.000Z</time>
      </trkpt>
      <trkpt lat="45.0611" lon="17.45878">
        <ele>88.94</ele>
        <time>2022-05-23T15:11:59.000Z</time>
      </trkpt>
      <trkpt lat="45.06085" lon="17.4589">
        <ele>88.1</ele>
        <time>2022-05-23T15:12:04.000Z</time>
      </trkpt>
      <trkpt lat="45.06062" lon="17.45901">
        <ele>87.91</ele>
        <time>2022-05-23T15:12:09.000Z</time>
      </trkpt>
      <trkpt lat="45.06039" lon="17.45913">
        <ele>88.38</ele>
        <time>2022-05-23T15:12:14.000Z</time>
      </trkpt>
      <trkpt lat="45.06016" lon="17.45924">
        <ele>89.31</ele>
        <time>2022-05-23T15:12:19.000Z</time>
      </trkpt>
      <trkpt lat="45.05994" lon="17.45936">
        <ele>89.72</ele>
        <time>2022-05-23T15:12:24.000Z</time>
      </trkpt>
      <trkpt lat="45.05972" lon="17.45947">
        <ele>89.09</ele>
        <time>2022-05-23T15:12:29.000Z</time>
      </trkpt>
      <trkpt lat="45.05949" lon="17.45959">
        <ele>89.11</ele>
        <time>2022-05-23T15:12:34.000Z</time>
      </trkpt>
      <trkpt lat="45.05926" lon="17.4597">
        <ele>88.48</ele>
        <time>2022-05-23T15:12:39.000Z</time>
      </trkpt>
      <trkpt lat="45.05903" lon="17.4598">
        <ele>88.98</ele>
        <time>2022-05-23T15:12:44.000Z</time>
      </trkpt>
      <trkpt lat="45.05881" lon="17.45991">
        <ele>89.06</ele>
        <time>2022-05-23T15:12:49.000Z</time>
      </trkpt>
      <trkpt lat="45.05859" lon="17.46002">
        <ele>89.03</ele>
        <time>2022-05-23T15:12:54.000Z</time>
      </trkpt>
      <trkpt lat="45.05837" lon="17.46013">
        <ele>88.53</ele>
        <time>2022-05-23T15:12:59.000Z</time>
      </trkpt>
      <trkpt lat="45.05818" lon="17.46027">
        <ele>88.63</ele>
        <time>2022-05-23T15:13:04.000Z</time>
      </trkpt>
      <trkpt lat="45.05802" lon="17.4604">
        <ele>88.09</ele>
        <time>2022-05-23T15:13:09.000Z</time>
      </trkpt>
      <trkpt lat="45.05791" lon="17.46057">
        <ele>87.28</ele>
        <time>2022-05-23T15:13:14.000Z</time>
      </trkpt>
      <trkpt lat="45.05784" lon="17.46082">
        <ele>86.15</ele>
        <time>2022-05-23T15:13:19.000Z</time>
      </trkpt>
      <trkpt lat="45.0578" lon="17.4611">
        <ele>86.1</ele>
        <time>2022-05-23T15:13:24.000Z</time>
      </trkpt>
      <trkpt lat="45.05781" lon="17.4613">
        <ele>86.08</ele>
        <time>2022-05-23T15:13:29.000Z</time>
      </trkpt>
      <trkpt lat="45.05786" lon="17.46156">
        <ele>86.1</ele>
        <time>2022-05-23T15:13:34.000Z</time>
      </trkpt>
      <trkpt lat="45.05791" lon="17.46191">
        <ele>85.83</ele>
        <time>2022-05-23T15:13:39.000Z</time>
      </trkpt>
      <trkpt lat="45.05795" lon="17.46216">
        <ele>85.17</ele>
        <time>2022-05-23T15:13:44.000Z</time>
      </trkpt>
      <trkpt lat="45.05796" lon="17.46238">
        <ele>84.88</ele>
        <time>2022-05-23T15:13:49.000Z</time>
      </trkpt>
      <trkpt lat="45.05796" lon="17.46257">
        <ele>84.89</ele>
        <time>2022-05-23T15:13:54.000Z</time>
      </trkpt>
      <trkpt lat="45.05793" lon="17.4627">
        <ele>85.7</ele>
        <time>2022-05-23T15:13:59.000Z</time>
      </trkpt>
      <trkpt lat="45.05801" lon="17.46282">
        <ele>89.27</ele>
        <time>2022-05-23T15:14:13.000Z</time>
      </trkpt>
      <trkpt lat="45.05805" lon="17.46308">
        <ele>88.79</ele>
        <time>2022-05-23T15:14:18.000Z</time>
      </trkpt>
      <trkpt lat="45.05809" lon="17.46337">
        <ele>88.1</ele>
        <time>2022-05-23T15:14:23.000Z</time>
      </trkpt>
      <trkpt lat="45.05814" lon="17.4637">
        <ele>89.36</ele>
        <time>2022-05-23T15:14:28.000Z</time>
      </trkpt>
      <trkpt lat="45.05818" lon="17.46404">
        <ele>88.63</ele>
        <time>2022-05-23T15:14:33.000Z</time>
      </trkpt>
      <trkpt lat="45.05822" lon="17.46438">
        <ele>88.34</ele>
        <time>2022-05-23T15:14:38.000Z</time>
      </trkpt>
      <trkpt lat="45.05826" lon="17.4647">
        <ele>88.07</ele>
        <time>2022-05-23T15:14:43.000Z</time>
      </trkpt>
      <trkpt lat="45.05831" lon="17.46503">
        <ele>87.46</ele>
        <time>2022-05-23T15:14:48.000Z</time>
      </trkpt>
      <trkpt lat="45.05837" lon="17.46539">
        <ele>87.55</ele>
        <time>2022-05-23T15:14:53.000Z</time>
      </trkpt>
      <trkpt lat="45.05842" lon="17.46574">
        <ele>87.03</ele>
        <time>2022-05-23T15:14:58.000Z</time>
      </trkpt>
      <trkpt lat="45.05848" lon="17.46606">
        <ele>87.13</ele>
        <time>2022-05-23T15:15:03.000Z</time>
      </trkpt>
      <trkpt lat="45.05854" lon="17.46641">
        <ele>86.14</ele>
        <time>2022-05-23T15:15:08.000Z</time>
      </trkpt>
      <trkpt lat="45.05859" lon="17.46675">
        <ele>86.35</ele>
        <time>2022-05-23T15:15:13.000Z</time>
      </trkpt>
      <trkpt lat="45.05864" lon="17.46709">
        <ele>86.66</ele>
        <time>2022-05-23T15:15:18.000Z</time>
      </trkpt>
      <trkpt lat="45.05869" lon="17.46741">
        <ele>85.5</ele>
        <time>2022-05-23T15:15:23.000Z</time>
      </trkpt>
      <trkpt lat="45.05874" lon="17.46771">
        <ele>85.67</ele>
        <time>2022-05-23T15:15:28.000Z</time>
      </trkpt>
      <trkpt lat="45.05879" lon="17.46803">
        <ele>88.25</ele>
        <time>2022-05-23T15:15:33.000Z</time>
      </trkpt>
      <trkpt lat="45.05885" lon="17.46832">
        <ele>91.35</ele>
        <time>2022-05-23T15:15:38.000Z</time>
      </trkpt>
      <trkpt lat="45.05889" lon="17.46866">
        <ele>92.58</ele>
        <time>2022-05-23T15:15:43.000Z</time>
      </trkpt>
      <trkpt lat="45.05893" lon="17.46899">
        <ele>92.46</ele>
        <time>2022-05-23T15:15:48.000Z</time>
      </trkpt>
      <trkpt lat="45.05899" lon="17.46932">
        <ele>91.83</ele>
        <time>2022-05-23T15:15:53.000Z</time>
      </trkpt>
      <trkpt lat="45.05904" lon="17.46966">
        <ele>91.66</ele>
        <time>2022-05-23T15:15:58.000Z</time>
      </trkpt>
      <trkpt lat="45.0591" lon="17.47">
        <ele>91.04</ele>
        <time>2022-05-23T15:16:03.000Z</time>
      </trkpt>
      <trkpt lat="45.05915" lon="17.47036">
        <ele>90.82</ele>
        <time>2022-05-23T15:16:08.000Z</time>
      </trkpt>
      <trkpt lat="45.0592" lon="17.47072">
        <ele>90.52</ele>
        <time>2022-05-23T15:16:13.000Z</time>
      </trkpt>
      <trkpt lat="45.05926" lon="17.47108">
        <ele>90.78</ele>
        <time>2022-05-23T15:16:18.000Z</time>
      </trkpt>
      <trkpt lat="45.05932" lon="17.47142">
        <ele>91.18</ele>
        <time>2022-05-23T15:16:23.000Z</time>
      </trkpt>
      <trkpt lat="45.05937" lon="17.47177">
        <ele>90.81</ele>
        <time>2022-05-23T15:16:28.000Z</time>
      </trkpt>
      <trkpt lat="45.05942" lon="17.47213">
        <ele>89.66</ele>
        <time>2022-05-23T15:16:33.000Z</time>
      </trkpt>
      <trkpt lat="45.05947" lon="17.47247">
        <ele>88.68</ele>
        <time>2022-05-23T15:16:38.000Z</time>
      </trkpt>
      <trkpt lat="45.05952" lon="17.47281">
        <ele>87.51</ele>
        <time>2022-05-23T15:16:43.000Z</time>
      </trkpt>
      <trkpt lat="45.05958" lon="17.47315">
        <ele>86.84</ele>
        <time>2022-05-23T15:16:48.000Z</time>
      </trkpt>
      <trkpt lat="45.05963" lon="17.47346">
        <ele>85.74</ele>
        <time>2022-05-23T15:16:53.000Z</time>
      </trkpt>
      <trkpt lat="45.05968" lon="17.47378">
        <ele>85.11</ele>
        <time>2022-05-23T15:16:58.000Z</time>
      </trkpt>
      <trkpt lat="45.05973" lon="17.47407">
        <ele>86.09</ele>
        <time>2022-05-23T15:17:03.000Z</time>
      </trkpt>
      <trkpt lat="45.0598" lon="17.4744">
        <ele>85.03</ele>
        <time>2022-05-23T15:17:08.000Z</time>
      </trkpt>
      <trkpt lat="45.05985" lon="17.47471">
        <ele>84.73</ele>
        <time>2022-05-23T15:17:13.000Z</time>
      </trkpt>
      <trkpt lat="45.0599" lon="17.47505">
        <ele>85.58</ele>
        <time>2022-05-23T15:17:18.000Z</time>
      </trkpt>
      <trkpt lat="45.05995" lon="17.47539">
        <ele>86.37</ele>
        <time>2022-05-23T15:17:23.000Z</time>
      </trkpt>
      <trkpt lat="45.06" lon="17.47572">
        <ele>86.5</ele>
        <time>2022-05-23T15:17:28.000Z</time>
      </trkpt>
      <trkpt lat="45.06005" lon="17.47606">
        <ele>86.89</ele>
        <time>2022-05-23T15:17:33.000Z</time>
      </trkpt>
      <trkpt lat="45.06008" lon="17.4764">
        <ele>87.37</ele>
        <time>2022-05-23T15:17:38.000Z</time>
      </trkpt>
      <trkpt lat="45.06014" lon="17.47676">
        <ele>89.4</ele>
        <time>2022-05-23T15:17:43.000Z</time>
      </trkpt>
      <trkpt lat="45.0602" lon="17.47711">
        <ele>91.64</ele>
        <time>2022-05-23T15:17:48.000Z</time>
      </trkpt>
      <trkpt lat="45.06026" lon="17.47742">
        <ele>90.88</ele>
        <time>2022-05-23T15:17:53.000Z</time>
      </trkpt>
      <trkpt lat="45.06031" lon="17.47772">
        <ele>90.85</ele>
        <time>2022-05-23T15:17:58.000Z</time>
      </trkpt>
      <trkpt lat="45.06035" lon="17.47803">
        <ele>90.41</ele>
        <time>2022-05-23T15:18:03.000Z</time>
      </trkpt>
      <trkpt lat="45.06039" lon="17.47836">
        <ele>89.9</ele>
        <time>2022-05-23T15:18:08.000Z</time>
      </trkpt>
      <trkpt lat="45.06043" lon="17.47872">
        <ele>90.36</ele>
        <time>2022-05-23T15:18:13.000Z</time>
      </trkpt>
      <trkpt lat="45.06047" lon="17.47903">
        <ele>89.64</ele>
        <time>2022-05-23T15:18:18.000Z</time>
      </trkpt>
      <trkpt lat="45.06052" lon="17.47935">
        <ele>88.3</ele>
        <time>2022-05-23T15:18:23.000Z</time>
      </trkpt>
      <trkpt lat="45.06057" lon="17.47969">
        <ele>86.82</ele>
        <time>2022-05-23T15:18:28.000Z</time>
      </trkpt>
      <trkpt lat="45.06063" lon="17.48001">
        <ele>86.31</ele>
        <time>2022-05-23T15:18:33.000Z</time>
      </trkpt>
      <trkpt lat="45.06068" lon="17.48031">
        <ele>85.85</ele>
        <time>2022-05-23T15:18:38.000Z</time>
      </trkpt>
      <trkpt lat="45.06073" lon="17.48062">
        <ele>85.28</ele>
        <time>2022-05-23T15:18:43.000Z</time>
      </trkpt>
      <trkpt lat="45.06078" lon="17.48093">
        <ele>84.8</ele>
        <time>2022-05-23T15:18:48.000Z</time>
      </trkpt>
      <trkpt lat="45.06082" lon="17.48126">
        <ele>85.57</ele>
        <time>2022-05-23T15:18:53.000Z</time>
      </trkpt>
      <trkpt lat="45.06087" lon="17.48159">
        <ele>86.72</ele>
        <time>2022-05-23T15:18:58.000Z</time>
      </trkpt>
      <trkpt lat="45.06092" lon="17.48191">
        <ele>87.19</ele>
        <time>2022-05-23T15:19:03.000Z</time>
      </trkpt>
      <trkpt lat="45.06097" lon="17.48222">
        <ele>87.01</ele>
        <time>2022-05-23T15:19:08.000Z</time>
      </trkpt>
      <trkpt lat="45.06101" lon="17.48253">
        <ele>86.53</ele>
        <time>2022-05-23T15:19:13.000Z</time>
      </trkpt>
      <trkpt lat="45.06105" lon="17.48285">
        <ele>87.26</ele>
        <time>2022-05-23T15:19:18.000Z</time>
      </trkpt>
      <trkpt lat="45.0611" lon="17.48318">
        <ele>86.69</ele>
        <time>2022-05-23T15:19:23.000Z</time>
      </trkpt>
      <trkpt lat="45.06115" lon="17.48349">
        <ele>86.82</ele>
        <time>2022-05-23T15:19:28.000Z</time>
      </trkpt>
      <trkpt lat="45.0612" lon="17.48383">
        <ele>84.63</ele>
        <time>2022-05-23T15:19:33.000Z</time>
      </trkpt>
      <trkpt lat="45.06124" lon="17.48416">
        <ele>82.76</ele>
        <time>2022-05-23T15:19:38.000Z</time>
      </trkpt>
      <trkpt lat="45.06127" lon="17.4844">
        <ele>82.33</ele>
        <time>2022-05-23T15:19:43.000Z</time>
      </trkpt>
      <trkpt lat="45.06132" lon="17.4846">
        <ele>84.93</ele>
        <time>2022-05-23T15:19:48.000Z</time>
      </trkpt>
      <trkpt lat="45.0614" lon="17.48471">
        <ele>88.81</ele>
        <time>2022-05-23T15:19:53.000Z</time>
      </trkpt>
      <trkpt lat="45.06135" lon="17.48482">
        <ele>93.98</ele>
        <time>2022-05-23T15:22:12.000Z</time>
      </trkpt>
      <trkpt lat="45.06134" lon="17.48507">
        <ele>93.34</ele>
        <time>2022-05-23T15:22:17.000Z</time>
      </trkpt>
      <trkpt lat="45.06137" lon="17.48542">
        <ele>93.31</ele>
        <time>2022-05-23T15:22:22.000Z</time>
      </trkpt>
      <trkpt lat="45.06139" lon="17.48576">
        <ele>93.22</ele>
        <time>2022-05-23T15:22:27.000Z</time>
      </trkpt>
      <trkpt lat="45.06144" lon="17.48606">
        <ele>92.91</ele>
        <time>2022-05-23T15:22:32.000Z</time>
      </trkpt>
      <trkpt lat="45.06148" lon="17.48637">
        <ele>92.8</ele>
        <time>2022-05-23T15:22:37.000Z</time>
      </trkpt>
      <trkpt lat="45.06151" lon="17.48666">
        <ele>92.61</ele>
        <time>2022-05-23T15:22:42.000Z</time>
      </trkpt>
      <trkpt lat="45.06156" lon="17.48688">
        <ele>92.5</ele>
        <time>2022-05-23T15:22:47.000Z</time>
      </trkpt>
      <trkpt lat="45.0616" lon="17.48716">
        <ele>91.74</ele>
        <time>2022-05-23T15:22:52.000Z</time>
      </trkpt>
      <trkpt lat="45.06163" lon="17.48745">
        <ele>91.5</ele>
        <time>2022-05-23T15:22:57.000Z</time>
      </trkpt>
      <trkpt lat="45.06169" lon="17.48776">
        <ele>91.33</ele>
        <time>2022-05-23T15:23:02.000Z</time>
      </trkpt>
      <trkpt lat="45.06172" lon="17.48809">
        <ele>90.86</ele>
        <time>2022-05-23T15:23:07.000Z</time>
      </trkpt>
      <trkpt lat="45.06175" lon="17.48843">
        <ele>90.9</ele>
        <time>2022-05-23T15:23:12.000Z</time>
      </trkpt>
      <trkpt lat="45.06179" lon="17.48878">
        <ele>90.74</ele>
        <time>2022-05-23T15:23:17.000Z</time>
      </trkpt>
      <trkpt lat="45.06183" lon="17.48915">
        <ele>89.64</ele>
        <time>2022-05-23T15:23:22.000Z</time>
      </trkpt>
      <trkpt lat="45.06187" lon="17.48948">
        <ele>89.21</ele>
        <time>2022-05-23T15:23:27.000Z</time>
      </trkpt>
      <trkpt lat="45.06191" lon="17.48983">
        <ele>88.19</ele>
        <time>2022-05-23T15:23:32.000Z</time>
      </trkpt>
      <trkpt lat="45.06196" lon="17.49017">
        <ele>88.18</ele>
        <time>2022-05-23T15:23:37.000Z</time>
      </trkpt>
      <trkpt lat="45.06198" lon="17.49052">
        <ele>86.62</ele>
        <time>2022-05-23T15:23:42.000Z</time>
      </trkpt>
      <trkpt lat="45.06204" lon="17.49088">
        <ele>85.66</ele>
        <time>2022-05-23T15:23:47.000Z</time>
      </trkpt>
      <trkpt lat="45.06207" lon="17.49123">
        <ele>85.44</ele>
        <time>2022-05-23T15:23:52.000Z</time>
      </trkpt>
      <trkpt lat="45.06211" lon="17.4916">
        <ele>85.37</ele>
        <time>2022-05-23T15:23:57.000Z</time>
      </trkpt>
      <trkpt lat="45.06215" lon="17.49194">
        <ele>85.23</ele>
        <time>2022-05-23T15:24:02.000Z</time>
      </trkpt>
      <trkpt lat="45.06218" lon="17.49228">
        <ele>85.27</ele>
        <time>2022-05-23T15:24:07.000Z</time>
      </trkpt>
      <trkpt lat="45.06224" lon="17.49264">
        <ele>86.54</ele>
        <time>2022-05-23T15:24:12.000Z</time>
      </trkpt>
      <trkpt lat="45.06229" lon="17.49301">
        <ele>86.05</ele>
        <time>2022-05-23T15:24:17.000Z</time>
      </trkpt>
      <trkpt lat="45.06233" lon="17.49338">
        <ele>84.5</ele>
        <time>2022-05-23T15:24:22.000Z</time>
      </trkpt>
      <trkpt lat="45.06237" lon="17.49377">
        <ele>84.01</ele>
        <time>2022-05-23T15:24:27.000Z</time>
      </trkpt>
      <trkpt lat="45.06242" lon="17.49415">
        <ele>84.42</ele>
        <time>2022-05-23T15:24:32.000Z</time>
      </trkpt>
      <trkpt lat="45.06247" lon="17.49453">
        <ele>84.61</ele>
        <time>2022-05-23T15:24:37.000Z</time>
      </trkpt>
      <trkpt lat="45.06253" lon="17.49491">
        <ele>84.59</ele>
        <time>2022-05-23T15:24:42.000Z</time>
      </trkpt>
      <trkpt lat="45.06262" lon="17.49525">
        <ele>84.52</ele>
        <time>2022-05-23T15:24:47.000Z</time>
      </trkpt>
      <trkpt lat="45.06276" lon="17.49554">
        <ele>85.21</ele>
        <time>2022-05-23T15:24:52.000Z</time>
      </trkpt>
      <trkpt lat="45.06293" lon="17.49577">
        <ele>84.99</ele>
        <time>2022-05-23T15:24:57.000Z</time>
      </trkpt>
      <trkpt lat="45.06315" lon="17.49594">
        <ele>88.03</ele>
        <time>2022-05-23T15:25:02.000Z</time>
      </trkpt>
      <trkpt lat="45.06336" lon="17.49606">
        <ele>89.93</ele>
        <time>2022-05-23T15:25:07.000Z</time>
      </trkpt>
      <trkpt lat="45.06357" lon="17.49618">
        <ele>91.65</ele>
        <time>2022-05-23T15:25:12.000Z</time>
      </trkpt>
      <trkpt lat="45.06378" lon="17.49628">
        <ele>93.15</ele>
        <time>2022-05-23T15:25:17.000Z</time>
      </trkpt>
      <trkpt lat="45.06401" lon="17.49639">
        <ele>94.01</ele>
        <time>2022-05-23T15:25:22.000Z</time>
      </trkpt>
      <trkpt lat="45.06423" lon="17.49648">
        <ele>95.53</ele>
        <time>2022-05-23T15:25:27.000Z</time>
      </trkpt>
      <trkpt lat="45.06444" lon="17.49655">
        <ele>95.48</ele>
        <time>2022-05-23T15:25:32.000Z</time>
      </trkpt>
      <trkpt lat="45.06468" lon="17.49658">
        <ele>96.52</ele>
        <time>2022-05-23T15:25:37.000Z</time>
      </trkpt>
      <trkpt lat="45.06493" lon="17.4965">
        <ele>97.08</ele>
        <time>2022-05-23T15:25:42.000Z</time>
      </trkpt>
      <trkpt lat="45.06517" lon="17.49638">
        <ele>97.58</ele>
        <time>2022-05-23T15:25:47.000Z</time>
      </trkpt>
      <trkpt lat="45.06542" lon="17.49622">
        <ele>96.82</ele>
        <time>2022-05-23T15:25:52.000Z</time>
      </trkpt>
      <trkpt lat="45.06565" lon="17.49606">
        <ele>96.06</ele>
        <time>2022-05-23T15:25:57.000Z</time>
      </trkpt>
      <trkpt lat="45.0659" lon="17.4959">
        <ele>95.13</ele>
        <time>2022-05-23T15:26:02.000Z</time>
      </trkpt>
      <trkpt lat="45.06613" lon="17.49575">
        <ele>93</ele>
        <time>2022-05-23T15:26:07.000Z</time>
      </trkpt>
      <trkpt lat="45.06638" lon="17.49563">
        <ele>91.76</ele>
        <time>2022-05-23T15:26:12.000Z</time>
      </trkpt>
      <trkpt lat="45.06663" lon="17.49559">
        <ele>91.37</ele>
        <time>2022-05-23T15:26:17.000Z</time>
      </trkpt>
      <trkpt lat="45.0669" lon="17.49568">
        <ele>90.12</ele>
        <time>2022-05-23T15:26:22.000Z</time>
      </trkpt>
      <trkpt lat="45.06712" lon="17.49586">
        <ele>89.93</ele>
        <time>2022-05-23T15:26:27.000Z</time>
      </trkpt>
      <trkpt lat="45.0673" lon="17.49612">
        <ele>89.72</ele>
        <time>2022-05-23T15:26:32.000Z</time>
      </trkpt>
      <trkpt lat="45.06743" lon="17.49643">
        <ele>89.33</ele>
        <time>2022-05-23T15:26:37.000Z</time>
      </trkpt>
      <trkpt lat="45.06754" lon="17.49674">
        <ele>89.05</ele>
        <time>2022-05-23T15:26:42.000Z</time>
      </trkpt>
      <trkpt lat="45.06766" lon="17.49706">
        <ele>89.09</ele>
        <time>2022-05-23T15:26:47.000Z</time>
      </trkpt>
      <trkpt lat="45.06779" lon="17.49734">
        <ele>89.36</ele>
        <time>2022-05-23T15:26:52.000Z</time>
      </trkpt>
      <trkpt lat="45.06793" lon="17.49759">
        <ele>88.56</ele>
        <time>2022-05-23T15:26:57.000Z</time>
      </trkpt>
      <trkpt lat="45.06809" lon="17.49783">
        <ele>88.25</ele>
        <time>2022-05-23T15:27:02.000Z</time>
      </trkpt>
      <trkpt lat="45.06827" lon="17.49805">
        <ele>90.17</ele>
        <time>2022-05-23T15:27:07.000Z</time>
      </trkpt>
      <trkpt lat="45.06847" lon="17.49828">
        <ele>91.15</ele>
        <time>2022-05-23T15:27:12.000Z</time>
      </trkpt>
      <trkpt lat="45.06865" lon="17.4985">
        <ele>91.64</ele>
        <time>2022-05-23T15:27:17.000Z</time>
      </trkpt>
      <trkpt lat="45.06885" lon="17.49872">
        <ele>91.75</ele>
        <time>2022-05-23T15:27:22.000Z</time>
      </trkpt>
      <trkpt lat="45.06905" lon="17.49894">
        <ele>91.91</ele>
        <time>2022-05-23T15:27:27.000Z</time>
      </trkpt>
      <trkpt lat="45.06924" lon="17.49914">
        <ele>91.99</ele>
        <time>2022-05-23T15:27:32.000Z</time>
      </trkpt>
      <trkpt lat="45.06942" lon="17.49931">
        <ele>92.03</ele>
        <time>2022-05-23T15:27:37.000Z</time>
      </trkpt>
      <trkpt lat="45.06962" lon="17.49951">
        <ele>92.1</ele>
        <time>2022-05-23T15:27:42.000Z</time>
      </trkpt>
      <trkpt lat="45.06984" lon="17.4997">
        <ele>92.56</ele>
        <time>2022-05-23T15:27:47.000Z</time>
      </trkpt>
      <trkpt lat="45.07007" lon="17.49988">
        <ele>92.76</ele>
        <time>2022-05-23T15:27:52.000Z</time>
      </trkpt>
      <trkpt lat="45.07031" lon="17.50002">
        <ele>94.38</ele>
        <time>2022-05-23T15:27:57.000Z</time>
      </trkpt>
      <trkpt lat="45.07056" lon="17.50016">
        <ele>95.57</ele>
        <time>2022-05-23T15:28:02.000Z</time>
      </trkpt>
      <trkpt lat="45.07078" lon="17.50026">
        <ele>96.19</ele>
        <time>2022-05-23T15:28:07.000Z</time>
      </trkpt>
      <trkpt lat="45.07102" lon="17.50036">
        <ele>96.55</ele>
        <time>2022-05-23T15:28:12.000Z</time>
      </trkpt>
      <trkpt lat="45.07126" lon="17.50045">
        <ele>96.79</ele>
        <time>2022-05-23T15:28:17.000Z</time>
      </trkpt>
      <trkpt lat="45.07151" lon="17.50055">
        <ele>96.84</ele>
        <time>2022-05-23T15:28:22.000Z</time>
      </trkpt>
      <trkpt lat="45.07177" lon="17.50066">
        <ele>96.49</ele>
        <time>2022-05-23T15:28:27.000Z</time>
      </trkpt>
      <trkpt lat="45.07203" lon="17.50072">
        <ele>95.44</ele>
        <time>2022-05-23T15:28:32.000Z</time>
      </trkpt>
      <trkpt lat="45.07229" lon="17.50074">
        <ele>93.54</ele>
        <time>2022-05-23T15:28:37.000Z</time>
      </trkpt>
      <trkpt lat="45.07257" lon="17.50079">
        <ele>94.86</ele>
        <time>2022-05-23T15:28:42.000Z</time>
      </trkpt>
      <trkpt lat="45.07285" lon="17.50086">
        <ele>94.79</ele>
        <time>2022-05-23T15:28:47.000Z</time>
      </trkpt>
      <trkpt lat="45.07313" lon="17.50094">
        <ele>96</ele>
        <time>2022-05-23T15:28:52.000Z</time>
      </trkpt>
      <trkpt lat="45.0734" lon="17.50101">
        <ele>96.32</ele>
        <time>2022-05-23T15:28:57.000Z</time>
      </trkpt>
      <trkpt lat="45.07369" lon="17.5011">
        <ele>96.23</ele>
        <time>2022-05-23T15:29:02.000Z</time>
      </trkpt>
      <trkpt lat="45.07398" lon="17.50117">
        <ele>95.13</ele>
        <time>2022-05-23T15:29:07.000Z</time>
      </trkpt>
      <trkpt lat="45.07425" lon="17.50126">
        <ele>94.82</ele>
        <time>2022-05-23T15:29:12.000Z</time>
      </trkpt>
      <trkpt lat="45.07451" lon="17.50133">
        <ele>94.92</ele>
        <time>2022-05-23T15:29:17.000Z</time>
      </trkpt>
      <trkpt lat="45.07479" lon="17.5014">
        <ele>95.76</ele>
        <time>2022-05-23T15:29:22.000Z</time>
      </trkpt>
      <trkpt lat="45.07506" lon="17.50148">
        <ele>94.56</ele>
        <time>2022-05-23T15:29:27.000Z</time>
      </trkpt>
      <trkpt lat="45.07532" lon="17.50156">
        <ele>94.04</ele>
        <time>2022-05-23T15:29:32.000Z</time>
      </trkpt>
      <trkpt lat="45.07559" lon="17.50164">
        <ele>93.39</ele>
        <time>2022-05-23T15:29:37.000Z</time>
      </trkpt>
      <trkpt lat="45.07585" lon="17.50171">
        <ele>91.78</ele>
        <time>2022-05-23T15:29:42.000Z</time>
      </trkpt>
      <trkpt lat="45.07611" lon="17.50178">
        <ele>89.46</ele>
        <time>2022-05-23T15:29:47.000Z</time>
      </trkpt>
      <trkpt lat="45.07639" lon="17.50186">
        <ele>88.44</ele>
        <time>2022-05-23T15:29:52.000Z</time>
      </trkpt>
      <trkpt lat="45.07668" lon="17.50193">
        <ele>89.2</ele>
        <time>2022-05-23T15:29:57.000Z</time>
      </trkpt>
      <trkpt lat="45.07696" lon="17.502">
        <ele>88.43</ele>
        <time>2022-05-23T15:30:02.000Z</time>
      </trkpt>
      <trkpt lat="45.07726" lon="17.50208">
        <ele>88.75</ele>
        <time>2022-05-23T15:30:07.000Z</time>
      </trkpt>
      <trkpt lat="45.07754" lon="17.50215">
        <ele>88.62</ele>
        <time>2022-05-23T15:30:12.000Z</time>
      </trkpt>
      <trkpt lat="45.07779" lon="17.5022">
        <ele>89.14</ele>
        <time>2022-05-23T15:30:17.000Z</time>
      </trkpt>
      <trkpt lat="45.07807" lon="17.50226">
        <ele>89.24</ele>
        <time>2022-05-23T15:30:22.000Z</time>
      </trkpt>
      <trkpt lat="45.07835" lon="17.50233">
        <ele>91.01</ele>
        <time>2022-05-23T15:30:27.000Z</time>
      </trkpt>
      <trkpt lat="45.07862" lon="17.5024">
        <ele>91.41</ele>
        <time>2022-05-23T15:30:32.000Z</time>
      </trkpt>
      <trkpt lat="45.0789" lon="17.50245">
        <ele>90.24</ele>
        <time>2022-05-23T15:30:37.000Z</time>
      </trkpt>
      <trkpt lat="45.07919" lon="17.5025">
        <ele>90.7</ele>
        <time>2022-05-23T15:30:42.000Z</time>
      </trkpt>
      <trkpt lat="45.07949" lon="17.50259">
        <ele>91.4</ele>
        <time>2022-05-23T15:30:47.000Z</time>
      </trkpt>
      <trkpt lat="45.07979" lon="17.50265">
        <ele>91.93</ele>
        <time>2022-05-23T15:30:52.000Z</time>
      </trkpt>
      <trkpt lat="45.08009" lon="17.50275">
        <ele>92.35</ele>
        <time>2022-05-23T15:30:57.000Z</time>
      </trkpt>
      <trkpt lat="45.08038" lon="17.50283">
        <ele>92.51</ele>
        <time>2022-05-23T15:31:02.000Z</time>
      </trkpt>
      <trkpt lat="45.08065" lon="17.50289">
        <ele>93.1</ele>
        <time>2022-05-23T15:31:07.000Z</time>
      </trkpt>
      <trkpt lat="45.08092" lon="17.50295">
        <ele>94.11</ele>
        <time>2022-05-23T15:31:12.000Z</time>
      </trkpt>
      <trkpt lat="45.08122" lon="17.50304">
        <ele>94.66</ele>
        <time>2022-05-23T15:31:17.000Z</time>
      </trkpt>
      <trkpt lat="45.08151" lon="17.50312">
        <ele>94.48</ele>
        <time>2022-05-23T15:31:22.000Z</time>
      </trkpt>
      <trkpt lat="45.0818" lon="17.50321">
        <ele>94.03</ele>
        <time>2022-05-23T15:31:27.000Z</time>
      </trkpt>
      <trkpt lat="45.08208" lon="17.50327">
        <ele>94.05</ele>
        <time>2022-05-23T15:31:32.000Z</time>
      </trkpt>
      <trkpt lat="45.08236" lon="17.50334">
        <ele>93.49</ele>
        <time>2022-05-23T15:31:37.000Z</time>
      </trkpt>
      <trkpt lat="45.08265" lon="17.50342">
        <ele>92.1</ele>
        <time>2022-05-23T15:31:42.000Z</time>
      </trkpt>
      <trkpt lat="45.08294" lon="17.50347">
        <ele>92.97</ele>
        <time>2022-05-23T15:31:47.000Z</time>
      </trkpt>
      <trkpt lat="45.08323" lon="17.50355">
        <ele>93.07</ele>
        <time>2022-05-23T15:31:52.000Z</time>
      </trkpt>
      <trkpt lat="45.0835" lon="17.50362">
        <ele>94.08</ele>
        <time>2022-05-23T15:31:57.000Z</time>
      </trkpt>
      <trkpt lat="45.08379" lon="17.5037">
        <ele>94.38</ele>
        <time>2022-05-23T15:32:02.000Z</time>
      </trkpt>
      <trkpt lat="45.08408" lon="17.50378">
        <ele>94.1</ele>
        <time>2022-05-23T15:32:07.000Z</time>
      </trkpt>
      <trkpt lat="45.08436" lon="17.50384">
        <ele>94.8</ele>
        <time>2022-05-23T15:32:12.000Z</time>
      </trkpt>
      <trkpt lat="45.08467" lon="17.50392">
        <ele>95.58</ele>
        <time>2022-05-23T15:32:17.000Z</time>
      </trkpt>
      <trkpt lat="45.08498" lon="17.50399">
        <ele>95.89</ele>
        <time>2022-05-23T15:32:22.000Z</time>
      </trkpt>
      <trkpt lat="45.08527" lon="17.50408">
        <ele>94</ele>
        <time>2022-05-23T15:32:27.000Z</time>
      </trkpt>
      <trkpt lat="45.08556" lon="17.50419">
        <ele>92.95</ele>
        <time>2022-05-23T15:32:32.000Z</time>
      </trkpt>
      <trkpt lat="45.08584" lon="17.50433">
        <ele>91.54</ele>
        <time>2022-05-23T15:32:37.000Z</time>
      </trkpt>
      <trkpt lat="45.08614" lon="17.5045">
        <ele>92.59</ele>
        <time>2022-05-23T15:32:42.000Z</time>
      </trkpt>
      <trkpt lat="45.08645" lon="17.50466">
        <ele>93.52</ele>
        <time>2022-05-23T15:32:47.000Z</time>
      </trkpt>
      <trkpt lat="45.08673" lon="17.50481">
        <ele>92.95</ele>
        <time>2022-05-23T15:32:52.000Z</time>
      </trkpt>
      <trkpt lat="45.08701" lon="17.50497">
        <ele>93.16</ele>
        <time>2022-05-23T15:32:57.000Z</time>
      </trkpt>
      <trkpt lat="45.0873" lon="17.50513">
        <ele>93.38</ele>
        <time>2022-05-23T15:33:02.000Z</time>
      </trkpt>
      <trkpt lat="45.08759" lon="17.50529">
        <ele>93.91</ele>
        <time>2022-05-23T15:33:07.000Z</time>
      </trkpt>
      <trkpt lat="45.08787" lon="17.50545">
        <ele>94.41</ele>
        <time>2022-05-23T15:33:12.000Z</time>
      </trkpt>
      <trkpt lat="45.08813" lon="17.50559">
        <ele>96.42</ele>
        <time>2022-05-23T15:33:17.000Z</time>
      </trkpt>
      <trkpt lat="45.08839" lon="17.50573">
        <ele>95.88</ele>
        <time>2022-05-23T15:33:22.000Z</time>
      </trkpt>
      <trkpt lat="45.08865" lon="17.50589">
        <ele>95.44</ele>
        <time>2022-05-23T15:33:27.000Z</time>
      </trkpt>
      <trkpt lat="45.08892" lon="17.50605">
        <ele>95.2</ele>
        <time>2022-05-23T15:33:32.000Z</time>
      </trkpt>
      <trkpt lat="45.08921" lon="17.50618">
        <ele>93.95</ele>
        <time>2022-05-23T15:33:37.000Z</time>
      </trkpt>
      <trkpt lat="45.08951" lon="17.50629">
        <ele>93.37</ele>
        <time>2022-05-23T15:33:42.000Z</time>
      </trkpt>
      <trkpt lat="45.08981" lon="17.50636">
        <ele>92.17</ele>
        <time>2022-05-23T15:33:47.000Z</time>
      </trkpt>
      <trkpt lat="45.0901" lon="17.50646">
        <ele>91.43</ele>
        <time>2022-05-23T15:33:52.000Z</time>
      </trkpt>
      <trkpt lat="45.09041" lon="17.50653">
        <ele>90.3</ele>
        <time>2022-05-23T15:33:57.000Z</time>
      </trkpt>
      <trkpt lat="45.09069" lon="17.5066">
        <ele>90.02</ele>
        <time>2022-05-23T15:34:02.000Z</time>
      </trkpt>
      <trkpt lat="45.09096" lon="17.50666">
        <ele>89.36</ele>
        <time>2022-05-23T15:34:07.000Z</time>
      </trkpt>
      <trkpt lat="45.09126" lon="17.50674">
        <ele>88.57</ele>
        <time>2022-05-23T15:34:12.000Z</time>
      </trkpt>
      <trkpt lat="45.09156" lon="17.50681">
        <ele>87.61</ele>
        <time>2022-05-23T15:34:17.000Z</time>
      </trkpt>
      <trkpt lat="45.09188" lon="17.50691">
        <ele>90.92</ele>
        <time>2022-05-23T15:34:22.000Z</time>
      </trkpt>
      <trkpt lat="45.0922" lon="17.507">
        <ele>89.66</ele>
        <time>2022-05-23T15:34:27.000Z</time>
      </trkpt>
      <trkpt lat="45.09249" lon="17.50713">
        <ele>89.06</ele>
        <time>2022-05-23T15:34:32.000Z</time>
      </trkpt>
      <trkpt lat="45.09276" lon="17.50732">
        <ele>89.06</ele>
        <time>2022-05-23T15:34:37.000Z</time>
      </trkpt>
      <trkpt lat="45.09299" lon="17.50757">
        <ele>89.07</ele>
        <time>2022-05-23T15:34:42.000Z</time>
      </trkpt>
      <trkpt lat="45.09321" lon="17.50782">
        <ele>89.96</ele>
        <time>2022-05-23T15:34:47.000Z</time>
      </trkpt>
      <trkpt lat="45.09342" lon="17.50808">
        <ele>90.45</ele>
        <time>2022-05-23T15:34:52.000Z</time>
      </trkpt>
      <trkpt lat="45.09364" lon="17.50833">
        <ele>91.78</ele>
        <time>2022-05-23T15:34:57.000Z</time>
      </trkpt>
      <trkpt lat="45.09386" lon="17.50858">
        <ele>92.96</ele>
        <time>2022-05-23T15:35:02.000Z</time>
      </trkpt>
      <trkpt lat="45.09406" lon="17.50882">
        <ele>94.05</ele>
        <time>2022-05-23T15:35:07.000Z</time>
      </trkpt>
      <trkpt lat="45.09427" lon="17.50905">
        <ele>95.05</ele>
        <time>2022-05-23T15:35:12.000Z</time>
      </trkpt>
      <trkpt lat="45.09448" lon="17.50929">
        <ele>96.84</ele>
        <time>2022-05-23T15:35:17.000Z</time>
      </trkpt>
      <trkpt lat="45.09468" lon="17.50953">
        <ele>98.23</ele>
        <time>2022-05-23T15:35:22.000Z</time>
      </trkpt>
      <trkpt lat="45.09488" lon="17.50977">
        <ele>100.22</ele>
        <time>2022-05-23T15:35:27.000Z</time>
      </trkpt>
      <trkpt lat="45.09509" lon="17.51001">
        <ele>101.5</ele>
        <time>2022-05-23T15:35:32.000Z</time>
      </trkpt>
      <trkpt lat="45.09529" lon="17.51024">
        <ele>101.54</ele>
        <time>2022-05-23T15:35:37.000Z</time>
      </trkpt>
      <trkpt lat="45.09548" lon="17.51049">
        <ele>101.09</ele>
        <time>2022-05-23T15:35:42.000Z</time>
      </trkpt>
      <trkpt lat="45.09569" lon="17.51077">
        <ele>99.6</ele>
        <time>2022-05-23T15:35:47.000Z</time>
      </trkpt>
      <trkpt lat="45.09588" lon="17.51104">
        <ele>98.41</ele>
        <time>2022-05-23T15:35:52.000Z</time>
      </trkpt>
      <trkpt lat="45.09606" lon="17.51132">
        <ele>98</ele>
        <time>2022-05-23T15:35:57.000Z</time>
      </trkpt>
      <trkpt lat="45.09623" lon="17.51164">
        <ele>97.06</ele>
        <time>2022-05-23T15:36:02.000Z</time>
      </trkpt>
      <trkpt lat="45.0964" lon="17.51193">
        <ele>97.19</ele>
        <time>2022-05-23T15:36:07.000Z</time>
      </trkpt>
      <trkpt lat="45.09656" lon="17.51225">
        <ele>97.91</ele>
        <time>2022-05-23T15:36:12.000Z</time>
      </trkpt>
      <trkpt lat="45.09669" lon="17.51258">
        <ele>98.1</ele>
        <time>2022-05-23T15:36:17.000Z</time>
      </trkpt>
      <trkpt lat="45.0968" lon="17.51287">
        <ele>97.42</ele>
        <time>2022-05-23T15:36:22.000Z</time>
      </trkpt>
      <trkpt lat="45.09688" lon="17.5132">
        <ele>95.11</ele>
        <time>2022-05-23T15:36:27.000Z</time>
      </trkpt>
      <trkpt lat="45.09696" lon="17.51354">
        <ele>93.53</ele>
        <time>2022-05-23T15:36:32.000Z</time>
      </trkpt>
      <trkpt lat="45.09701" lon="17.51387">
        <ele>92.96</ele>
        <time>2022-05-23T15:36:37.000Z</time>
      </trkpt>
      <trkpt lat="45.09707" lon="17.51417">
        <ele>92.02</ele>
        <time>2022-05-23T15:36:42.000Z</time>
      </trkpt>
      <trkpt lat="45.09713" lon="17.51449">
        <ele>90.76</ele>
        <time>2022-05-23T15:36:47.000Z</time>
      </trkpt>
      <trkpt lat="45.09717" lon="17.51478">
        <ele>90.57</ele>
        <time>2022-05-23T15:36:52.000Z</time>
      </trkpt>
      <trkpt lat="45.09721" lon="17.51503">
        <ele>88.55</ele>
        <time>2022-05-23T15:36:57.000Z</time>
      </trkpt>
      <trkpt lat="45.0972" lon="17.51516">
        <ele>88.35</ele>
        <time>2022-05-23T15:37:42.000Z</time>
      </trkpt>
      <trkpt lat="45.09711" lon="17.51535">
        <ele>89.08</ele>
        <time>2022-05-23T15:37:47.000Z</time>
      </trkpt>
      <trkpt lat="45.09697" lon="17.51542">
        <ele>89.4</ele>
        <time>2022-05-23T15:37:52.000Z</time>
      </trkpt>
      <trkpt lat="45.09685" lon="17.51547">
        <ele>90.5</ele>
        <time>2022-05-23T15:38:19.000Z</time>
      </trkpt>
      <trkpt lat="45.09693" lon="17.51556">
        <ele>88.85</ele>
        <time>2022-05-23T15:38:27.000Z</time>
      </trkpt>
      <trkpt lat="45.09703" lon="17.51548">
        <ele>87.76</ele>
        <time>2022-05-23T15:38:32.000Z</time>
      </trkpt>
      <trkpt lat="45.09717" lon="17.51543">
        <ele>87.06</ele>
        <time>2022-05-23T15:38:37.000Z</time>
      </trkpt>
      <trkpt lat="45.09731" lon="17.51553">
        <ele>87.35</ele>
        <time>2022-05-23T15:38:42.000Z</time>
      </trkpt>
      <trkpt lat="45.09736" lon="17.51572">
        <ele>87.03</ele>
        <time>2022-05-23T15:38:47.000Z</time>
      </trkpt>
      <trkpt lat="45.09737" lon="17.51586">
        <ele>87.27</ele>
        <time>2022-05-23T15:38:52.000Z</time>
      </trkpt>
      <trkpt lat="45.09735" lon="17.51571">
        <ele>88.5</ele>
        <time>2022-05-23T15:39:37.000Z</time>
      </trkpt>
      <trkpt lat="45.09729" lon="17.51551">
        <ele>88.79</ele>
        <time>2022-05-23T15:39:42.000Z</time>
      </trkpt>
      <trkpt lat="45.09713" lon="17.51549">
        <ele>89.29</ele>
        <time>2022-05-23T15:39:47.000Z</time>
      </trkpt>
      <trkpt lat="45.09697" lon="17.51557">
        <ele>89.4</ele>
        <time>2022-05-23T15:39:52.000Z</time>
      </trkpt>
      <trkpt lat="45.09686" lon="17.5157">
        <ele>89.2</ele>
        <time>2022-05-23T15:39:57.000Z</time>
      </trkpt>
      <trkpt lat="45.09676" lon="17.51583">
        <ele>88.93</ele>
        <time>2022-05-23T15:40:02.000Z</time>
      </trkpt>
      <trkpt lat="45.09664" lon="17.51591">
        <ele>88.7</ele>
        <time>2022-05-23T15:40:07.000Z</time>
      </trkpt>
      <trkpt lat="45.09653" lon="17.51594">
        <ele>87.87</ele>
        <time>2022-05-23T15:40:27.000Z</time>
      </trkpt>
      <trkpt lat="45.09662" lon="17.51587">
        <ele>88.8</ele>
        <time>2022-05-23T15:40:42.000Z</time>
      </trkpt>
      <trkpt lat="45.09673" lon="17.51592">
        <ele>88.97</ele>
        <time>2022-05-23T15:40:47.000Z</time>
      </trkpt>
      <trkpt lat="45.09685" lon="17.51599">
        <ele>88.9</ele>
        <time>2022-05-23T15:40:52.000Z</time>
      </trkpt>
      <trkpt lat="45.09694" lon="17.51597">
        <ele>89.5</ele>
        <time>2022-05-23T15:40:58.000Z</time>
      </trkpt>
      <trkpt lat="45.09703" lon="17.51603">
        <ele>89.72</ele>
        <time>2022-05-23T15:41:03.000Z</time>
      </trkpt>
      <trkpt lat="45.09692" lon="17.516">
        <ele>93.86</ele>
        <time>2022-05-23T15:41:52.000Z</time>
      </trkpt>
      <trkpt lat="45.09678" lon="17.51607">
        <ele>93.65</ele>
        <time>2022-05-23T15:41:57.000Z</time>
      </trkpt>
      <trkpt lat="45.09672" lon="17.51594">
        <ele>93.23</ele>
        <time>2022-05-23T15:42:02.000Z</time>
      </trkpt>
      <trkpt lat="45.09664" lon="17.51588">
        <ele>91.91</ele>
        <time>2022-05-23T15:42:10.000Z</time>
      </trkpt>
      <trkpt lat="45.09651" lon="17.51596">
        <ele>91.82</ele>
        <time>2022-05-23T15:42:15.000Z</time>
      </trkpt>
      <trkpt lat="45.09638" lon="17.51614">
        <ele>91.8</ele>
        <time>2022-05-23T15:42:20.000Z</time>
      </trkpt>
      <trkpt lat="45.09626" lon="17.51629">
        <ele>91.6</ele>
        <time>2022-05-23T15:42:25.000Z</time>
      </trkpt>
      <trkpt lat="45.09616" lon="17.5164">
        <ele>90.84</ele>
        <time>2022-05-23T15:42:30.000Z</time>
      </trkpt>
      <trkpt lat="45.09607" lon="17.51644">
        <ele>92.82</ele>
        <time>2022-05-23T15:42:56.000Z</time>
      </trkpt>
      <trkpt lat="45.09598" lon="17.51636">
        <ele>92.41</ele>
        <time>2022-05-23T15:43:01.000Z</time>
      </trkpt>
      <trkpt lat="45.09585" lon="17.51622">
        <ele>92.3</ele>
        <time>2022-05-23T15:43:47.000Z</time>
      </trkpt>
      <trkpt lat="45.09571" lon="17.51626">
        <ele>72.18</ele>
        <time>2022-05-23T15:44:19.000Z</time>
      </trkpt>
      <trkpt lat="45.09588" lon="17.5162">
        <ele>71.64</ele>
        <time>2022-05-23T15:44:24.000Z</time>
      </trkpt>
      <trkpt lat="45.09593" lon="17.51609">
        <ele>90.36</ele>
        <time>2022-05-23T15:44:33.000Z</time>
      </trkpt>
      <trkpt lat="45.09596" lon="17.51594">
        <ele>91.4</ele>
        <time>2022-05-23T15:44:49.000Z</time>
      </trkpt>
      <trkpt lat="45.09579" lon="17.51608">
        <ele>42.31</ele>
        <time>2022-05-23T15:45:36.000Z</time>
      </trkpt>
      <trkpt lat="45.09576" lon="17.51596">
        <ele>64.82</ele>
        <time>2022-05-23T15:45:51.000Z</time>
      </trkpt>
      <trkpt lat="45.09564" lon="17.51594">
        <ele>64.14</ele>
        <time>2022-05-23T15:45:56.000Z</time>
      </trkpt>
      <trkpt lat="45.09579" lon="17.51603">
        <ele>66.67</ele>
        <time>2022-05-23T15:46:20.000Z</time>
      </trkpt>
      <trkpt lat="45.0957" lon="17.51602">
        <ele>69</ele>
        <time>2022-05-23T15:47:04.000Z</time>
      </trkpt>
      <trkpt lat="45.09573" lon="17.51615">
        <ele>69.67</ele>
        <time>2022-05-23T15:47:21.000Z</time>
      </trkpt>
      <trkpt lat="45.09583" lon="17.51618">
        <ele>69.97</ele>
        <time>2022-05-23T15:47:28.000Z</time>
      </trkpt>
      <trkpt lat="45.08762" lon="17.50972">
        <ele>61.63</ele>
        <time>2022-05-23T15:53:25.000Z</time>
      </trkpt>
    </trkseg>
  </trk>
</gpx>